<?xml version="1.0" encoding="UTF-8" standalone="no" ?>
<gpx xmlns="http://www.topografix.com/GPX/1/1" xmlns:xsi="http://www.w3.org/2001/XMLSchema-instance" xsi:schemaLocation="http://www.topografix.com/GPX/1/1 http://www.topografix.com/GPX/1/1/gpx.xsd" version="1.1" creator="VisuGPX - https://www.visugpx.com">
  <metadata>
    <name>Jour 19 - Le Chemin Sauvage</name>
  </metadata>
  <trk>
    <name><![CDATA[2026-05-20 16:36:58]]></name>
    <trkseg>
      <trkpt lat="44.35797" lon="1.7236">
        <ele>327.95</ele>
        <time>2026-05-20T03:55:49Z</time>
      </trkpt>
      <trkpt lat="44.35795" lon="1.7236">
        <ele>327.95</ele>
        <time>2026-05-20T03:56:06Z</time>
      </trkpt>
      <trkpt lat="44.35791" lon="1.72366">
        <ele>327.47</ele>
        <time>2026-05-20T03:56:19Z</time>
      </trkpt>
      <trkpt lat="44.35772" lon="1.7238">
        <ele>327.47</ele>
        <time>2026-05-20T03:56:36Z</time>
      </trkpt>
      <trkpt lat="44.35767" lon="1.72383">
        <ele>326.02</ele>
        <time>2026-05-20T03:56:44Z</time>
      </trkpt>
      <trkpt lat="44.35763" lon="1.72393">
        <ele>326.02</ele>
        <time>2026-05-20T03:56:52Z</time>
      </trkpt>
      <trkpt lat="44.35756" lon="1.72416">
        <ele>325.54</ele>
        <time>2026-05-20T03:57:08Z</time>
      </trkpt>
      <trkpt lat="44.35748" lon="1.72439">
        <ele>325.06</ele>
        <time>2026-05-20T03:57:23Z</time>
      </trkpt>
      <trkpt lat="44.35743" lon="1.72457">
        <ele>324.58</ele>
        <time>2026-05-20T03:57:36Z</time>
      </trkpt>
      <trkpt lat="44.35742" lon="1.72461">
        <ele>324.58</ele>
        <time>2026-05-20T03:57:51Z</time>
      </trkpt>
      <trkpt lat="44.3574" lon="1.72461">
        <ele>324.58</ele>
        <time>2026-05-20T03:57:58Z</time>
      </trkpt>
      <trkpt lat="44.35739" lon="1.72462">
        <ele>324.58</ele>
        <time>2026-05-20T03:58:01Z</time>
      </trkpt>
      <trkpt lat="44.35738" lon="1.72465">
        <ele>324.58</ele>
        <time>2026-05-20T03:58:05Z</time>
      </trkpt>
      <trkpt lat="44.35735" lon="1.72462">
        <ele>324.58</ele>
        <time>2026-05-20T03:58:16Z</time>
      </trkpt>
      <trkpt lat="44.35736" lon="1.72463">
        <ele>326.02</ele>
        <time>2026-05-20T03:58:29Z</time>
      </trkpt>
      <trkpt lat="44.35735" lon="1.72467">
        <ele>326.02</ele>
        <time>2026-05-20T03:58:42Z</time>
      </trkpt>
      <trkpt lat="44.35727" lon="1.72476">
        <ele>326.02</ele>
        <time>2026-05-20T03:58:53Z</time>
      </trkpt>
      <trkpt lat="44.35725" lon="1.72477">
        <ele>326.99</ele>
        <time>2026-05-20T03:58:55Z</time>
      </trkpt>
      <trkpt lat="44.35716" lon="1.72484">
        <ele>326.99</ele>
        <time>2026-05-20T03:59:08Z</time>
      </trkpt>
      <trkpt lat="44.35697" lon="1.72488">
        <ele>327.47</ele>
        <time>2026-05-20T03:59:20Z</time>
      </trkpt>
      <trkpt lat="44.35691" lon="1.7249">
        <ele>327.95</ele>
        <time>2026-05-20T03:59:26Z</time>
      </trkpt>
      <trkpt lat="44.3569" lon="1.7249">
        <ele>327.95</ele>
        <time>2026-05-20T03:59:27Z</time>
      </trkpt>
      <trkpt lat="44.35688" lon="1.72491">
        <ele>327.95</ele>
        <time>2026-05-20T03:59:28Z</time>
      </trkpt>
      <trkpt lat="44.35675" lon="1.72497">
        <ele>328.91</ele>
        <time>2026-05-20T03:59:40Z</time>
      </trkpt>
      <trkpt lat="44.35661" lon="1.72505">
        <ele>329.87</ele>
        <time>2026-05-20T03:59:52Z</time>
      </trkpt>
      <trkpt lat="44.3565" lon="1.72516">
        <ele>331.31</ele>
        <time>2026-05-20T04:00:05Z</time>
      </trkpt>
      <trkpt lat="44.35642" lon="1.72525">
        <ele>331.79</ele>
        <time>2026-05-20T04:00:13Z</time>
      </trkpt>
      <trkpt lat="44.35641" lon="1.72526">
        <ele>331.79</ele>
        <time>2026-05-20T04:00:14Z</time>
      </trkpt>
      <trkpt lat="44.3564" lon="1.72528">
        <ele>331.79</ele>
        <time>2026-05-20T04:00:15Z</time>
      </trkpt>
      <trkpt lat="44.35639" lon="1.72533">
        <ele>332.27</ele>
        <time>2026-05-20T04:00:19Z</time>
      </trkpt>
      <trkpt lat="44.35638" lon="1.72535">
        <ele>332.27</ele>
        <time>2026-05-20T04:00:20Z</time>
      </trkpt>
      <trkpt lat="44.35637" lon="1.72537">
        <ele>332.27</ele>
        <time>2026-05-20T04:00:21Z</time>
      </trkpt>
      <trkpt lat="44.35636" lon="1.72539">
        <ele>332.27</ele>
        <time>2026-05-20T04:00:22Z</time>
      </trkpt>
      <trkpt lat="44.35635" lon="1.72541">
        <ele>332.27</ele>
        <time>2026-05-20T04:00:23Z</time>
      </trkpt>
      <trkpt lat="44.35633" lon="1.72544">
        <ele>332.27</ele>
        <time>2026-05-20T04:00:26Z</time>
      </trkpt>
      <trkpt lat="44.35632" lon="1.72546">
        <ele>332.27</ele>
        <time>2026-05-20T04:00:27Z</time>
      </trkpt>
      <trkpt lat="44.35623" lon="1.72565">
        <ele>332.75</ele>
        <time>2026-05-20T04:00:39Z</time>
      </trkpt>
      <trkpt lat="44.35621" lon="1.72569">
        <ele>333.23</ele>
        <time>2026-05-20T04:00:43Z</time>
      </trkpt>
      <trkpt lat="44.3562" lon="1.72571">
        <ele>333.23</ele>
        <time>2026-05-20T04:00:44Z</time>
      </trkpt>
      <trkpt lat="44.35619" lon="1.72572">
        <ele>333.23</ele>
        <time>2026-05-20T04:00:45Z</time>
      </trkpt>
      <trkpt lat="44.35618" lon="1.72574">
        <ele>333.23</ele>
        <time>2026-05-20T04:00:46Z</time>
      </trkpt>
      <trkpt lat="44.35617" lon="1.72576">
        <ele>333.23</ele>
        <time>2026-05-20T04:00:47Z</time>
      </trkpt>
      <trkpt lat="44.35616" lon="1.72578">
        <ele>333.23</ele>
        <time>2026-05-20T04:00:48Z</time>
      </trkpt>
      <trkpt lat="44.35615" lon="1.72582">
        <ele>333.23</ele>
        <time>2026-05-20T04:00:52Z</time>
      </trkpt>
      <trkpt lat="44.3561" lon="1.72594">
        <ele>333.71</ele>
        <time>2026-05-20T04:01:00Z</time>
      </trkpt>
      <trkpt lat="44.35609" lon="1.72595">
        <ele>333.71</ele>
        <time>2026-05-20T04:01:01Z</time>
      </trkpt>
      <trkpt lat="44.35608" lon="1.72597">
        <ele>333.71</ele>
        <time>2026-05-20T04:01:02Z</time>
      </trkpt>
      <trkpt lat="44.35596" lon="1.72612">
        <ele>334.2</ele>
        <time>2026-05-20T04:01:14Z</time>
      </trkpt>
      <trkpt lat="44.35586" lon="1.72628">
        <ele>334.68</ele>
        <time>2026-05-20T04:01:27Z</time>
      </trkpt>
      <trkpt lat="44.35572" lon="1.72646">
        <ele>334.68</ele>
        <time>2026-05-20T04:01:40Z</time>
      </trkpt>
      <trkpt lat="44.35563" lon="1.72661">
        <ele>334.68</ele>
        <time>2026-05-20T04:01:52Z</time>
      </trkpt>
      <trkpt lat="44.35557" lon="1.7268">
        <ele>334.68</ele>
        <time>2026-05-20T04:02:03Z</time>
      </trkpt>
      <trkpt lat="44.35554" lon="1.727">
        <ele>336.12</ele>
        <time>2026-05-20T04:02:14Z</time>
      </trkpt>
      <trkpt lat="44.35551" lon="1.72721">
        <ele>336.12</ele>
        <time>2026-05-20T04:02:28Z</time>
      </trkpt>
      <trkpt lat="44.35548" lon="1.72747">
        <ele>337.56</ele>
        <time>2026-05-20T04:02:43Z</time>
      </trkpt>
      <trkpt lat="44.35543" lon="1.72774">
        <ele>339</ele>
        <time>2026-05-20T04:03:00Z</time>
      </trkpt>
      <trkpt lat="44.35536" lon="1.72801">
        <ele>341.41</ele>
        <time>2026-05-20T04:03:17Z</time>
      </trkpt>
      <trkpt lat="44.35525" lon="1.72826">
        <ele>343.33</ele>
        <time>2026-05-20T04:03:34Z</time>
      </trkpt>
      <trkpt lat="44.35524" lon="1.72827">
        <ele>343.33</ele>
        <time>2026-05-20T04:03:35Z</time>
      </trkpt>
      <trkpt lat="44.35513" lon="1.72841">
        <ele>344.29</ele>
        <time>2026-05-20T04:03:48Z</time>
      </trkpt>
      <trkpt lat="44.35497" lon="1.7286">
        <ele>345.25</ele>
        <time>2026-05-20T04:04:02Z</time>
      </trkpt>
      <trkpt lat="44.35495" lon="1.72862">
        <ele>345.25</ele>
        <time>2026-05-20T04:04:05Z</time>
      </trkpt>
      <trkpt lat="44.35494" lon="1.72863">
        <ele>345.25</ele>
        <time>2026-05-20T04:04:06Z</time>
      </trkpt>
      <trkpt lat="44.35488" lon="1.72871">
        <ele>345.25</ele>
        <time>2026-05-20T04:04:13Z</time>
      </trkpt>
      <trkpt lat="44.35486" lon="1.72872">
        <ele>345.25</ele>
        <time>2026-05-20T04:04:14Z</time>
      </trkpt>
      <trkpt lat="44.3548" lon="1.72879">
        <ele>346.21</ele>
        <time>2026-05-20T04:04:22Z</time>
      </trkpt>
      <trkpt lat="44.35479" lon="1.7288">
        <ele>346.69</ele>
        <time>2026-05-20T04:04:23Z</time>
      </trkpt>
      <trkpt lat="44.35478" lon="1.72881">
        <ele>347.17</ele>
        <time>2026-05-20T04:04:24Z</time>
      </trkpt>
      <trkpt lat="44.35467" lon="1.72892">
        <ele>347.17</ele>
        <time>2026-05-20T04:04:35Z</time>
      </trkpt>
      <trkpt lat="44.3545" lon="1.72905">
        <ele>349.1</ele>
        <time>2026-05-20T04:04:51Z</time>
      </trkpt>
      <trkpt lat="44.35441" lon="1.72917">
        <ele>350.06</ele>
        <time>2026-05-20T04:05:03Z</time>
      </trkpt>
      <trkpt lat="44.35428" lon="1.72932">
        <ele>351.5</ele>
        <time>2026-05-20T04:05:16Z</time>
      </trkpt>
      <trkpt lat="44.35417" lon="1.72947">
        <ele>352.46</ele>
        <time>2026-05-20T04:05:28Z</time>
      </trkpt>
      <trkpt lat="44.35416" lon="1.72949">
        <ele>352.46</ele>
        <time>2026-05-20T04:05:31Z</time>
      </trkpt>
      <trkpt lat="44.35415" lon="1.7295">
        <ele>353.42</ele>
        <time>2026-05-20T04:05:32Z</time>
      </trkpt>
      <trkpt lat="44.35414" lon="1.72952">
        <ele>353.42</ele>
        <time>2026-05-20T04:05:33Z</time>
      </trkpt>
      <trkpt lat="44.35414" lon="1.72953">
        <ele>353.42</ele>
        <time>2026-05-20T04:05:34Z</time>
      </trkpt>
      <trkpt lat="44.35412" lon="1.72955">
        <ele>353.42</ele>
        <time>2026-05-20T04:05:35Z</time>
      </trkpt>
      <trkpt lat="44.35411" lon="1.7296">
        <ele>353.9</ele>
        <time>2026-05-20T04:05:40Z</time>
      </trkpt>
      <trkpt lat="44.3541" lon="1.72962">
        <ele>353.9</ele>
        <time>2026-05-20T04:05:41Z</time>
      </trkpt>
      <trkpt lat="44.35409" lon="1.72963">
        <ele>354.38</ele>
        <time>2026-05-20T04:05:42Z</time>
      </trkpt>
      <trkpt lat="44.35408" lon="1.72964">
        <ele>354.38</ele>
        <time>2026-05-20T04:05:43Z</time>
      </trkpt>
      <trkpt lat="44.35407" lon="1.72966">
        <ele>354.38</ele>
        <time>2026-05-20T04:05:44Z</time>
      </trkpt>
      <trkpt lat="44.35405" lon="1.72968">
        <ele>354.38</ele>
        <time>2026-05-20T04:05:45Z</time>
      </trkpt>
      <trkpt lat="44.35404" lon="1.72969">
        <ele>354.38</ele>
        <time>2026-05-20T04:05:46Z</time>
      </trkpt>
      <trkpt lat="44.3539" lon="1.72982">
        <ele>355.34</ele>
        <time>2026-05-20T04:05:58Z</time>
      </trkpt>
      <trkpt lat="44.35384" lon="1.72995">
        <ele>356.31</ele>
        <time>2026-05-20T04:06:10Z</time>
      </trkpt>
      <trkpt lat="44.35383" lon="1.72997">
        <ele>356.31</ele>
        <time>2026-05-20T04:06:11Z</time>
      </trkpt>
      <trkpt lat="44.35376" lon="1.73005">
        <ele>356.79</ele>
        <time>2026-05-20T04:06:19Z</time>
      </trkpt>
      <trkpt lat="44.35374" lon="1.73007">
        <ele>356.79</ele>
        <time>2026-05-20T04:06:20Z</time>
      </trkpt>
      <trkpt lat="44.35373" lon="1.73008">
        <ele>356.79</ele>
        <time>2026-05-20T04:06:21Z</time>
      </trkpt>
      <trkpt lat="44.35372" lon="1.7301">
        <ele>356.79</ele>
        <time>2026-05-20T04:06:22Z</time>
      </trkpt>
      <trkpt lat="44.35371" lon="1.73012">
        <ele>356.79</ele>
        <time>2026-05-20T04:06:23Z</time>
      </trkpt>
      <trkpt lat="44.35361" lon="1.73022">
        <ele>357.75</ele>
        <time>2026-05-20T04:06:33Z</time>
      </trkpt>
      <trkpt lat="44.35348" lon="1.73034">
        <ele>358.23</ele>
        <time>2026-05-20T04:06:46Z</time>
      </trkpt>
      <trkpt lat="44.35347" lon="1.73036">
        <ele>358.71</ele>
        <time>2026-05-20T04:06:49Z</time>
      </trkpt>
      <trkpt lat="44.35346" lon="1.73038">
        <ele>359.19</ele>
        <time>2026-05-20T04:06:50Z</time>
      </trkpt>
      <trkpt lat="44.35337" lon="1.73053">
        <ele>359.67</ele>
        <time>2026-05-20T04:07:02Z</time>
      </trkpt>
      <trkpt lat="44.35332" lon="1.73063">
        <ele>360.15</ele>
        <time>2026-05-20T04:07:09Z</time>
      </trkpt>
      <trkpt lat="44.35332" lon="1.73065">
        <ele>360.15</ele>
        <time>2026-05-20T04:07:10Z</time>
      </trkpt>
      <trkpt lat="44.35331" lon="1.73066">
        <ele>360.15</ele>
        <time>2026-05-20T04:07:11Z</time>
      </trkpt>
      <trkpt lat="44.3533" lon="1.73068">
        <ele>360.63</ele>
        <time>2026-05-20T04:07:12Z</time>
      </trkpt>
      <trkpt lat="44.35329" lon="1.7307">
        <ele>360.63</ele>
        <time>2026-05-20T04:07:13Z</time>
      </trkpt>
      <trkpt lat="44.35328" lon="1.73072">
        <ele>360.63</ele>
        <time>2026-05-20T04:07:14Z</time>
      </trkpt>
      <trkpt lat="44.35327" lon="1.73074">
        <ele>360.63</ele>
        <time>2026-05-20T04:07:15Z</time>
      </trkpt>
      <trkpt lat="44.35325" lon="1.73079">
        <ele>360.63</ele>
        <time>2026-05-20T04:07:20Z</time>
      </trkpt>
      <trkpt lat="44.35324" lon="1.73081">
        <ele>360.63</ele>
        <time>2026-05-20T04:07:21Z</time>
      </trkpt>
      <trkpt lat="44.35324" lon="1.73083">
        <ele>360.63</ele>
        <time>2026-05-20T04:07:22Z</time>
      </trkpt>
      <trkpt lat="44.35318" lon="1.73091">
        <ele>361.11</ele>
        <time>2026-05-20T04:07:29Z</time>
      </trkpt>
      <trkpt lat="44.35317" lon="1.73092">
        <ele>361.11</ele>
        <time>2026-05-20T04:07:30Z</time>
      </trkpt>
      <trkpt lat="44.35316" lon="1.73094">
        <ele>361.11</ele>
        <time>2026-05-20T04:07:31Z</time>
      </trkpt>
      <trkpt lat="44.35315" lon="1.73095">
        <ele>361.59</ele>
        <time>2026-05-20T04:07:32Z</time>
      </trkpt>
      <trkpt lat="44.35313" lon="1.73096">
        <ele>361.59</ele>
        <time>2026-05-20T04:07:33Z</time>
      </trkpt>
      <trkpt lat="44.35297" lon="1.731">
        <ele>363.04</ele>
        <time>2026-05-20T04:07:46Z</time>
      </trkpt>
      <trkpt lat="44.35293" lon="1.73101">
        <ele>363.04</ele>
        <time>2026-05-20T04:07:51Z</time>
      </trkpt>
      <trkpt lat="44.35292" lon="1.73102">
        <ele>363.04</ele>
        <time>2026-05-20T04:07:52Z</time>
      </trkpt>
      <trkpt lat="44.35273" lon="1.73107">
        <ele>364.48</ele>
        <time>2026-05-20T04:08:08Z</time>
      </trkpt>
      <trkpt lat="44.35253" lon="1.73105">
        <ele>366.4</ele>
        <time>2026-05-20T04:08:27Z</time>
      </trkpt>
      <trkpt lat="44.35233" lon="1.73106">
        <ele>367.36</ele>
        <time>2026-05-20T04:08:43Z</time>
      </trkpt>
      <trkpt lat="44.35212" lon="1.73111">
        <ele>368.8</ele>
        <time>2026-05-20T04:09:00Z</time>
      </trkpt>
      <trkpt lat="44.35208" lon="1.73111">
        <ele>369.76</ele>
        <time>2026-05-20T04:09:03Z</time>
      </trkpt>
      <trkpt lat="44.35207" lon="1.73111">
        <ele>369.76</ele>
        <time>2026-05-20T04:09:04Z</time>
      </trkpt>
      <trkpt lat="44.35183" lon="1.73124">
        <ele>371.21</ele>
        <time>2026-05-20T04:09:23Z</time>
      </trkpt>
      <trkpt lat="44.3516" lon="1.73138">
        <ele>372.65</ele>
        <time>2026-05-20T04:09:41Z</time>
      </trkpt>
      <trkpt lat="44.35156" lon="1.73145">
        <ele>373.13</ele>
        <time>2026-05-20T04:09:46Z</time>
      </trkpt>
      <trkpt lat="44.35155" lon="1.73146">
        <ele>373.13</ele>
        <time>2026-05-20T04:09:47Z</time>
      </trkpt>
      <trkpt lat="44.35154" lon="1.73147">
        <ele>373.13</ele>
        <time>2026-05-20T04:09:48Z</time>
      </trkpt>
      <trkpt lat="44.35141" lon="1.73161">
        <ele>374.09</ele>
        <time>2026-05-20T04:10:02Z</time>
      </trkpt>
      <trkpt lat="44.35132" lon="1.73164">
        <ele>374.57</ele>
        <time>2026-05-20T04:10:10Z</time>
      </trkpt>
      <trkpt lat="44.35131" lon="1.73164">
        <ele>374.57</ele>
        <time>2026-05-20T04:10:11Z</time>
      </trkpt>
      <trkpt lat="44.35116" lon="1.73166">
        <ele>375.05</ele>
        <time>2026-05-20T04:10:24Z</time>
      </trkpt>
      <trkpt lat="44.35112" lon="1.73167">
        <ele>375.05</ele>
        <time>2026-05-20T04:10:28Z</time>
      </trkpt>
      <trkpt lat="44.35111" lon="1.73168">
        <ele>375.05</ele>
        <time>2026-05-20T04:10:29Z</time>
      </trkpt>
      <trkpt lat="44.35093" lon="1.73174">
        <ele>376.01</ele>
        <time>2026-05-20T04:10:43Z</time>
      </trkpt>
      <trkpt lat="44.35091" lon="1.73174">
        <ele>376.01</ele>
        <time>2026-05-20T04:10:44Z</time>
      </trkpt>
      <trkpt lat="44.35081" lon="1.73172">
        <ele>376.01</ele>
        <time>2026-05-20T04:10:53Z</time>
      </trkpt>
      <trkpt lat="44.35076" lon="1.73172">
        <ele>376.49</ele>
        <time>2026-05-20T04:10:56Z</time>
      </trkpt>
      <trkpt lat="44.35075" lon="1.73172">
        <ele>376.49</ele>
        <time>2026-05-20T04:10:57Z</time>
      </trkpt>
      <trkpt lat="44.35063" lon="1.73182">
        <ele>376.49</ele>
        <time>2026-05-20T04:11:07Z</time>
      </trkpt>
      <trkpt lat="44.35045" lon="1.7319">
        <ele>376.49</ele>
        <time>2026-05-20T04:11:21Z</time>
      </trkpt>
      <trkpt lat="44.35043" lon="1.7319">
        <ele>376.49</ele>
        <time>2026-05-20T04:11:23Z</time>
      </trkpt>
      <trkpt lat="44.35041" lon="1.7319">
        <ele>376.49</ele>
        <time>2026-05-20T04:11:24Z</time>
      </trkpt>
      <trkpt lat="44.35025" lon="1.73197">
        <ele>375.05</ele>
        <time>2026-05-20T04:11:38Z</time>
      </trkpt>
      <trkpt lat="44.35005" lon="1.73211">
        <ele>374.09</ele>
        <time>2026-05-20T04:11:54Z</time>
      </trkpt>
      <trkpt lat="44.35001" lon="1.73216">
        <ele>373.61</ele>
        <time>2026-05-20T04:12:00Z</time>
      </trkpt>
      <trkpt lat="44.35" lon="1.73217">
        <ele>373.61</ele>
        <time>2026-05-20T04:12:01Z</time>
      </trkpt>
      <trkpt lat="44.34985" lon="1.7323">
        <ele>373.61</ele>
        <time>2026-05-20T04:12:14Z</time>
      </trkpt>
      <trkpt lat="44.34981" lon="1.73233">
        <ele>372.65</ele>
        <time>2026-05-20T04:12:18Z</time>
      </trkpt>
      <trkpt lat="44.34963" lon="1.73244">
        <ele>371.69</ele>
        <time>2026-05-20T04:12:33Z</time>
      </trkpt>
      <trkpt lat="44.34947" lon="1.7325">
        <ele>371.21</ele>
        <time>2026-05-20T04:12:47Z</time>
      </trkpt>
      <trkpt lat="44.34928" lon="1.7326">
        <ele>370.73</ele>
        <time>2026-05-20T04:13:04Z</time>
      </trkpt>
      <trkpt lat="44.34913" lon="1.73269">
        <ele>370.24</ele>
        <time>2026-05-20T04:13:19Z</time>
      </trkpt>
      <trkpt lat="44.34893" lon="1.73276">
        <ele>369.76</ele>
        <time>2026-05-20T04:13:35Z</time>
      </trkpt>
      <trkpt lat="44.34886" lon="1.73284">
        <ele>369.28</ele>
        <time>2026-05-20T04:13:40Z</time>
      </trkpt>
      <trkpt lat="44.34877" lon="1.73287">
        <ele>370.73</ele>
        <time>2026-05-20T04:13:47Z</time>
      </trkpt>
      <trkpt lat="44.34854" lon="1.73294">
        <ele>369.28</ele>
        <time>2026-05-20T04:14:03Z</time>
      </trkpt>
      <trkpt lat="44.34853" lon="1.73294">
        <ele>369.28</ele>
        <time>2026-05-20T04:14:04Z</time>
      </trkpt>
      <trkpt lat="44.34836" lon="1.73297">
        <ele>369.28</ele>
        <time>2026-05-20T04:14:19Z</time>
      </trkpt>
      <trkpt lat="44.34812" lon="1.733">
        <ele>369.28</ele>
        <time>2026-05-20T04:14:36Z</time>
      </trkpt>
      <trkpt lat="44.34799" lon="1.73303">
        <ele>369.28</ele>
        <time>2026-05-20T04:14:47Z</time>
      </trkpt>
      <trkpt lat="44.34798" lon="1.73303">
        <ele>369.28</ele>
        <time>2026-05-20T04:14:48Z</time>
      </trkpt>
      <trkpt lat="44.34785" lon="1.73312">
        <ele>369.28</ele>
        <time>2026-05-20T04:15:00Z</time>
      </trkpt>
      <trkpt lat="44.34781" lon="1.73314">
        <ele>370.73</ele>
        <time>2026-05-20T04:15:03Z</time>
      </trkpt>
      <trkpt lat="44.34759" lon="1.73322">
        <ele>371.69</ele>
        <time>2026-05-20T04:15:21Z</time>
      </trkpt>
      <trkpt lat="44.34741" lon="1.73328">
        <ele>372.17</ele>
        <time>2026-05-20T04:15:36Z</time>
      </trkpt>
      <trkpt lat="44.34722" lon="1.73335">
        <ele>373.13</ele>
        <time>2026-05-20T04:15:52Z</time>
      </trkpt>
      <trkpt lat="44.34705" lon="1.73345">
        <ele>373.61</ele>
        <time>2026-05-20T04:16:09Z</time>
      </trkpt>
      <trkpt lat="44.34684" lon="1.73351">
        <ele>374.09</ele>
        <time>2026-05-20T04:16:27Z</time>
      </trkpt>
      <trkpt lat="44.34665" lon="1.73356">
        <ele>374.57</ele>
        <time>2026-05-20T04:16:43Z</time>
      </trkpt>
      <trkpt lat="44.34645" lon="1.73362">
        <ele>376.49</ele>
        <time>2026-05-20T04:16:58Z</time>
      </trkpt>
      <trkpt lat="44.34628" lon="1.73366">
        <ele>376.97</ele>
        <time>2026-05-20T04:17:09Z</time>
      </trkpt>
      <trkpt lat="44.34617" lon="1.73371">
        <ele>376.97</ele>
        <time>2026-05-20T04:17:24Z</time>
      </trkpt>
      <trkpt lat="44.34612" lon="1.73372">
        <ele>376.97</ele>
        <time>2026-05-20T04:17:34Z</time>
      </trkpt>
      <trkpt lat="44.3461" lon="1.73372">
        <ele>376.97</ele>
        <time>2026-05-20T04:17:36Z</time>
      </trkpt>
      <trkpt lat="44.34604" lon="1.73375">
        <ele>375.53</ele>
        <time>2026-05-20T04:17:42Z</time>
      </trkpt>
      <trkpt lat="44.34585" lon="1.73382">
        <ele>375.05</ele>
        <time>2026-05-20T04:17:58Z</time>
      </trkpt>
      <trkpt lat="44.34568" lon="1.73392">
        <ele>374.09</ele>
        <time>2026-05-20T04:18:13Z</time>
      </trkpt>
      <trkpt lat="44.3455" lon="1.73402">
        <ele>374.09</ele>
        <time>2026-05-20T04:18:27Z</time>
      </trkpt>
      <trkpt lat="44.34532" lon="1.73415">
        <ele>374.09</ele>
        <time>2026-05-20T04:18:44Z</time>
      </trkpt>
      <trkpt lat="44.34511" lon="1.73431">
        <ele>374.09</ele>
        <time>2026-05-20T04:19:02Z</time>
      </trkpt>
      <trkpt lat="44.34485" lon="1.73451">
        <ele>373.61</ele>
        <time>2026-05-20T04:19:21Z</time>
      </trkpt>
      <trkpt lat="44.34464" lon="1.73465">
        <ele>374.09</ele>
        <time>2026-05-20T04:19:39Z</time>
      </trkpt>
      <trkpt lat="44.34443" lon="1.73475">
        <ele>372.65</ele>
        <time>2026-05-20T04:19:54Z</time>
      </trkpt>
      <trkpt lat="44.34425" lon="1.73489">
        <ele>372.65</ele>
        <time>2026-05-20T04:20:09Z</time>
      </trkpt>
      <trkpt lat="44.3441" lon="1.735">
        <ele>372.17</ele>
        <time>2026-05-20T04:20:24Z</time>
      </trkpt>
      <trkpt lat="44.34393" lon="1.73513">
        <ele>372.17</ele>
        <time>2026-05-20T04:20:39Z</time>
      </trkpt>
      <trkpt lat="44.34392" lon="1.73514">
        <ele>372.17</ele>
        <time>2026-05-20T04:20:40Z</time>
      </trkpt>
      <trkpt lat="44.34389" lon="1.73515">
        <ele>372.17</ele>
        <time>2026-05-20T04:20:42Z</time>
      </trkpt>
      <trkpt lat="44.34379" lon="1.73517">
        <ele>371.69</ele>
        <time>2026-05-20T04:20:48Z</time>
      </trkpt>
      <trkpt lat="44.34375" lon="1.73523">
        <ele>371.21</ele>
        <time>2026-05-20T04:21:03Z</time>
      </trkpt>
      <trkpt lat="44.34372" lon="1.7354">
        <ele>371.21</ele>
        <time>2026-05-20T04:21:16Z</time>
      </trkpt>
      <trkpt lat="44.34368" lon="1.73566">
        <ele>370.24</ele>
        <time>2026-05-20T04:21:32Z</time>
      </trkpt>
      <trkpt lat="44.34367" lon="1.73568">
        <ele>369.28</ele>
        <time>2026-05-20T04:21:33Z</time>
      </trkpt>
      <trkpt lat="44.34366" lon="1.7357">
        <ele>369.28</ele>
        <time>2026-05-20T04:21:34Z</time>
      </trkpt>
      <trkpt lat="44.34363" lon="1.73579">
        <ele>368.8</ele>
        <time>2026-05-20T04:21:39Z</time>
      </trkpt>
      <trkpt lat="44.34362" lon="1.73582">
        <ele>370.24</ele>
        <time>2026-05-20T04:21:40Z</time>
      </trkpt>
      <trkpt lat="44.34361" lon="1.73584">
        <ele>369.76</ele>
        <time>2026-05-20T04:21:41Z</time>
      </trkpt>
      <trkpt lat="44.34351" lon="1.73612">
        <ele>368.8</ele>
        <time>2026-05-20T04:21:56Z</time>
      </trkpt>
      <trkpt lat="44.34344" lon="1.73637">
        <ele>368.8</ele>
        <time>2026-05-20T04:22:10Z</time>
      </trkpt>
      <trkpt lat="44.34336" lon="1.73662">
        <ele>368.8</ele>
        <time>2026-05-20T04:22:25Z</time>
      </trkpt>
      <trkpt lat="44.34329" lon="1.7368">
        <ele>368.8</ele>
        <time>2026-05-20T04:22:36Z</time>
      </trkpt>
      <trkpt lat="44.34328" lon="1.73683">
        <ele>368.8</ele>
        <time>2026-05-20T04:22:38Z</time>
      </trkpt>
      <trkpt lat="44.34321" lon="1.73709">
        <ele>368.8</ele>
        <time>2026-05-20T04:22:54Z</time>
      </trkpt>
      <trkpt lat="44.3432" lon="1.7371">
        <ele>368.8</ele>
        <time>2026-05-20T04:22:55Z</time>
      </trkpt>
      <trkpt lat="44.34319" lon="1.73712">
        <ele>368.8</ele>
        <time>2026-05-20T04:22:56Z</time>
      </trkpt>
      <trkpt lat="44.34313" lon="1.73735">
        <ele>370.24</ele>
        <time>2026-05-20T04:23:10Z</time>
      </trkpt>
      <trkpt lat="44.34305" lon="1.73761">
        <ele>370.73</ele>
        <time>2026-05-20T04:23:24Z</time>
      </trkpt>
      <trkpt lat="44.34305" lon="1.73763">
        <ele>370.73</ele>
        <time>2026-05-20T04:23:25Z</time>
      </trkpt>
      <trkpt lat="44.34304" lon="1.73765">
        <ele>370.73</ele>
        <time>2026-05-20T04:23:26Z</time>
      </trkpt>
      <trkpt lat="44.34304" lon="1.73766">
        <ele>370.73</ele>
        <time>2026-05-20T04:23:27Z</time>
      </trkpt>
      <trkpt lat="44.34296" lon="1.73792">
        <ele>370.24</ele>
        <time>2026-05-20T04:23:42Z</time>
      </trkpt>
      <trkpt lat="44.34291" lon="1.73807">
        <ele>370.24</ele>
        <time>2026-05-20T04:23:51Z</time>
      </trkpt>
      <trkpt lat="44.34291" lon="1.73809">
        <ele>370.24</ele>
        <time>2026-05-20T04:23:52Z</time>
      </trkpt>
      <trkpt lat="44.34283" lon="1.73826">
        <ele>370.24</ele>
        <time>2026-05-20T04:24:07Z</time>
      </trkpt>
      <trkpt lat="44.34291" lon="1.73827">
        <ele>370.24</ele>
        <time>2026-05-20T04:24:28Z</time>
      </trkpt>
      <trkpt lat="44.34288" lon="1.73831">
        <ele>370.24</ele>
        <time>2026-05-20T04:25:05Z</time>
      </trkpt>
      <trkpt lat="44.34278" lon="1.73849">
        <ele>370.24</ele>
        <time>2026-05-20T04:25:17Z</time>
      </trkpt>
      <trkpt lat="44.34277" lon="1.73851">
        <ele>370.24</ele>
        <time>2026-05-20T04:25:18Z</time>
      </trkpt>
      <trkpt lat="44.34277" lon="1.73852">
        <ele>370.24</ele>
        <time>2026-05-20T04:25:19Z</time>
      </trkpt>
      <trkpt lat="44.34276" lon="1.73854">
        <ele>370.24</ele>
        <time>2026-05-20T04:25:20Z</time>
      </trkpt>
      <trkpt lat="44.34275" lon="1.73856">
        <ele>370.24</ele>
        <time>2026-05-20T04:25:21Z</time>
      </trkpt>
      <trkpt lat="44.34275" lon="1.73858">
        <ele>370.24</ele>
        <time>2026-05-20T04:25:22Z</time>
      </trkpt>
      <trkpt lat="44.3427" lon="1.73873">
        <ele>370.24</ele>
        <time>2026-05-20T04:25:31Z</time>
      </trkpt>
      <trkpt lat="44.34269" lon="1.73875">
        <ele>370.24</ele>
        <time>2026-05-20T04:25:32Z</time>
      </trkpt>
      <trkpt lat="44.34269" lon="1.73877">
        <ele>370.24</ele>
        <time>2026-05-20T04:25:33Z</time>
      </trkpt>
      <trkpt lat="44.34263" lon="1.73897">
        <ele>370.24</ele>
        <time>2026-05-20T04:25:42Z</time>
      </trkpt>
      <trkpt lat="44.34261" lon="1.73902">
        <ele>370.24</ele>
        <time>2026-05-20T04:25:46Z</time>
      </trkpt>
      <trkpt lat="44.34261" lon="1.73903">
        <ele>370.24</ele>
        <time>2026-05-20T04:25:47Z</time>
      </trkpt>
      <trkpt lat="44.34261" lon="1.73905">
        <ele>370.24</ele>
        <time>2026-05-20T04:25:48Z</time>
      </trkpt>
      <trkpt lat="44.34261" lon="1.73907">
        <ele>370.24</ele>
        <time>2026-05-20T04:25:49Z</time>
      </trkpt>
      <trkpt lat="44.3426" lon="1.73909">
        <ele>370.24</ele>
        <time>2026-05-20T04:25:50Z</time>
      </trkpt>
      <trkpt lat="44.34255" lon="1.73938">
        <ele>371.21</ele>
        <time>2026-05-20T04:26:06Z</time>
      </trkpt>
      <trkpt lat="44.34251" lon="1.73965">
        <ele>371.21</ele>
        <time>2026-05-20T04:26:22Z</time>
      </trkpt>
      <trkpt lat="44.34244" lon="1.73984">
        <ele>371.69</ele>
        <time>2026-05-20T04:26:36Z</time>
      </trkpt>
      <trkpt lat="44.34243" lon="1.73994">
        <ele>372.17</ele>
        <time>2026-05-20T04:26:41Z</time>
      </trkpt>
      <trkpt lat="44.34242" lon="1.73996">
        <ele>372.17</ele>
        <time>2026-05-20T04:26:42Z</time>
      </trkpt>
      <trkpt lat="44.34235" lon="1.74022">
        <ele>373.13</ele>
        <time>2026-05-20T04:27:00Z</time>
      </trkpt>
      <trkpt lat="44.34228" lon="1.7404">
        <ele>375.05</ele>
        <time>2026-05-20T04:27:14Z</time>
      </trkpt>
      <trkpt lat="44.34222" lon="1.74067">
        <ele>376.49</ele>
        <time>2026-05-20T04:27:30Z</time>
      </trkpt>
      <trkpt lat="44.34218" lon="1.74084">
        <ele>377.45</ele>
        <time>2026-05-20T04:27:41Z</time>
      </trkpt>
      <trkpt lat="44.34211" lon="1.74111">
        <ele>378.9</ele>
        <time>2026-05-20T04:27:57Z</time>
      </trkpt>
      <trkpt lat="44.34207" lon="1.74133">
        <ele>380.34</ele>
        <time>2026-05-20T04:28:10Z</time>
      </trkpt>
      <trkpt lat="44.34207" lon="1.74134">
        <ele>380.34</ele>
        <time>2026-05-20T04:28:11Z</time>
      </trkpt>
      <trkpt lat="44.34199" lon="1.74154">
        <ele>381.78</ele>
        <time>2026-05-20T04:28:25Z</time>
      </trkpt>
      <trkpt lat="44.34192" lon="1.7418">
        <ele>382.74</ele>
        <time>2026-05-20T04:28:40Z</time>
      </trkpt>
      <trkpt lat="44.34191" lon="1.74185">
        <ele>383.22</ele>
        <time>2026-05-20T04:28:47Z</time>
      </trkpt>
      <trkpt lat="44.3419" lon="1.74187">
        <ele>383.22</ele>
        <time>2026-05-20T04:28:48Z</time>
      </trkpt>
      <trkpt lat="44.3419" lon="1.7419">
        <ele>383.22</ele>
        <time>2026-05-20T04:28:49Z</time>
      </trkpt>
      <trkpt lat="44.34189" lon="1.74192">
        <ele>383.22</ele>
        <time>2026-05-20T04:28:50Z</time>
      </trkpt>
      <trkpt lat="44.34188" lon="1.74195">
        <ele>383.7</ele>
        <time>2026-05-20T04:28:51Z</time>
      </trkpt>
      <trkpt lat="44.34187" lon="1.74197">
        <ele>383.7</ele>
        <time>2026-05-20T04:28:52Z</time>
      </trkpt>
      <trkpt lat="44.34187" lon="1.74199">
        <ele>383.7</ele>
        <time>2026-05-20T04:28:53Z</time>
      </trkpt>
      <trkpt lat="44.34186" lon="1.74201">
        <ele>383.7</ele>
        <time>2026-05-20T04:28:54Z</time>
      </trkpt>
      <trkpt lat="44.34183" lon="1.7421">
        <ele>384.18</ele>
        <time>2026-05-20T04:29:01Z</time>
      </trkpt>
      <trkpt lat="44.34183" lon="1.74211">
        <ele>384.18</ele>
        <time>2026-05-20T04:29:02Z</time>
      </trkpt>
      <trkpt lat="44.34182" lon="1.74213">
        <ele>384.18</ele>
        <time>2026-05-20T04:29:03Z</time>
      </trkpt>
      <trkpt lat="44.34182" lon="1.74215">
        <ele>384.18</ele>
        <time>2026-05-20T04:29:04Z</time>
      </trkpt>
      <trkpt lat="44.34181" lon="1.74217">
        <ele>384.18</ele>
        <time>2026-05-20T04:29:05Z</time>
      </trkpt>
      <trkpt lat="44.34177" lon="1.74232">
        <ele>385.15</ele>
        <time>2026-05-20T04:29:15Z</time>
      </trkpt>
      <trkpt lat="44.34177" lon="1.74234">
        <ele>385.15</ele>
        <time>2026-05-20T04:29:16Z</time>
      </trkpt>
      <trkpt lat="44.34172" lon="1.74252">
        <ele>385.63</ele>
        <time>2026-05-20T04:29:25Z</time>
      </trkpt>
      <trkpt lat="44.34167" lon="1.74273">
        <ele>386.59</ele>
        <time>2026-05-20T04:29:39Z</time>
      </trkpt>
      <trkpt lat="44.34162" lon="1.74295">
        <ele>387.07</ele>
        <time>2026-05-20T04:29:54Z</time>
      </trkpt>
      <trkpt lat="44.34158" lon="1.74324">
        <ele>387.55</ele>
        <time>2026-05-20T04:30:09Z</time>
      </trkpt>
      <trkpt lat="44.34157" lon="1.74332">
        <ele>387.55</ele>
        <time>2026-05-20T04:30:13Z</time>
      </trkpt>
      <trkpt lat="44.3415" lon="1.74361">
        <ele>388.03</ele>
        <time>2026-05-20T04:30:30Z</time>
      </trkpt>
      <trkpt lat="44.34144" lon="1.74387">
        <ele>388.03</ele>
        <time>2026-05-20T04:30:45Z</time>
      </trkpt>
      <trkpt lat="44.34139" lon="1.74419">
        <ele>388.03</ele>
        <time>2026-05-20T04:30:59Z</time>
      </trkpt>
      <trkpt lat="44.34134" lon="1.74447">
        <ele>388.03</ele>
        <time>2026-05-20T04:31:14Z</time>
      </trkpt>
      <trkpt lat="44.34132" lon="1.74454">
        <ele>386.59</ele>
        <time>2026-05-20T04:31:17Z</time>
      </trkpt>
      <trkpt lat="44.34129" lon="1.74476">
        <ele>387.07</ele>
        <time>2026-05-20T04:31:31Z</time>
      </trkpt>
      <trkpt lat="44.34125" lon="1.74499">
        <ele>387.07</ele>
        <time>2026-05-20T04:31:45Z</time>
      </trkpt>
      <trkpt lat="44.34121" lon="1.74525">
        <ele>387.07</ele>
        <time>2026-05-20T04:32:00Z</time>
      </trkpt>
      <trkpt lat="44.34115" lon="1.74553">
        <ele>387.07</ele>
        <time>2026-05-20T04:32:15Z</time>
      </trkpt>
      <trkpt lat="44.34108" lon="1.74575">
        <ele>387.07</ele>
        <time>2026-05-20T04:32:31Z</time>
      </trkpt>
      <trkpt lat="44.34103" lon="1.74586">
        <ele>387.07</ele>
        <time>2026-05-20T04:32:37Z</time>
      </trkpt>
      <trkpt lat="44.34095" lon="1.74607">
        <ele>387.07</ele>
        <time>2026-05-20T04:32:51Z</time>
      </trkpt>
      <trkpt lat="44.3409" lon="1.74616">
        <ele>387.07</ele>
        <time>2026-05-20T04:32:57Z</time>
      </trkpt>
      <trkpt lat="44.3408" lon="1.74635">
        <ele>388.03</ele>
        <time>2026-05-20T04:33:13Z</time>
      </trkpt>
      <trkpt lat="44.34077" lon="1.74661">
        <ele>388.03</ele>
        <time>2026-05-20T04:33:26Z</time>
      </trkpt>
      <trkpt lat="44.34075" lon="1.74679">
        <ele>388.03</ele>
        <time>2026-05-20T04:33:33Z</time>
      </trkpt>
      <trkpt lat="44.34075" lon="1.74681">
        <ele>388.03</ele>
        <time>2026-05-20T04:33:34Z</time>
      </trkpt>
      <trkpt lat="44.34075" lon="1.74684">
        <ele>388.03</ele>
        <time>2026-05-20T04:33:35Z</time>
      </trkpt>
      <trkpt lat="44.34076" lon="1.74696">
        <ele>387.07</ele>
        <time>2026-05-20T04:33:40Z</time>
      </trkpt>
      <trkpt lat="44.34079" lon="1.74724">
        <ele>385.63</ele>
        <time>2026-05-20T04:33:57Z</time>
      </trkpt>
      <trkpt lat="44.34076" lon="1.74746">
        <ele>384.66</ele>
        <time>2026-05-20T04:34:09Z</time>
      </trkpt>
      <trkpt lat="44.34072" lon="1.7476">
        <ele>383.7</ele>
        <time>2026-05-20T04:34:17Z</time>
      </trkpt>
      <trkpt lat="44.34072" lon="1.74767">
        <ele>383.7</ele>
        <time>2026-05-20T04:34:20Z</time>
      </trkpt>
      <trkpt lat="44.34069" lon="1.74785">
        <ele>383.7</ele>
        <time>2026-05-20T04:34:32Z</time>
      </trkpt>
      <trkpt lat="44.34062" lon="1.74815">
        <ele>381.78</ele>
        <time>2026-05-20T04:34:50Z</time>
      </trkpt>
      <trkpt lat="44.34054" lon="1.74837">
        <ele>381.3</ele>
        <time>2026-05-20T04:35:07Z</time>
      </trkpt>
      <trkpt lat="44.34051" lon="1.74841">
        <ele>381.3</ele>
        <time>2026-05-20T04:35:10Z</time>
      </trkpt>
      <trkpt lat="44.3405" lon="1.74843">
        <ele>381.3</ele>
        <time>2026-05-20T04:35:11Z</time>
      </trkpt>
      <trkpt lat="44.34043" lon="1.74866">
        <ele>381.3</ele>
        <time>2026-05-20T04:35:24Z</time>
      </trkpt>
      <trkpt lat="44.34041" lon="1.74874">
        <ele>381.3</ele>
        <time>2026-05-20T04:35:28Z</time>
      </trkpt>
      <trkpt lat="44.34041" lon="1.74876">
        <ele>381.3</ele>
        <time>2026-05-20T04:35:29Z</time>
      </trkpt>
      <trkpt lat="44.34039" lon="1.74881">
        <ele>381.3</ele>
        <time>2026-05-20T04:35:32Z</time>
      </trkpt>
      <trkpt lat="44.34028" lon="1.74916">
        <ele>381.3</ele>
        <time>2026-05-20T04:35:51Z</time>
      </trkpt>
      <trkpt lat="44.34023" lon="1.74944">
        <ele>381.3</ele>
        <time>2026-05-20T04:36:07Z</time>
      </trkpt>
      <trkpt lat="44.3402" lon="1.74952">
        <ele>381.3</ele>
        <time>2026-05-20T04:36:13Z</time>
      </trkpt>
      <trkpt lat="44.3402" lon="1.74954">
        <ele>381.3</ele>
        <time>2026-05-20T04:36:14Z</time>
      </trkpt>
      <trkpt lat="44.34017" lon="1.74977">
        <ele>382.26</ele>
        <time>2026-05-20T04:36:29Z</time>
      </trkpt>
      <trkpt lat="44.34013" lon="1.75004">
        <ele>383.22</ele>
        <time>2026-05-20T04:36:44Z</time>
      </trkpt>
      <trkpt lat="44.34009" lon="1.75029">
        <ele>384.66</ele>
        <time>2026-05-20T04:37:00Z</time>
      </trkpt>
      <trkpt lat="44.34006" lon="1.75049">
        <ele>385.63</ele>
        <time>2026-05-20T04:37:14Z</time>
      </trkpt>
      <trkpt lat="44.34004" lon="1.75077">
        <ele>387.07</ele>
        <time>2026-05-20T04:37:29Z</time>
      </trkpt>
      <trkpt lat="44.34004" lon="1.75079">
        <ele>387.55</ele>
        <time>2026-05-20T04:37:30Z</time>
      </trkpt>
      <trkpt lat="44.34004" lon="1.75082">
        <ele>387.55</ele>
        <time>2026-05-20T04:37:31Z</time>
      </trkpt>
      <trkpt lat="44.34003" lon="1.75084">
        <ele>387.55</ele>
        <time>2026-05-20T04:37:32Z</time>
      </trkpt>
      <trkpt lat="44.34001" lon="1.75103">
        <ele>388.99</ele>
        <time>2026-05-20T04:37:44Z</time>
      </trkpt>
      <trkpt lat="44.33999" lon="1.75132">
        <ele>389.95</ele>
        <time>2026-05-20T04:37:59Z</time>
      </trkpt>
      <trkpt lat="44.33998" lon="1.75156">
        <ele>390.91</ele>
        <time>2026-05-20T04:38:16Z</time>
      </trkpt>
      <trkpt lat="44.33999" lon="1.75188">
        <ele>390.91</ele>
        <time>2026-05-20T04:38:33Z</time>
      </trkpt>
      <trkpt lat="44.33997" lon="1.75215">
        <ele>390.91</ele>
        <time>2026-05-20T04:38:46Z</time>
      </trkpt>
      <trkpt lat="44.33997" lon="1.7522">
        <ele>390.91</ele>
        <time>2026-05-20T04:38:49Z</time>
      </trkpt>
      <trkpt lat="44.33997" lon="1.75222">
        <ele>390.91</ele>
        <time>2026-05-20T04:38:50Z</time>
      </trkpt>
      <trkpt lat="44.33998" lon="1.75224">
        <ele>390.91</ele>
        <time>2026-05-20T04:38:51Z</time>
      </trkpt>
      <trkpt lat="44.33998" lon="1.75226">
        <ele>390.91</ele>
        <time>2026-05-20T04:38:52Z</time>
      </trkpt>
      <trkpt lat="44.33998" lon="1.75229">
        <ele>390.91</ele>
        <time>2026-05-20T04:38:53Z</time>
      </trkpt>
      <trkpt lat="44.33998" lon="1.75231">
        <ele>390.91</ele>
        <time>2026-05-20T04:38:54Z</time>
      </trkpt>
      <trkpt lat="44.33998" lon="1.75233">
        <ele>390.91</ele>
        <time>2026-05-20T04:38:55Z</time>
      </trkpt>
      <trkpt lat="44.33998" lon="1.75238">
        <ele>389.47</ele>
        <time>2026-05-20T04:38:58Z</time>
      </trkpt>
      <trkpt lat="44.34001" lon="1.75276">
        <ele>388.51</ele>
        <time>2026-05-20T04:39:17Z</time>
      </trkpt>
      <trkpt lat="44.34005" lon="1.75307">
        <ele>388.03</ele>
        <time>2026-05-20T04:39:33Z</time>
      </trkpt>
      <trkpt lat="44.34006" lon="1.75331">
        <ele>388.03</ele>
        <time>2026-05-20T04:39:44Z</time>
      </trkpt>
      <trkpt lat="44.34008" lon="1.75341">
        <ele>388.03</ele>
        <time>2026-05-20T04:39:52Z</time>
      </trkpt>
      <trkpt lat="44.34008" lon="1.75343">
        <ele>388.03</ele>
        <time>2026-05-20T04:39:53Z</time>
      </trkpt>
      <trkpt lat="44.34009" lon="1.75345">
        <ele>388.03</ele>
        <time>2026-05-20T04:39:54Z</time>
      </trkpt>
      <trkpt lat="44.34009" lon="1.75346">
        <ele>388.03</ele>
        <time>2026-05-20T04:39:55Z</time>
      </trkpt>
      <trkpt lat="44.34009" lon="1.75348">
        <ele>388.03</ele>
        <time>2026-05-20T04:39:56Z</time>
      </trkpt>
      <trkpt lat="44.34012" lon="1.75356">
        <ele>388.03</ele>
        <time>2026-05-20T04:40:07Z</time>
      </trkpt>
      <trkpt lat="44.34012" lon="1.75356">
        <ele>388.03</ele>
        <time>2026-05-20T04:40:28Z</time>
      </trkpt>
      <trkpt lat="44.34014" lon="1.75361">
        <ele>387.55</ele>
        <time>2026-05-20T04:40:49Z</time>
      </trkpt>
      <trkpt lat="44.34013" lon="1.75366">
        <ele>387.55</ele>
        <time>2026-05-20T04:40:54Z</time>
      </trkpt>
      <trkpt lat="44.3401" lon="1.75392">
        <ele>387.55</ele>
        <time>2026-05-20T04:41:09Z</time>
      </trkpt>
      <trkpt lat="44.3401" lon="1.75405">
        <ele>387.55</ele>
        <time>2026-05-20T04:41:17Z</time>
      </trkpt>
      <trkpt lat="44.3401" lon="1.75407">
        <ele>387.55</ele>
        <time>2026-05-20T04:41:18Z</time>
      </trkpt>
      <trkpt lat="44.3401" lon="1.75409">
        <ele>388.99</ele>
        <time>2026-05-20T04:41:19Z</time>
      </trkpt>
      <trkpt lat="44.3401" lon="1.75411">
        <ele>388.99</ele>
        <time>2026-05-20T04:41:20Z</time>
      </trkpt>
      <trkpt lat="44.3401" lon="1.75413">
        <ele>388.99</ele>
        <time>2026-05-20T04:41:21Z</time>
      </trkpt>
      <trkpt lat="44.3401" lon="1.75415">
        <ele>388.99</ele>
        <time>2026-05-20T04:41:22Z</time>
      </trkpt>
      <trkpt lat="44.34011" lon="1.75417">
        <ele>388.99</ele>
        <time>2026-05-20T04:41:23Z</time>
      </trkpt>
      <trkpt lat="44.34011" lon="1.75418">
        <ele>388.99</ele>
        <time>2026-05-20T04:41:24Z</time>
      </trkpt>
      <trkpt lat="44.34013" lon="1.75446">
        <ele>389.47</ele>
        <time>2026-05-20T04:41:40Z</time>
      </trkpt>
      <trkpt lat="44.3401" lon="1.75477">
        <ele>389.47</ele>
        <time>2026-05-20T04:41:58Z</time>
      </trkpt>
      <trkpt lat="44.34008" lon="1.75507">
        <ele>389.47</ele>
        <time>2026-05-20T04:42:14Z</time>
      </trkpt>
      <trkpt lat="44.34009" lon="1.75537">
        <ele>390.43</ele>
        <time>2026-05-20T04:42:30Z</time>
      </trkpt>
      <trkpt lat="44.34009" lon="1.75539">
        <ele>390.43</ele>
        <time>2026-05-20T04:42:31Z</time>
      </trkpt>
      <trkpt lat="44.34008" lon="1.75541">
        <ele>390.91</ele>
        <time>2026-05-20T04:42:32Z</time>
      </trkpt>
      <trkpt lat="44.34008" lon="1.75543">
        <ele>390.91</ele>
        <time>2026-05-20T04:42:33Z</time>
      </trkpt>
      <trkpt lat="44.34008" lon="1.75546">
        <ele>390.91</ele>
        <time>2026-05-20T04:42:34Z</time>
      </trkpt>
      <trkpt lat="44.34008" lon="1.75548">
        <ele>390.91</ele>
        <time>2026-05-20T04:42:35Z</time>
      </trkpt>
      <trkpt lat="44.34009" lon="1.75551">
        <ele>390.91</ele>
        <time>2026-05-20T04:42:36Z</time>
      </trkpt>
      <trkpt lat="44.3401" lon="1.75576">
        <ele>391.39</ele>
        <time>2026-05-20T04:42:51Z</time>
      </trkpt>
      <trkpt lat="44.3401" lon="1.75605">
        <ele>392.36</ele>
        <time>2026-05-20T04:43:07Z</time>
      </trkpt>
      <trkpt lat="44.34012" lon="1.7563">
        <ele>392.84</ele>
        <time>2026-05-20T04:43:21Z</time>
      </trkpt>
      <trkpt lat="44.34013" lon="1.75654">
        <ele>393.32</ele>
        <time>2026-05-20T04:43:35Z</time>
      </trkpt>
      <trkpt lat="44.34013" lon="1.75657">
        <ele>393.32</ele>
        <time>2026-05-20T04:43:37Z</time>
      </trkpt>
      <trkpt lat="44.34013" lon="1.75659">
        <ele>393.32</ele>
        <time>2026-05-20T04:43:38Z</time>
      </trkpt>
      <trkpt lat="44.34013" lon="1.75661">
        <ele>393.8</ele>
        <time>2026-05-20T04:43:39Z</time>
      </trkpt>
      <trkpt lat="44.34013" lon="1.75663">
        <ele>393.8</ele>
        <time>2026-05-20T04:43:40Z</time>
      </trkpt>
      <trkpt lat="44.34013" lon="1.75666">
        <ele>393.8</ele>
        <time>2026-05-20T04:43:41Z</time>
      </trkpt>
      <trkpt lat="44.34013" lon="1.75688">
        <ele>394.28</ele>
        <time>2026-05-20T04:43:55Z</time>
      </trkpt>
      <trkpt lat="44.34013" lon="1.7569">
        <ele>394.28</ele>
        <time>2026-05-20T04:43:56Z</time>
      </trkpt>
      <trkpt lat="44.34013" lon="1.75723">
        <ele>394.28</ele>
        <time>2026-05-20T04:44:16Z</time>
      </trkpt>
      <trkpt lat="44.34013" lon="1.75726">
        <ele>394.76</ele>
        <time>2026-05-20T04:44:17Z</time>
      </trkpt>
      <trkpt lat="44.34013" lon="1.75728">
        <ele>394.76</ele>
        <time>2026-05-20T04:44:18Z</time>
      </trkpt>
      <trkpt lat="44.34012" lon="1.7576">
        <ele>394.76</ele>
        <time>2026-05-20T04:44:35Z</time>
      </trkpt>
      <trkpt lat="44.34012" lon="1.75794">
        <ele>395.72</ele>
        <time>2026-05-20T04:44:50Z</time>
      </trkpt>
      <trkpt lat="44.34012" lon="1.75808">
        <ele>396.68</ele>
        <time>2026-05-20T04:45:00Z</time>
      </trkpt>
      <trkpt lat="44.34013" lon="1.75829">
        <ele>397.64</ele>
        <time>2026-05-20T04:45:13Z</time>
      </trkpt>
      <trkpt lat="44.34013" lon="1.75851">
        <ele>396.68</ele>
        <time>2026-05-20T04:45:23Z</time>
      </trkpt>
      <trkpt lat="44.34014" lon="1.75875">
        <ele>396.2</ele>
        <time>2026-05-20T04:45:36Z</time>
      </trkpt>
      <trkpt lat="44.34014" lon="1.75876">
        <ele>396.2</ele>
        <time>2026-05-20T04:45:37Z</time>
      </trkpt>
      <trkpt lat="44.34015" lon="1.75902">
        <ele>394.76</ele>
        <time>2026-05-20T04:45:51Z</time>
      </trkpt>
      <trkpt lat="44.34015" lon="1.75904">
        <ele>394.76</ele>
        <time>2026-05-20T04:45:52Z</time>
      </trkpt>
      <trkpt lat="44.34016" lon="1.75921">
        <ele>394.76</ele>
        <time>2026-05-20T04:46:03Z</time>
      </trkpt>
      <trkpt lat="44.34016" lon="1.75923">
        <ele>394.76</ele>
        <time>2026-05-20T04:46:04Z</time>
      </trkpt>
      <trkpt lat="44.34011" lon="1.75953">
        <ele>394.28</ele>
        <time>2026-05-20T04:46:22Z</time>
      </trkpt>
      <trkpt lat="44.33998" lon="1.75976">
        <ele>393.8</ele>
        <time>2026-05-20T04:46:37Z</time>
      </trkpt>
      <trkpt lat="44.33994" lon="1.75981">
        <ele>393.8</ele>
        <time>2026-05-20T04:46:44Z</time>
      </trkpt>
      <trkpt lat="44.33993" lon="1.75982">
        <ele>393.8</ele>
        <time>2026-05-20T04:46:45Z</time>
      </trkpt>
      <trkpt lat="44.33992" lon="1.75983">
        <ele>393.8</ele>
        <time>2026-05-20T04:46:46Z</time>
      </trkpt>
      <trkpt lat="44.33975" lon="1.76006">
        <ele>393.8</ele>
        <time>2026-05-20T04:47:02Z</time>
      </trkpt>
      <trkpt lat="44.33968" lon="1.76023">
        <ele>393.8</ele>
        <time>2026-05-20T04:47:14Z</time>
      </trkpt>
      <trkpt lat="44.33967" lon="1.76025">
        <ele>393.8</ele>
        <time>2026-05-20T04:47:15Z</time>
      </trkpt>
      <trkpt lat="44.33958" lon="1.7605">
        <ele>393.8</ele>
        <time>2026-05-20T04:47:29Z</time>
      </trkpt>
      <trkpt lat="44.33948" lon="1.76066">
        <ele>395.24</ele>
        <time>2026-05-20T04:47:38Z</time>
      </trkpt>
      <trkpt lat="44.33938" lon="1.76088">
        <ele>395.24</ele>
        <time>2026-05-20T04:47:54Z</time>
      </trkpt>
      <trkpt lat="44.33928" lon="1.76115">
        <ele>395.72</ele>
        <time>2026-05-20T04:48:12Z</time>
      </trkpt>
      <trkpt lat="44.33918" lon="1.76137">
        <ele>395.72</ele>
        <time>2026-05-20T04:48:26Z</time>
      </trkpt>
      <trkpt lat="44.3391" lon="1.76174">
        <ele>394.76</ele>
        <time>2026-05-20T04:48:44Z</time>
      </trkpt>
      <trkpt lat="44.33902" lon="1.76206">
        <ele>393.32</ele>
        <time>2026-05-20T04:49:01Z</time>
      </trkpt>
      <trkpt lat="44.33892" lon="1.76236">
        <ele>393.32</ele>
        <time>2026-05-20T04:49:19Z</time>
      </trkpt>
      <trkpt lat="44.33891" lon="1.7624">
        <ele>392.36</ele>
        <time>2026-05-20T04:49:21Z</time>
      </trkpt>
      <trkpt lat="44.33891" lon="1.76242">
        <ele>392.84</ele>
        <time>2026-05-20T04:49:22Z</time>
      </trkpt>
      <trkpt lat="44.3389" lon="1.76244">
        <ele>392.36</ele>
        <time>2026-05-20T04:49:23Z</time>
      </trkpt>
      <trkpt lat="44.33881" lon="1.76273">
        <ele>392.84</ele>
        <time>2026-05-20T04:49:39Z</time>
      </trkpt>
      <trkpt lat="44.33869" lon="1.763">
        <ele>392.84</ele>
        <time>2026-05-20T04:49:54Z</time>
      </trkpt>
      <trkpt lat="44.33866" lon="1.76306">
        <ele>392.84</ele>
        <time>2026-05-20T04:50:00Z</time>
      </trkpt>
      <trkpt lat="44.33866" lon="1.76307">
        <ele>392.84</ele>
        <time>2026-05-20T04:50:01Z</time>
      </trkpt>
      <trkpt lat="44.33852" lon="1.76329">
        <ele>392.84</ele>
        <time>2026-05-20T04:50:15Z</time>
      </trkpt>
      <trkpt lat="44.33842" lon="1.76354">
        <ele>392.84</ele>
        <time>2026-05-20T04:50:31Z</time>
      </trkpt>
      <trkpt lat="44.33834" lon="1.76375">
        <ele>392.84</ele>
        <time>2026-05-20T04:50:45Z</time>
      </trkpt>
      <trkpt lat="44.33834" lon="1.76377">
        <ele>392.84</ele>
        <time>2026-05-20T04:50:46Z</time>
      </trkpt>
      <trkpt lat="44.33833" lon="1.76379">
        <ele>392.84</ele>
        <time>2026-05-20T04:50:47Z</time>
      </trkpt>
      <trkpt lat="44.33829" lon="1.76414">
        <ele>392.84</ele>
        <time>2026-05-20T04:51:02Z</time>
      </trkpt>
      <trkpt lat="44.33825" lon="1.76443">
        <ele>392.36</ele>
        <time>2026-05-20T04:51:19Z</time>
      </trkpt>
      <trkpt lat="44.33825" lon="1.76445">
        <ele>392.36</ele>
        <time>2026-05-20T04:51:20Z</time>
      </trkpt>
      <trkpt lat="44.33824" lon="1.76447">
        <ele>391.87</ele>
        <time>2026-05-20T04:51:21Z</time>
      </trkpt>
      <trkpt lat="44.33824" lon="1.76449">
        <ele>391.87</ele>
        <time>2026-05-20T04:51:22Z</time>
      </trkpt>
      <trkpt lat="44.33823" lon="1.76469">
        <ele>389.95</ele>
        <time>2026-05-20T04:51:35Z</time>
      </trkpt>
      <trkpt lat="44.33822" lon="1.7647">
        <ele>388.99</ele>
        <time>2026-05-20T04:51:36Z</time>
      </trkpt>
      <trkpt lat="44.33822" lon="1.76472">
        <ele>388.99</ele>
        <time>2026-05-20T04:51:37Z</time>
      </trkpt>
      <trkpt lat="44.33818" lon="1.76488">
        <ele>388.03</ele>
        <time>2026-05-20T04:51:48Z</time>
      </trkpt>
      <trkpt lat="44.33817" lon="1.76489">
        <ele>388.03</ele>
        <time>2026-05-20T04:51:49Z</time>
      </trkpt>
      <trkpt lat="44.33816" lon="1.76491">
        <ele>387.55</ele>
        <time>2026-05-20T04:51:50Z</time>
      </trkpt>
      <trkpt lat="44.33815" lon="1.76492">
        <ele>387.55</ele>
        <time>2026-05-20T04:51:51Z</time>
      </trkpt>
      <trkpt lat="44.33814" lon="1.76494">
        <ele>387.07</ele>
        <time>2026-05-20T04:51:52Z</time>
      </trkpt>
      <trkpt lat="44.33813" lon="1.76496">
        <ele>387.07</ele>
        <time>2026-05-20T04:51:53Z</time>
      </trkpt>
      <trkpt lat="44.33811" lon="1.76509">
        <ele>386.11</ele>
        <time>2026-05-20T04:52:01Z</time>
      </trkpt>
      <trkpt lat="44.33811" lon="1.76511">
        <ele>386.11</ele>
        <time>2026-05-20T04:52:02Z</time>
      </trkpt>
      <trkpt lat="44.33811" lon="1.76514">
        <ele>386.11</ele>
        <time>2026-05-20T04:52:03Z</time>
      </trkpt>
      <trkpt lat="44.33811" lon="1.76518">
        <ele>386.11</ele>
        <time>2026-05-20T04:52:04Z</time>
      </trkpt>
      <trkpt lat="44.33811" lon="1.76521">
        <ele>386.11</ele>
        <time>2026-05-20T04:52:05Z</time>
      </trkpt>
      <trkpt lat="44.33811" lon="1.76524">
        <ele>385.63</ele>
        <time>2026-05-20T04:52:06Z</time>
      </trkpt>
      <trkpt lat="44.33808" lon="1.76537">
        <ele>385.15</ele>
        <time>2026-05-20T04:52:13Z</time>
      </trkpt>
      <trkpt lat="44.33805" lon="1.76565">
        <ele>384.18</ele>
        <time>2026-05-20T04:52:27Z</time>
      </trkpt>
      <trkpt lat="44.33806" lon="1.76597">
        <ele>382.26</ele>
        <time>2026-05-20T04:52:43Z</time>
      </trkpt>
      <trkpt lat="44.33804" lon="1.76619">
        <ele>380.34</ele>
        <time>2026-05-20T04:52:57Z</time>
      </trkpt>
      <trkpt lat="44.33802" lon="1.76637">
        <ele>379.86</ele>
        <time>2026-05-20T04:53:10Z</time>
      </trkpt>
      <trkpt lat="44.33801" lon="1.76647">
        <ele>379.38</ele>
        <time>2026-05-20T04:53:26Z</time>
      </trkpt>
      <trkpt lat="44.33797" lon="1.76673">
        <ele>377.94</ele>
        <time>2026-05-20T04:53:40Z</time>
      </trkpt>
      <trkpt lat="44.33797" lon="1.76696">
        <ele>376.97</ele>
        <time>2026-05-20T04:53:53Z</time>
      </trkpt>
      <trkpt lat="44.33801" lon="1.76721">
        <ele>376.01</ele>
        <time>2026-05-20T04:54:07Z</time>
      </trkpt>
      <trkpt lat="44.33805" lon="1.76756">
        <ele>375.53</ele>
        <time>2026-05-20T04:54:25Z</time>
      </trkpt>
      <trkpt lat="44.33807" lon="1.76786">
        <ele>375.05</ele>
        <time>2026-05-20T04:54:41Z</time>
      </trkpt>
      <trkpt lat="44.33811" lon="1.76819">
        <ele>375.05</ele>
        <time>2026-05-20T04:54:57Z</time>
      </trkpt>
      <trkpt lat="44.33817" lon="1.76849">
        <ele>374.57</ele>
        <time>2026-05-20T04:55:12Z</time>
      </trkpt>
      <trkpt lat="44.33818" lon="1.76861">
        <ele>374.57</ele>
        <time>2026-05-20T04:55:20Z</time>
      </trkpt>
      <trkpt lat="44.33819" lon="1.76864">
        <ele>374.57</ele>
        <time>2026-05-20T04:55:22Z</time>
      </trkpt>
      <trkpt lat="44.33819" lon="1.76866">
        <ele>374.57</ele>
        <time>2026-05-20T04:55:23Z</time>
      </trkpt>
      <trkpt lat="44.33819" lon="1.76868">
        <ele>374.57</ele>
        <time>2026-05-20T04:55:24Z</time>
      </trkpt>
      <trkpt lat="44.33819" lon="1.7687">
        <ele>374.57</ele>
        <time>2026-05-20T04:55:25Z</time>
      </trkpt>
      <trkpt lat="44.33819" lon="1.76872">
        <ele>374.57</ele>
        <time>2026-05-20T04:55:26Z</time>
      </trkpt>
      <trkpt lat="44.33819" lon="1.76874">
        <ele>374.57</ele>
        <time>2026-05-20T04:55:27Z</time>
      </trkpt>
      <trkpt lat="44.33819" lon="1.76876">
        <ele>374.57</ele>
        <time>2026-05-20T04:55:28Z</time>
      </trkpt>
      <trkpt lat="44.33821" lon="1.76907">
        <ele>374.09</ele>
        <time>2026-05-20T04:55:44Z</time>
      </trkpt>
      <trkpt lat="44.33822" lon="1.76914">
        <ele>374.09</ele>
        <time>2026-05-20T04:55:50Z</time>
      </trkpt>
      <trkpt lat="44.33822" lon="1.76916">
        <ele>374.09</ele>
        <time>2026-05-20T04:55:51Z</time>
      </trkpt>
      <trkpt lat="44.33823" lon="1.76926">
        <ele>374.09</ele>
        <time>2026-05-20T04:56:03Z</time>
      </trkpt>
      <trkpt lat="44.33824" lon="1.76929">
        <ele>373.61</ele>
        <time>2026-05-20T04:56:06Z</time>
      </trkpt>
      <trkpt lat="44.33825" lon="1.76938">
        <ele>373.61</ele>
        <time>2026-05-20T04:56:12Z</time>
      </trkpt>
      <trkpt lat="44.33824" lon="1.7694">
        <ele>373.61</ele>
        <time>2026-05-20T04:56:13Z</time>
      </trkpt>
      <trkpt lat="44.33823" lon="1.76967">
        <ele>373.61</ele>
        <time>2026-05-20T04:56:27Z</time>
      </trkpt>
      <trkpt lat="44.33825" lon="1.76998">
        <ele>375.05</ele>
        <time>2026-05-20T04:56:43Z</time>
      </trkpt>
      <trkpt lat="44.33827" lon="1.77008">
        <ele>375.05</ele>
        <time>2026-05-20T04:56:50Z</time>
      </trkpt>
      <trkpt lat="44.33827" lon="1.77012">
        <ele>375.05</ele>
        <time>2026-05-20T04:56:52Z</time>
      </trkpt>
      <trkpt lat="44.33827" lon="1.77049">
        <ele>374.09</ele>
        <time>2026-05-20T04:57:10Z</time>
      </trkpt>
      <trkpt lat="44.33823" lon="1.77081">
        <ele>374.09</ele>
        <time>2026-05-20T04:57:25Z</time>
      </trkpt>
      <trkpt lat="44.33823" lon="1.77103">
        <ele>373.13</ele>
        <time>2026-05-20T04:57:39Z</time>
      </trkpt>
      <trkpt lat="44.33824" lon="1.77131">
        <ele>372.17</ele>
        <time>2026-05-20T04:57:54Z</time>
      </trkpt>
      <trkpt lat="44.33826" lon="1.77162">
        <ele>371.21</ele>
        <time>2026-05-20T04:58:10Z</time>
      </trkpt>
      <trkpt lat="44.33824" lon="1.77182">
        <ele>370.24</ele>
        <time>2026-05-20T04:58:21Z</time>
      </trkpt>
      <trkpt lat="44.33825" lon="1.77204">
        <ele>370.24</ele>
        <time>2026-05-20T04:58:35Z</time>
      </trkpt>
      <trkpt lat="44.33817" lon="1.77236">
        <ele>370.24</ele>
        <time>2026-05-20T04:58:52Z</time>
      </trkpt>
      <trkpt lat="44.3381" lon="1.77261">
        <ele>370.24</ele>
        <time>2026-05-20T04:59:05Z</time>
      </trkpt>
      <trkpt lat="44.33803" lon="1.77294">
        <ele>370.24</ele>
        <time>2026-05-20T04:59:22Z</time>
      </trkpt>
      <trkpt lat="44.33801" lon="1.77298">
        <ele>370.24</ele>
        <time>2026-05-20T04:59:24Z</time>
      </trkpt>
      <trkpt lat="44.33798" lon="1.77307">
        <ele>369.76</ele>
        <time>2026-05-20T04:59:38Z</time>
      </trkpt>
      <trkpt lat="44.33793" lon="1.7732">
        <ele>369.76</ele>
        <time>2026-05-20T05:00:11Z</time>
      </trkpt>
      <trkpt lat="44.33789" lon="1.77346">
        <ele>369.28</ele>
        <time>2026-05-20T05:00:26Z</time>
      </trkpt>
      <trkpt lat="44.33791" lon="1.77359">
        <ele>368.8</ele>
        <time>2026-05-20T05:00:38Z</time>
      </trkpt>
      <trkpt lat="44.33793" lon="1.77362">
        <ele>368.8</ele>
        <time>2026-05-20T05:00:41Z</time>
      </trkpt>
      <trkpt lat="44.33794" lon="1.77362">
        <ele>368.8</ele>
        <time>2026-05-20T05:00:42Z</time>
      </trkpt>
      <trkpt lat="44.33804" lon="1.77376">
        <ele>368.32</ele>
        <time>2026-05-20T05:00:53Z</time>
      </trkpt>
      <trkpt lat="44.33805" lon="1.77378">
        <ele>368.32</ele>
        <time>2026-05-20T05:00:54Z</time>
      </trkpt>
      <trkpt lat="44.33813" lon="1.77402">
        <ele>367.84</ele>
        <time>2026-05-20T05:01:08Z</time>
      </trkpt>
      <trkpt lat="44.33816" lon="1.77406">
        <ele>367.84</ele>
        <time>2026-05-20T05:01:11Z</time>
      </trkpt>
      <trkpt lat="44.33817" lon="1.77407">
        <ele>367.84</ele>
        <time>2026-05-20T05:01:12Z</time>
      </trkpt>
      <trkpt lat="44.33824" lon="1.77423">
        <ele>367.36</ele>
        <time>2026-05-20T05:01:26Z</time>
      </trkpt>
      <trkpt lat="44.3383" lon="1.7743">
        <ele>366.88</ele>
        <time>2026-05-20T05:01:31Z</time>
      </trkpt>
      <trkpt lat="44.33843" lon="1.77456">
        <ele>365.92</ele>
        <time>2026-05-20T05:01:47Z</time>
      </trkpt>
      <trkpt lat="44.33848" lon="1.77467">
        <ele>365.44</ele>
        <time>2026-05-20T05:01:57Z</time>
      </trkpt>
      <trkpt lat="44.33849" lon="1.77468">
        <ele>365.44</ele>
        <time>2026-05-20T05:01:58Z</time>
      </trkpt>
      <trkpt lat="44.3385" lon="1.7747">
        <ele>364.96</ele>
        <time>2026-05-20T05:01:59Z</time>
      </trkpt>
      <trkpt lat="44.33865" lon="1.77492">
        <ele>364.48</ele>
        <time>2026-05-20T05:02:15Z</time>
      </trkpt>
      <trkpt lat="44.33881" lon="1.77516">
        <ele>364.48</ele>
        <time>2026-05-20T05:02:32Z</time>
      </trkpt>
      <trkpt lat="44.33885" lon="1.77525">
        <ele>364.48</ele>
        <time>2026-05-20T05:02:40Z</time>
      </trkpt>
      <trkpt lat="44.33887" lon="1.77528">
        <ele>364.48</ele>
        <time>2026-05-20T05:02:42Z</time>
      </trkpt>
      <trkpt lat="44.33888" lon="1.7753">
        <ele>364.48</ele>
        <time>2026-05-20T05:02:43Z</time>
      </trkpt>
      <trkpt lat="44.33902" lon="1.77559">
        <ele>364.48</ele>
        <time>2026-05-20T05:03:01Z</time>
      </trkpt>
      <trkpt lat="44.33911" lon="1.77584">
        <ele>365.92</ele>
        <time>2026-05-20T05:03:18Z</time>
      </trkpt>
      <trkpt lat="44.3392" lon="1.7761">
        <ele>366.4</ele>
        <time>2026-05-20T05:03:35Z</time>
      </trkpt>
      <trkpt lat="44.33927" lon="1.77636">
        <ele>366.88</ele>
        <time>2026-05-20T05:03:49Z</time>
      </trkpt>
      <trkpt lat="44.33935" lon="1.77668">
        <ele>367.36</ele>
        <time>2026-05-20T05:04:08Z</time>
      </trkpt>
      <trkpt lat="44.33939" lon="1.77694">
        <ele>367.84</ele>
        <time>2026-05-20T05:04:23Z</time>
      </trkpt>
      <trkpt lat="44.33947" lon="1.77724">
        <ele>365.92</ele>
        <time>2026-05-20T05:04:41Z</time>
      </trkpt>
      <trkpt lat="44.33958" lon="1.77747">
        <ele>365.44</ele>
        <time>2026-05-20T05:04:56Z</time>
      </trkpt>
      <trkpt lat="44.33973" lon="1.77778">
        <ele>364.96</ele>
        <time>2026-05-20T05:05:15Z</time>
      </trkpt>
      <trkpt lat="44.33974" lon="1.7778">
        <ele>364.96</ele>
        <time>2026-05-20T05:05:16Z</time>
      </trkpt>
      <trkpt lat="44.33975" lon="1.77782">
        <ele>364.48</ele>
        <time>2026-05-20T05:05:18Z</time>
      </trkpt>
      <trkpt lat="44.33988" lon="1.77797">
        <ele>363.04</ele>
        <time>2026-05-20T05:05:33Z</time>
      </trkpt>
      <trkpt lat="44.34002" lon="1.77812">
        <ele>363.04</ele>
        <time>2026-05-20T05:05:46Z</time>
      </trkpt>
      <trkpt lat="44.34004" lon="1.77814">
        <ele>363.04</ele>
        <time>2026-05-20T05:05:47Z</time>
      </trkpt>
      <trkpt lat="44.34023" lon="1.77829">
        <ele>362.55</ele>
        <time>2026-05-20T05:06:03Z</time>
      </trkpt>
      <trkpt lat="44.3404" lon="1.77847">
        <ele>362.55</ele>
        <time>2026-05-20T05:06:19Z</time>
      </trkpt>
      <trkpt lat="44.34058" lon="1.77868">
        <ele>362.07</ele>
        <time>2026-05-20T05:06:36Z</time>
      </trkpt>
      <trkpt lat="44.34076" lon="1.77889">
        <ele>360.15</ele>
        <time>2026-05-20T05:06:53Z</time>
      </trkpt>
      <trkpt lat="44.34092" lon="1.7791">
        <ele>358.23</ele>
        <time>2026-05-20T05:07:11Z</time>
      </trkpt>
      <trkpt lat="44.34111" lon="1.77931">
        <ele>358.71</ele>
        <time>2026-05-20T05:07:30Z</time>
      </trkpt>
      <trkpt lat="44.34133" lon="1.77953">
        <ele>358.71</ele>
        <time>2026-05-20T05:07:47Z</time>
      </trkpt>
      <trkpt lat="44.34154" lon="1.77969">
        <ele>359.67</ele>
        <time>2026-05-20T05:08:07Z</time>
      </trkpt>
      <trkpt lat="44.34168" lon="1.77987">
        <ele>360.63</ele>
        <time>2026-05-20T05:08:24Z</time>
      </trkpt>
      <trkpt lat="44.34189" lon="1.78008">
        <ele>362.07</ele>
        <time>2026-05-20T05:08:43Z</time>
      </trkpt>
      <trkpt lat="44.34196" lon="1.78026">
        <ele>362.55</ele>
        <time>2026-05-20T05:08:58Z</time>
      </trkpt>
      <trkpt lat="44.34194" lon="1.78025">
        <ele>363.04</ele>
        <time>2026-05-20T05:09:19Z</time>
      </trkpt>
      <trkpt lat="44.34195" lon="1.78024">
        <ele>363.04</ele>
        <time>2026-05-20T05:09:31Z</time>
      </trkpt>
      <trkpt lat="44.34196" lon="1.78026">
        <ele>363.04</ele>
        <time>2026-05-20T05:09:32Z</time>
      </trkpt>
      <trkpt lat="44.34198" lon="1.78036">
        <ele>363.04</ele>
        <time>2026-05-20T05:09:38Z</time>
      </trkpt>
      <trkpt lat="44.342" lon="1.7804">
        <ele>363.04</ele>
        <time>2026-05-20T05:09:40Z</time>
      </trkpt>
      <trkpt lat="44.342" lon="1.78042">
        <ele>363.04</ele>
        <time>2026-05-20T05:09:41Z</time>
      </trkpt>
      <trkpt lat="44.342" lon="1.78045">
        <ele>363.04</ele>
        <time>2026-05-20T05:09:42Z</time>
      </trkpt>
      <trkpt lat="44.34201" lon="1.78048">
        <ele>363.04</ele>
        <time>2026-05-20T05:09:43Z</time>
      </trkpt>
      <trkpt lat="44.34201" lon="1.7805">
        <ele>363.04</ele>
        <time>2026-05-20T05:09:44Z</time>
      </trkpt>
      <trkpt lat="44.34203" lon="1.78059">
        <ele>363.04</ele>
        <time>2026-05-20T05:09:50Z</time>
      </trkpt>
      <trkpt lat="44.34207" lon="1.78065">
        <ele>363.04</ele>
        <time>2026-05-20T05:10:02Z</time>
      </trkpt>
      <trkpt lat="44.34207" lon="1.78066">
        <ele>363.04</ele>
        <time>2026-05-20T05:10:30Z</time>
      </trkpt>
      <trkpt lat="44.34208" lon="1.78071">
        <ele>363.04</ele>
        <time>2026-05-20T05:10:46Z</time>
      </trkpt>
      <trkpt lat="44.34211" lon="1.78081">
        <ele>363.04</ele>
        <time>2026-05-20T05:10:54Z</time>
      </trkpt>
      <trkpt lat="44.34211" lon="1.78083">
        <ele>363.04</ele>
        <time>2026-05-20T05:10:55Z</time>
      </trkpt>
      <trkpt lat="44.34215" lon="1.78099">
        <ele>363.04</ele>
        <time>2026-05-20T05:11:05Z</time>
      </trkpt>
      <trkpt lat="44.34216" lon="1.781">
        <ele>363.04</ele>
        <time>2026-05-20T05:11:06Z</time>
      </trkpt>
      <trkpt lat="44.34225" lon="1.78122">
        <ele>364</ele>
        <time>2026-05-20T05:11:21Z</time>
      </trkpt>
      <trkpt lat="44.34231" lon="1.78143">
        <ele>364.96</ele>
        <time>2026-05-20T05:11:35Z</time>
      </trkpt>
      <trkpt lat="44.34232" lon="1.78146">
        <ele>365.44</ele>
        <time>2026-05-20T05:11:38Z</time>
      </trkpt>
      <trkpt lat="44.34237" lon="1.78163">
        <ele>365.92</ele>
        <time>2026-05-20T05:11:51Z</time>
      </trkpt>
      <trkpt lat="44.34237" lon="1.78165">
        <ele>365.92</ele>
        <time>2026-05-20T05:11:52Z</time>
      </trkpt>
      <trkpt lat="44.34241" lon="1.78173">
        <ele>365.92</ele>
        <time>2026-05-20T05:11:58Z</time>
      </trkpt>
      <trkpt lat="44.34241" lon="1.78177">
        <ele>366.4</ele>
        <time>2026-05-20T05:11:59Z</time>
      </trkpt>
      <trkpt lat="44.34242" lon="1.7818">
        <ele>366.88</ele>
        <time>2026-05-20T05:12:00Z</time>
      </trkpt>
      <trkpt lat="44.34257" lon="1.78193">
        <ele>366.88</ele>
        <time>2026-05-20T05:12:14Z</time>
      </trkpt>
      <trkpt lat="44.34274" lon="1.78202">
        <ele>365.44</ele>
        <time>2026-05-20T05:12:31Z</time>
      </trkpt>
      <trkpt lat="44.34278" lon="1.78206">
        <ele>365.44</ele>
        <time>2026-05-20T05:12:35Z</time>
      </trkpt>
      <trkpt lat="44.34279" lon="1.78207">
        <ele>365.44</ele>
        <time>2026-05-20T05:12:36Z</time>
      </trkpt>
      <trkpt lat="44.34301" lon="1.78216">
        <ele>364.48</ele>
        <time>2026-05-20T05:12:52Z</time>
      </trkpt>
      <trkpt lat="44.34325" lon="1.78225">
        <ele>362.07</ele>
        <time>2026-05-20T05:13:10Z</time>
      </trkpt>
      <trkpt lat="44.34351" lon="1.7824">
        <ele>360.63</ele>
        <time>2026-05-20T05:13:27Z</time>
      </trkpt>
      <trkpt lat="44.34352" lon="1.78241">
        <ele>360.63</ele>
        <time>2026-05-20T05:13:28Z</time>
      </trkpt>
      <trkpt lat="44.34354" lon="1.78242">
        <ele>360.15</ele>
        <time>2026-05-20T05:13:29Z</time>
      </trkpt>
      <trkpt lat="44.34361" lon="1.78246">
        <ele>360.15</ele>
        <time>2026-05-20T05:13:36Z</time>
      </trkpt>
      <trkpt lat="44.34362" lon="1.78247">
        <ele>360.15</ele>
        <time>2026-05-20T05:13:37Z</time>
      </trkpt>
      <trkpt lat="44.34363" lon="1.78248">
        <ele>360.15</ele>
        <time>2026-05-20T05:13:38Z</time>
      </trkpt>
      <trkpt lat="44.34383" lon="1.78257">
        <ele>360.15</ele>
        <time>2026-05-20T05:13:55Z</time>
      </trkpt>
      <trkpt lat="44.34384" lon="1.78256">
        <ele>359.67</ele>
        <time>2026-05-20T05:14:18Z</time>
      </trkpt>
      <trkpt lat="44.34385" lon="1.78257">
        <ele>359.67</ele>
        <time>2026-05-20T05:14:19Z</time>
      </trkpt>
      <trkpt lat="44.34386" lon="1.78258">
        <ele>359.67</ele>
        <time>2026-05-20T05:14:20Z</time>
      </trkpt>
      <trkpt lat="44.34392" lon="1.78262">
        <ele>359.67</ele>
        <time>2026-05-20T05:14:25Z</time>
      </trkpt>
      <trkpt lat="44.34393" lon="1.78263">
        <ele>359.67</ele>
        <time>2026-05-20T05:14:26Z</time>
      </trkpt>
      <trkpt lat="44.34395" lon="1.78264">
        <ele>359.67</ele>
        <time>2026-05-20T05:14:27Z</time>
      </trkpt>
      <trkpt lat="44.34396" lon="1.78265">
        <ele>359.67</ele>
        <time>2026-05-20T05:14:28Z</time>
      </trkpt>
      <trkpt lat="44.34397" lon="1.78266">
        <ele>359.67</ele>
        <time>2026-05-20T05:14:29Z</time>
      </trkpt>
      <trkpt lat="44.34399" lon="1.78267">
        <ele>359.67</ele>
        <time>2026-05-20T05:14:30Z</time>
      </trkpt>
      <trkpt lat="44.344" lon="1.78269">
        <ele>359.67</ele>
        <time>2026-05-20T05:14:31Z</time>
      </trkpt>
      <trkpt lat="44.34402" lon="1.7827">
        <ele>359.67</ele>
        <time>2026-05-20T05:14:32Z</time>
      </trkpt>
      <trkpt lat="44.34416" lon="1.78286">
        <ele>359.67</ele>
        <time>2026-05-20T05:14:46Z</time>
      </trkpt>
      <trkpt lat="44.34429" lon="1.78301">
        <ele>361.11</ele>
        <time>2026-05-20T05:15:00Z</time>
      </trkpt>
      <trkpt lat="44.34432" lon="1.78301">
        <ele>361.11</ele>
        <time>2026-05-20T05:15:12Z</time>
      </trkpt>
      <trkpt lat="44.34432" lon="1.78299">
        <ele>359.19</ele>
        <time>2026-05-20T05:15:30Z</time>
      </trkpt>
      <trkpt lat="44.34432" lon="1.783">
        <ele>362.07</ele>
        <time>2026-05-20T05:15:34Z</time>
      </trkpt>
      <trkpt lat="44.34432" lon="1.78299">
        <ele>360.63</ele>
        <time>2026-05-20T05:15:39Z</time>
      </trkpt>
      <trkpt lat="44.34439" lon="1.78313">
        <ele>360.63</ele>
        <time>2026-05-20T05:15:56Z</time>
      </trkpt>
      <trkpt lat="44.34442" lon="1.78316">
        <ele>360.63</ele>
        <time>2026-05-20T05:16:00Z</time>
      </trkpt>
      <trkpt lat="44.34443" lon="1.78317">
        <ele>362.07</ele>
        <time>2026-05-20T05:16:01Z</time>
      </trkpt>
      <trkpt lat="44.34444" lon="1.78319">
        <ele>362.07</ele>
        <time>2026-05-20T05:16:02Z</time>
      </trkpt>
      <trkpt lat="44.34444" lon="1.7832">
        <ele>362.07</ele>
        <time>2026-05-20T05:16:03Z</time>
      </trkpt>
      <trkpt lat="44.34442" lon="1.78324">
        <ele>362.55</ele>
        <time>2026-05-20T05:16:14Z</time>
      </trkpt>
      <trkpt lat="44.34441" lon="1.78324">
        <ele>362.55</ele>
        <time>2026-05-20T05:16:15Z</time>
      </trkpt>
      <trkpt lat="44.3444" lon="1.78325">
        <ele>362.55</ele>
        <time>2026-05-20T05:16:16Z</time>
      </trkpt>
      <trkpt lat="44.34438" lon="1.78327">
        <ele>362.55</ele>
        <time>2026-05-20T05:16:18Z</time>
      </trkpt>
      <trkpt lat="44.34436" lon="1.78328">
        <ele>361.11</ele>
        <time>2026-05-20T05:16:19Z</time>
      </trkpt>
      <trkpt lat="44.34435" lon="1.78328">
        <ele>361.11</ele>
        <time>2026-05-20T05:16:20Z</time>
      </trkpt>
      <trkpt lat="44.34417" lon="1.78343">
        <ele>358.71</ele>
        <time>2026-05-20T05:16:36Z</time>
      </trkpt>
      <trkpt lat="44.34408" lon="1.7835">
        <ele>358.23</ele>
        <time>2026-05-20T05:16:45Z</time>
      </trkpt>
      <trkpt lat="44.34407" lon="1.78352">
        <ele>358.23</ele>
        <time>2026-05-20T05:16:46Z</time>
      </trkpt>
      <trkpt lat="44.34406" lon="1.78353">
        <ele>357.27</ele>
        <time>2026-05-20T05:16:47Z</time>
      </trkpt>
      <trkpt lat="44.34405" lon="1.78355">
        <ele>357.27</ele>
        <time>2026-05-20T05:16:48Z</time>
      </trkpt>
      <trkpt lat="44.34404" lon="1.78357">
        <ele>357.27</ele>
        <time>2026-05-20T05:16:49Z</time>
      </trkpt>
      <trkpt lat="44.34397" lon="1.78384">
        <ele>356.31</ele>
        <time>2026-05-20T05:17:03Z</time>
      </trkpt>
      <trkpt lat="44.34393" lon="1.78411">
        <ele>355.34</ele>
        <time>2026-05-20T05:17:18Z</time>
      </trkpt>
      <trkpt lat="44.34391" lon="1.78415">
        <ele>355.34</ele>
        <time>2026-05-20T05:17:21Z</time>
      </trkpt>
      <trkpt lat="44.3439" lon="1.78417">
        <ele>355.34</ele>
        <time>2026-05-20T05:17:22Z</time>
      </trkpt>
      <trkpt lat="44.34389" lon="1.78418">
        <ele>355.34</ele>
        <time>2026-05-20T05:17:23Z</time>
      </trkpt>
      <trkpt lat="44.34372" lon="1.78432">
        <ele>355.34</ele>
        <time>2026-05-20T05:17:39Z</time>
      </trkpt>
      <trkpt lat="44.34354" lon="1.78448">
        <ele>357.27</ele>
        <time>2026-05-20T05:17:58Z</time>
      </trkpt>
      <trkpt lat="44.34336" lon="1.78458">
        <ele>359.67</ele>
        <time>2026-05-20T05:18:15Z</time>
      </trkpt>
      <trkpt lat="44.34325" lon="1.78471">
        <ele>362.07</ele>
        <time>2026-05-20T05:18:33Z</time>
      </trkpt>
      <trkpt lat="44.3432" lon="1.78476">
        <ele>363.04</ele>
        <time>2026-05-20T05:18:39Z</time>
      </trkpt>
      <trkpt lat="44.34319" lon="1.78477">
        <ele>363.04</ele>
        <time>2026-05-20T05:18:40Z</time>
      </trkpt>
      <trkpt lat="44.34306" lon="1.78491">
        <ele>364.96</ele>
        <time>2026-05-20T05:18:53Z</time>
      </trkpt>
      <trkpt lat="44.34304" lon="1.78492">
        <ele>364.96</ele>
        <time>2026-05-20T05:18:54Z</time>
      </trkpt>
      <trkpt lat="44.34302" lon="1.78493">
        <ele>364.96</ele>
        <time>2026-05-20T05:18:55Z</time>
      </trkpt>
      <trkpt lat="44.34286" lon="1.78513">
        <ele>365.92</ele>
        <time>2026-05-20T05:19:10Z</time>
      </trkpt>
      <trkpt lat="44.3428" lon="1.78524">
        <ele>366.4</ele>
        <time>2026-05-20T05:19:17Z</time>
      </trkpt>
      <trkpt lat="44.34279" lon="1.78525">
        <ele>366.4</ele>
        <time>2026-05-20T05:19:18Z</time>
      </trkpt>
      <trkpt lat="44.34278" lon="1.78527">
        <ele>366.4</ele>
        <time>2026-05-20T05:19:19Z</time>
      </trkpt>
      <trkpt lat="44.34277" lon="1.78528">
        <ele>366.4</ele>
        <time>2026-05-20T05:19:20Z</time>
      </trkpt>
      <trkpt lat="44.34276" lon="1.7853">
        <ele>366.4</ele>
        <time>2026-05-20T05:19:21Z</time>
      </trkpt>
      <trkpt lat="44.34275" lon="1.78532">
        <ele>366.4</ele>
        <time>2026-05-20T05:19:22Z</time>
      </trkpt>
      <trkpt lat="44.34274" lon="1.78534">
        <ele>366.4</ele>
        <time>2026-05-20T05:19:23Z</time>
      </trkpt>
      <trkpt lat="44.34262" lon="1.7855">
        <ele>366.88</ele>
        <time>2026-05-20T05:19:36Z</time>
      </trkpt>
      <trkpt lat="44.34252" lon="1.78568">
        <ele>366.88</ele>
        <time>2026-05-20T05:19:49Z</time>
      </trkpt>
      <trkpt lat="44.34241" lon="1.78589">
        <ele>367.36</ele>
        <time>2026-05-20T05:20:02Z</time>
      </trkpt>
      <trkpt lat="44.34233" lon="1.78608">
        <ele>367.36</ele>
        <time>2026-05-20T05:20:15Z</time>
      </trkpt>
      <trkpt lat="44.34226" lon="1.78633">
        <ele>367.36</ele>
        <time>2026-05-20T05:20:30Z</time>
      </trkpt>
      <trkpt lat="44.34221" lon="1.78657">
        <ele>367.36</ele>
        <time>2026-05-20T05:20:43Z</time>
      </trkpt>
      <trkpt lat="44.34216" lon="1.78683">
        <ele>367.36</ele>
        <time>2026-05-20T05:20:57Z</time>
      </trkpt>
      <trkpt lat="44.34208" lon="1.78707">
        <ele>367.36</ele>
        <time>2026-05-20T05:21:11Z</time>
      </trkpt>
      <trkpt lat="44.34201" lon="1.78728">
        <ele>367.36</ele>
        <time>2026-05-20T05:21:24Z</time>
      </trkpt>
      <trkpt lat="44.34193" lon="1.78755">
        <ele>367.36</ele>
        <time>2026-05-20T05:21:39Z</time>
      </trkpt>
      <trkpt lat="44.34187" lon="1.78779">
        <ele>367.36</ele>
        <time>2026-05-20T05:21:54Z</time>
      </trkpt>
      <trkpt lat="44.34176" lon="1.78799">
        <ele>367.36</ele>
        <time>2026-05-20T05:22:08Z</time>
      </trkpt>
      <trkpt lat="44.3416" lon="1.78814">
        <ele>367.84</ele>
        <time>2026-05-20T05:22:22Z</time>
      </trkpt>
      <trkpt lat="44.34142" lon="1.78819">
        <ele>367.84</ele>
        <time>2026-05-20T05:22:35Z</time>
      </trkpt>
      <trkpt lat="44.34122" lon="1.78822">
        <ele>367.84</ele>
        <time>2026-05-20T05:22:50Z</time>
      </trkpt>
      <trkpt lat="44.3411" lon="1.78833">
        <ele>366.4</ele>
        <time>2026-05-20T05:23:03Z</time>
      </trkpt>
      <trkpt lat="44.34111" lon="1.78833">
        <ele>367.36</ele>
        <time>2026-05-20T05:23:05Z</time>
      </trkpt>
      <trkpt lat="44.34112" lon="1.78834">
        <ele>367.84</ele>
        <time>2026-05-20T05:23:17Z</time>
      </trkpt>
      <trkpt lat="44.34111" lon="1.78835">
        <ele>367.84</ele>
        <time>2026-05-20T05:23:18Z</time>
      </trkpt>
      <trkpt lat="44.34109" lon="1.78835">
        <ele>367.84</ele>
        <time>2026-05-20T05:23:19Z</time>
      </trkpt>
      <trkpt lat="44.34108" lon="1.78835">
        <ele>367.84</ele>
        <time>2026-05-20T05:23:20Z</time>
      </trkpt>
      <trkpt lat="44.34106" lon="1.78836">
        <ele>367.84</ele>
        <time>2026-05-20T05:23:21Z</time>
      </trkpt>
      <trkpt lat="44.34105" lon="1.78836">
        <ele>367.84</ele>
        <time>2026-05-20T05:23:22Z</time>
      </trkpt>
      <trkpt lat="44.34104" lon="1.78836">
        <ele>367.84</ele>
        <time>2026-05-20T05:23:23Z</time>
      </trkpt>
      <trkpt lat="44.34092" lon="1.78842">
        <ele>366.4</ele>
        <time>2026-05-20T05:23:34Z</time>
      </trkpt>
      <trkpt lat="44.34077" lon="1.78854">
        <ele>366.4</ele>
        <time>2026-05-20T05:23:48Z</time>
      </trkpt>
      <trkpt lat="44.34064" lon="1.78864">
        <ele>366.4</ele>
        <time>2026-05-20T05:23:59Z</time>
      </trkpt>
      <trkpt lat="44.34063" lon="1.78867">
        <ele>366.4</ele>
        <time>2026-05-20T05:24:00Z</time>
      </trkpt>
      <trkpt lat="44.34062" lon="1.78868">
        <ele>366.4</ele>
        <time>2026-05-20T05:24:01Z</time>
      </trkpt>
      <trkpt lat="44.34061" lon="1.78871">
        <ele>366.4</ele>
        <time>2026-05-20T05:24:03Z</time>
      </trkpt>
      <trkpt lat="44.3406" lon="1.78874">
        <ele>366.4</ele>
        <time>2026-05-20T05:24:04Z</time>
      </trkpt>
      <trkpt lat="44.34046" lon="1.78889">
        <ele>366.4</ele>
        <time>2026-05-20T05:24:19Z</time>
      </trkpt>
      <trkpt lat="44.34024" lon="1.78903">
        <ele>365.92</ele>
        <time>2026-05-20T05:24:36Z</time>
      </trkpt>
      <trkpt lat="44.34002" lon="1.78919">
        <ele>365.44</ele>
        <time>2026-05-20T05:24:54Z</time>
      </trkpt>
      <trkpt lat="44.33994" lon="1.78926">
        <ele>364.96</ele>
        <time>2026-05-20T05:25:00Z</time>
      </trkpt>
      <trkpt lat="44.33992" lon="1.78928">
        <ele>364.96</ele>
        <time>2026-05-20T05:25:01Z</time>
      </trkpt>
      <trkpt lat="44.33977" lon="1.78941">
        <ele>364.96</ele>
        <time>2026-05-20T05:25:15Z</time>
      </trkpt>
      <trkpt lat="44.33959" lon="1.78958">
        <ele>364.96</ele>
        <time>2026-05-20T05:25:31Z</time>
      </trkpt>
      <trkpt lat="44.33945" lon="1.78969">
        <ele>364.96</ele>
        <time>2026-05-20T05:25:45Z</time>
      </trkpt>
      <trkpt lat="44.33942" lon="1.78973">
        <ele>364.96</ele>
        <time>2026-05-20T05:25:48Z</time>
      </trkpt>
      <trkpt lat="44.3393" lon="1.78987">
        <ele>364.48</ele>
        <time>2026-05-20T05:26:02Z</time>
      </trkpt>
      <trkpt lat="44.33928" lon="1.78989">
        <ele>364.48</ele>
        <time>2026-05-20T05:26:03Z</time>
      </trkpt>
      <trkpt lat="44.33926" lon="1.7899">
        <ele>364.48</ele>
        <time>2026-05-20T05:26:04Z</time>
      </trkpt>
      <trkpt lat="44.33913" lon="1.79003">
        <ele>364.48</ele>
        <time>2026-05-20T05:26:17Z</time>
      </trkpt>
      <trkpt lat="44.33897" lon="1.7902">
        <ele>364.48</ele>
        <time>2026-05-20T05:26:33Z</time>
      </trkpt>
      <trkpt lat="44.33885" lon="1.79031">
        <ele>364.96</ele>
        <time>2026-05-20T05:26:45Z</time>
      </trkpt>
      <trkpt lat="44.33884" lon="1.79032">
        <ele>364.48</ele>
        <time>2026-05-20T05:26:46Z</time>
      </trkpt>
      <trkpt lat="44.3386" lon="1.79047">
        <ele>364.96</ele>
        <time>2026-05-20T05:27:03Z</time>
      </trkpt>
      <trkpt lat="44.3384" lon="1.79063">
        <ele>364.96</ele>
        <time>2026-05-20T05:27:21Z</time>
      </trkpt>
      <trkpt lat="44.33819" lon="1.79079">
        <ele>364.96</ele>
        <time>2026-05-20T05:27:38Z</time>
      </trkpt>
      <trkpt lat="44.33806" lon="1.79091">
        <ele>366.4</ele>
        <time>2026-05-20T05:27:51Z</time>
      </trkpt>
      <trkpt lat="44.33793" lon="1.79107">
        <ele>366.88</ele>
        <time>2026-05-20T05:28:06Z</time>
      </trkpt>
      <trkpt lat="44.33777" lon="1.79124">
        <ele>367.84</ele>
        <time>2026-05-20T05:28:22Z</time>
      </trkpt>
      <trkpt lat="44.33761" lon="1.79145">
        <ele>368.32</ele>
        <time>2026-05-20T05:28:41Z</time>
      </trkpt>
      <trkpt lat="44.33741" lon="1.79163">
        <ele>369.76</ele>
        <time>2026-05-20T05:28:57Z</time>
      </trkpt>
      <trkpt lat="44.33723" lon="1.79185">
        <ele>368.32</ele>
        <time>2026-05-20T05:29:17Z</time>
      </trkpt>
      <trkpt lat="44.33718" lon="1.79191">
        <ele>367.84</ele>
        <time>2026-05-20T05:29:23Z</time>
      </trkpt>
      <trkpt lat="44.33712" lon="1.79197">
        <ele>367.36</ele>
        <time>2026-05-20T05:29:29Z</time>
      </trkpt>
      <trkpt lat="44.33698" lon="1.79204">
        <ele>364</ele>
        <time>2026-05-20T05:29:39Z</time>
      </trkpt>
      <trkpt lat="44.33697" lon="1.79205">
        <ele>365.92</ele>
        <time>2026-05-20T05:29:40Z</time>
      </trkpt>
      <trkpt lat="44.33696" lon="1.79206">
        <ele>365.92</ele>
        <time>2026-05-20T05:29:41Z</time>
      </trkpt>
      <trkpt lat="44.33692" lon="1.79208">
        <ele>364.48</ele>
        <time>2026-05-20T05:29:44Z</time>
      </trkpt>
      <trkpt lat="44.33682" lon="1.79214">
        <ele>361.59</ele>
        <time>2026-05-20T05:29:54Z</time>
      </trkpt>
      <trkpt lat="44.3368" lon="1.79215">
        <ele>361.59</ele>
        <time>2026-05-20T05:29:55Z</time>
      </trkpt>
      <trkpt lat="44.33664" lon="1.79226">
        <ele>358.71</ele>
        <time>2026-05-20T05:30:09Z</time>
      </trkpt>
      <trkpt lat="44.3366" lon="1.79231">
        <ele>357.75</ele>
        <time>2026-05-20T05:30:14Z</time>
      </trkpt>
      <trkpt lat="44.33659" lon="1.79233">
        <ele>357.75</ele>
        <time>2026-05-20T05:30:15Z</time>
      </trkpt>
      <trkpt lat="44.33641" lon="1.79244">
        <ele>355.83</ele>
        <time>2026-05-20T05:30:29Z</time>
      </trkpt>
      <trkpt lat="44.33626" lon="1.79251">
        <ele>354.86</ele>
        <time>2026-05-20T05:30:41Z</time>
      </trkpt>
      <trkpt lat="44.33612" lon="1.7926">
        <ele>353.9</ele>
        <time>2026-05-20T05:30:53Z</time>
      </trkpt>
      <trkpt lat="44.336" lon="1.79271">
        <ele>352.94</ele>
        <time>2026-05-20T05:31:05Z</time>
      </trkpt>
      <trkpt lat="44.33583" lon="1.79279">
        <ele>351.98</ele>
        <time>2026-05-20T05:31:18Z</time>
      </trkpt>
      <trkpt lat="44.33581" lon="1.7928">
        <ele>351.98</ele>
        <time>2026-05-20T05:31:19Z</time>
      </trkpt>
      <trkpt lat="44.3358" lon="1.7928">
        <ele>351.98</ele>
        <time>2026-05-20T05:31:20Z</time>
      </trkpt>
      <trkpt lat="44.33567" lon="1.79289">
        <ele>351.02</ele>
        <time>2026-05-20T05:31:33Z</time>
      </trkpt>
      <trkpt lat="44.33545" lon="1.793">
        <ele>349.1</ele>
        <time>2026-05-20T05:31:52Z</time>
      </trkpt>
      <trkpt lat="44.33525" lon="1.79309">
        <ele>348.13</ele>
        <time>2026-05-20T05:32:06Z</time>
      </trkpt>
      <trkpt lat="44.33505" lon="1.79315">
        <ele>347.17</ele>
        <time>2026-05-20T05:32:21Z</time>
      </trkpt>
      <trkpt lat="44.33488" lon="1.79323">
        <ele>345.73</ele>
        <time>2026-05-20T05:32:34Z</time>
      </trkpt>
      <trkpt lat="44.33485" lon="1.79326">
        <ele>345.25</ele>
        <time>2026-05-20T05:32:37Z</time>
      </trkpt>
      <trkpt lat="44.3347" lon="1.79342">
        <ele>343.33</ele>
        <time>2026-05-20T05:32:55Z</time>
      </trkpt>
      <trkpt lat="44.33452" lon="1.7935">
        <ele>341.41</ele>
        <time>2026-05-20T05:33:09Z</time>
      </trkpt>
      <trkpt lat="44.33451" lon="1.79351">
        <ele>341.41</ele>
        <time>2026-05-20T05:33:10Z</time>
      </trkpt>
      <trkpt lat="44.33429" lon="1.79367">
        <ele>340.92</ele>
        <time>2026-05-20T05:33:26Z</time>
      </trkpt>
      <trkpt lat="44.33422" lon="1.79374">
        <ele>339.96</ele>
        <time>2026-05-20T05:33:32Z</time>
      </trkpt>
      <trkpt lat="44.33421" lon="1.79376">
        <ele>339.96</ele>
        <time>2026-05-20T05:33:33Z</time>
      </trkpt>
      <trkpt lat="44.33418" lon="1.79399">
        <ele>339.48</ele>
        <time>2026-05-20T05:33:45Z</time>
      </trkpt>
      <trkpt lat="44.33417" lon="1.79401">
        <ele>339.48</ele>
        <time>2026-05-20T05:33:46Z</time>
      </trkpt>
      <trkpt lat="44.3341" lon="1.79429">
        <ele>339.48</ele>
        <time>2026-05-20T05:34:02Z</time>
      </trkpt>
      <trkpt lat="44.33407" lon="1.79434">
        <ele>339.48</ele>
        <time>2026-05-20T05:34:19Z</time>
      </trkpt>
      <trkpt lat="44.33406" lon="1.79447">
        <ele>340.92</ele>
        <time>2026-05-20T05:34:34Z</time>
      </trkpt>
      <trkpt lat="44.33404" lon="1.79454">
        <ele>341.41</ele>
        <time>2026-05-20T05:34:39Z</time>
      </trkpt>
      <trkpt lat="44.33403" lon="1.79456">
        <ele>341.41</ele>
        <time>2026-05-20T05:34:40Z</time>
      </trkpt>
      <trkpt lat="44.33401" lon="1.79468">
        <ele>341.89</ele>
        <time>2026-05-20T05:34:53Z</time>
      </trkpt>
      <trkpt lat="44.33398" lon="1.79469">
        <ele>343.33</ele>
        <time>2026-05-20T05:35:00Z</time>
      </trkpt>
      <trkpt lat="44.33397" lon="1.79471">
        <ele>341.89</ele>
        <time>2026-05-20T05:35:14Z</time>
      </trkpt>
      <trkpt lat="44.33389" lon="1.79468">
        <ele>341.89</ele>
        <time>2026-05-20T05:35:41Z</time>
      </trkpt>
      <trkpt lat="44.3339" lon="1.79474">
        <ele>341.89</ele>
        <time>2026-05-20T05:36:11Z</time>
      </trkpt>
      <trkpt lat="44.33386" lon="1.79481">
        <ele>341.89</ele>
        <time>2026-05-20T05:36:24Z</time>
      </trkpt>
      <trkpt lat="44.33383" lon="1.79485">
        <ele>343.33</ele>
        <time>2026-05-20T05:36:30Z</time>
      </trkpt>
      <trkpt lat="44.33381" lon="1.79487">
        <ele>343.33</ele>
        <time>2026-05-20T05:36:32Z</time>
      </trkpt>
      <trkpt lat="44.33381" lon="1.79488">
        <ele>343.81</ele>
        <time>2026-05-20T05:36:33Z</time>
      </trkpt>
      <trkpt lat="44.33371" lon="1.79499">
        <ele>344.77</ele>
        <time>2026-05-20T05:36:46Z</time>
      </trkpt>
      <trkpt lat="44.33363" lon="1.79506">
        <ele>346.21</ele>
        <time>2026-05-20T05:36:56Z</time>
      </trkpt>
      <trkpt lat="44.3336" lon="1.79507">
        <ele>346.21</ele>
        <time>2026-05-20T05:36:57Z</time>
      </trkpt>
      <trkpt lat="44.33343" lon="1.79521">
        <ele>348.13</ele>
        <time>2026-05-20T05:37:12Z</time>
      </trkpt>
      <trkpt lat="44.33334" lon="1.79536">
        <ele>348.62</ele>
        <time>2026-05-20T05:37:26Z</time>
      </trkpt>
      <trkpt lat="44.33327" lon="1.79543">
        <ele>349.58</ele>
        <time>2026-05-20T05:37:34Z</time>
      </trkpt>
      <trkpt lat="44.33326" lon="1.79543">
        <ele>349.58</ele>
        <time>2026-05-20T05:37:35Z</time>
      </trkpt>
      <trkpt lat="44.33316" lon="1.7955">
        <ele>350.06</ele>
        <time>2026-05-20T05:37:43Z</time>
      </trkpt>
      <trkpt lat="44.33315" lon="1.79551">
        <ele>350.06</ele>
        <time>2026-05-20T05:37:44Z</time>
      </trkpt>
      <trkpt lat="44.33297" lon="1.7957">
        <ele>351.02</ele>
        <time>2026-05-20T05:38:00Z</time>
      </trkpt>
      <trkpt lat="44.33294" lon="1.79574">
        <ele>351.02</ele>
        <time>2026-05-20T05:38:05Z</time>
      </trkpt>
      <trkpt lat="44.33293" lon="1.79576">
        <ele>351.02</ele>
        <time>2026-05-20T05:38:06Z</time>
      </trkpt>
      <trkpt lat="44.33282" lon="1.79585">
        <ele>351.5</ele>
        <time>2026-05-20T05:38:16Z</time>
      </trkpt>
      <trkpt lat="44.33281" lon="1.79586">
        <ele>351.5</ele>
        <time>2026-05-20T05:38:17Z</time>
      </trkpt>
      <trkpt lat="44.3328" lon="1.79587">
        <ele>351.5</ele>
        <time>2026-05-20T05:38:18Z</time>
      </trkpt>
      <trkpt lat="44.33262" lon="1.79592">
        <ele>351.98</ele>
        <time>2026-05-20T05:38:32Z</time>
      </trkpt>
      <trkpt lat="44.33239" lon="1.79594">
        <ele>352.94</ele>
        <time>2026-05-20T05:38:49Z</time>
      </trkpt>
      <trkpt lat="44.33216" lon="1.79593">
        <ele>353.42</ele>
        <time>2026-05-20T05:39:07Z</time>
      </trkpt>
      <trkpt lat="44.33192" lon="1.7959">
        <ele>353.9</ele>
        <time>2026-05-20T05:39:26Z</time>
      </trkpt>
      <trkpt lat="44.3317" lon="1.79589">
        <ele>354.38</ele>
        <time>2026-05-20T05:39:43Z</time>
      </trkpt>
      <trkpt lat="44.33147" lon="1.79584">
        <ele>354.86</ele>
        <time>2026-05-20T05:40:00Z</time>
      </trkpt>
      <trkpt lat="44.33128" lon="1.79581">
        <ele>355.34</ele>
        <time>2026-05-20T05:40:15Z</time>
      </trkpt>
      <trkpt lat="44.3311" lon="1.79577">
        <ele>356.31</ele>
        <time>2026-05-20T05:40:29Z</time>
      </trkpt>
      <trkpt lat="44.33092" lon="1.79573">
        <ele>357.75</ele>
        <time>2026-05-20T05:40:45Z</time>
      </trkpt>
      <trkpt lat="44.33071" lon="1.7957">
        <ele>358.71</ele>
        <time>2026-05-20T05:41:02Z</time>
      </trkpt>
      <trkpt lat="44.33047" lon="1.79577">
        <ele>359.19</ele>
        <time>2026-05-20T05:41:21Z</time>
      </trkpt>
      <trkpt lat="44.33025" lon="1.79589">
        <ele>359.19</ele>
        <time>2026-05-20T05:41:37Z</time>
      </trkpt>
      <trkpt lat="44.33008" lon="1.79609">
        <ele>359.19</ele>
        <time>2026-05-20T05:41:53Z</time>
      </trkpt>
      <trkpt lat="44.32995" lon="1.79635">
        <ele>359.67</ele>
        <time>2026-05-20T05:42:10Z</time>
      </trkpt>
      <trkpt lat="44.32981" lon="1.79661">
        <ele>359.67</ele>
        <time>2026-05-20T05:42:27Z</time>
      </trkpt>
      <trkpt lat="44.32963" lon="1.79683">
        <ele>359.67</ele>
        <time>2026-05-20T05:42:45Z</time>
      </trkpt>
      <trkpt lat="44.32958" lon="1.79689">
        <ele>358.23</ele>
        <time>2026-05-20T05:42:51Z</time>
      </trkpt>
      <trkpt lat="44.3294" lon="1.79711">
        <ele>356.79</ele>
        <time>2026-05-20T05:43:08Z</time>
      </trkpt>
      <trkpt lat="44.32936" lon="1.79715">
        <ele>356.79</ele>
        <time>2026-05-20T05:43:11Z</time>
      </trkpt>
      <trkpt lat="44.32935" lon="1.79717">
        <ele>356.79</ele>
        <time>2026-05-20T05:43:12Z</time>
      </trkpt>
      <trkpt lat="44.32934" lon="1.79719">
        <ele>356.79</ele>
        <time>2026-05-20T05:43:13Z</time>
      </trkpt>
      <trkpt lat="44.32933" lon="1.7972">
        <ele>356.79</ele>
        <time>2026-05-20T05:43:14Z</time>
      </trkpt>
      <trkpt lat="44.32931" lon="1.79722">
        <ele>356.79</ele>
        <time>2026-05-20T05:43:15Z</time>
      </trkpt>
      <trkpt lat="44.3293" lon="1.79723">
        <ele>356.79</ele>
        <time>2026-05-20T05:43:16Z</time>
      </trkpt>
      <trkpt lat="44.32916" lon="1.79739">
        <ele>355.83</ele>
        <time>2026-05-20T05:43:31Z</time>
      </trkpt>
      <trkpt lat="44.329" lon="1.79756">
        <ele>354.86</ele>
        <time>2026-05-20T05:43:47Z</time>
      </trkpt>
      <trkpt lat="44.32882" lon="1.79773">
        <ele>353.9</ele>
        <time>2026-05-20T05:44:03Z</time>
      </trkpt>
      <trkpt lat="44.32866" lon="1.7979">
        <ele>353.42</ele>
        <time>2026-05-20T05:44:18Z</time>
      </trkpt>
      <trkpt lat="44.32853" lon="1.79807">
        <ele>353.42</ele>
        <time>2026-05-20T05:44:32Z</time>
      </trkpt>
      <trkpt lat="44.32851" lon="1.79812">
        <ele>353.42</ele>
        <time>2026-05-20T05:44:35Z</time>
      </trkpt>
      <trkpt lat="44.3285" lon="1.79814">
        <ele>353.42</ele>
        <time>2026-05-20T05:44:36Z</time>
      </trkpt>
      <trkpt lat="44.32849" lon="1.79816">
        <ele>353.42</ele>
        <time>2026-05-20T05:44:37Z</time>
      </trkpt>
      <trkpt lat="44.3284" lon="1.79829">
        <ele>353.42</ele>
        <time>2026-05-20T05:44:48Z</time>
      </trkpt>
      <trkpt lat="44.32824" lon="1.79849">
        <ele>353.42</ele>
        <time>2026-05-20T05:45:02Z</time>
      </trkpt>
      <trkpt lat="44.32804" lon="1.79863">
        <ele>353.42</ele>
        <time>2026-05-20T05:45:19Z</time>
      </trkpt>
      <trkpt lat="44.32799" lon="1.79871">
        <ele>353.42</ele>
        <time>2026-05-20T05:45:27Z</time>
      </trkpt>
      <trkpt lat="44.32798" lon="1.79873">
        <ele>353.42</ele>
        <time>2026-05-20T05:45:28Z</time>
      </trkpt>
      <trkpt lat="44.32797" lon="1.79874">
        <ele>353.42</ele>
        <time>2026-05-20T05:45:29Z</time>
      </trkpt>
      <trkpt lat="44.32778" lon="1.79888">
        <ele>353.42</ele>
        <time>2026-05-20T05:45:44Z</time>
      </trkpt>
      <trkpt lat="44.32762" lon="1.79904">
        <ele>353.42</ele>
        <time>2026-05-20T05:45:58Z</time>
      </trkpt>
      <trkpt lat="44.32745" lon="1.79914">
        <ele>353.42</ele>
        <time>2026-05-20T05:46:12Z</time>
      </trkpt>
      <trkpt lat="44.32731" lon="1.79924">
        <ele>352.94</ele>
        <time>2026-05-20T05:46:25Z</time>
      </trkpt>
      <trkpt lat="44.32716" lon="1.79932">
        <ele>352.94</ele>
        <time>2026-05-20T05:46:38Z</time>
      </trkpt>
      <trkpt lat="44.32695" lon="1.7994">
        <ele>352.46</ele>
        <time>2026-05-20T05:46:55Z</time>
      </trkpt>
      <trkpt lat="44.32673" lon="1.79949">
        <ele>352.46</ele>
        <time>2026-05-20T05:47:10Z</time>
      </trkpt>
      <trkpt lat="44.32655" lon="1.7995">
        <ele>352.46</ele>
        <time>2026-05-20T05:47:27Z</time>
      </trkpt>
      <trkpt lat="44.32633" lon="1.79954">
        <ele>352.46</ele>
        <time>2026-05-20T05:47:44Z</time>
      </trkpt>
      <trkpt lat="44.32615" lon="1.7996">
        <ele>352.46</ele>
        <time>2026-05-20T05:47:59Z</time>
      </trkpt>
      <trkpt lat="44.32591" lon="1.79968">
        <ele>353.42</ele>
        <time>2026-05-20T05:48:16Z</time>
      </trkpt>
      <trkpt lat="44.32571" lon="1.79981">
        <ele>353.9</ele>
        <time>2026-05-20T05:48:33Z</time>
      </trkpt>
      <trkpt lat="44.32568" lon="1.79984">
        <ele>353.9</ele>
        <time>2026-05-20T05:48:37Z</time>
      </trkpt>
      <trkpt lat="44.32567" lon="1.79985">
        <ele>353.9</ele>
        <time>2026-05-20T05:48:38Z</time>
      </trkpt>
      <trkpt lat="44.32546" lon="1.79999">
        <ele>354.38</ele>
        <time>2026-05-20T05:48:55Z</time>
      </trkpt>
      <trkpt lat="44.32521" lon="1.80009">
        <ele>355.34</ele>
        <time>2026-05-20T05:49:13Z</time>
      </trkpt>
      <trkpt lat="44.32504" lon="1.80014">
        <ele>355.83</ele>
        <time>2026-05-20T05:49:30Z</time>
      </trkpt>
      <trkpt lat="44.32484" lon="1.80024">
        <ele>356.31</ele>
        <time>2026-05-20T05:49:47Z</time>
      </trkpt>
      <trkpt lat="44.32461" lon="1.80036">
        <ele>357.75</ele>
        <time>2026-05-20T05:50:04Z</time>
      </trkpt>
      <trkpt lat="44.32458" lon="1.8004">
        <ele>358.23</ele>
        <time>2026-05-20T05:50:07Z</time>
      </trkpt>
      <trkpt lat="44.32456" lon="1.80041">
        <ele>358.23</ele>
        <time>2026-05-20T05:50:08Z</time>
      </trkpt>
      <trkpt lat="44.32439" lon="1.8005">
        <ele>358.23</ele>
        <time>2026-05-20T05:50:22Z</time>
      </trkpt>
      <trkpt lat="44.32425" lon="1.80062">
        <ele>359.19</ele>
        <time>2026-05-20T05:50:37Z</time>
      </trkpt>
      <trkpt lat="44.32407" lon="1.80074">
        <ele>360.15</ele>
        <time>2026-05-20T05:50:52Z</time>
      </trkpt>
      <trkpt lat="44.32402" lon="1.80079">
        <ele>360.15</ele>
        <time>2026-05-20T05:50:59Z</time>
      </trkpt>
      <trkpt lat="44.32401" lon="1.8008">
        <ele>360.15</ele>
        <time>2026-05-20T05:51:00Z</time>
      </trkpt>
      <trkpt lat="44.324" lon="1.80081">
        <ele>360.15</ele>
        <time>2026-05-20T05:51:01Z</time>
      </trkpt>
      <trkpt lat="44.32388" lon="1.80093">
        <ele>360.63</ele>
        <time>2026-05-20T05:51:13Z</time>
      </trkpt>
      <trkpt lat="44.32365" lon="1.80104">
        <ele>361.59</ele>
        <time>2026-05-20T05:51:28Z</time>
      </trkpt>
      <trkpt lat="44.32349" lon="1.80125">
        <ele>362.07</ele>
        <time>2026-05-20T05:51:44Z</time>
      </trkpt>
      <trkpt lat="44.32341" lon="1.80135">
        <ele>362.07</ele>
        <time>2026-05-20T05:51:55Z</time>
      </trkpt>
      <trkpt lat="44.3234" lon="1.80136">
        <ele>362.07</ele>
        <time>2026-05-20T05:51:56Z</time>
      </trkpt>
      <trkpt lat="44.32338" lon="1.80136">
        <ele>362.07</ele>
        <time>2026-05-20T05:51:57Z</time>
      </trkpt>
      <trkpt lat="44.32319" lon="1.80153">
        <ele>362.55</ele>
        <time>2026-05-20T05:52:14Z</time>
      </trkpt>
      <trkpt lat="44.32298" lon="1.80166">
        <ele>362.55</ele>
        <time>2026-05-20T05:52:30Z</time>
      </trkpt>
      <trkpt lat="44.32276" lon="1.80176">
        <ele>363.04</ele>
        <time>2026-05-20T05:52:48Z</time>
      </trkpt>
      <trkpt lat="44.32263" lon="1.80181">
        <ele>363.52</ele>
        <time>2026-05-20T05:53:02Z</time>
      </trkpt>
      <trkpt lat="44.32257" lon="1.80178">
        <ele>364.48</ele>
        <time>2026-05-20T05:53:16Z</time>
      </trkpt>
      <trkpt lat="44.32253" lon="1.80159">
        <ele>364.96</ele>
        <time>2026-05-20T05:53:29Z</time>
      </trkpt>
      <trkpt lat="44.32252" lon="1.80147">
        <ele>365.44</ele>
        <time>2026-05-20T05:53:46Z</time>
      </trkpt>
      <trkpt lat="44.3225" lon="1.80138">
        <ele>365.44</ele>
        <time>2026-05-20T05:53:59Z</time>
      </trkpt>
      <trkpt lat="44.32249" lon="1.80112">
        <ele>366.88</ele>
        <time>2026-05-20T05:54:15Z</time>
      </trkpt>
      <trkpt lat="44.32243" lon="1.80092">
        <ele>368.32</ele>
        <time>2026-05-20T05:54:29Z</time>
      </trkpt>
      <trkpt lat="44.32238" lon="1.80075">
        <ele>369.28</ele>
        <time>2026-05-20T05:54:40Z</time>
      </trkpt>
      <trkpt lat="44.32232" lon="1.80059">
        <ele>370.24</ele>
        <time>2026-05-20T05:54:53Z</time>
      </trkpt>
      <trkpt lat="44.32225" lon="1.80032">
        <ele>371.21</ele>
        <time>2026-05-20T05:55:09Z</time>
      </trkpt>
      <trkpt lat="44.32221" lon="1.8001">
        <ele>372.17</ele>
        <time>2026-05-20T05:55:22Z</time>
      </trkpt>
      <trkpt lat="44.32216" lon="1.79993">
        <ele>372.65</ele>
        <time>2026-05-20T05:55:34Z</time>
      </trkpt>
      <trkpt lat="44.32213" lon="1.79982">
        <ele>373.13</ele>
        <time>2026-05-20T05:55:41Z</time>
      </trkpt>
      <trkpt lat="44.32212" lon="1.7998">
        <ele>373.13</ele>
        <time>2026-05-20T05:55:42Z</time>
      </trkpt>
      <trkpt lat="44.32211" lon="1.79975">
        <ele>372.65</ele>
        <time>2026-05-20T05:55:47Z</time>
      </trkpt>
      <trkpt lat="44.3221" lon="1.79973">
        <ele>373.13</ele>
        <time>2026-05-20T05:55:48Z</time>
      </trkpt>
      <trkpt lat="44.32207" lon="1.79966">
        <ele>373.13</ele>
        <time>2026-05-20T05:55:52Z</time>
      </trkpt>
      <trkpt lat="44.32206" lon="1.79964">
        <ele>373.13</ele>
        <time>2026-05-20T05:55:53Z</time>
      </trkpt>
      <trkpt lat="44.32202" lon="1.79954">
        <ele>373.61</ele>
        <time>2026-05-20T05:56:03Z</time>
      </trkpt>
      <trkpt lat="44.32199" lon="1.7995">
        <ele>373.61</ele>
        <time>2026-05-20T05:56:06Z</time>
      </trkpt>
      <trkpt lat="44.3219" lon="1.79933">
        <ele>374.09</ele>
        <time>2026-05-20T05:56:19Z</time>
      </trkpt>
      <trkpt lat="44.3219" lon="1.79932">
        <ele>374.09</ele>
        <time>2026-05-20T05:56:20Z</time>
      </trkpt>
      <trkpt lat="44.3219" lon="1.7993">
        <ele>374.09</ele>
        <time>2026-05-20T05:56:21Z</time>
      </trkpt>
      <trkpt lat="44.32181" lon="1.79917">
        <ele>374.57</ele>
        <time>2026-05-20T05:56:33Z</time>
      </trkpt>
      <trkpt lat="44.32168" lon="1.79905">
        <ele>375.53</ele>
        <time>2026-05-20T05:56:46Z</time>
      </trkpt>
      <trkpt lat="44.32156" lon="1.79896">
        <ele>376.01</ele>
        <time>2026-05-20T05:56:55Z</time>
      </trkpt>
      <trkpt lat="44.32146" lon="1.79885">
        <ele>376.01</ele>
        <time>2026-05-20T05:57:04Z</time>
      </trkpt>
      <trkpt lat="44.32145" lon="1.79883">
        <ele>376.49</ele>
        <time>2026-05-20T05:57:05Z</time>
      </trkpt>
      <trkpt lat="44.32143" lon="1.79882">
        <ele>376.49</ele>
        <time>2026-05-20T05:57:06Z</time>
      </trkpt>
      <trkpt lat="44.32141" lon="1.7988">
        <ele>376.49</ele>
        <time>2026-05-20T05:57:07Z</time>
      </trkpt>
      <trkpt lat="44.3214" lon="1.79879">
        <ele>376.49</ele>
        <time>2026-05-20T05:57:08Z</time>
      </trkpt>
      <trkpt lat="44.32127" lon="1.79869">
        <ele>376.97</ele>
        <time>2026-05-20T05:57:20Z</time>
      </trkpt>
      <trkpt lat="44.32115" lon="1.79862">
        <ele>377.94</ele>
        <time>2026-05-20T05:57:32Z</time>
      </trkpt>
      <trkpt lat="44.32109" lon="1.79859">
        <ele>377.94</ele>
        <time>2026-05-20T05:57:36Z</time>
      </trkpt>
      <trkpt lat="44.32096" lon="1.79855">
        <ele>379.38</ele>
        <time>2026-05-20T05:57:49Z</time>
      </trkpt>
      <trkpt lat="44.32092" lon="1.79856">
        <ele>379.38</ele>
        <time>2026-05-20T05:57:53Z</time>
      </trkpt>
      <trkpt lat="44.3209" lon="1.79855">
        <ele>379.38</ele>
        <time>2026-05-20T05:57:55Z</time>
      </trkpt>
      <trkpt lat="44.32085" lon="1.79855">
        <ele>379.86</ele>
        <time>2026-05-20T05:58:00Z</time>
      </trkpt>
      <trkpt lat="44.32083" lon="1.79855">
        <ele>380.34</ele>
        <time>2026-05-20T05:58:02Z</time>
      </trkpt>
      <trkpt lat="44.32068" lon="1.79852">
        <ele>382.74</ele>
        <time>2026-05-20T05:58:15Z</time>
      </trkpt>
      <trkpt lat="44.32055" lon="1.79844">
        <ele>384.66</ele>
        <time>2026-05-20T05:58:30Z</time>
      </trkpt>
      <trkpt lat="44.32048" lon="1.79836">
        <ele>386.59</ele>
        <time>2026-05-20T05:58:40Z</time>
      </trkpt>
      <trkpt lat="44.32043" lon="1.79822">
        <ele>388.03</ele>
        <time>2026-05-20T05:58:52Z</time>
      </trkpt>
      <trkpt lat="44.32041" lon="1.79817">
        <ele>388.51</ele>
        <time>2026-05-20T05:58:56Z</time>
      </trkpt>
      <trkpt lat="44.3204" lon="1.79815">
        <ele>388.99</ele>
        <time>2026-05-20T05:58:57Z</time>
      </trkpt>
      <trkpt lat="44.32032" lon="1.79804">
        <ele>389.95</ele>
        <time>2026-05-20T05:59:10Z</time>
      </trkpt>
      <trkpt lat="44.32024" lon="1.79795">
        <ele>390.43</ele>
        <time>2026-05-20T05:59:19Z</time>
      </trkpt>
      <trkpt lat="44.32023" lon="1.79794">
        <ele>390.43</ele>
        <time>2026-05-20T05:59:20Z</time>
      </trkpt>
      <trkpt lat="44.3201" lon="1.79783">
        <ele>390.91</ele>
        <time>2026-05-20T05:59:31Z</time>
      </trkpt>
      <trkpt lat="44.32" lon="1.79778">
        <ele>390.91</ele>
        <time>2026-05-20T05:59:39Z</time>
      </trkpt>
      <trkpt lat="44.31993" lon="1.7977">
        <ele>389.95</ele>
        <time>2026-05-20T05:59:46Z</time>
      </trkpt>
      <trkpt lat="44.31978" lon="1.79755">
        <ele>388.03</ele>
        <time>2026-05-20T05:59:58Z</time>
      </trkpt>
      <trkpt lat="44.31964" lon="1.79739">
        <ele>387.07</ele>
        <time>2026-05-20T06:00:14Z</time>
      </trkpt>
      <trkpt lat="44.31964" lon="1.79738">
        <ele>387.07</ele>
        <time>2026-05-20T06:00:15Z</time>
      </trkpt>
      <trkpt lat="44.31962" lon="1.79735">
        <ele>387.07</ele>
        <time>2026-05-20T06:00:17Z</time>
      </trkpt>
      <trkpt lat="44.3194" lon="1.7971">
        <ele>385.63</ele>
        <time>2026-05-20T06:00:35Z</time>
      </trkpt>
      <trkpt lat="44.31931" lon="1.797">
        <ele>385.15</ele>
        <time>2026-05-20T06:00:44Z</time>
      </trkpt>
      <trkpt lat="44.31915" lon="1.79681">
        <ele>384.18</ele>
        <time>2026-05-20T06:01:00Z</time>
      </trkpt>
      <trkpt lat="44.31909" lon="1.79673">
        <ele>383.7</ele>
        <time>2026-05-20T06:01:06Z</time>
      </trkpt>
      <trkpt lat="44.31906" lon="1.79667">
        <ele>383.7</ele>
        <time>2026-05-20T06:01:10Z</time>
      </trkpt>
      <trkpt lat="44.31902" lon="1.7966">
        <ele>383.7</ele>
        <time>2026-05-20T06:01:15Z</time>
      </trkpt>
      <trkpt lat="44.31885" lon="1.79638">
        <ele>382.26</ele>
        <time>2026-05-20T06:01:32Z</time>
      </trkpt>
      <trkpt lat="44.31878" lon="1.79617">
        <ele>381.3</ele>
        <time>2026-05-20T06:01:45Z</time>
      </trkpt>
      <trkpt lat="44.31873" lon="1.79607">
        <ele>380.82</ele>
        <time>2026-05-20T06:01:50Z</time>
      </trkpt>
      <trkpt lat="44.31871" lon="1.79595">
        <ele>380.34</ele>
        <time>2026-05-20T06:01:57Z</time>
      </trkpt>
      <trkpt lat="44.31869" lon="1.79588">
        <ele>379.38</ele>
        <time>2026-05-20T06:02:01Z</time>
      </trkpt>
      <trkpt lat="44.31866" lon="1.79571">
        <ele>378.9</ele>
        <time>2026-05-20T06:02:11Z</time>
      </trkpt>
      <trkpt lat="44.31859" lon="1.79545">
        <ele>377.94</ele>
        <time>2026-05-20T06:02:24Z</time>
      </trkpt>
      <trkpt lat="44.3185" lon="1.79523">
        <ele>376.49</ele>
        <time>2026-05-20T06:02:37Z</time>
      </trkpt>
      <trkpt lat="44.31848" lon="1.79517">
        <ele>376.49</ele>
        <time>2026-05-20T06:02:41Z</time>
      </trkpt>
      <trkpt lat="44.31845" lon="1.79506">
        <ele>375.53</ele>
        <time>2026-05-20T06:02:46Z</time>
      </trkpt>
      <trkpt lat="44.31843" lon="1.79494">
        <ele>375.05</ele>
        <time>2026-05-20T06:02:53Z</time>
      </trkpt>
      <trkpt lat="44.31844" lon="1.79468">
        <ele>372.65</ele>
        <time>2026-05-20T06:03:06Z</time>
      </trkpt>
      <trkpt lat="44.31843" lon="1.79448">
        <ele>371.69</ele>
        <time>2026-05-20T06:03:16Z</time>
      </trkpt>
      <trkpt lat="44.31843" lon="1.79424">
        <ele>370.24</ele>
        <time>2026-05-20T06:03:28Z</time>
      </trkpt>
      <trkpt lat="44.31844" lon="1.79405">
        <ele>369.76</ele>
        <time>2026-05-20T06:03:38Z</time>
      </trkpt>
      <trkpt lat="44.31844" lon="1.79403">
        <ele>369.76</ele>
        <time>2026-05-20T06:03:39Z</time>
      </trkpt>
      <trkpt lat="44.31842" lon="1.79398">
        <ele>369.76</ele>
        <time>2026-05-20T06:03:42Z</time>
      </trkpt>
      <trkpt lat="44.31842" lon="1.79396">
        <ele>369.76</ele>
        <time>2026-05-20T06:03:43Z</time>
      </trkpt>
      <trkpt lat="44.31842" lon="1.79394">
        <ele>368.8</ele>
        <time>2026-05-20T06:03:44Z</time>
      </trkpt>
      <trkpt lat="44.31843" lon="1.79392">
        <ele>368.8</ele>
        <time>2026-05-20T06:03:45Z</time>
      </trkpt>
      <trkpt lat="44.31843" lon="1.79391">
        <ele>369.28</ele>
        <time>2026-05-20T06:03:46Z</time>
      </trkpt>
      <trkpt lat="44.31843" lon="1.79388">
        <ele>368.8</ele>
        <time>2026-05-20T06:03:47Z</time>
      </trkpt>
      <trkpt lat="44.31843" lon="1.79386">
        <ele>368.8</ele>
        <time>2026-05-20T06:03:48Z</time>
      </trkpt>
      <trkpt lat="44.31843" lon="1.79383">
        <ele>368.8</ele>
        <time>2026-05-20T06:03:49Z</time>
      </trkpt>
      <trkpt lat="44.31844" lon="1.79374">
        <ele>368.32</ele>
        <time>2026-05-20T06:03:55Z</time>
      </trkpt>
      <trkpt lat="44.31844" lon="1.79373">
        <ele>368.32</ele>
        <time>2026-05-20T06:03:56Z</time>
      </trkpt>
      <trkpt lat="44.31844" lon="1.79371">
        <ele>368.32</ele>
        <time>2026-05-20T06:03:57Z</time>
      </trkpt>
      <trkpt lat="44.31844" lon="1.79368">
        <ele>368.32</ele>
        <time>2026-05-20T06:03:58Z</time>
      </trkpt>
      <trkpt lat="44.31844" lon="1.79366">
        <ele>368.32</ele>
        <time>2026-05-20T06:03:59Z</time>
      </trkpt>
      <trkpt lat="44.31844" lon="1.79364">
        <ele>368.32</ele>
        <time>2026-05-20T06:04:00Z</time>
      </trkpt>
      <trkpt lat="44.31843" lon="1.79345">
        <ele>368.32</ele>
        <time>2026-05-20T06:04:11Z</time>
      </trkpt>
      <trkpt lat="44.31842" lon="1.79342">
        <ele>368.32</ele>
        <time>2026-05-20T06:04:12Z</time>
      </trkpt>
      <trkpt lat="44.31842" lon="1.7934">
        <ele>368.32</ele>
        <time>2026-05-20T06:04:13Z</time>
      </trkpt>
      <trkpt lat="44.31842" lon="1.79338">
        <ele>368.32</ele>
        <time>2026-05-20T06:04:14Z</time>
      </trkpt>
      <trkpt lat="44.31842" lon="1.79336">
        <ele>368.32</ele>
        <time>2026-05-20T06:04:15Z</time>
      </trkpt>
      <trkpt lat="44.31841" lon="1.79317">
        <ele>368.32</ele>
        <time>2026-05-20T06:04:28Z</time>
      </trkpt>
      <trkpt lat="44.31839" lon="1.79304">
        <ele>368.32</ele>
        <time>2026-05-20T06:04:35Z</time>
      </trkpt>
      <trkpt lat="44.31834" lon="1.7929">
        <ele>368.32</ele>
        <time>2026-05-20T06:04:45Z</time>
      </trkpt>
      <trkpt lat="44.31829" lon="1.79268">
        <ele>370.73</ele>
        <time>2026-05-20T06:04:59Z</time>
      </trkpt>
      <trkpt lat="44.31824" lon="1.79258">
        <ele>371.21</ele>
        <time>2026-05-20T06:05:07Z</time>
      </trkpt>
      <trkpt lat="44.31824" lon="1.79256">
        <ele>371.21</ele>
        <time>2026-05-20T06:05:08Z</time>
      </trkpt>
      <trkpt lat="44.31818" lon="1.7924">
        <ele>372.65</ele>
        <time>2026-05-20T06:05:20Z</time>
      </trkpt>
      <trkpt lat="44.31807" lon="1.79222">
        <ele>375.05</ele>
        <time>2026-05-20T06:05:35Z</time>
      </trkpt>
      <trkpt lat="44.31791" lon="1.79203">
        <ele>376.49</ele>
        <time>2026-05-20T06:05:52Z</time>
      </trkpt>
      <trkpt lat="44.31789" lon="1.79201">
        <ele>376.49</ele>
        <time>2026-05-20T06:05:54Z</time>
      </trkpt>
      <trkpt lat="44.31788" lon="1.792">
        <ele>376.49</ele>
        <time>2026-05-20T06:05:55Z</time>
      </trkpt>
      <trkpt lat="44.31786" lon="1.79199">
        <ele>376.49</ele>
        <time>2026-05-20T06:05:56Z</time>
      </trkpt>
      <trkpt lat="44.31785" lon="1.79199">
        <ele>376.49</ele>
        <time>2026-05-20T06:05:57Z</time>
      </trkpt>
      <trkpt lat="44.31778" lon="1.79192">
        <ele>376.97</ele>
        <time>2026-05-20T06:06:11Z</time>
      </trkpt>
      <trkpt lat="44.31766" lon="1.79186">
        <ele>376.01</ele>
        <time>2026-05-20T06:06:30Z</time>
      </trkpt>
      <trkpt lat="44.31748" lon="1.79171">
        <ele>375.53</ele>
        <time>2026-05-20T06:06:44Z</time>
      </trkpt>
      <trkpt lat="44.31731" lon="1.7916">
        <ele>374.09</ele>
        <time>2026-05-20T06:06:57Z</time>
      </trkpt>
      <trkpt lat="44.31716" lon="1.7915">
        <ele>373.13</ele>
        <time>2026-05-20T06:07:09Z</time>
      </trkpt>
      <trkpt lat="44.31702" lon="1.79141">
        <ele>372.65</ele>
        <time>2026-05-20T06:07:21Z</time>
      </trkpt>
      <trkpt lat="44.31694" lon="1.79135">
        <ele>372.65</ele>
        <time>2026-05-20T06:07:28Z</time>
      </trkpt>
      <trkpt lat="44.31693" lon="1.79134">
        <ele>372.65</ele>
        <time>2026-05-20T06:07:29Z</time>
      </trkpt>
      <trkpt lat="44.31691" lon="1.79134">
        <ele>372.65</ele>
        <time>2026-05-20T06:07:30Z</time>
      </trkpt>
      <trkpt lat="44.31689" lon="1.79133">
        <ele>372.65</ele>
        <time>2026-05-20T06:07:31Z</time>
      </trkpt>
      <trkpt lat="44.31688" lon="1.79132">
        <ele>372.17</ele>
        <time>2026-05-20T06:07:32Z</time>
      </trkpt>
      <trkpt lat="44.31687" lon="1.79131">
        <ele>372.17</ele>
        <time>2026-05-20T06:07:33Z</time>
      </trkpt>
      <trkpt lat="44.31685" lon="1.7913">
        <ele>372.17</ele>
        <time>2026-05-20T06:07:34Z</time>
      </trkpt>
      <trkpt lat="44.31684" lon="1.79129">
        <ele>372.17</ele>
        <time>2026-05-20T06:07:35Z</time>
      </trkpt>
      <trkpt lat="44.31681" lon="1.79128">
        <ele>372.17</ele>
        <time>2026-05-20T06:07:38Z</time>
      </trkpt>
      <trkpt lat="44.31669" lon="1.79112">
        <ele>371.21</ele>
        <time>2026-05-20T06:07:52Z</time>
      </trkpt>
      <trkpt lat="44.31666" lon="1.79108">
        <ele>371.21</ele>
        <time>2026-05-20T06:07:57Z</time>
      </trkpt>
      <trkpt lat="44.31657" lon="1.79099">
        <ele>371.21</ele>
        <time>2026-05-20T06:08:06Z</time>
      </trkpt>
      <trkpt lat="44.31656" lon="1.79097">
        <ele>371.21</ele>
        <time>2026-05-20T06:08:07Z</time>
      </trkpt>
      <trkpt lat="44.31655" lon="1.79096">
        <ele>371.21</ele>
        <time>2026-05-20T06:08:08Z</time>
      </trkpt>
      <trkpt lat="44.31647" lon="1.79086">
        <ele>371.21</ele>
        <time>2026-05-20T06:08:18Z</time>
      </trkpt>
      <trkpt lat="44.31646" lon="1.79085">
        <ele>371.21</ele>
        <time>2026-05-20T06:08:19Z</time>
      </trkpt>
      <trkpt lat="44.31636" lon="1.79075">
        <ele>372.65</ele>
        <time>2026-05-20T06:08:30Z</time>
      </trkpt>
      <trkpt lat="44.31634" lon="1.79073">
        <ele>372.65</ele>
        <time>2026-05-20T06:08:31Z</time>
      </trkpt>
      <trkpt lat="44.31633" lon="1.79072">
        <ele>372.65</ele>
        <time>2026-05-20T06:08:32Z</time>
      </trkpt>
      <trkpt lat="44.31631" lon="1.7907">
        <ele>372.65</ele>
        <time>2026-05-20T06:08:33Z</time>
      </trkpt>
      <trkpt lat="44.3163" lon="1.79069">
        <ele>372.65</ele>
        <time>2026-05-20T06:08:34Z</time>
      </trkpt>
      <trkpt lat="44.31625" lon="1.79064">
        <ele>372.65</ele>
        <time>2026-05-20T06:08:39Z</time>
      </trkpt>
      <trkpt lat="44.31624" lon="1.79063">
        <ele>372.65</ele>
        <time>2026-05-20T06:08:40Z</time>
      </trkpt>
      <trkpt lat="44.31618" lon="1.79056">
        <ele>373.13</ele>
        <time>2026-05-20T06:08:58Z</time>
      </trkpt>
      <trkpt lat="44.31613" lon="1.79057">
        <ele>373.13</ele>
        <time>2026-05-20T06:09:28Z</time>
      </trkpt>
      <trkpt lat="44.31595" lon="1.79044">
        <ele>373.61</ele>
        <time>2026-05-20T06:09:44Z</time>
      </trkpt>
      <trkpt lat="44.31575" lon="1.7903">
        <ele>374.09</ele>
        <time>2026-05-20T06:09:59Z</time>
      </trkpt>
      <trkpt lat="44.3156" lon="1.79019">
        <ele>374.09</ele>
        <time>2026-05-20T06:10:12Z</time>
      </trkpt>
      <trkpt lat="44.31544" lon="1.79008">
        <ele>374.09</ele>
        <time>2026-05-20T06:10:26Z</time>
      </trkpt>
      <trkpt lat="44.31528" lon="1.78996">
        <ele>374.09</ele>
        <time>2026-05-20T06:10:39Z</time>
      </trkpt>
      <trkpt lat="44.31514" lon="1.78987">
        <ele>374.09</ele>
        <time>2026-05-20T06:10:50Z</time>
      </trkpt>
      <trkpt lat="44.3151" lon="1.78984">
        <ele>372.65</ele>
        <time>2026-05-20T06:10:53Z</time>
      </trkpt>
      <trkpt lat="44.31493" lon="1.78972">
        <ele>371.69</ele>
        <time>2026-05-20T06:11:06Z</time>
      </trkpt>
      <trkpt lat="44.31487" lon="1.78967">
        <ele>371.69</ele>
        <time>2026-05-20T06:11:12Z</time>
      </trkpt>
      <trkpt lat="44.31486" lon="1.78966">
        <ele>371.21</ele>
        <time>2026-05-20T06:11:13Z</time>
      </trkpt>
      <trkpt lat="44.31471" lon="1.78949">
        <ele>371.21</ele>
        <time>2026-05-20T06:11:26Z</time>
      </trkpt>
      <trkpt lat="44.3146" lon="1.78938">
        <ele>369.76</ele>
        <time>2026-05-20T06:11:39Z</time>
      </trkpt>
      <trkpt lat="44.3145" lon="1.7893">
        <ele>369.28</ele>
        <time>2026-05-20T06:11:51Z</time>
      </trkpt>
      <trkpt lat="44.31437" lon="1.78921">
        <ele>367.84</ele>
        <time>2026-05-20T06:12:03Z</time>
      </trkpt>
      <trkpt lat="44.31433" lon="1.78918">
        <ele>367.84</ele>
        <time>2026-05-20T06:12:07Z</time>
      </trkpt>
      <trkpt lat="44.31429" lon="1.78915">
        <ele>367.84</ele>
        <time>2026-05-20T06:12:11Z</time>
      </trkpt>
      <trkpt lat="44.31428" lon="1.78915">
        <ele>367.84</ele>
        <time>2026-05-20T06:12:12Z</time>
      </trkpt>
      <trkpt lat="44.31427" lon="1.78914">
        <ele>367.84</ele>
        <time>2026-05-20T06:12:28Z</time>
      </trkpt>
      <trkpt lat="44.31419" lon="1.7891">
        <ele>366.88</ele>
        <time>2026-05-20T06:12:44Z</time>
      </trkpt>
      <trkpt lat="44.31419" lon="1.78908">
        <ele>366.88</ele>
        <time>2026-05-20T06:12:58Z</time>
      </trkpt>
      <trkpt lat="44.31418" lon="1.78909">
        <ele>366.88</ele>
        <time>2026-05-20T06:13:34Z</time>
      </trkpt>
      <trkpt lat="44.31402" lon="1.78899">
        <ele>366.88</ele>
        <time>2026-05-20T06:13:47Z</time>
      </trkpt>
      <trkpt lat="44.31389" lon="1.78889">
        <ele>366.4</ele>
        <time>2026-05-20T06:14:01Z</time>
      </trkpt>
      <trkpt lat="44.31389" lon="1.78891">
        <ele>366.4</ele>
        <time>2026-05-20T06:14:16Z</time>
      </trkpt>
      <trkpt lat="44.31381" lon="1.78884">
        <ele>365.92</ele>
        <time>2026-05-20T06:14:35Z</time>
      </trkpt>
      <trkpt lat="44.31365" lon="1.78872">
        <ele>365.44</ele>
        <time>2026-05-20T06:14:49Z</time>
      </trkpt>
      <trkpt lat="44.31352" lon="1.78859">
        <ele>364.96</ele>
        <time>2026-05-20T06:15:01Z</time>
      </trkpt>
      <trkpt lat="44.31352" lon="1.78858">
        <ele>364.48</ele>
        <time>2026-05-20T06:15:02Z</time>
      </trkpt>
      <trkpt lat="44.31337" lon="1.78843">
        <ele>364</ele>
        <time>2026-05-20T06:15:15Z</time>
      </trkpt>
      <trkpt lat="44.31325" lon="1.78829">
        <ele>362.55</ele>
        <time>2026-05-20T06:15:29Z</time>
      </trkpt>
      <trkpt lat="44.3131" lon="1.78811">
        <ele>360.63</ele>
        <time>2026-05-20T06:15:43Z</time>
      </trkpt>
      <trkpt lat="44.31308" lon="1.78808">
        <ele>360.15</ele>
        <time>2026-05-20T06:15:45Z</time>
      </trkpt>
      <trkpt lat="44.31294" lon="1.78792">
        <ele>359.67</ele>
        <time>2026-05-20T06:15:58Z</time>
      </trkpt>
      <trkpt lat="44.31282" lon="1.78778">
        <ele>358.71</ele>
        <time>2026-05-20T06:16:10Z</time>
      </trkpt>
      <trkpt lat="44.31267" lon="1.78761">
        <ele>357.75</ele>
        <time>2026-05-20T06:16:25Z</time>
      </trkpt>
      <trkpt lat="44.31253" lon="1.78742">
        <ele>356.31</ele>
        <time>2026-05-20T06:16:39Z</time>
      </trkpt>
      <trkpt lat="44.31243" lon="1.78727">
        <ele>355.83</ele>
        <time>2026-05-20T06:16:50Z</time>
      </trkpt>
      <trkpt lat="44.31243" lon="1.78726">
        <ele>355.83</ele>
        <time>2026-05-20T06:16:51Z</time>
      </trkpt>
      <trkpt lat="44.31241" lon="1.78724">
        <ele>355.83</ele>
        <time>2026-05-20T06:16:52Z</time>
      </trkpt>
      <trkpt lat="44.3124" lon="1.78722">
        <ele>355.83</ele>
        <time>2026-05-20T06:16:53Z</time>
      </trkpt>
      <trkpt lat="44.31239" lon="1.7872">
        <ele>355.83</ele>
        <time>2026-05-20T06:16:54Z</time>
      </trkpt>
      <trkpt lat="44.31238" lon="1.78718">
        <ele>355.83</ele>
        <time>2026-05-20T06:16:55Z</time>
      </trkpt>
      <trkpt lat="44.31229" lon="1.78706">
        <ele>354.38</ele>
        <time>2026-05-20T06:17:06Z</time>
      </trkpt>
      <trkpt lat="44.31212" lon="1.78687">
        <ele>353.42</ele>
        <time>2026-05-20T06:17:23Z</time>
      </trkpt>
      <trkpt lat="44.31197" lon="1.78671">
        <ele>352.46</ele>
        <time>2026-05-20T06:17:38Z</time>
      </trkpt>
      <trkpt lat="44.31193" lon="1.78665">
        <ele>351.98</ele>
        <time>2026-05-20T06:17:45Z</time>
      </trkpt>
      <trkpt lat="44.31192" lon="1.78664">
        <ele>351.98</ele>
        <time>2026-05-20T06:17:46Z</time>
      </trkpt>
      <trkpt lat="44.31191" lon="1.78663">
        <ele>351.98</ele>
        <time>2026-05-20T06:17:47Z</time>
      </trkpt>
      <trkpt lat="44.3119" lon="1.78659">
        <ele>351.98</ele>
        <time>2026-05-20T06:18:03Z</time>
      </trkpt>
      <trkpt lat="44.31191" lon="1.78658">
        <ele>351.5</ele>
        <time>2026-05-20T06:18:45Z</time>
      </trkpt>
      <trkpt lat="44.31191" lon="1.78661">
        <ele>351.5</ele>
        <time>2026-05-20T06:19:24Z</time>
      </trkpt>
      <trkpt lat="44.3119" lon="1.78658">
        <ele>351.5</ele>
        <time>2026-05-20T06:20:07Z</time>
      </trkpt>
      <trkpt lat="44.31184" lon="1.78651">
        <ele>351.5</ele>
        <time>2026-05-20T06:20:24Z</time>
      </trkpt>
      <trkpt lat="44.3118" lon="1.78643">
        <ele>351.5</ele>
        <time>2026-05-20T06:20:37Z</time>
      </trkpt>
      <trkpt lat="44.31169" lon="1.78635">
        <ele>351.02</ele>
        <time>2026-05-20T06:21:00Z</time>
      </trkpt>
      <trkpt lat="44.31155" lon="1.7862">
        <ele>350.54</ele>
        <time>2026-05-20T06:21:15Z</time>
      </trkpt>
      <trkpt lat="44.31153" lon="1.78618">
        <ele>350.54</ele>
        <time>2026-05-20T06:21:18Z</time>
      </trkpt>
      <trkpt lat="44.31152" lon="1.78617">
        <ele>350.54</ele>
        <time>2026-05-20T06:21:19Z</time>
      </trkpt>
      <trkpt lat="44.31151" lon="1.78616">
        <ele>350.54</ele>
        <time>2026-05-20T06:21:20Z</time>
      </trkpt>
      <trkpt lat="44.31134" lon="1.78604">
        <ele>350.06</ele>
        <time>2026-05-20T06:21:34Z</time>
      </trkpt>
      <trkpt lat="44.31117" lon="1.78596">
        <ele>349.1</ele>
        <time>2026-05-20T06:21:47Z</time>
      </trkpt>
      <trkpt lat="44.31115" lon="1.78595">
        <ele>349.1</ele>
        <time>2026-05-20T06:21:48Z</time>
      </trkpt>
      <trkpt lat="44.31113" lon="1.78595">
        <ele>348.62</ele>
        <time>2026-05-20T06:21:49Z</time>
      </trkpt>
      <trkpt lat="44.31112" lon="1.78595">
        <ele>348.62</ele>
        <time>2026-05-20T06:21:50Z</time>
      </trkpt>
      <trkpt lat="44.3111" lon="1.78594">
        <ele>348.62</ele>
        <time>2026-05-20T06:21:51Z</time>
      </trkpt>
      <trkpt lat="44.31108" lon="1.78593">
        <ele>348.62</ele>
        <time>2026-05-20T06:21:52Z</time>
      </trkpt>
      <trkpt lat="44.31103" lon="1.78592">
        <ele>348.62</ele>
        <time>2026-05-20T06:21:56Z</time>
      </trkpt>
      <trkpt lat="44.311" lon="1.7859">
        <ele>348.62</ele>
        <time>2026-05-20T06:21:59Z</time>
      </trkpt>
      <trkpt lat="44.31098" lon="1.7859">
        <ele>348.62</ele>
        <time>2026-05-20T06:22:00Z</time>
      </trkpt>
      <trkpt lat="44.31083" lon="1.78583">
        <ele>348.13</ele>
        <time>2026-05-20T06:22:12Z</time>
      </trkpt>
      <trkpt lat="44.31065" lon="1.78579">
        <ele>348.13</ele>
        <time>2026-05-20T06:22:25Z</time>
      </trkpt>
      <trkpt lat="44.31057" lon="1.78578">
        <ele>348.13</ele>
        <time>2026-05-20T06:22:32Z</time>
      </trkpt>
      <trkpt lat="44.31056" lon="1.78578">
        <ele>348.62</ele>
        <time>2026-05-20T06:22:33Z</time>
      </trkpt>
      <trkpt lat="44.31034" lon="1.78578">
        <ele>348.13</ele>
        <time>2026-05-20T06:22:48Z</time>
      </trkpt>
      <trkpt lat="44.31022" lon="1.78578">
        <ele>347.65</ele>
        <time>2026-05-20T06:22:57Z</time>
      </trkpt>
      <trkpt lat="44.31021" lon="1.78577">
        <ele>347.65</ele>
        <time>2026-05-20T06:22:58Z</time>
      </trkpt>
      <trkpt lat="44.31019" lon="1.78578">
        <ele>347.65</ele>
        <time>2026-05-20T06:22:59Z</time>
      </trkpt>
      <trkpt lat="44.30994" lon="1.78577">
        <ele>347.17</ele>
        <time>2026-05-20T06:23:17Z</time>
      </trkpt>
      <trkpt lat="44.30977" lon="1.78576">
        <ele>347.17</ele>
        <time>2026-05-20T06:23:31Z</time>
      </trkpt>
      <trkpt lat="44.30973" lon="1.78575">
        <ele>347.17</ele>
        <time>2026-05-20T06:23:52Z</time>
      </trkpt>
      <trkpt lat="44.30971" lon="1.78575">
        <ele>347.17</ele>
        <time>2026-05-20T06:23:56Z</time>
      </trkpt>
      <trkpt lat="44.3097" lon="1.78575">
        <ele>347.17</ele>
        <time>2026-05-20T06:23:57Z</time>
      </trkpt>
      <trkpt lat="44.30952" lon="1.78577">
        <ele>347.17</ele>
        <time>2026-05-20T06:24:14Z</time>
      </trkpt>
      <trkpt lat="44.30931" lon="1.78574">
        <ele>347.17</ele>
        <time>2026-05-20T06:24:30Z</time>
      </trkpt>
      <trkpt lat="44.30912" lon="1.78564">
        <ele>346.69</ele>
        <time>2026-05-20T06:24:46Z</time>
      </trkpt>
      <trkpt lat="44.30894" lon="1.7855">
        <ele>345.73</ele>
        <time>2026-05-20T06:25:03Z</time>
      </trkpt>
      <trkpt lat="44.30874" lon="1.78532">
        <ele>344.77</ele>
        <time>2026-05-20T06:25:19Z</time>
      </trkpt>
      <trkpt lat="44.30854" lon="1.78516">
        <ele>343.81</ele>
        <time>2026-05-20T06:25:34Z</time>
      </trkpt>
      <trkpt lat="44.30853" lon="1.78515">
        <ele>343.81</ele>
        <time>2026-05-20T06:25:35Z</time>
      </trkpt>
      <trkpt lat="44.30834" lon="1.78504">
        <ele>342.37</ele>
        <time>2026-05-20T06:25:49Z</time>
      </trkpt>
      <trkpt lat="44.30816" lon="1.78492">
        <ele>341.41</ele>
        <time>2026-05-20T06:26:04Z</time>
      </trkpt>
      <trkpt lat="44.30795" lon="1.78478">
        <ele>339.48</ele>
        <time>2026-05-20T06:26:20Z</time>
      </trkpt>
      <trkpt lat="44.30776" lon="1.78465">
        <ele>338.04</ele>
        <time>2026-05-20T06:26:35Z</time>
      </trkpt>
      <trkpt lat="44.30759" lon="1.78455">
        <ele>337.08</ele>
        <time>2026-05-20T06:26:49Z</time>
      </trkpt>
      <trkpt lat="44.30737" lon="1.78439">
        <ele>334.68</ele>
        <time>2026-05-20T06:27:07Z</time>
      </trkpt>
      <trkpt lat="44.30726" lon="1.78436">
        <ele>333.71</ele>
        <time>2026-05-20T06:27:19Z</time>
      </trkpt>
      <trkpt lat="44.30725" lon="1.78438">
        <ele>333.71</ele>
        <time>2026-05-20T06:27:20Z</time>
      </trkpt>
      <trkpt lat="44.30718" lon="1.78457">
        <ele>332.75</ele>
        <time>2026-05-20T06:27:33Z</time>
      </trkpt>
      <trkpt lat="44.30711" lon="1.78473">
        <ele>333.71</ele>
        <time>2026-05-20T06:27:44Z</time>
      </trkpt>
      <trkpt lat="44.30708" lon="1.78477">
        <ele>332.27</ele>
        <time>2026-05-20T06:27:47Z</time>
      </trkpt>
      <trkpt lat="44.30695" lon="1.78498">
        <ele>332.27</ele>
        <time>2026-05-20T06:28:04Z</time>
      </trkpt>
      <trkpt lat="44.30686" lon="1.78518">
        <ele>333.71</ele>
        <time>2026-05-20T06:28:18Z</time>
      </trkpt>
      <trkpt lat="44.30672" lon="1.78543">
        <ele>334.68</ele>
        <time>2026-05-20T06:28:36Z</time>
      </trkpt>
      <trkpt lat="44.30667" lon="1.78549">
        <ele>335.16</ele>
        <time>2026-05-20T06:28:42Z</time>
      </trkpt>
      <trkpt lat="44.30666" lon="1.7855">
        <ele>335.16</ele>
        <time>2026-05-20T06:28:43Z</time>
      </trkpt>
      <trkpt lat="44.30654" lon="1.78566">
        <ele>336.12</ele>
        <time>2026-05-20T06:28:58Z</time>
      </trkpt>
      <trkpt lat="44.30642" lon="1.78589">
        <ele>336.6</ele>
        <time>2026-05-20T06:29:13Z</time>
      </trkpt>
      <trkpt lat="44.30631" lon="1.78602">
        <ele>336.6</ele>
        <time>2026-05-20T06:29:26Z</time>
      </trkpt>
      <trkpt lat="44.30626" lon="1.78604">
        <ele>336.6</ele>
        <time>2026-05-20T06:29:30Z</time>
      </trkpt>
      <trkpt lat="44.3061" lon="1.78614">
        <ele>335.16</ele>
        <time>2026-05-20T06:29:44Z</time>
      </trkpt>
      <trkpt lat="44.30596" lon="1.78626">
        <ele>335.16</ele>
        <time>2026-05-20T06:29:56Z</time>
      </trkpt>
      <trkpt lat="44.30582" lon="1.78638">
        <ele>335.16</ele>
        <time>2026-05-20T06:30:10Z</time>
      </trkpt>
      <trkpt lat="44.30574" lon="1.78643">
        <ele>336.6</ele>
        <time>2026-05-20T06:30:17Z</time>
      </trkpt>
      <trkpt lat="44.30562" lon="1.78654">
        <ele>336.6</ele>
        <time>2026-05-20T06:30:29Z</time>
      </trkpt>
      <trkpt lat="44.30561" lon="1.78655">
        <ele>336.6</ele>
        <time>2026-05-20T06:30:30Z</time>
      </trkpt>
      <trkpt lat="44.30545" lon="1.7867">
        <ele>337.08</ele>
        <time>2026-05-20T06:30:44Z</time>
      </trkpt>
      <trkpt lat="44.30534" lon="1.78689">
        <ele>338.04</ele>
        <time>2026-05-20T06:30:56Z</time>
      </trkpt>
      <trkpt lat="44.30531" lon="1.78704">
        <ele>339.48</ele>
        <time>2026-05-20T06:31:06Z</time>
      </trkpt>
      <trkpt lat="44.30529" lon="1.78718">
        <ele>339.96</ele>
        <time>2026-05-20T06:31:15Z</time>
      </trkpt>
      <trkpt lat="44.30529" lon="1.78721">
        <ele>339.96</ele>
        <time>2026-05-20T06:31:16Z</time>
      </trkpt>
      <trkpt lat="44.30529" lon="1.78723">
        <ele>339.96</ele>
        <time>2026-05-20T06:31:17Z</time>
      </trkpt>
      <trkpt lat="44.30529" lon="1.78726">
        <ele>339.96</ele>
        <time>2026-05-20T06:31:18Z</time>
      </trkpt>
      <trkpt lat="44.30529" lon="1.78728">
        <ele>339.96</ele>
        <time>2026-05-20T06:31:19Z</time>
      </trkpt>
      <trkpt lat="44.30528" lon="1.78752">
        <ele>341.41</ele>
        <time>2026-05-20T06:31:34Z</time>
      </trkpt>
      <trkpt lat="44.30527" lon="1.78764">
        <ele>341.89</ele>
        <time>2026-05-20T06:31:41Z</time>
      </trkpt>
      <trkpt lat="44.30526" lon="1.78789">
        <ele>342.37</ele>
        <time>2026-05-20T06:31:55Z</time>
      </trkpt>
      <trkpt lat="44.30527" lon="1.78815">
        <ele>343.33</ele>
        <time>2026-05-20T06:32:08Z</time>
      </trkpt>
      <trkpt lat="44.30523" lon="1.78838">
        <ele>343.33</ele>
        <time>2026-05-20T06:32:22Z</time>
      </trkpt>
      <trkpt lat="44.30522" lon="1.78843">
        <ele>343.33</ele>
        <time>2026-05-20T06:32:26Z</time>
      </trkpt>
      <trkpt lat="44.30524" lon="1.78848">
        <ele>343.33</ele>
        <time>2026-05-20T06:32:40Z</time>
      </trkpt>
      <trkpt lat="44.30524" lon="1.78853">
        <ele>343.33</ele>
        <time>2026-05-20T06:32:52Z</time>
      </trkpt>
      <trkpt lat="44.30523" lon="1.78855">
        <ele>343.33</ele>
        <time>2026-05-20T06:32:53Z</time>
      </trkpt>
      <trkpt lat="44.30518" lon="1.78876">
        <ele>343.33</ele>
        <time>2026-05-20T06:33:06Z</time>
      </trkpt>
      <trkpt lat="44.30514" lon="1.78902">
        <ele>343.33</ele>
        <time>2026-05-20T06:33:20Z</time>
      </trkpt>
      <trkpt lat="44.30514" lon="1.78909">
        <ele>341.89</ele>
        <time>2026-05-20T06:33:24Z</time>
      </trkpt>
      <trkpt lat="44.30514" lon="1.78937">
        <ele>340.92</ele>
        <time>2026-05-20T06:33:38Z</time>
      </trkpt>
      <trkpt lat="44.30514" lon="1.78938">
        <ele>340.92</ele>
        <time>2026-05-20T06:33:39Z</time>
      </trkpt>
      <trkpt lat="44.30511" lon="1.7894">
        <ele>340.44</ele>
        <time>2026-05-20T06:33:51Z</time>
      </trkpt>
      <trkpt lat="44.30512" lon="1.78946">
        <ele>340.44</ele>
        <time>2026-05-20T06:34:21Z</time>
      </trkpt>
      <trkpt lat="44.30512" lon="1.78947">
        <ele>339.48</ele>
        <time>2026-05-20T06:34:22Z</time>
      </trkpt>
      <trkpt lat="44.30512" lon="1.78949">
        <ele>339.48</ele>
        <time>2026-05-20T06:34:23Z</time>
      </trkpt>
      <trkpt lat="44.30512" lon="1.78971">
        <ele>338.04</ele>
        <time>2026-05-20T06:34:35Z</time>
      </trkpt>
      <trkpt lat="44.30511" lon="1.78972">
        <ele>338.04</ele>
        <time>2026-05-20T06:34:36Z</time>
      </trkpt>
      <trkpt lat="44.30511" lon="1.78973">
        <ele>338.04</ele>
        <time>2026-05-20T06:34:37Z</time>
      </trkpt>
      <trkpt lat="44.3051" lon="1.78975">
        <ele>338.04</ele>
        <time>2026-05-20T06:34:38Z</time>
      </trkpt>
      <trkpt lat="44.30508" lon="1.78976">
        <ele>337.56</ele>
        <time>2026-05-20T06:34:39Z</time>
      </trkpt>
      <trkpt lat="44.30507" lon="1.78977">
        <ele>337.56</ele>
        <time>2026-05-20T06:34:40Z</time>
      </trkpt>
      <trkpt lat="44.30504" lon="1.78979">
        <ele>337.08</ele>
        <time>2026-05-20T06:34:43Z</time>
      </trkpt>
      <trkpt lat="44.30504" lon="1.7898">
        <ele>337.08</ele>
        <time>2026-05-20T06:34:44Z</time>
      </trkpt>
      <trkpt lat="44.30503" lon="1.78982">
        <ele>336.6</ele>
        <time>2026-05-20T06:34:45Z</time>
      </trkpt>
      <trkpt lat="44.30502" lon="1.78983">
        <ele>336.6</ele>
        <time>2026-05-20T06:34:46Z</time>
      </trkpt>
      <trkpt lat="44.30502" lon="1.78984">
        <ele>336.6</ele>
        <time>2026-05-20T06:34:47Z</time>
      </trkpt>
      <trkpt lat="44.30497" lon="1.78989">
        <ele>334.68</ele>
        <time>2026-05-20T06:34:55Z</time>
      </trkpt>
      <trkpt lat="44.30496" lon="1.78991">
        <ele>334.68</ele>
        <time>2026-05-20T06:34:56Z</time>
      </trkpt>
      <trkpt lat="44.30495" lon="1.78992">
        <ele>334.2</ele>
        <time>2026-05-20T06:34:57Z</time>
      </trkpt>
      <trkpt lat="44.30487" lon="1.78999">
        <ele>333.23</ele>
        <time>2026-05-20T06:35:06Z</time>
      </trkpt>
      <trkpt lat="44.30488" lon="1.79008">
        <ele>333.23</ele>
        <time>2026-05-20T06:35:15Z</time>
      </trkpt>
      <trkpt lat="44.30488" lon="1.79009">
        <ele>333.23</ele>
        <time>2026-05-20T06:35:16Z</time>
      </trkpt>
      <trkpt lat="44.30487" lon="1.79012">
        <ele>333.23</ele>
        <time>2026-05-20T06:35:17Z</time>
      </trkpt>
      <trkpt lat="44.30487" lon="1.79013">
        <ele>333.23</ele>
        <time>2026-05-20T06:35:18Z</time>
      </trkpt>
      <trkpt lat="44.30486" lon="1.79015">
        <ele>333.23</ele>
        <time>2026-05-20T06:35:19Z</time>
      </trkpt>
      <trkpt lat="44.30486" lon="1.79016">
        <ele>333.23</ele>
        <time>2026-05-20T06:35:20Z</time>
      </trkpt>
      <trkpt lat="44.30486" lon="1.79017">
        <ele>333.23</ele>
        <time>2026-05-20T06:35:21Z</time>
      </trkpt>
      <trkpt lat="44.30485" lon="1.79032">
        <ele>332.27</ele>
        <time>2026-05-20T06:35:34Z</time>
      </trkpt>
      <trkpt lat="44.30486" lon="1.79029">
        <ele>332.27</ele>
        <time>2026-05-20T06:35:53Z</time>
      </trkpt>
      <trkpt lat="44.30491" lon="1.79029">
        <ele>332.75</ele>
        <time>2026-05-20T06:36:06Z</time>
      </trkpt>
      <trkpt lat="44.3049" lon="1.7903">
        <ele>332.75</ele>
        <time>2026-05-20T06:36:07Z</time>
      </trkpt>
      <trkpt lat="44.30489" lon="1.7903">
        <ele>332.75</ele>
        <time>2026-05-20T06:36:08Z</time>
      </trkpt>
      <trkpt lat="44.30475" lon="1.79047">
        <ele>332.27</ele>
        <time>2026-05-20T06:36:22Z</time>
      </trkpt>
      <trkpt lat="44.30468" lon="1.7906">
        <ele>332.27</ele>
        <time>2026-05-20T06:36:32Z</time>
      </trkpt>
      <trkpt lat="44.30468" lon="1.79061">
        <ele>332.27</ele>
        <time>2026-05-20T06:36:33Z</time>
      </trkpt>
      <trkpt lat="44.30467" lon="1.79062">
        <ele>332.27</ele>
        <time>2026-05-20T06:36:34Z</time>
      </trkpt>
      <trkpt lat="44.30466" lon="1.79064">
        <ele>332.27</ele>
        <time>2026-05-20T06:36:35Z</time>
      </trkpt>
      <trkpt lat="44.30466" lon="1.79065">
        <ele>332.27</ele>
        <time>2026-05-20T06:36:36Z</time>
      </trkpt>
      <trkpt lat="44.30465" lon="1.79066">
        <ele>333.23</ele>
        <time>2026-05-20T06:36:37Z</time>
      </trkpt>
      <trkpt lat="44.30459" lon="1.79081">
        <ele>334.68</ele>
        <time>2026-05-20T06:36:50Z</time>
      </trkpt>
      <trkpt lat="44.30461" lon="1.79087">
        <ele>334.68</ele>
        <time>2026-05-20T06:37:06Z</time>
      </trkpt>
      <trkpt lat="44.30462" lon="1.79089">
        <ele>334.68</ele>
        <time>2026-05-20T06:37:07Z</time>
      </trkpt>
      <trkpt lat="44.30463" lon="1.7909">
        <ele>334.68</ele>
        <time>2026-05-20T06:37:08Z</time>
      </trkpt>
      <trkpt lat="44.3047" lon="1.79107">
        <ele>335.16</ele>
        <time>2026-05-20T06:37:19Z</time>
      </trkpt>
      <trkpt lat="44.30471" lon="1.79126">
        <ele>337.56</ele>
        <time>2026-05-20T06:37:33Z</time>
      </trkpt>
      <trkpt lat="44.30471" lon="1.79127">
        <ele>337.56</ele>
        <time>2026-05-20T06:37:34Z</time>
      </trkpt>
      <trkpt lat="44.30469" lon="1.79149">
        <ele>339</ele>
        <time>2026-05-20T06:37:47Z</time>
      </trkpt>
      <trkpt lat="44.30468" lon="1.79154">
        <ele>339.48</ele>
        <time>2026-05-20T06:37:52Z</time>
      </trkpt>
      <trkpt lat="44.30468" lon="1.79156">
        <ele>339.48</ele>
        <time>2026-05-20T06:37:53Z</time>
      </trkpt>
      <trkpt lat="44.30468" lon="1.79158">
        <ele>339.48</ele>
        <time>2026-05-20T06:37:54Z</time>
      </trkpt>
      <trkpt lat="44.30465" lon="1.79178">
        <ele>340.92</ele>
        <time>2026-05-20T06:38:07Z</time>
      </trkpt>
      <trkpt lat="44.3046" lon="1.79197">
        <ele>342.37</ele>
        <time>2026-05-20T06:38:19Z</time>
      </trkpt>
      <trkpt lat="44.30455" lon="1.79219">
        <ele>343.33</ele>
        <time>2026-05-20T06:38:33Z</time>
      </trkpt>
      <trkpt lat="44.30451" lon="1.79239">
        <ele>345.25</ele>
        <time>2026-05-20T06:38:47Z</time>
      </trkpt>
      <trkpt lat="44.3045" lon="1.79242">
        <ele>345.25</ele>
        <time>2026-05-20T06:38:49Z</time>
      </trkpt>
      <trkpt lat="44.30447" lon="1.79252">
        <ele>345.73</ele>
        <time>2026-05-20T06:38:57Z</time>
      </trkpt>
      <trkpt lat="44.30447" lon="1.79254">
        <ele>346.21</ele>
        <time>2026-05-20T06:38:58Z</time>
      </trkpt>
      <trkpt lat="44.30447" lon="1.79257">
        <ele>346.21</ele>
        <time>2026-05-20T06:38:59Z</time>
      </trkpt>
      <trkpt lat="44.30445" lon="1.79266">
        <ele>346.21</ele>
        <time>2026-05-20T06:39:05Z</time>
      </trkpt>
      <trkpt lat="44.30445" lon="1.79267">
        <ele>346.69</ele>
        <time>2026-05-20T06:39:06Z</time>
      </trkpt>
      <trkpt lat="44.3044" lon="1.79297">
        <ele>348.13</ele>
        <time>2026-05-20T06:39:25Z</time>
      </trkpt>
      <trkpt lat="44.30436" lon="1.79323">
        <ele>348.62</ele>
        <time>2026-05-20T06:39:38Z</time>
      </trkpt>
      <trkpt lat="44.30435" lon="1.79325">
        <ele>348.62</ele>
        <time>2026-05-20T06:39:39Z</time>
      </trkpt>
      <trkpt lat="44.30431" lon="1.79344">
        <ele>348.62</ele>
        <time>2026-05-20T06:39:52Z</time>
      </trkpt>
      <trkpt lat="44.30434" lon="1.79339">
        <ele>348.62</ele>
        <time>2026-05-20T06:40:04Z</time>
      </trkpt>
      <trkpt lat="44.30433" lon="1.79337">
        <ele>348.62</ele>
        <time>2026-05-20T06:40:05Z</time>
      </trkpt>
      <trkpt lat="44.30423" lon="1.79323">
        <ele>348.62</ele>
        <time>2026-05-20T06:40:18Z</time>
      </trkpt>
      <trkpt lat="44.30407" lon="1.7931">
        <ele>348.62</ele>
        <time>2026-05-20T06:40:33Z</time>
      </trkpt>
      <trkpt lat="44.30393" lon="1.79296">
        <ele>348.62</ele>
        <time>2026-05-20T06:40:50Z</time>
      </trkpt>
      <trkpt lat="44.30382" lon="1.79287">
        <ele>348.62</ele>
        <time>2026-05-20T06:41:06Z</time>
      </trkpt>
      <trkpt lat="44.30372" lon="1.7928">
        <ele>349.1</ele>
        <time>2026-05-20T06:41:14Z</time>
      </trkpt>
      <trkpt lat="44.30364" lon="1.79274">
        <ele>347.65</ele>
        <time>2026-05-20T06:41:23Z</time>
      </trkpt>
      <trkpt lat="44.30356" lon="1.7927">
        <ele>347.65</ele>
        <time>2026-05-20T06:41:30Z</time>
      </trkpt>
      <trkpt lat="44.30332" lon="1.79264">
        <ele>347.65</ele>
        <time>2026-05-20T06:41:46Z</time>
      </trkpt>
      <trkpt lat="44.30313" lon="1.79257">
        <ele>347.65</ele>
        <time>2026-05-20T06:42:01Z</time>
      </trkpt>
      <trkpt lat="44.30293" lon="1.79253">
        <ele>347.17</ele>
        <time>2026-05-20T06:42:18Z</time>
      </trkpt>
      <trkpt lat="44.30291" lon="1.79253">
        <ele>347.17</ele>
        <time>2026-05-20T06:42:20Z</time>
      </trkpt>
      <trkpt lat="44.3029" lon="1.79252">
        <ele>347.17</ele>
        <time>2026-05-20T06:42:21Z</time>
      </trkpt>
      <trkpt lat="44.30266" lon="1.79247">
        <ele>346.21</ele>
        <time>2026-05-20T06:42:37Z</time>
      </trkpt>
      <trkpt lat="44.30246" lon="1.79259">
        <ele>345.25</ele>
        <time>2026-05-20T06:42:52Z</time>
      </trkpt>
      <trkpt lat="44.30234" lon="1.79265">
        <ele>345.73</ele>
        <time>2026-05-20T06:43:06Z</time>
      </trkpt>
      <trkpt lat="44.30229" lon="1.79269">
        <ele>345.73</ele>
        <time>2026-05-20T06:43:14Z</time>
      </trkpt>
      <trkpt lat="44.30204" lon="1.7928">
        <ele>345.25</ele>
        <time>2026-05-20T06:43:31Z</time>
      </trkpt>
      <trkpt lat="44.30193" lon="1.79284">
        <ele>344.77</ele>
        <time>2026-05-20T06:43:40Z</time>
      </trkpt>
      <trkpt lat="44.30191" lon="1.79283">
        <ele>344.29</ele>
        <time>2026-05-20T06:43:44Z</time>
      </trkpt>
      <trkpt lat="44.3019" lon="1.79282">
        <ele>344.29</ele>
        <time>2026-05-20T06:43:45Z</time>
      </trkpt>
      <trkpt lat="44.30181" lon="1.79266">
        <ele>343.33</ele>
        <time>2026-05-20T06:43:56Z</time>
      </trkpt>
      <trkpt lat="44.30177" lon="1.79258">
        <ele>342.37</ele>
        <time>2026-05-20T06:44:02Z</time>
      </trkpt>
      <trkpt lat="44.30165" lon="1.79237">
        <ele>339.48</ele>
        <time>2026-05-20T06:44:17Z</time>
      </trkpt>
      <trkpt lat="44.30153" lon="1.7922">
        <ele>336.6</ele>
        <time>2026-05-20T06:44:30Z</time>
      </trkpt>
      <trkpt lat="44.30149" lon="1.79215">
        <ele>333.23</ele>
        <time>2026-05-20T06:44:42Z</time>
      </trkpt>
      <trkpt lat="44.30144" lon="1.79218">
        <ele>330.35</ele>
        <time>2026-05-20T06:44:53Z</time>
      </trkpt>
      <trkpt lat="44.30129" lon="1.79223">
        <ele>327.47</ele>
        <time>2026-05-20T06:45:07Z</time>
      </trkpt>
      <trkpt lat="44.30117" lon="1.79231">
        <ele>324.1</ele>
        <time>2026-05-20T06:45:21Z</time>
      </trkpt>
      <trkpt lat="44.30095" lon="1.79242">
        <ele>320.74</ele>
        <time>2026-05-20T06:45:37Z</time>
      </trkpt>
      <trkpt lat="44.30078" lon="1.79251">
        <ele>317.37</ele>
        <time>2026-05-20T06:45:53Z</time>
      </trkpt>
      <trkpt lat="44.30067" lon="1.79255">
        <ele>314.01</ele>
        <time>2026-05-20T06:46:09Z</time>
      </trkpt>
      <trkpt lat="44.30052" lon="1.79265">
        <ele>313.53</ele>
        <time>2026-05-20T06:46:22Z</time>
      </trkpt>
      <trkpt lat="44.30032" lon="1.79279">
        <ele>313.05</ele>
        <time>2026-05-20T06:46:39Z</time>
      </trkpt>
      <trkpt lat="44.30029" lon="1.7928">
        <ele>312.57</ele>
        <time>2026-05-20T06:46:42Z</time>
      </trkpt>
      <trkpt lat="44.30009" lon="1.79294">
        <ele>311.12</ele>
        <time>2026-05-20T06:47:00Z</time>
      </trkpt>
      <trkpt lat="44.29984" lon="1.79308">
        <ele>311.12</ele>
        <time>2026-05-20T06:47:16Z</time>
      </trkpt>
      <trkpt lat="44.29971" lon="1.79318">
        <ele>310.64</ele>
        <time>2026-05-20T06:47:24Z</time>
      </trkpt>
      <trkpt lat="44.29956" lon="1.79344">
        <ele>310.16</ele>
        <time>2026-05-20T06:47:42Z</time>
      </trkpt>
      <trkpt lat="44.29953" lon="1.79346">
        <ele>309.68</ele>
        <time>2026-05-20T06:47:45Z</time>
      </trkpt>
      <trkpt lat="44.29932" lon="1.79361">
        <ele>309.2</ele>
        <time>2026-05-20T06:48:01Z</time>
      </trkpt>
      <trkpt lat="44.29919" lon="1.7937">
        <ele>308.24</ele>
        <time>2026-05-20T06:48:14Z</time>
      </trkpt>
      <trkpt lat="44.29894" lon="1.79387">
        <ele>307.28</ele>
        <time>2026-05-20T06:48:33Z</time>
      </trkpt>
      <trkpt lat="44.29891" lon="1.79397">
        <ele>305.36</ele>
        <time>2026-05-20T06:48:42Z</time>
      </trkpt>
      <trkpt lat="44.29876" lon="1.79412">
        <ele>306.8</ele>
        <time>2026-05-20T06:49:00Z</time>
      </trkpt>
      <trkpt lat="44.29863" lon="1.79422">
        <ele>307.28</ele>
        <time>2026-05-20T06:49:16Z</time>
      </trkpt>
      <trkpt lat="44.29855" lon="1.79427">
        <ele>308.24</ele>
        <time>2026-05-20T06:49:23Z</time>
      </trkpt>
      <trkpt lat="44.29853" lon="1.79428">
        <ele>308.24</ele>
        <time>2026-05-20T06:49:25Z</time>
      </trkpt>
      <trkpt lat="44.29839" lon="1.79445">
        <ele>309.68</ele>
        <time>2026-05-20T06:49:43Z</time>
      </trkpt>
      <trkpt lat="44.29829" lon="1.7946">
        <ele>311.12</ele>
        <time>2026-05-20T06:49:56Z</time>
      </trkpt>
      <trkpt lat="44.29825" lon="1.79463">
        <ele>311.6</ele>
        <time>2026-05-20T06:50:01Z</time>
      </trkpt>
      <trkpt lat="44.2982" lon="1.79467">
        <ele>313.05</ele>
        <time>2026-05-20T06:50:07Z</time>
      </trkpt>
      <trkpt lat="44.29808" lon="1.79476">
        <ele>314.49</ele>
        <time>2026-05-20T06:50:21Z</time>
      </trkpt>
      <trkpt lat="44.29805" lon="1.79477">
        <ele>314.97</ele>
        <time>2026-05-20T06:50:24Z</time>
      </trkpt>
      <trkpt lat="44.29793" lon="1.79479">
        <ele>316.41</ele>
        <time>2026-05-20T06:50:36Z</time>
      </trkpt>
      <trkpt lat="44.29778" lon="1.79486">
        <ele>317.37</ele>
        <time>2026-05-20T06:50:52Z</time>
      </trkpt>
      <trkpt lat="44.29774" lon="1.79485">
        <ele>318.33</ele>
        <time>2026-05-20T06:50:56Z</time>
      </trkpt>
      <trkpt lat="44.29768" lon="1.7949">
        <ele>318.81</ele>
        <time>2026-05-20T06:51:01Z</time>
      </trkpt>
      <trkpt lat="44.29758" lon="1.79496">
        <ele>319.78</ele>
        <time>2026-05-20T06:51:13Z</time>
      </trkpt>
      <trkpt lat="44.29752" lon="1.79502">
        <ele>320.26</ele>
        <time>2026-05-20T06:51:19Z</time>
      </trkpt>
      <trkpt lat="44.29747" lon="1.7951">
        <ele>321.7</ele>
        <time>2026-05-20T06:51:27Z</time>
      </trkpt>
      <trkpt lat="44.29748" lon="1.79537">
        <ele>324.1</ele>
        <time>2026-05-20T06:51:42Z</time>
      </trkpt>
      <trkpt lat="44.29755" lon="1.79562">
        <ele>325.54</ele>
        <time>2026-05-20T06:51:57Z</time>
      </trkpt>
      <trkpt lat="44.29763" lon="1.79585">
        <ele>326.99</ele>
        <time>2026-05-20T06:52:12Z</time>
      </trkpt>
      <trkpt lat="44.29764" lon="1.79605">
        <ele>328.43</ele>
        <time>2026-05-20T06:52:30Z</time>
      </trkpt>
      <trkpt lat="44.29771" lon="1.7963">
        <ele>329.87</ele>
        <time>2026-05-20T06:52:46Z</time>
      </trkpt>
      <trkpt lat="44.2978" lon="1.79649">
        <ele>331.79</ele>
        <time>2026-05-20T06:53:01Z</time>
      </trkpt>
      <trkpt lat="44.2978" lon="1.79653">
        <ele>331.79</ele>
        <time>2026-05-20T06:53:04Z</time>
      </trkpt>
      <trkpt lat="44.29783" lon="1.79661">
        <ele>332.27</ele>
        <time>2026-05-20T06:53:10Z</time>
      </trkpt>
      <trkpt lat="44.29784" lon="1.79685">
        <ele>333.23</ele>
        <time>2026-05-20T06:53:25Z</time>
      </trkpt>
      <trkpt lat="44.29782" lon="1.79716">
        <ele>334.2</ele>
        <time>2026-05-20T06:53:43Z</time>
      </trkpt>
      <trkpt lat="44.29784" lon="1.79738">
        <ele>334.68</ele>
        <time>2026-05-20T06:53:56Z</time>
      </trkpt>
      <trkpt lat="44.29783" lon="1.7975">
        <ele>335.16</ele>
        <time>2026-05-20T06:54:03Z</time>
      </trkpt>
      <trkpt lat="44.29782" lon="1.79769">
        <ele>335.16</ele>
        <time>2026-05-20T06:54:12Z</time>
      </trkpt>
      <trkpt lat="44.29778" lon="1.79794">
        <ele>335.64</ele>
        <time>2026-05-20T06:54:28Z</time>
      </trkpt>
      <trkpt lat="44.29776" lon="1.7982">
        <ele>336.6</ele>
        <time>2026-05-20T06:54:43Z</time>
      </trkpt>
      <trkpt lat="44.29784" lon="1.79846">
        <ele>337.08</ele>
        <time>2026-05-20T06:54:58Z</time>
      </trkpt>
      <trkpt lat="44.29785" lon="1.79864">
        <ele>337.08</ele>
        <time>2026-05-20T06:55:10Z</time>
      </trkpt>
      <trkpt lat="44.29786" lon="1.79882">
        <ele>337.08</ele>
        <time>2026-05-20T06:55:23Z</time>
      </trkpt>
      <trkpt lat="44.29796" lon="1.79913">
        <ele>337.56</ele>
        <time>2026-05-20T06:55:38Z</time>
      </trkpt>
      <trkpt lat="44.29795" lon="1.79915">
        <ele>337.56</ele>
        <time>2026-05-20T06:55:40Z</time>
      </trkpt>
      <trkpt lat="44.2979" lon="1.79926">
        <ele>338.52</ele>
        <time>2026-05-20T06:55:54Z</time>
      </trkpt>
      <trkpt lat="44.29788" lon="1.79929">
        <ele>338.52</ele>
        <time>2026-05-20T06:55:56Z</time>
      </trkpt>
      <trkpt lat="44.29773" lon="1.79945">
        <ele>336.6</ele>
        <time>2026-05-20T06:56:12Z</time>
      </trkpt>
      <trkpt lat="44.29759" lon="1.79962">
        <ele>336.12</ele>
        <time>2026-05-20T06:56:26Z</time>
      </trkpt>
      <trkpt lat="44.29745" lon="1.79978">
        <ele>336.12</ele>
        <time>2026-05-20T06:56:39Z</time>
      </trkpt>
      <trkpt lat="44.29734" lon="1.79993">
        <ele>336.12</ele>
        <time>2026-05-20T06:56:52Z</time>
      </trkpt>
      <trkpt lat="44.29734" lon="1.79994">
        <ele>336.12</ele>
        <time>2026-05-20T06:56:53Z</time>
      </trkpt>
      <trkpt lat="44.29724" lon="1.80002">
        <ele>336.12</ele>
        <time>2026-05-20T06:57:03Z</time>
      </trkpt>
      <trkpt lat="44.29719" lon="1.80006">
        <ele>336.12</ele>
        <time>2026-05-20T06:57:07Z</time>
      </trkpt>
      <trkpt lat="44.29714" lon="1.80009">
        <ele>337.56</ele>
        <time>2026-05-20T06:57:12Z</time>
      </trkpt>
      <trkpt lat="44.29695" lon="1.80027">
        <ele>338.04</ele>
        <time>2026-05-20T06:57:28Z</time>
      </trkpt>
      <trkpt lat="44.29687" lon="1.80042">
        <ele>339</ele>
        <time>2026-05-20T06:57:41Z</time>
      </trkpt>
      <trkpt lat="44.29673" lon="1.80062">
        <ele>340.44</ele>
        <time>2026-05-20T06:57:57Z</time>
      </trkpt>
      <trkpt lat="44.29661" lon="1.80073">
        <ele>340.44</ele>
        <time>2026-05-20T06:58:08Z</time>
      </trkpt>
      <trkpt lat="44.29648" lon="1.80083">
        <ele>340.92</ele>
        <time>2026-05-20T06:58:22Z</time>
      </trkpt>
      <trkpt lat="44.29642" lon="1.80088">
        <ele>340.92</ele>
        <time>2026-05-20T06:58:28Z</time>
      </trkpt>
      <trkpt lat="44.29626" lon="1.80107">
        <ele>340.92</ele>
        <time>2026-05-20T06:58:48Z</time>
      </trkpt>
      <trkpt lat="44.2961" lon="1.8013">
        <ele>340.92</ele>
        <time>2026-05-20T06:59:05Z</time>
      </trkpt>
      <trkpt lat="44.296" lon="1.8015">
        <ele>339.48</ele>
        <time>2026-05-20T06:59:20Z</time>
      </trkpt>
      <trkpt lat="44.29589" lon="1.8017">
        <ele>339</ele>
        <time>2026-05-20T06:59:34Z</time>
      </trkpt>
      <trkpt lat="44.29584" lon="1.80178">
        <ele>339</ele>
        <time>2026-05-20T06:59:40Z</time>
      </trkpt>
      <trkpt lat="44.29581" lon="1.80185">
        <ele>339</ele>
        <time>2026-05-20T06:59:44Z</time>
      </trkpt>
      <trkpt lat="44.29567" lon="1.80206">
        <ele>339</ele>
        <time>2026-05-20T07:00:00Z</time>
      </trkpt>
      <trkpt lat="44.29553" lon="1.80217">
        <ele>339</ele>
        <time>2026-05-20T07:00:15Z</time>
      </trkpt>
      <trkpt lat="44.29539" lon="1.80226">
        <ele>339.96</ele>
        <time>2026-05-20T07:00:30Z</time>
      </trkpt>
      <trkpt lat="44.29531" lon="1.80232">
        <ele>340.92</ele>
        <time>2026-05-20T07:00:37Z</time>
      </trkpt>
      <trkpt lat="44.2952" lon="1.80246">
        <ele>341.89</ele>
        <time>2026-05-20T07:00:49Z</time>
      </trkpt>
      <trkpt lat="44.29508" lon="1.80255">
        <ele>342.85</ele>
        <time>2026-05-20T07:01:03Z</time>
      </trkpt>
      <trkpt lat="44.29494" lon="1.80245">
        <ele>343.33</ele>
        <time>2026-05-20T07:01:18Z</time>
      </trkpt>
      <trkpt lat="44.29492" lon="1.80244">
        <ele>343.33</ele>
        <time>2026-05-20T07:01:21Z</time>
      </trkpt>
      <trkpt lat="44.29484" lon="1.80233">
        <ele>343.33</ele>
        <time>2026-05-20T07:01:31Z</time>
      </trkpt>
      <trkpt lat="44.29474" lon="1.80222">
        <ele>343.33</ele>
        <time>2026-05-20T07:01:42Z</time>
      </trkpt>
      <trkpt lat="44.2946" lon="1.80217">
        <ele>343.33</ele>
        <time>2026-05-20T07:01:53Z</time>
      </trkpt>
      <trkpt lat="44.29442" lon="1.80207">
        <ele>341.41</ele>
        <time>2026-05-20T07:02:10Z</time>
      </trkpt>
      <trkpt lat="44.29425" lon="1.80194">
        <ele>340.44</ele>
        <time>2026-05-20T07:02:29Z</time>
      </trkpt>
      <trkpt lat="44.29418" lon="1.8019">
        <ele>339.48</ele>
        <time>2026-05-20T07:02:35Z</time>
      </trkpt>
      <trkpt lat="44.29401" lon="1.80181">
        <ele>338.04</ele>
        <time>2026-05-20T07:02:49Z</time>
      </trkpt>
      <trkpt lat="44.29384" lon="1.80175">
        <ele>336.6</ele>
        <time>2026-05-20T07:03:06Z</time>
      </trkpt>
      <trkpt lat="44.29367" lon="1.8017">
        <ele>335.64</ele>
        <time>2026-05-20T07:03:23Z</time>
      </trkpt>
      <trkpt lat="44.29346" lon="1.80159">
        <ele>334.2</ele>
        <time>2026-05-20T07:03:41Z</time>
      </trkpt>
      <trkpt lat="44.29325" lon="1.80149">
        <ele>334.2</ele>
        <time>2026-05-20T07:03:59Z</time>
      </trkpt>
      <trkpt lat="44.29315" lon="1.80149">
        <ele>334.2</ele>
        <time>2026-05-20T07:04:34Z</time>
      </trkpt>
      <trkpt lat="44.29306" lon="1.8014">
        <ele>334.2</ele>
        <time>2026-05-20T07:04:41Z</time>
      </trkpt>
      <trkpt lat="44.29298" lon="1.80136">
        <ele>336.12</ele>
        <time>2026-05-20T07:04:44Z</time>
      </trkpt>
      <trkpt lat="44.29292" lon="1.80133">
        <ele>335.16</ele>
        <time>2026-05-20T07:04:51Z</time>
      </trkpt>
      <trkpt lat="44.29283" lon="1.80122">
        <ele>338.04</ele>
        <time>2026-05-20T07:05:02Z</time>
      </trkpt>
      <trkpt lat="44.29279" lon="1.80116">
        <ele>336.12</ele>
        <time>2026-05-20T07:05:05Z</time>
      </trkpt>
      <trkpt lat="44.29267" lon="1.80104">
        <ele>335.64</ele>
        <time>2026-05-20T07:05:14Z</time>
      </trkpt>
      <trkpt lat="44.29256" lon="1.80088">
        <ele>335.16</ele>
        <time>2026-05-20T07:05:26Z</time>
      </trkpt>
      <trkpt lat="44.29245" lon="1.80083">
        <ele>335.16</ele>
        <time>2026-05-20T07:05:36Z</time>
      </trkpt>
      <trkpt lat="44.29237" lon="1.80084">
        <ele>335.64</ele>
        <time>2026-05-20T07:05:40Z</time>
      </trkpt>
      <trkpt lat="44.29217" lon="1.80082">
        <ele>336.6</ele>
        <time>2026-05-20T07:05:58Z</time>
      </trkpt>
      <trkpt lat="44.292" lon="1.80081">
        <ele>337.56</ele>
        <time>2026-05-20T07:06:12Z</time>
      </trkpt>
      <trkpt lat="44.29188" lon="1.80088">
        <ele>339</ele>
        <time>2026-05-20T07:06:27Z</time>
      </trkpt>
      <trkpt lat="44.29174" lon="1.80091">
        <ele>339.48</ele>
        <time>2026-05-20T07:06:41Z</time>
      </trkpt>
      <trkpt lat="44.2916" lon="1.80096">
        <ele>339.48</ele>
        <time>2026-05-20T07:06:53Z</time>
      </trkpt>
      <trkpt lat="44.29136" lon="1.80107">
        <ele>339.48</ele>
        <time>2026-05-20T07:07:06Z</time>
      </trkpt>
      <trkpt lat="44.29125" lon="1.80112">
        <ele>338.04</ele>
        <time>2026-05-20T07:07:15Z</time>
      </trkpt>
      <trkpt lat="44.2912" lon="1.80115">
        <ele>338.04</ele>
        <time>2026-05-20T07:07:19Z</time>
      </trkpt>
      <trkpt lat="44.291" lon="1.80128">
        <ele>337.56</ele>
        <time>2026-05-20T07:07:36Z</time>
      </trkpt>
      <trkpt lat="44.29083" lon="1.80145">
        <ele>335.64</ele>
        <time>2026-05-20T07:07:53Z</time>
      </trkpt>
      <trkpt lat="44.29067" lon="1.80167">
        <ele>335.16</ele>
        <time>2026-05-20T07:08:09Z</time>
      </trkpt>
      <trkpt lat="44.29052" lon="1.80188">
        <ele>335.16</ele>
        <time>2026-05-20T07:08:24Z</time>
      </trkpt>
      <trkpt lat="44.29042" lon="1.80204">
        <ele>335.16</ele>
        <time>2026-05-20T07:08:35Z</time>
      </trkpt>
      <trkpt lat="44.29039" lon="1.8021">
        <ele>335.16</ele>
        <time>2026-05-20T07:08:39Z</time>
      </trkpt>
      <trkpt lat="44.29024" lon="1.80234">
        <ele>335.16</ele>
        <time>2026-05-20T07:08:54Z</time>
      </trkpt>
      <trkpt lat="44.2902" lon="1.80244">
        <ele>335.16</ele>
        <time>2026-05-20T07:09:01Z</time>
      </trkpt>
      <trkpt lat="44.29019" lon="1.80246">
        <ele>335.16</ele>
        <time>2026-05-20T07:09:03Z</time>
      </trkpt>
      <trkpt lat="44.29007" lon="1.80265">
        <ele>337.08</ele>
        <time>2026-05-20T07:09:17Z</time>
      </trkpt>
      <trkpt lat="44.29006" lon="1.80266">
        <ele>337.08</ele>
        <time>2026-05-20T07:09:18Z</time>
      </trkpt>
      <trkpt lat="44.29004" lon="1.80269">
        <ele>337.56</ele>
        <time>2026-05-20T07:09:21Z</time>
      </trkpt>
      <trkpt lat="44.28995" lon="1.80281">
        <ele>339</ele>
        <time>2026-05-20T07:09:34Z</time>
      </trkpt>
      <trkpt lat="44.28985" lon="1.80293">
        <ele>340.44</ele>
        <time>2026-05-20T07:09:47Z</time>
      </trkpt>
      <trkpt lat="44.28971" lon="1.80308">
        <ele>341.41</ele>
        <time>2026-05-20T07:10:02Z</time>
      </trkpt>
      <trkpt lat="44.28953" lon="1.80325">
        <ele>342.85</ele>
        <time>2026-05-20T07:10:18Z</time>
      </trkpt>
      <trkpt lat="44.28929" lon="1.80348">
        <ele>343.33</ele>
        <time>2026-05-20T07:10:33Z</time>
      </trkpt>
      <trkpt lat="44.28916" lon="1.80356">
        <ele>343.81</ele>
        <time>2026-05-20T07:10:45Z</time>
      </trkpt>
      <trkpt lat="44.28922" lon="1.80343">
        <ele>344.29</ele>
        <time>2026-05-20T07:10:57Z</time>
      </trkpt>
      <trkpt lat="44.28917" lon="1.80325">
        <ele>342.85</ele>
        <time>2026-05-20T07:11:07Z</time>
      </trkpt>
      <trkpt lat="44.28911" lon="1.803">
        <ele>341.89</ele>
        <time>2026-05-20T07:11:23Z</time>
      </trkpt>
      <trkpt lat="44.28903" lon="1.80274">
        <ele>341.41</ele>
        <time>2026-05-20T07:11:37Z</time>
      </trkpt>
      <trkpt lat="44.28895" lon="1.80249">
        <ele>340.92</ele>
        <time>2026-05-20T07:11:51Z</time>
      </trkpt>
      <trkpt lat="44.28891" lon="1.8024">
        <ele>340.92</ele>
        <time>2026-05-20T07:11:56Z</time>
      </trkpt>
      <trkpt lat="44.28884" lon="1.80224">
        <ele>340.92</ele>
        <time>2026-05-20T07:12:09Z</time>
      </trkpt>
      <trkpt lat="44.28878" lon="1.80198">
        <ele>340.44</ele>
        <time>2026-05-20T07:12:24Z</time>
      </trkpt>
      <trkpt lat="44.28869" lon="1.80171">
        <ele>339.96</ele>
        <time>2026-05-20T07:12:38Z</time>
      </trkpt>
      <trkpt lat="44.28865" lon="1.8014">
        <ele>339.48</ele>
        <time>2026-05-20T07:12:54Z</time>
      </trkpt>
      <trkpt lat="44.28856" lon="1.80108">
        <ele>338.52</ele>
        <time>2026-05-20T07:13:09Z</time>
      </trkpt>
      <trkpt lat="44.28853" lon="1.80094">
        <ele>337.56</ele>
        <time>2026-05-20T07:13:18Z</time>
      </trkpt>
      <trkpt lat="44.28855" lon="1.80074">
        <ele>336.6</ele>
        <time>2026-05-20T07:13:31Z</time>
      </trkpt>
      <trkpt lat="44.2886" lon="1.8004">
        <ele>335.16</ele>
        <time>2026-05-20T07:13:48Z</time>
      </trkpt>
      <trkpt lat="44.28862" lon="1.80027">
        <ele>334.2</ele>
        <time>2026-05-20T07:13:56Z</time>
      </trkpt>
      <trkpt lat="44.28871" lon="1.80018">
        <ele>332.27</ele>
        <time>2026-05-20T07:14:05Z</time>
      </trkpt>
      <trkpt lat="44.28873" lon="1.80016">
        <ele>331.79</ele>
        <time>2026-05-20T07:14:08Z</time>
      </trkpt>
      <trkpt lat="44.28885" lon="1.80008">
        <ele>328.43</ele>
        <time>2026-05-20T07:14:19Z</time>
      </trkpt>
      <trkpt lat="44.289" lon="1.79996">
        <ele>325.06</ele>
        <time>2026-05-20T07:14:32Z</time>
      </trkpt>
      <trkpt lat="44.28907" lon="1.79989">
        <ele>323.62</ele>
        <time>2026-05-20T07:14:40Z</time>
      </trkpt>
      <trkpt lat="44.28902" lon="1.79974">
        <ele>319.78</ele>
        <time>2026-05-20T07:14:53Z</time>
      </trkpt>
      <trkpt lat="44.28884" lon="1.79966">
        <ele>316.41</ele>
        <time>2026-05-20T07:15:10Z</time>
      </trkpt>
      <trkpt lat="44.28878" lon="1.79965">
        <ele>315.45</ele>
        <time>2026-05-20T07:15:14Z</time>
      </trkpt>
      <trkpt lat="44.28873" lon="1.79961">
        <ele>314.01</ele>
        <time>2026-05-20T07:15:22Z</time>
      </trkpt>
      <trkpt lat="44.28875" lon="1.79962">
        <ele>313.05</ele>
        <time>2026-05-20T07:15:24Z</time>
      </trkpt>
      <trkpt lat="44.28887" lon="1.79957">
        <ele>309.68</ele>
        <time>2026-05-20T07:15:38Z</time>
      </trkpt>
      <trkpt lat="44.2889" lon="1.79955">
        <ele>309.2</ele>
        <time>2026-05-20T07:15:41Z</time>
      </trkpt>
      <trkpt lat="44.28902" lon="1.79943">
        <ele>305.84</ele>
        <time>2026-05-20T07:15:53Z</time>
      </trkpt>
      <trkpt lat="44.28914" lon="1.79933">
        <ele>302.47</ele>
        <time>2026-05-20T07:16:04Z</time>
      </trkpt>
      <trkpt lat="44.28923" lon="1.79922">
        <ele>299.11</ele>
        <time>2026-05-20T07:16:16Z</time>
      </trkpt>
      <trkpt lat="44.28911" lon="1.79907">
        <ele>295.26</ele>
        <time>2026-05-20T07:16:29Z</time>
      </trkpt>
      <trkpt lat="44.28899" lon="1.79896">
        <ele>292.38</ele>
        <time>2026-05-20T07:16:40Z</time>
      </trkpt>
      <trkpt lat="44.289" lon="1.79887">
        <ele>289.01</ele>
        <time>2026-05-20T07:16:51Z</time>
      </trkpt>
      <trkpt lat="44.28889" lon="1.79874">
        <ele>285.65</ele>
        <time>2026-05-20T07:17:03Z</time>
      </trkpt>
      <trkpt lat="44.28879" lon="1.7986">
        <ele>282.28</ele>
        <time>2026-05-20T07:17:14Z</time>
      </trkpt>
      <trkpt lat="44.28872" lon="1.79852">
        <ele>279.4</ele>
        <time>2026-05-20T07:17:24Z</time>
      </trkpt>
      <trkpt lat="44.28863" lon="1.79843">
        <ele>276.04</ele>
        <time>2026-05-20T07:17:34Z</time>
      </trkpt>
      <trkpt lat="44.28857" lon="1.79833">
        <ele>272.67</ele>
        <time>2026-05-20T07:17:43Z</time>
      </trkpt>
      <trkpt lat="44.28853" lon="1.79824">
        <ele>271.23</ele>
        <time>2026-05-20T07:17:49Z</time>
      </trkpt>
      <trkpt lat="44.28848" lon="1.79819">
        <ele>269.31</ele>
        <time>2026-05-20T07:17:53Z</time>
      </trkpt>
      <trkpt lat="44.28843" lon="1.79812">
        <ele>267.86</ele>
        <time>2026-05-20T07:18:00Z</time>
      </trkpt>
      <trkpt lat="44.28839" lon="1.79805">
        <ele>266.42</ele>
        <time>2026-05-20T07:18:05Z</time>
      </trkpt>
      <trkpt lat="44.28837" lon="1.79796">
        <ele>264.98</ele>
        <time>2026-05-20T07:18:10Z</time>
      </trkpt>
      <trkpt lat="44.28832" lon="1.79783">
        <ele>262.1</ele>
        <time>2026-05-20T07:18:20Z</time>
      </trkpt>
      <trkpt lat="44.28832" lon="1.79769">
        <ele>260.17</ele>
        <time>2026-05-20T07:18:38Z</time>
      </trkpt>
      <trkpt lat="44.28838" lon="1.79766">
        <ele>258.25</ele>
        <time>2026-05-20T07:19:13Z</time>
      </trkpt>
      <trkpt lat="44.28836" lon="1.79746">
        <ele>255.37</ele>
        <time>2026-05-20T07:19:26Z</time>
      </trkpt>
      <trkpt lat="44.28833" lon="1.79734">
        <ele>252.96</ele>
        <time>2026-05-20T07:19:33Z</time>
      </trkpt>
      <trkpt lat="44.28827" lon="1.79733">
        <ele>252.96</ele>
        <time>2026-05-20T07:19:36Z</time>
      </trkpt>
      <trkpt lat="44.28808" lon="1.79732">
        <ele>250.56</ele>
        <time>2026-05-20T07:19:52Z</time>
      </trkpt>
      <trkpt lat="44.28795" lon="1.79737">
        <ele>250.08</ele>
        <time>2026-05-20T07:20:04Z</time>
      </trkpt>
      <trkpt lat="44.28792" lon="1.79739">
        <ele>249.6</ele>
        <time>2026-05-20T07:20:06Z</time>
      </trkpt>
      <trkpt lat="44.28777" lon="1.79743">
        <ele>249.6</ele>
        <time>2026-05-20T07:20:21Z</time>
      </trkpt>
      <trkpt lat="44.28752" lon="1.79752">
        <ele>249.12</ele>
        <time>2026-05-20T07:20:43Z</time>
      </trkpt>
      <trkpt lat="44.28739" lon="1.79757">
        <ele>249.12</ele>
        <time>2026-05-20T07:20:51Z</time>
      </trkpt>
      <trkpt lat="44.28738" lon="1.79753">
        <ele>249.12</ele>
        <time>2026-05-20T07:20:56Z</time>
      </trkpt>
      <trkpt lat="44.2873" lon="1.79745">
        <ele>249.12</ele>
        <time>2026-05-20T07:21:10Z</time>
      </trkpt>
      <trkpt lat="44.28728" lon="1.79745">
        <ele>249.12</ele>
        <time>2026-05-20T07:21:12Z</time>
      </trkpt>
      <trkpt lat="44.28716" lon="1.79731">
        <ele>248.64</ele>
        <time>2026-05-20T07:21:24Z</time>
      </trkpt>
      <trkpt lat="44.28717" lon="1.79722">
        <ele>248.64</ele>
        <time>2026-05-20T07:21:34Z</time>
      </trkpt>
      <trkpt lat="44.28724" lon="1.79715">
        <ele>250.08</ele>
        <time>2026-05-20T07:21:45Z</time>
      </trkpt>
      <trkpt lat="44.28735" lon="1.79709">
        <ele>252</ele>
        <time>2026-05-20T07:21:56Z</time>
      </trkpt>
      <trkpt lat="44.28739" lon="1.79706">
        <ele>252.48</ele>
        <time>2026-05-20T07:22:01Z</time>
      </trkpt>
      <trkpt lat="44.28741" lon="1.79702">
        <ele>252.96</ele>
        <time>2026-05-20T07:22:08Z</time>
      </trkpt>
      <trkpt lat="44.28742" lon="1.79697">
        <ele>253.44</ele>
        <time>2026-05-20T07:22:12Z</time>
      </trkpt>
      <trkpt lat="44.28748" lon="1.79688">
        <ele>254.41</ele>
        <time>2026-05-20T07:22:24Z</time>
      </trkpt>
      <trkpt lat="44.28748" lon="1.79672">
        <ele>256.33</ele>
        <time>2026-05-20T07:22:37Z</time>
      </trkpt>
      <trkpt lat="44.28749" lon="1.79658">
        <ele>258.73</ele>
        <time>2026-05-20T07:22:51Z</time>
      </trkpt>
      <trkpt lat="44.28746" lon="1.79647">
        <ele>260.17</ele>
        <time>2026-05-20T07:23:04Z</time>
      </trkpt>
      <trkpt lat="44.28744" lon="1.79635">
        <ele>262.58</ele>
        <time>2026-05-20T07:23:19Z</time>
      </trkpt>
      <trkpt lat="44.28744" lon="1.79621">
        <ele>264.98</ele>
        <time>2026-05-20T07:23:34Z</time>
      </trkpt>
      <trkpt lat="44.28744" lon="1.79606">
        <ele>267.38</ele>
        <time>2026-05-20T07:23:52Z</time>
      </trkpt>
      <trkpt lat="44.28748" lon="1.79599">
        <ele>269.31</ele>
        <time>2026-05-20T07:24:06Z</time>
      </trkpt>
      <trkpt lat="44.28752" lon="1.79591">
        <ele>271.71</ele>
        <time>2026-05-20T07:24:18Z</time>
      </trkpt>
      <trkpt lat="44.28752" lon="1.79582">
        <ele>273.63</ele>
        <time>2026-05-20T07:24:32Z</time>
      </trkpt>
      <trkpt lat="44.28753" lon="1.79581">
        <ele>274.11</ele>
        <time>2026-05-20T07:24:49Z</time>
      </trkpt>
      <trkpt lat="44.28751" lon="1.7958">
        <ele>274.59</ele>
        <time>2026-05-20T07:25:19Z</time>
      </trkpt>
      <trkpt lat="44.28752" lon="1.79568">
        <ele>276.04</ele>
        <time>2026-05-20T07:25:36Z</time>
      </trkpt>
      <trkpt lat="44.28746" lon="1.79558">
        <ele>278.92</ele>
        <time>2026-05-20T07:25:50Z</time>
      </trkpt>
      <trkpt lat="44.28742" lon="1.79549">
        <ele>281.8</ele>
        <time>2026-05-20T07:26:07Z</time>
      </trkpt>
      <trkpt lat="44.28738" lon="1.79539">
        <ele>283.73</ele>
        <time>2026-05-20T07:26:26Z</time>
      </trkpt>
      <trkpt lat="44.28734" lon="1.79532">
        <ele>286.61</ele>
        <time>2026-05-20T07:26:44Z</time>
      </trkpt>
      <trkpt lat="44.28731" lon="1.79525">
        <ele>289.97</ele>
        <time>2026-05-20T07:26:57Z</time>
      </trkpt>
      <trkpt lat="44.2873" lon="1.79513">
        <ele>291.42</ele>
        <time>2026-05-20T07:27:11Z</time>
      </trkpt>
      <trkpt lat="44.28728" lon="1.79507">
        <ele>294.3</ele>
        <time>2026-05-20T07:27:21Z</time>
      </trkpt>
      <trkpt lat="44.2873" lon="1.79499">
        <ele>294.3</ele>
        <time>2026-05-20T07:27:32Z</time>
      </trkpt>
      <trkpt lat="44.28733" lon="1.79495">
        <ele>295.26</ele>
        <time>2026-05-20T07:27:44Z</time>
      </trkpt>
      <trkpt lat="44.28735" lon="1.79495">
        <ele>295.74</ele>
        <time>2026-05-20T07:27:48Z</time>
      </trkpt>
      <trkpt lat="44.28741" lon="1.79492">
        <ele>295.74</ele>
        <time>2026-05-20T07:28:03Z</time>
      </trkpt>
      <trkpt lat="44.28738" lon="1.7949">
        <ele>295.74</ele>
        <time>2026-05-20T07:28:17Z</time>
      </trkpt>
      <trkpt lat="44.28738" lon="1.7949">
        <ele>295.74</ele>
        <time>2026-05-20T07:28:18Z</time>
      </trkpt>
      <trkpt lat="44.28735" lon="1.7949">
        <ele>295.74</ele>
        <time>2026-05-20T07:28:20Z</time>
      </trkpt>
      <trkpt lat="44.28726" lon="1.79492">
        <ele>295.74</ele>
        <time>2026-05-20T07:28:36Z</time>
      </trkpt>
      <trkpt lat="44.28725" lon="1.79493">
        <ele>295.74</ele>
        <time>2026-05-20T07:28:57Z</time>
      </trkpt>
      <trkpt lat="44.28727" lon="1.79491">
        <ele>296.22</ele>
        <time>2026-05-20T07:29:15Z</time>
      </trkpt>
      <trkpt lat="44.28725" lon="1.79493">
        <ele>296.22</ele>
        <time>2026-05-20T07:29:30Z</time>
      </trkpt>
      <trkpt lat="44.28726" lon="1.79482">
        <ele>296.7</ele>
        <time>2026-05-20T07:30:11Z</time>
      </trkpt>
      <trkpt lat="44.28719" lon="1.79486">
        <ele>296.7</ele>
        <time>2026-05-20T07:30:57Z</time>
      </trkpt>
      <trkpt lat="44.28725" lon="1.79491">
        <ele>296.7</ele>
        <time>2026-05-20T07:31:49Z</time>
      </trkpt>
      <trkpt lat="44.28722" lon="1.79494">
        <ele>296.7</ele>
        <time>2026-05-20T07:32:28Z</time>
      </trkpt>
      <trkpt lat="44.28723" lon="1.79488">
        <ele>295.74</ele>
        <time>2026-05-20T07:33:12Z</time>
      </trkpt>
      <trkpt lat="44.28721" lon="1.79478">
        <ele>296.22</ele>
        <time>2026-05-20T07:34:06Z</time>
      </trkpt>
      <trkpt lat="44.28719" lon="1.79477">
        <ele>294.78</ele>
        <time>2026-05-20T07:34:33Z</time>
      </trkpt>
      <trkpt lat="44.2872" lon="1.79478">
        <ele>296.7</ele>
        <time>2026-05-20T07:34:35Z</time>
      </trkpt>
      <trkpt lat="44.28721" lon="1.79487">
        <ele>296.7</ele>
        <time>2026-05-20T07:34:53Z</time>
      </trkpt>
      <trkpt lat="44.28723" lon="1.79488">
        <ele>296.22</ele>
        <time>2026-05-20T07:35:16Z</time>
      </trkpt>
      <trkpt lat="44.2873" lon="1.79488">
        <ele>296.22</ele>
        <time>2026-05-20T07:35:41Z</time>
      </trkpt>
      <trkpt lat="44.28738" lon="1.79486">
        <ele>297.67</ele>
        <time>2026-05-20T07:35:54Z</time>
      </trkpt>
      <trkpt lat="44.28736" lon="1.79482">
        <ele>299.11</ele>
        <time>2026-05-20T07:36:06Z</time>
      </trkpt>
      <trkpt lat="44.28732" lon="1.79481">
        <ele>301.03</ele>
        <time>2026-05-20T07:36:21Z</time>
      </trkpt>
      <trkpt lat="44.28727" lon="1.79478">
        <ele>301.51</ele>
        <time>2026-05-20T07:36:32Z</time>
      </trkpt>
      <trkpt lat="44.2872" lon="1.79476">
        <ele>303.91</ele>
        <time>2026-05-20T07:36:46Z</time>
      </trkpt>
      <trkpt lat="44.28715" lon="1.7947">
        <ele>305.84</ele>
        <time>2026-05-20T07:36:59Z</time>
      </trkpt>
      <trkpt lat="44.28709" lon="1.79471">
        <ele>306.32</ele>
        <time>2026-05-20T07:37:16Z</time>
      </trkpt>
      <trkpt lat="44.28706" lon="1.7947">
        <ele>308.72</ele>
        <time>2026-05-20T07:37:29Z</time>
      </trkpt>
      <trkpt lat="44.28712" lon="1.79471">
        <ele>310.64</ele>
        <time>2026-05-20T07:37:41Z</time>
      </trkpt>
      <trkpt lat="44.28713" lon="1.7947">
        <ele>310.64</ele>
        <time>2026-05-20T07:37:42Z</time>
      </trkpt>
      <trkpt lat="44.28718" lon="1.7947">
        <ele>311.6</ele>
        <time>2026-05-20T07:37:49Z</time>
      </trkpt>
      <trkpt lat="44.28713" lon="1.79463">
        <ele>312.57</ele>
        <time>2026-05-20T07:37:59Z</time>
      </trkpt>
      <trkpt lat="44.28701" lon="1.79461">
        <ele>314.97</ele>
        <time>2026-05-20T07:38:13Z</time>
      </trkpt>
      <trkpt lat="44.28686" lon="1.79466">
        <ele>316.41</ele>
        <time>2026-05-20T07:38:27Z</time>
      </trkpt>
      <trkpt lat="44.28678" lon="1.79468">
        <ele>316.89</ele>
        <time>2026-05-20T07:38:34Z</time>
      </trkpt>
      <trkpt lat="44.28663" lon="1.79472">
        <ele>318.33</ele>
        <time>2026-05-20T07:38:48Z</time>
      </trkpt>
      <trkpt lat="44.28658" lon="1.79471">
        <ele>318.81</ele>
        <time>2026-05-20T07:38:52Z</time>
      </trkpt>
      <trkpt lat="44.28648" lon="1.79464">
        <ele>320.26</ele>
        <time>2026-05-20T07:39:02Z</time>
      </trkpt>
      <trkpt lat="44.28636" lon="1.79457">
        <ele>321.7</ele>
        <time>2026-05-20T07:39:14Z</time>
      </trkpt>
      <trkpt lat="44.28631" lon="1.79452">
        <ele>322.66</ele>
        <time>2026-05-20T07:39:20Z</time>
      </trkpt>
      <trkpt lat="44.28624" lon="1.79448">
        <ele>323.14</ele>
        <time>2026-05-20T07:39:26Z</time>
      </trkpt>
      <trkpt lat="44.28619" lon="1.79446">
        <ele>324.1</ele>
        <time>2026-05-20T07:39:31Z</time>
      </trkpt>
      <trkpt lat="44.28617" lon="1.79446">
        <ele>324.1</ele>
        <time>2026-05-20T07:39:33Z</time>
      </trkpt>
      <trkpt lat="44.28612" lon="1.79447">
        <ele>324.1</ele>
        <time>2026-05-20T07:39:45Z</time>
      </trkpt>
      <trkpt lat="44.28612" lon="1.79454">
        <ele>324.1</ele>
        <time>2026-05-20T07:40:27Z</time>
      </trkpt>
      <trkpt lat="44.28606" lon="1.7945">
        <ele>324.1</ele>
        <time>2026-05-20T07:40:52Z</time>
      </trkpt>
      <trkpt lat="44.28601" lon="1.7945">
        <ele>324.1</ele>
        <time>2026-05-20T07:40:57Z</time>
      </trkpt>
      <trkpt lat="44.286" lon="1.79449">
        <ele>324.58</ele>
        <time>2026-05-20T07:41:12Z</time>
      </trkpt>
      <trkpt lat="44.28593" lon="1.79442">
        <ele>324.58</ele>
        <time>2026-05-20T07:41:32Z</time>
      </trkpt>
      <trkpt lat="44.2859" lon="1.79441">
        <ele>324.1</ele>
        <time>2026-05-20T07:41:38Z</time>
      </trkpt>
      <trkpt lat="44.28582" lon="1.79441">
        <ele>324.1</ele>
        <time>2026-05-20T07:41:42Z</time>
      </trkpt>
      <trkpt lat="44.28577" lon="1.79446">
        <ele>324.1</ele>
        <time>2026-05-20T07:41:47Z</time>
      </trkpt>
      <trkpt lat="44.28559" lon="1.79455">
        <ele>324.1</ele>
        <time>2026-05-20T07:42:03Z</time>
      </trkpt>
      <trkpt lat="44.28554" lon="1.79456">
        <ele>324.1</ele>
        <time>2026-05-20T07:42:08Z</time>
      </trkpt>
      <trkpt lat="44.28536" lon="1.79458">
        <ele>324.58</ele>
        <time>2026-05-20T07:42:23Z</time>
      </trkpt>
      <trkpt lat="44.28528" lon="1.79459">
        <ele>324.58</ele>
        <time>2026-05-20T07:42:29Z</time>
      </trkpt>
      <trkpt lat="44.28509" lon="1.79467">
        <ele>324.58</ele>
        <time>2026-05-20T07:42:43Z</time>
      </trkpt>
      <trkpt lat="44.28494" lon="1.79474">
        <ele>324.58</ele>
        <time>2026-05-20T07:42:55Z</time>
      </trkpt>
      <trkpt lat="44.28474" lon="1.79479">
        <ele>325.06</ele>
        <time>2026-05-20T07:43:11Z</time>
      </trkpt>
      <trkpt lat="44.28468" lon="1.79476">
        <ele>325.06</ele>
        <time>2026-05-20T07:43:26Z</time>
      </trkpt>
      <trkpt lat="44.28454" lon="1.79481">
        <ele>324.1</ele>
        <time>2026-05-20T07:43:45Z</time>
      </trkpt>
      <trkpt lat="44.28437" lon="1.79488">
        <ele>324.58</ele>
        <time>2026-05-20T07:44:01Z</time>
      </trkpt>
      <trkpt lat="44.28411" lon="1.79485">
        <ele>325.06</ele>
        <time>2026-05-20T07:44:19Z</time>
      </trkpt>
      <trkpt lat="44.28405" lon="1.79485">
        <ele>325.06</ele>
        <time>2026-05-20T07:44:24Z</time>
      </trkpt>
      <trkpt lat="44.28394" lon="1.79487">
        <ele>325.06</ele>
        <time>2026-05-20T07:44:35Z</time>
      </trkpt>
      <trkpt lat="44.28384" lon="1.79491">
        <ele>324.1</ele>
        <time>2026-05-20T07:44:44Z</time>
      </trkpt>
      <trkpt lat="44.2837" lon="1.79493">
        <ele>324.1</ele>
        <time>2026-05-20T07:44:54Z</time>
      </trkpt>
      <trkpt lat="44.28349" lon="1.79502">
        <ele>323.62</ele>
        <time>2026-05-20T07:45:08Z</time>
      </trkpt>
      <trkpt lat="44.28335" lon="1.79513">
        <ele>323.62</ele>
        <time>2026-05-20T07:45:21Z</time>
      </trkpt>
      <trkpt lat="44.28321" lon="1.79526">
        <ele>325.06</ele>
        <time>2026-05-20T07:45:33Z</time>
      </trkpt>
      <trkpt lat="44.283" lon="1.79542">
        <ele>326.5</ele>
        <time>2026-05-20T07:45:51Z</time>
      </trkpt>
      <trkpt lat="44.28286" lon="1.79555">
        <ele>326.99</ele>
        <time>2026-05-20T07:46:04Z</time>
      </trkpt>
      <trkpt lat="44.28276" lon="1.79554">
        <ele>327.95</ele>
        <time>2026-05-20T07:46:13Z</time>
      </trkpt>
      <trkpt lat="44.28259" lon="1.79541">
        <ele>328.91</ele>
        <time>2026-05-20T07:46:28Z</time>
      </trkpt>
      <trkpt lat="44.28243" lon="1.7953">
        <ele>329.39</ele>
        <time>2026-05-20T07:46:42Z</time>
      </trkpt>
      <trkpt lat="44.28222" lon="1.79521">
        <ele>329.87</ele>
        <time>2026-05-20T07:47:00Z</time>
      </trkpt>
      <trkpt lat="44.28202" lon="1.7951">
        <ele>330.35</ele>
        <time>2026-05-20T07:47:15Z</time>
      </trkpt>
      <trkpt lat="44.28194" lon="1.79509">
        <ele>330.35</ele>
        <time>2026-05-20T07:47:29Z</time>
      </trkpt>
      <trkpt lat="44.28191" lon="1.79512">
        <ele>330.35</ele>
        <time>2026-05-20T07:47:47Z</time>
      </trkpt>
      <trkpt lat="44.28167" lon="1.79512">
        <ele>330.35</ele>
        <time>2026-05-20T07:48:06Z</time>
      </trkpt>
      <trkpt lat="44.28138" lon="1.79508">
        <ele>330.35</ele>
        <time>2026-05-20T07:48:26Z</time>
      </trkpt>
      <trkpt lat="44.28117" lon="1.79503">
        <ele>330.35</ele>
        <time>2026-05-20T07:48:40Z</time>
      </trkpt>
      <trkpt lat="44.28092" lon="1.795">
        <ele>330.35</ele>
        <time>2026-05-20T07:48:58Z</time>
      </trkpt>
      <trkpt lat="44.28069" lon="1.79497">
        <ele>328.91</ele>
        <time>2026-05-20T07:49:15Z</time>
      </trkpt>
      <trkpt lat="44.2805" lon="1.79499">
        <ele>327.95</ele>
        <time>2026-05-20T07:49:29Z</time>
      </trkpt>
      <trkpt lat="44.2803" lon="1.79507">
        <ele>326.99</ele>
        <time>2026-05-20T07:49:44Z</time>
      </trkpt>
      <trkpt lat="44.28009" lon="1.79511">
        <ele>326.02</ele>
        <time>2026-05-20T07:49:59Z</time>
      </trkpt>
      <trkpt lat="44.28008" lon="1.79511">
        <ele>326.02</ele>
        <time>2026-05-20T07:50:00Z</time>
      </trkpt>
      <trkpt lat="44.27984" lon="1.79513">
        <ele>324.58</ele>
        <time>2026-05-20T07:50:17Z</time>
      </trkpt>
      <trkpt lat="44.2797" lon="1.79508">
        <ele>323.14</ele>
        <time>2026-05-20T07:50:27Z</time>
      </trkpt>
      <trkpt lat="44.27961" lon="1.79503">
        <ele>322.66</ele>
        <time>2026-05-20T07:50:35Z</time>
      </trkpt>
      <trkpt lat="44.27959" lon="1.79503">
        <ele>322.66</ele>
        <time>2026-05-20T07:50:36Z</time>
      </trkpt>
      <trkpt lat="44.27958" lon="1.79503">
        <ele>322.66</ele>
        <time>2026-05-20T07:50:37Z</time>
      </trkpt>
      <trkpt lat="44.27956" lon="1.79503">
        <ele>322.66</ele>
        <time>2026-05-20T07:50:38Z</time>
      </trkpt>
      <trkpt lat="44.27954" lon="1.79503">
        <ele>322.66</ele>
        <time>2026-05-20T07:50:39Z</time>
      </trkpt>
      <trkpt lat="44.27934" lon="1.79491">
        <ele>322.66</ele>
        <time>2026-05-20T07:50:54Z</time>
      </trkpt>
      <trkpt lat="44.27926" lon="1.7948">
        <ele>322.66</ele>
        <time>2026-05-20T07:51:04Z</time>
      </trkpt>
      <trkpt lat="44.27913" lon="1.79456">
        <ele>323.62</ele>
        <time>2026-05-20T07:51:20Z</time>
      </trkpt>
      <trkpt lat="44.27906" lon="1.79449">
        <ele>324.58</ele>
        <time>2026-05-20T07:51:27Z</time>
      </trkpt>
      <trkpt lat="44.27883" lon="1.79448">
        <ele>325.54</ele>
        <time>2026-05-20T07:51:43Z</time>
      </trkpt>
      <trkpt lat="44.27864" lon="1.79442">
        <ele>326.02</ele>
        <time>2026-05-20T07:51:58Z</time>
      </trkpt>
      <trkpt lat="44.27846" lon="1.79427">
        <ele>327.47</ele>
        <time>2026-05-20T07:52:13Z</time>
      </trkpt>
      <trkpt lat="44.27842" lon="1.79423">
        <ele>328.43</ele>
        <time>2026-05-20T07:52:18Z</time>
      </trkpt>
      <trkpt lat="44.2784" lon="1.79422">
        <ele>328.43</ele>
        <time>2026-05-20T07:52:19Z</time>
      </trkpt>
      <trkpt lat="44.27839" lon="1.79421">
        <ele>328.43</ele>
        <time>2026-05-20T07:52:20Z</time>
      </trkpt>
      <trkpt lat="44.27838" lon="1.7942">
        <ele>328.43</ele>
        <time>2026-05-20T07:52:21Z</time>
      </trkpt>
      <trkpt lat="44.27837" lon="1.79419">
        <ele>328.91</ele>
        <time>2026-05-20T07:52:22Z</time>
      </trkpt>
      <trkpt lat="44.27835" lon="1.79416">
        <ele>328.91</ele>
        <time>2026-05-20T07:52:25Z</time>
      </trkpt>
      <trkpt lat="44.27835" lon="1.79414">
        <ele>328.91</ele>
        <time>2026-05-20T07:52:26Z</time>
      </trkpt>
      <trkpt lat="44.27829" lon="1.79406">
        <ele>329.87</ele>
        <time>2026-05-20T07:52:34Z</time>
      </trkpt>
      <trkpt lat="44.27828" lon="1.79405">
        <ele>329.87</ele>
        <time>2026-05-20T07:52:35Z</time>
      </trkpt>
      <trkpt lat="44.27827" lon="1.79404">
        <ele>330.35</ele>
        <time>2026-05-20T07:52:36Z</time>
      </trkpt>
      <trkpt lat="44.27826" lon="1.79403">
        <ele>330.35</ele>
        <time>2026-05-20T07:52:37Z</time>
      </trkpt>
      <trkpt lat="44.27825" lon="1.79402">
        <ele>330.35</ele>
        <time>2026-05-20T07:52:38Z</time>
      </trkpt>
      <trkpt lat="44.27823" lon="1.79401">
        <ele>330.35</ele>
        <time>2026-05-20T07:52:39Z</time>
      </trkpt>
      <trkpt lat="44.27821" lon="1.79398">
        <ele>330.35</ele>
        <time>2026-05-20T07:52:43Z</time>
      </trkpt>
      <trkpt lat="44.27819" lon="1.79397">
        <ele>330.35</ele>
        <time>2026-05-20T07:52:44Z</time>
      </trkpt>
      <trkpt lat="44.27818" lon="1.79396">
        <ele>330.83</ele>
        <time>2026-05-20T07:52:45Z</time>
      </trkpt>
      <trkpt lat="44.27817" lon="1.79395">
        <ele>330.83</ele>
        <time>2026-05-20T07:52:46Z</time>
      </trkpt>
      <trkpt lat="44.27816" lon="1.79394">
        <ele>330.83</ele>
        <time>2026-05-20T07:52:47Z</time>
      </trkpt>
      <trkpt lat="44.27815" lon="1.79393">
        <ele>330.83</ele>
        <time>2026-05-20T07:52:48Z</time>
      </trkpt>
      <trkpt lat="44.27802" lon="1.79382">
        <ele>330.83</ele>
        <time>2026-05-20T07:53:00Z</time>
      </trkpt>
      <trkpt lat="44.27801" lon="1.7938">
        <ele>331.31</ele>
        <time>2026-05-20T07:53:01Z</time>
      </trkpt>
      <trkpt lat="44.278" lon="1.79379">
        <ele>330.83</ele>
        <time>2026-05-20T07:53:02Z</time>
      </trkpt>
      <trkpt lat="44.27799" lon="1.79377">
        <ele>330.83</ele>
        <time>2026-05-20T07:53:03Z</time>
      </trkpt>
      <trkpt lat="44.27798" lon="1.79376">
        <ele>330.83</ele>
        <time>2026-05-20T07:53:04Z</time>
      </trkpt>
      <trkpt lat="44.27787" lon="1.79369">
        <ele>330.83</ele>
        <time>2026-05-20T07:53:15Z</time>
      </trkpt>
      <trkpt lat="44.27785" lon="1.79367">
        <ele>330.83</ele>
        <time>2026-05-20T07:53:17Z</time>
      </trkpt>
      <trkpt lat="44.27785" lon="1.79365">
        <ele>330.83</ele>
        <time>2026-05-20T07:53:18Z</time>
      </trkpt>
      <trkpt lat="44.27784" lon="1.79364">
        <ele>330.83</ele>
        <time>2026-05-20T07:53:19Z</time>
      </trkpt>
      <trkpt lat="44.27774" lon="1.7935">
        <ele>328.91</ele>
        <time>2026-05-20T07:53:31Z</time>
      </trkpt>
      <trkpt lat="44.27773" lon="1.79324">
        <ele>328.43</ele>
        <time>2026-05-20T07:53:47Z</time>
      </trkpt>
      <trkpt lat="44.27766" lon="1.79302">
        <ele>327.47</ele>
        <time>2026-05-20T07:53:59Z</time>
      </trkpt>
      <trkpt lat="44.27763" lon="1.79295">
        <ele>326.99</ele>
        <time>2026-05-20T07:54:03Z</time>
      </trkpt>
      <trkpt lat="44.27755" lon="1.79278">
        <ele>326.02</ele>
        <time>2026-05-20T07:54:14Z</time>
      </trkpt>
      <trkpt lat="44.27749" lon="1.79266">
        <ele>325.54</ele>
        <time>2026-05-20T07:54:22Z</time>
      </trkpt>
      <trkpt lat="44.27748" lon="1.79264">
        <ele>325.54</ele>
        <time>2026-05-20T07:54:23Z</time>
      </trkpt>
      <trkpt lat="44.27747" lon="1.79259">
        <ele>325.54</ele>
        <time>2026-05-20T07:54:26Z</time>
      </trkpt>
      <trkpt lat="44.27747" lon="1.79257">
        <ele>325.54</ele>
        <time>2026-05-20T07:54:27Z</time>
      </trkpt>
      <trkpt lat="44.27739" lon="1.79225">
        <ele>324.58</ele>
        <time>2026-05-20T07:54:43Z</time>
      </trkpt>
      <trkpt lat="44.27726" lon="1.79199">
        <ele>323.14</ele>
        <time>2026-05-20T07:54:58Z</time>
      </trkpt>
      <trkpt lat="44.27724" lon="1.79195">
        <ele>323.14</ele>
        <time>2026-05-20T07:55:00Z</time>
      </trkpt>
      <trkpt lat="44.27716" lon="1.79178">
        <ele>322.18</ele>
        <time>2026-05-20T07:55:10Z</time>
      </trkpt>
      <trkpt lat="44.27715" lon="1.79176">
        <ele>322.18</ele>
        <time>2026-05-20T07:55:11Z</time>
      </trkpt>
      <trkpt lat="44.27714" lon="1.79174">
        <ele>322.18</ele>
        <time>2026-05-20T07:55:12Z</time>
      </trkpt>
      <trkpt lat="44.27713" lon="1.79172">
        <ele>322.18</ele>
        <time>2026-05-20T07:55:13Z</time>
      </trkpt>
      <trkpt lat="44.27713" lon="1.79171">
        <ele>322.18</ele>
        <time>2026-05-20T07:55:14Z</time>
      </trkpt>
      <trkpt lat="44.277" lon="1.79147">
        <ele>320.74</ele>
        <time>2026-05-20T07:55:29Z</time>
      </trkpt>
      <trkpt lat="44.27697" lon="1.79139">
        <ele>320.74</ele>
        <time>2026-05-20T07:55:35Z</time>
      </trkpt>
      <trkpt lat="44.27697" lon="1.79137">
        <ele>320.26</ele>
        <time>2026-05-20T07:55:36Z</time>
      </trkpt>
      <trkpt lat="44.27697" lon="1.79135">
        <ele>320.26</ele>
        <time>2026-05-20T07:55:37Z</time>
      </trkpt>
      <trkpt lat="44.27697" lon="1.79133">
        <ele>320.26</ele>
        <time>2026-05-20T07:55:38Z</time>
      </trkpt>
      <trkpt lat="44.27697" lon="1.79131">
        <ele>320.26</ele>
        <time>2026-05-20T07:55:39Z</time>
      </trkpt>
      <trkpt lat="44.27697" lon="1.79129">
        <ele>320.26</ele>
        <time>2026-05-20T07:55:40Z</time>
      </trkpt>
      <trkpt lat="44.27696" lon="1.79128">
        <ele>319.78</ele>
        <time>2026-05-20T07:55:41Z</time>
      </trkpt>
      <trkpt lat="44.27695" lon="1.79119">
        <ele>318.81</ele>
        <time>2026-05-20T07:55:47Z</time>
      </trkpt>
      <trkpt lat="44.27693" lon="1.79118">
        <ele>318.81</ele>
        <time>2026-05-20T07:55:48Z</time>
      </trkpt>
      <trkpt lat="44.27692" lon="1.79117">
        <ele>318.81</ele>
        <time>2026-05-20T07:55:49Z</time>
      </trkpt>
      <trkpt lat="44.27687" lon="1.79115">
        <ele>318.33</ele>
        <time>2026-05-20T07:55:53Z</time>
      </trkpt>
      <trkpt lat="44.27686" lon="1.79116">
        <ele>318.33</ele>
        <time>2026-05-20T07:55:54Z</time>
      </trkpt>
      <trkpt lat="44.27684" lon="1.79116">
        <ele>318.33</ele>
        <time>2026-05-20T07:55:55Z</time>
      </trkpt>
      <trkpt lat="44.27683" lon="1.79116">
        <ele>318.33</ele>
        <time>2026-05-20T07:55:56Z</time>
      </trkpt>
      <trkpt lat="44.27681" lon="1.79116">
        <ele>317.85</ele>
        <time>2026-05-20T07:55:57Z</time>
      </trkpt>
      <trkpt lat="44.2768" lon="1.79116">
        <ele>317.85</ele>
        <time>2026-05-20T07:55:58Z</time>
      </trkpt>
      <trkpt lat="44.27679" lon="1.79117">
        <ele>317.85</ele>
        <time>2026-05-20T07:55:59Z</time>
      </trkpt>
      <trkpt lat="44.27674" lon="1.79117">
        <ele>317.37</ele>
        <time>2026-05-20T07:56:03Z</time>
      </trkpt>
      <trkpt lat="44.27656" lon="1.79113">
        <ele>315.93</ele>
        <time>2026-05-20T07:56:16Z</time>
      </trkpt>
      <trkpt lat="44.27638" lon="1.79116">
        <ele>313.53</ele>
        <time>2026-05-20T07:56:30Z</time>
      </trkpt>
      <trkpt lat="44.27629" lon="1.79131">
        <ele>311.6</ele>
        <time>2026-05-20T07:56:42Z</time>
      </trkpt>
      <trkpt lat="44.27625" lon="1.79141">
        <ele>310.64</ele>
        <time>2026-05-20T07:56:48Z</time>
      </trkpt>
      <trkpt lat="44.27615" lon="1.79149">
        <ele>309.2</ele>
        <time>2026-05-20T07:56:56Z</time>
      </trkpt>
      <trkpt lat="44.27614" lon="1.7915">
        <ele>309.2</ele>
        <time>2026-05-20T07:56:57Z</time>
      </trkpt>
      <trkpt lat="44.27596" lon="1.7916">
        <ele>305.84</ele>
        <time>2026-05-20T07:57:11Z</time>
      </trkpt>
      <trkpt lat="44.27581" lon="1.79177">
        <ele>303.43</ele>
        <time>2026-05-20T07:57:29Z</time>
      </trkpt>
      <trkpt lat="44.27571" lon="1.79189">
        <ele>301.99</ele>
        <time>2026-05-20T07:57:42Z</time>
      </trkpt>
      <trkpt lat="44.27568" lon="1.79189">
        <ele>301.99</ele>
        <time>2026-05-20T07:57:45Z</time>
      </trkpt>
      <trkpt lat="44.27562" lon="1.79189">
        <ele>302.95</ele>
        <time>2026-05-20T07:57:50Z</time>
      </trkpt>
      <trkpt lat="44.27544" lon="1.79199">
        <ele>304.88</ele>
        <time>2026-05-20T07:58:05Z</time>
      </trkpt>
      <trkpt lat="44.27524" lon="1.79206">
        <ele>305.84</ele>
        <time>2026-05-20T07:58:21Z</time>
      </trkpt>
      <trkpt lat="44.27509" lon="1.79218">
        <ele>305.84</ele>
        <time>2026-05-20T07:58:36Z</time>
      </trkpt>
      <trkpt lat="44.27489" lon="1.79223">
        <ele>307.28</ele>
        <time>2026-05-20T07:58:52Z</time>
      </trkpt>
      <trkpt lat="44.27467" lon="1.79222">
        <ele>307.76</ele>
        <time>2026-05-20T07:59:10Z</time>
      </trkpt>
      <trkpt lat="44.27466" lon="1.79222">
        <ele>307.76</ele>
        <time>2026-05-20T07:59:11Z</time>
      </trkpt>
      <trkpt lat="44.27463" lon="1.7922">
        <ele>307.76</ele>
        <time>2026-05-20T07:59:13Z</time>
      </trkpt>
      <trkpt lat="44.27462" lon="1.7922">
        <ele>307.76</ele>
        <time>2026-05-20T07:59:14Z</time>
      </trkpt>
      <trkpt lat="44.27452" lon="1.79209">
        <ele>308.24</ele>
        <time>2026-05-20T07:59:29Z</time>
      </trkpt>
      <trkpt lat="44.27435" lon="1.79192">
        <ele>308.24</ele>
        <time>2026-05-20T07:59:45Z</time>
      </trkpt>
      <trkpt lat="44.27417" lon="1.79188">
        <ele>305.84</ele>
        <time>2026-05-20T08:00:00Z</time>
      </trkpt>
      <trkpt lat="44.27407" lon="1.79179">
        <ele>304.88</ele>
        <time>2026-05-20T08:00:09Z</time>
      </trkpt>
      <trkpt lat="44.27406" lon="1.79177">
        <ele>304.88</ele>
        <time>2026-05-20T08:00:11Z</time>
      </trkpt>
      <trkpt lat="44.27388" lon="1.79161">
        <ele>303.43</ele>
        <time>2026-05-20T08:00:29Z</time>
      </trkpt>
      <trkpt lat="44.27372" lon="1.79147">
        <ele>302.47</ele>
        <time>2026-05-20T08:00:44Z</time>
      </trkpt>
      <trkpt lat="44.27354" lon="1.79133">
        <ele>301.51</ele>
        <time>2026-05-20T08:01:02Z</time>
      </trkpt>
      <trkpt lat="44.27335" lon="1.79119">
        <ele>301.51</ele>
        <time>2026-05-20T08:01:17Z</time>
      </trkpt>
      <trkpt lat="44.27315" lon="1.79106">
        <ele>301.51</ele>
        <time>2026-05-20T08:01:34Z</time>
      </trkpt>
      <trkpt lat="44.27295" lon="1.79088">
        <ele>301.51</ele>
        <time>2026-05-20T08:01:54Z</time>
      </trkpt>
      <trkpt lat="44.27274" lon="1.79074">
        <ele>301.03</ele>
        <time>2026-05-20T08:02:12Z</time>
      </trkpt>
      <trkpt lat="44.27256" lon="1.7906">
        <ele>301.03</ele>
        <time>2026-05-20T08:02:28Z</time>
      </trkpt>
      <trkpt lat="44.27237" lon="1.79047">
        <ele>300.55</ele>
        <time>2026-05-20T08:02:43Z</time>
      </trkpt>
      <trkpt lat="44.27229" lon="1.79041">
        <ele>300.55</ele>
        <time>2026-05-20T08:02:59Z</time>
      </trkpt>
      <trkpt lat="44.27221" lon="1.79044">
        <ele>298.63</ele>
        <time>2026-05-20T08:03:30Z</time>
      </trkpt>
      <trkpt lat="44.2722" lon="1.79042">
        <ele>300.07</ele>
        <time>2026-05-20T08:03:32Z</time>
      </trkpt>
      <trkpt lat="44.27217" lon="1.79041">
        <ele>302.95</ele>
        <time>2026-05-20T08:03:39Z</time>
      </trkpt>
      <trkpt lat="44.27219" lon="1.79046">
        <ele>299.59</ele>
        <time>2026-05-20T08:03:43Z</time>
      </trkpt>
      <trkpt lat="44.27215" lon="1.79028">
        <ele>299.59</ele>
        <time>2026-05-20T08:03:58Z</time>
      </trkpt>
      <trkpt lat="44.27208" lon="1.79002">
        <ele>299.59</ele>
        <time>2026-05-20T08:04:14Z</time>
      </trkpt>
      <trkpt lat="44.27198" lon="1.78968">
        <ele>299.59</ele>
        <time>2026-05-20T08:04:31Z</time>
      </trkpt>
      <trkpt lat="44.27191" lon="1.78942">
        <ele>299.59</ele>
        <time>2026-05-20T08:04:48Z</time>
      </trkpt>
      <trkpt lat="44.27182" lon="1.78921">
        <ele>299.59</ele>
        <time>2026-05-20T08:05:02Z</time>
      </trkpt>
      <trkpt lat="44.27171" lon="1.78908">
        <ele>301.03</ele>
        <time>2026-05-20T08:05:13Z</time>
      </trkpt>
      <trkpt lat="44.2717" lon="1.78906">
        <ele>301.03</ele>
        <time>2026-05-20T08:05:14Z</time>
      </trkpt>
      <trkpt lat="44.27151" lon="1.78887">
        <ele>301.03</ele>
        <time>2026-05-20T08:05:32Z</time>
      </trkpt>
      <trkpt lat="44.2714" lon="1.78872">
        <ele>301.51</ele>
        <time>2026-05-20T08:05:44Z</time>
      </trkpt>
      <trkpt lat="44.27132" lon="1.7885">
        <ele>304.39</ele>
        <time>2026-05-20T08:06:02Z</time>
      </trkpt>
      <trkpt lat="44.2713" lon="1.78844">
        <ele>304.88</ele>
        <time>2026-05-20T08:06:07Z</time>
      </trkpt>
      <trkpt lat="44.27129" lon="1.78838">
        <ele>304.88</ele>
        <time>2026-05-20T08:06:12Z</time>
      </trkpt>
      <trkpt lat="44.27129" lon="1.78836">
        <ele>304.88</ele>
        <time>2026-05-20T08:06:13Z</time>
      </trkpt>
      <trkpt lat="44.27124" lon="1.78819">
        <ele>306.32</ele>
        <time>2026-05-20T08:06:28Z</time>
      </trkpt>
      <trkpt lat="44.27113" lon="1.78797">
        <ele>308.24</ele>
        <time>2026-05-20T08:06:44Z</time>
      </trkpt>
      <trkpt lat="44.27103" lon="1.78785">
        <ele>308.72</ele>
        <time>2026-05-20T08:07:01Z</time>
      </trkpt>
      <trkpt lat="44.27105" lon="1.78786">
        <ele>308.72</ele>
        <time>2026-05-20T08:07:41Z</time>
      </trkpt>
      <trkpt lat="44.27103" lon="1.78769">
        <ele>308.72</ele>
        <time>2026-05-20T08:08:13Z</time>
      </trkpt>
      <trkpt lat="44.27086" lon="1.78752">
        <ele>310.16</ele>
        <time>2026-05-20T08:08:31Z</time>
      </trkpt>
      <trkpt lat="44.27073" lon="1.78731">
        <ele>311.12</ele>
        <time>2026-05-20T08:08:49Z</time>
      </trkpt>
      <trkpt lat="44.27061" lon="1.78712">
        <ele>312.09</ele>
        <time>2026-05-20T08:09:04Z</time>
      </trkpt>
      <trkpt lat="44.27051" lon="1.78701">
        <ele>313.53</ele>
        <time>2026-05-20T08:09:19Z</time>
      </trkpt>
      <trkpt lat="44.27041" lon="1.78689">
        <ele>314.49</ele>
        <time>2026-05-20T08:09:33Z</time>
      </trkpt>
      <trkpt lat="44.27027" lon="1.78669">
        <ele>315.45</ele>
        <time>2026-05-20T08:09:48Z</time>
      </trkpt>
      <trkpt lat="44.27025" lon="1.78667">
        <ele>315.45</ele>
        <time>2026-05-20T08:09:49Z</time>
      </trkpt>
      <trkpt lat="44.27024" lon="1.78665">
        <ele>315.45</ele>
        <time>2026-05-20T08:09:50Z</time>
      </trkpt>
      <trkpt lat="44.27009" lon="1.78647">
        <ele>315.45</ele>
        <time>2026-05-20T08:10:02Z</time>
      </trkpt>
      <trkpt lat="44.26993" lon="1.78632">
        <ele>314.01</ele>
        <time>2026-05-20T08:10:16Z</time>
      </trkpt>
      <trkpt lat="44.26979" lon="1.78619">
        <ele>312.57</ele>
        <time>2026-05-20T08:10:29Z</time>
      </trkpt>
      <trkpt lat="44.26978" lon="1.78618">
        <ele>312.57</ele>
        <time>2026-05-20T08:10:30Z</time>
      </trkpt>
      <trkpt lat="44.26976" lon="1.78617">
        <ele>312.57</ele>
        <time>2026-05-20T08:10:31Z</time>
      </trkpt>
      <trkpt lat="44.26975" lon="1.78616">
        <ele>312.57</ele>
        <time>2026-05-20T08:10:32Z</time>
      </trkpt>
      <trkpt lat="44.26963" lon="1.78604">
        <ele>311.6</ele>
        <time>2026-05-20T08:10:45Z</time>
      </trkpt>
      <trkpt lat="44.26951" lon="1.78592">
        <ele>311.6</ele>
        <time>2026-05-20T08:10:58Z</time>
      </trkpt>
      <trkpt lat="44.26932" lon="1.78577">
        <ele>311.12</ele>
        <time>2026-05-20T08:11:15Z</time>
      </trkpt>
      <trkpt lat="44.26913" lon="1.78566">
        <ele>311.12</ele>
        <time>2026-05-20T08:11:31Z</time>
      </trkpt>
      <trkpt lat="44.26897" lon="1.78542">
        <ele>310.64</ele>
        <time>2026-05-20T08:11:45Z</time>
      </trkpt>
      <trkpt lat="44.26879" lon="1.7853">
        <ele>310.64</ele>
        <time>2026-05-20T08:12:00Z</time>
      </trkpt>
      <trkpt lat="44.26878" lon="1.78529">
        <ele>310.64</ele>
        <time>2026-05-20T08:12:01Z</time>
      </trkpt>
      <trkpt lat="44.26877" lon="1.78527">
        <ele>310.64</ele>
        <time>2026-05-20T08:12:02Z</time>
      </trkpt>
      <trkpt lat="44.26862" lon="1.78513">
        <ele>310.64</ele>
        <time>2026-05-20T08:12:14Z</time>
      </trkpt>
      <trkpt lat="44.26843" lon="1.78495">
        <ele>310.64</ele>
        <time>2026-05-20T08:12:29Z</time>
      </trkpt>
      <trkpt lat="44.26828" lon="1.78482">
        <ele>310.64</ele>
        <time>2026-05-20T08:12:44Z</time>
      </trkpt>
      <trkpt lat="44.26826" lon="1.78479">
        <ele>310.64</ele>
        <time>2026-05-20T08:12:47Z</time>
      </trkpt>
      <trkpt lat="44.26825" lon="1.78478">
        <ele>310.64</ele>
        <time>2026-05-20T08:12:48Z</time>
      </trkpt>
      <trkpt lat="44.26812" lon="1.78466">
        <ele>310.64</ele>
        <time>2026-05-20T08:13:01Z</time>
      </trkpt>
      <trkpt lat="44.26808" lon="1.78462">
        <ele>312.09</ele>
        <time>2026-05-20T08:13:06Z</time>
      </trkpt>
      <trkpt lat="44.26798" lon="1.78446">
        <ele>312.09</ele>
        <time>2026-05-20T08:13:21Z</time>
      </trkpt>
      <trkpt lat="44.26794" lon="1.78442">
        <ele>312.09</ele>
        <time>2026-05-20T08:13:25Z</time>
      </trkpt>
      <trkpt lat="44.26786" lon="1.78428">
        <ele>311.6</ele>
        <time>2026-05-20T08:13:39Z</time>
      </trkpt>
      <trkpt lat="44.2678" lon="1.78421">
        <ele>312.09</ele>
        <time>2026-05-20T08:13:47Z</time>
      </trkpt>
      <trkpt lat="44.26778" lon="1.78419">
        <ele>312.09</ele>
        <time>2026-05-20T08:13:48Z</time>
      </trkpt>
      <trkpt lat="44.2677" lon="1.7841">
        <ele>312.57</ele>
        <time>2026-05-20T08:13:58Z</time>
      </trkpt>
      <trkpt lat="44.26742" lon="1.78386">
        <ele>313.05</ele>
        <time>2026-05-20T08:14:13Z</time>
      </trkpt>
      <trkpt lat="44.26738" lon="1.78386">
        <ele>313.05</ele>
        <time>2026-05-20T08:14:15Z</time>
      </trkpt>
      <trkpt lat="44.26727" lon="1.78398">
        <ele>313.05</ele>
        <time>2026-05-20T08:14:27Z</time>
      </trkpt>
      <trkpt lat="44.26722" lon="1.78417">
        <ele>311.6</ele>
        <time>2026-05-20T08:14:39Z</time>
      </trkpt>
      <trkpt lat="44.26715" lon="1.78445">
        <ele>311.6</ele>
        <time>2026-05-20T08:14:56Z</time>
      </trkpt>
      <trkpt lat="44.26715" lon="1.7845">
        <ele>310.64</ele>
        <time>2026-05-20T08:14:59Z</time>
      </trkpt>
      <trkpt lat="44.26712" lon="1.78459">
        <ele>310.64</ele>
        <time>2026-05-20T08:15:05Z</time>
      </trkpt>
      <trkpt lat="44.26711" lon="1.78462">
        <ele>310.64</ele>
        <time>2026-05-20T08:15:06Z</time>
      </trkpt>
      <trkpt lat="44.2671" lon="1.78464">
        <ele>310.64</ele>
        <time>2026-05-20T08:15:07Z</time>
      </trkpt>
      <trkpt lat="44.267" lon="1.78475">
        <ele>310.64</ele>
        <time>2026-05-20T08:15:16Z</time>
      </trkpt>
      <trkpt lat="44.26686" lon="1.78476">
        <ele>310.64</ele>
        <time>2026-05-20T08:15:29Z</time>
      </trkpt>
      <trkpt lat="44.26684" lon="1.78475">
        <ele>310.64</ele>
        <time>2026-05-20T08:15:30Z</time>
      </trkpt>
      <trkpt lat="44.26683" lon="1.78475">
        <ele>310.64</ele>
        <time>2026-05-20T08:15:31Z</time>
      </trkpt>
      <trkpt lat="44.26677" lon="1.78471">
        <ele>310.16</ele>
        <time>2026-05-20T08:15:38Z</time>
      </trkpt>
      <trkpt lat="44.26677" lon="1.78469">
        <ele>310.16</ele>
        <time>2026-05-20T08:15:39Z</time>
      </trkpt>
      <trkpt lat="44.26676" lon="1.78468">
        <ele>310.16</ele>
        <time>2026-05-20T08:15:40Z</time>
      </trkpt>
      <trkpt lat="44.26675" lon="1.78466">
        <ele>310.16</ele>
        <time>2026-05-20T08:15:41Z</time>
      </trkpt>
      <trkpt lat="44.26675" lon="1.78465">
        <ele>310.16</ele>
        <time>2026-05-20T08:15:42Z</time>
      </trkpt>
      <trkpt lat="44.26674" lon="1.78463">
        <ele>310.16</ele>
        <time>2026-05-20T08:15:43Z</time>
      </trkpt>
      <trkpt lat="44.26669" lon="1.78446">
        <ele>310.64</ele>
        <time>2026-05-20T08:15:55Z</time>
      </trkpt>
      <trkpt lat="44.26664" lon="1.78442">
        <ele>311.6</ele>
        <time>2026-05-20T08:16:00Z</time>
      </trkpt>
      <trkpt lat="44.26663" lon="1.78443">
        <ele>311.6</ele>
        <time>2026-05-20T08:16:01Z</time>
      </trkpt>
      <trkpt lat="44.26656" lon="1.78442">
        <ele>311.6</ele>
        <time>2026-05-20T08:16:06Z</time>
      </trkpt>
      <trkpt lat="44.26654" lon="1.78442">
        <ele>311.6</ele>
        <time>2026-05-20T08:16:07Z</time>
      </trkpt>
      <trkpt lat="44.26634" lon="1.78439">
        <ele>311.6</ele>
        <time>2026-05-20T08:16:22Z</time>
      </trkpt>
      <trkpt lat="44.26618" lon="1.78435">
        <ele>311.6</ele>
        <time>2026-05-20T08:16:35Z</time>
      </trkpt>
      <trkpt lat="44.26604" lon="1.7843">
        <ele>312.57</ele>
        <time>2026-05-20T08:16:48Z</time>
      </trkpt>
      <trkpt lat="44.26583" lon="1.78423">
        <ele>314.49</ele>
        <time>2026-05-20T08:17:04Z</time>
      </trkpt>
      <trkpt lat="44.26575" lon="1.78419">
        <ele>314.49</ele>
        <time>2026-05-20T08:17:10Z</time>
      </trkpt>
      <trkpt lat="44.26573" lon="1.78418">
        <ele>314.97</ele>
        <time>2026-05-20T08:17:11Z</time>
      </trkpt>
      <trkpt lat="44.26556" lon="1.78411">
        <ele>315.45</ele>
        <time>2026-05-20T08:17:25Z</time>
      </trkpt>
      <trkpt lat="44.26539" lon="1.78409">
        <ele>315.93</ele>
        <time>2026-05-20T08:17:39Z</time>
      </trkpt>
      <trkpt lat="44.2652" lon="1.78414">
        <ele>314.49</ele>
        <time>2026-05-20T08:17:54Z</time>
      </trkpt>
      <trkpt lat="44.26511" lon="1.78413">
        <ele>314.49</ele>
        <time>2026-05-20T08:18:02Z</time>
      </trkpt>
      <trkpt lat="44.26509" lon="1.78413">
        <ele>314.49</ele>
        <time>2026-05-20T08:18:03Z</time>
      </trkpt>
      <trkpt lat="44.26507" lon="1.78412">
        <ele>314.49</ele>
        <time>2026-05-20T08:18:04Z</time>
      </trkpt>
      <trkpt lat="44.26485" lon="1.78406">
        <ele>314.01</ele>
        <time>2026-05-20T08:18:21Z</time>
      </trkpt>
      <trkpt lat="44.26462" lon="1.78391">
        <ele>313.53</ele>
        <time>2026-05-20T08:18:40Z</time>
      </trkpt>
      <trkpt lat="44.26449" lon="1.78383">
        <ele>314.97</ele>
        <time>2026-05-20T08:18:52Z</time>
      </trkpt>
      <trkpt lat="44.26437" lon="1.78358">
        <ele>315.45</ele>
        <time>2026-05-20T08:19:08Z</time>
      </trkpt>
      <trkpt lat="44.26416" lon="1.78338">
        <ele>315.45</ele>
        <time>2026-05-20T08:19:23Z</time>
      </trkpt>
      <trkpt lat="44.26405" lon="1.7833">
        <ele>314.49</ele>
        <time>2026-05-20T08:19:32Z</time>
      </trkpt>
      <trkpt lat="44.26392" lon="1.78319">
        <ele>314.01</ele>
        <time>2026-05-20T08:19:45Z</time>
      </trkpt>
      <trkpt lat="44.26369" lon="1.78307">
        <ele>313.05</ele>
        <time>2026-05-20T08:20:02Z</time>
      </trkpt>
      <trkpt lat="44.26362" lon="1.78305">
        <ele>312.57</ele>
        <time>2026-05-20T08:20:08Z</time>
      </trkpt>
      <trkpt lat="44.26361" lon="1.78304">
        <ele>312.57</ele>
        <time>2026-05-20T08:20:09Z</time>
      </trkpt>
      <trkpt lat="44.26359" lon="1.78304">
        <ele>312.57</ele>
        <time>2026-05-20T08:20:10Z</time>
      </trkpt>
      <trkpt lat="44.26358" lon="1.78304">
        <ele>311.6</ele>
        <time>2026-05-20T08:20:11Z</time>
      </trkpt>
      <trkpt lat="44.26357" lon="1.78303">
        <ele>311.12</ele>
        <time>2026-05-20T08:20:12Z</time>
      </trkpt>
      <trkpt lat="44.26356" lon="1.78303">
        <ele>311.12</ele>
        <time>2026-05-20T08:20:13Z</time>
      </trkpt>
      <trkpt lat="44.26353" lon="1.783">
        <ele>311.12</ele>
        <time>2026-05-20T08:20:21Z</time>
      </trkpt>
      <trkpt lat="44.26353" lon="1.78299">
        <ele>311.12</ele>
        <time>2026-05-20T08:20:22Z</time>
      </trkpt>
      <trkpt lat="44.26345" lon="1.78293">
        <ele>309.68</ele>
        <time>2026-05-20T08:20:38Z</time>
      </trkpt>
      <trkpt lat="44.26345" lon="1.78293">
        <ele>309.68</ele>
        <time>2026-05-20T08:21:10Z</time>
      </trkpt>
      <trkpt lat="44.26324" lon="1.78278">
        <ele>307.28</ele>
        <time>2026-05-20T08:21:27Z</time>
      </trkpt>
      <trkpt lat="44.26307" lon="1.78268">
        <ele>304.39</ele>
        <time>2026-05-20T08:21:44Z</time>
      </trkpt>
      <trkpt lat="44.26298" lon="1.78263">
        <ele>304.39</ele>
        <time>2026-05-20T08:21:51Z</time>
      </trkpt>
      <trkpt lat="44.26297" lon="1.78263">
        <ele>303.43</ele>
        <time>2026-05-20T08:21:52Z</time>
      </trkpt>
      <trkpt lat="44.26295" lon="1.78262">
        <ele>303.43</ele>
        <time>2026-05-20T08:21:53Z</time>
      </trkpt>
      <trkpt lat="44.26277" lon="1.78258">
        <ele>301.03</ele>
        <time>2026-05-20T08:22:09Z</time>
      </trkpt>
      <trkpt lat="44.26251" lon="1.78244">
        <ele>299.11</ele>
        <time>2026-05-20T08:22:27Z</time>
      </trkpt>
      <trkpt lat="44.26249" lon="1.78243">
        <ele>299.11</ele>
        <time>2026-05-20T08:22:29Z</time>
      </trkpt>
      <trkpt lat="44.26241" lon="1.7824">
        <ele>297.67</ele>
        <time>2026-05-20T08:22:36Z</time>
      </trkpt>
      <trkpt lat="44.26227" lon="1.7824">
        <ele>295.26</ele>
        <time>2026-05-20T08:22:50Z</time>
      </trkpt>
      <trkpt lat="44.26211" lon="1.78238">
        <ele>292.86</ele>
        <time>2026-05-20T08:23:01Z</time>
      </trkpt>
      <trkpt lat="44.26208" lon="1.78237">
        <ele>292.38</ele>
        <time>2026-05-20T08:23:03Z</time>
      </trkpt>
      <trkpt lat="44.26195" lon="1.78225">
        <ele>290.94</ele>
        <time>2026-05-20T08:23:16Z</time>
      </trkpt>
      <trkpt lat="44.26192" lon="1.78218">
        <ele>289.49</ele>
        <time>2026-05-20T08:23:22Z</time>
      </trkpt>
      <trkpt lat="44.26191" lon="1.78217">
        <ele>289.49</ele>
        <time>2026-05-20T08:23:23Z</time>
      </trkpt>
      <trkpt lat="44.26191" lon="1.78215">
        <ele>289.49</ele>
        <time>2026-05-20T08:23:24Z</time>
      </trkpt>
      <trkpt lat="44.26186" lon="1.78195">
        <ele>288.05</ele>
        <time>2026-05-20T08:23:37Z</time>
      </trkpt>
      <trkpt lat="44.26181" lon="1.78169">
        <ele>285.65</ele>
        <time>2026-05-20T08:23:51Z</time>
      </trkpt>
      <trkpt lat="44.26181" lon="1.78147">
        <ele>284.69</ele>
        <time>2026-05-20T08:24:04Z</time>
      </trkpt>
      <trkpt lat="44.26181" lon="1.7813">
        <ele>283.25</ele>
        <time>2026-05-20T08:24:14Z</time>
      </trkpt>
      <trkpt lat="44.2618" lon="1.7812">
        <ele>282.28</ele>
        <time>2026-05-20T08:24:21Z</time>
      </trkpt>
      <trkpt lat="44.2618" lon="1.78117">
        <ele>280.84</ele>
        <time>2026-05-20T08:24:23Z</time>
      </trkpt>
      <trkpt lat="44.26179" lon="1.78115">
        <ele>280.84</ele>
        <time>2026-05-20T08:24:24Z</time>
      </trkpt>
      <trkpt lat="44.26183" lon="1.78097">
        <ele>278.92</ele>
        <time>2026-05-20T08:24:38Z</time>
      </trkpt>
      <trkpt lat="44.26186" lon="1.78084">
        <ele>276.52</ele>
        <time>2026-05-20T08:24:46Z</time>
      </trkpt>
      <trkpt lat="44.26186" lon="1.78081">
        <ele>276.04</ele>
        <time>2026-05-20T08:24:48Z</time>
      </trkpt>
      <trkpt lat="44.2619" lon="1.78069">
        <ele>274.11</ele>
        <time>2026-05-20T08:24:56Z</time>
      </trkpt>
      <trkpt lat="44.26192" lon="1.78064">
        <ele>273.63</ele>
        <time>2026-05-20T08:25:00Z</time>
      </trkpt>
      <trkpt lat="44.26194" lon="1.78052">
        <ele>271.71</ele>
        <time>2026-05-20T08:25:14Z</time>
      </trkpt>
      <trkpt lat="44.26198" lon="1.78027">
        <ele>268.35</ele>
        <time>2026-05-20T08:25:30Z</time>
      </trkpt>
      <trkpt lat="44.262" lon="1.78017">
        <ele>266.9</ele>
        <time>2026-05-20T08:25:38Z</time>
      </trkpt>
      <trkpt lat="44.26201" lon="1.78013">
        <ele>266.42</ele>
        <time>2026-05-20T08:25:41Z</time>
      </trkpt>
      <trkpt lat="44.26202" lon="1.78007">
        <ele>264.98</ele>
        <time>2026-05-20T08:25:45Z</time>
      </trkpt>
      <trkpt lat="44.26204" lon="1.77992">
        <ele>263.54</ele>
        <time>2026-05-20T08:25:56Z</time>
      </trkpt>
      <trkpt lat="44.26208" lon="1.77974">
        <ele>259.69</ele>
        <time>2026-05-20T08:26:09Z</time>
      </trkpt>
      <trkpt lat="44.2621" lon="1.7797">
        <ele>259.69</ele>
        <time>2026-05-20T08:26:12Z</time>
      </trkpt>
      <trkpt lat="44.26215" lon="1.77962">
        <ele>258.73</ele>
        <time>2026-05-20T08:26:19Z</time>
      </trkpt>
      <trkpt lat="44.26216" lon="1.77961">
        <ele>258.73</ele>
        <time>2026-05-20T08:26:20Z</time>
      </trkpt>
      <trkpt lat="44.26229" lon="1.77943">
        <ele>256.33</ele>
        <time>2026-05-20T08:26:37Z</time>
      </trkpt>
      <trkpt lat="44.26233" lon="1.77919">
        <ele>253.44</ele>
        <time>2026-05-20T08:26:56Z</time>
      </trkpt>
      <trkpt lat="44.2623" lon="1.77921">
        <ele>254.41</ele>
        <time>2026-05-20T08:27:18Z</time>
      </trkpt>
      <trkpt lat="44.26233" lon="1.77913">
        <ele>252.96</ele>
        <time>2026-05-20T08:27:37Z</time>
      </trkpt>
      <trkpt lat="44.26218" lon="1.77917">
        <ele>251.04</ele>
        <time>2026-05-20T08:27:53Z</time>
      </trkpt>
      <trkpt lat="44.26202" lon="1.77926">
        <ele>248.16</ele>
        <time>2026-05-20T08:28:12Z</time>
      </trkpt>
      <trkpt lat="44.26187" lon="1.77932">
        <ele>246.23</ele>
        <time>2026-05-20T08:28:28Z</time>
      </trkpt>
      <trkpt lat="44.26169" lon="1.77937">
        <ele>243.83</ele>
        <time>2026-05-20T08:28:44Z</time>
      </trkpt>
      <trkpt lat="44.26147" lon="1.77944">
        <ele>242.39</ele>
        <time>2026-05-20T08:28:59Z</time>
      </trkpt>
      <trkpt lat="44.2613" lon="1.77958">
        <ele>239.99</ele>
        <time>2026-05-20T08:29:15Z</time>
      </trkpt>
      <trkpt lat="44.26128" lon="1.77959">
        <ele>239.99</ele>
        <time>2026-05-20T08:29:17Z</time>
      </trkpt>
      <trkpt lat="44.26113" lon="1.77972">
        <ele>237.58</ele>
        <time>2026-05-20T08:29:35Z</time>
      </trkpt>
      <trkpt lat="44.26108" lon="1.77977">
        <ele>236.62</ele>
        <time>2026-05-20T08:29:40Z</time>
      </trkpt>
      <trkpt lat="44.26089" lon="1.77985">
        <ele>234.22</ele>
        <time>2026-05-20T08:29:56Z</time>
      </trkpt>
      <trkpt lat="44.2607" lon="1.77994">
        <ele>232.3</ele>
        <time>2026-05-20T08:30:13Z</time>
      </trkpt>
      <trkpt lat="44.26048" lon="1.77994">
        <ele>231.33</ele>
        <time>2026-05-20T08:30:29Z</time>
      </trkpt>
      <trkpt lat="44.26045" lon="1.77995">
        <ele>231.33</ele>
        <time>2026-05-20T08:30:32Z</time>
      </trkpt>
      <trkpt lat="44.26026" lon="1.77994">
        <ele>231.33</ele>
        <time>2026-05-20T08:30:50Z</time>
      </trkpt>
      <trkpt lat="44.26011" lon="1.77989">
        <ele>232.78</ele>
        <time>2026-05-20T08:31:04Z</time>
      </trkpt>
      <trkpt lat="44.2599" lon="1.77985">
        <ele>233.26</ele>
        <time>2026-05-20T08:31:20Z</time>
      </trkpt>
      <trkpt lat="44.25986" lon="1.77984">
        <ele>233.26</ele>
        <time>2026-05-20T08:31:23Z</time>
      </trkpt>
      <trkpt lat="44.25981" lon="1.77983">
        <ele>232.3</ele>
        <time>2026-05-20T08:31:26Z</time>
      </trkpt>
      <trkpt lat="44.25963" lon="1.77969">
        <ele>231.81</ele>
        <time>2026-05-20T08:31:41Z</time>
      </trkpt>
      <trkpt lat="44.25945" lon="1.77949">
        <ele>230.85</ele>
        <time>2026-05-20T08:32:02Z</time>
      </trkpt>
      <trkpt lat="44.25929" lon="1.7793">
        <ele>230.37</ele>
        <time>2026-05-20T08:32:19Z</time>
      </trkpt>
      <trkpt lat="44.25909" lon="1.77919">
        <ele>228.45</ele>
        <time>2026-05-20T08:32:34Z</time>
      </trkpt>
      <trkpt lat="44.25892" lon="1.77907">
        <ele>227.49</ele>
        <time>2026-05-20T08:32:48Z</time>
      </trkpt>
      <trkpt lat="44.2589" lon="1.77905">
        <ele>227.49</ele>
        <time>2026-05-20T08:32:50Z</time>
      </trkpt>
      <trkpt lat="44.25881" lon="1.77884">
        <ele>227.49</ele>
        <time>2026-05-20T08:33:08Z</time>
      </trkpt>
      <trkpt lat="44.25877" lon="1.77872">
        <ele>228.93</ele>
        <time>2026-05-20T08:33:19Z</time>
      </trkpt>
      <trkpt lat="44.25875" lon="1.77854">
        <ele>231.33</ele>
        <time>2026-05-20T08:33:35Z</time>
      </trkpt>
      <trkpt lat="44.25871" lon="1.77834">
        <ele>232.78</ele>
        <time>2026-05-20T08:33:50Z</time>
      </trkpt>
      <trkpt lat="44.25864" lon="1.77813">
        <ele>235.66</ele>
        <time>2026-05-20T08:34:08Z</time>
      </trkpt>
      <trkpt lat="44.25853" lon="1.77791">
        <ele>237.1</ele>
        <time>2026-05-20T08:34:25Z</time>
      </trkpt>
      <trkpt lat="44.25841" lon="1.77774">
        <ele>238.06</ele>
        <time>2026-05-20T08:34:40Z</time>
      </trkpt>
      <trkpt lat="44.25828" lon="1.77756">
        <ele>238.54</ele>
        <time>2026-05-20T08:34:55Z</time>
      </trkpt>
      <trkpt lat="44.25826" lon="1.77752">
        <ele>239.02</ele>
        <time>2026-05-20T08:34:58Z</time>
      </trkpt>
      <trkpt lat="44.25809" lon="1.7773">
        <ele>239.99</ele>
        <time>2026-05-20T08:35:17Z</time>
      </trkpt>
      <trkpt lat="44.25798" lon="1.77714">
        <ele>241.43</ele>
        <time>2026-05-20T08:35:33Z</time>
      </trkpt>
      <trkpt lat="44.25785" lon="1.77696">
        <ele>242.39</ele>
        <time>2026-05-20T08:35:50Z</time>
      </trkpt>
      <trkpt lat="44.25783" lon="1.77693">
        <ele>242.39</ele>
        <time>2026-05-20T08:35:52Z</time>
      </trkpt>
      <trkpt lat="44.25772" lon="1.77671">
        <ele>242.87</ele>
        <time>2026-05-20T08:36:12Z</time>
      </trkpt>
      <trkpt lat="44.25764" lon="1.77653">
        <ele>244.31</ele>
        <time>2026-05-20T08:36:29Z</time>
      </trkpt>
      <trkpt lat="44.25746" lon="1.7763">
        <ele>245.75</ele>
        <time>2026-05-20T08:36:46Z</time>
      </trkpt>
      <trkpt lat="44.25739" lon="1.77617">
        <ele>247.68</ele>
        <time>2026-05-20T08:37:00Z</time>
      </trkpt>
      <trkpt lat="44.25731" lon="1.77604">
        <ele>250.56</ele>
        <time>2026-05-20T08:37:16Z</time>
      </trkpt>
      <trkpt lat="44.25723" lon="1.77591">
        <ele>253.44</ele>
        <time>2026-05-20T08:37:32Z</time>
      </trkpt>
      <trkpt lat="44.25716" lon="1.77572">
        <ele>255.85</ele>
        <time>2026-05-20T08:37:49Z</time>
      </trkpt>
      <trkpt lat="44.25707" lon="1.77559">
        <ele>258.25</ele>
        <time>2026-05-20T08:38:03Z</time>
      </trkpt>
      <trkpt lat="44.25689" lon="1.77554">
        <ele>260.17</ele>
        <time>2026-05-20T08:38:20Z</time>
      </trkpt>
      <trkpt lat="44.25675" lon="1.77556">
        <ele>260.65</ele>
        <time>2026-05-20T08:38:28Z</time>
      </trkpt>
      <trkpt lat="44.2566" lon="1.77568">
        <ele>261.14</ele>
        <time>2026-05-20T08:38:45Z</time>
      </trkpt>
      <trkpt lat="44.25653" lon="1.7757">
        <ele>261.62</ele>
        <time>2026-05-20T08:38:50Z</time>
      </trkpt>
      <trkpt lat="44.25639" lon="1.77578">
        <ele>263.54</ele>
        <time>2026-05-20T08:39:06Z</time>
      </trkpt>
      <trkpt lat="44.2562" lon="1.77585">
        <ele>264.5</ele>
        <time>2026-05-20T08:39:22Z</time>
      </trkpt>
      <trkpt lat="44.25603" lon="1.77591">
        <ele>264.98</ele>
        <time>2026-05-20T08:39:37Z</time>
      </trkpt>
      <trkpt lat="44.25598" lon="1.7759">
        <ele>265.46</ele>
        <time>2026-05-20T08:39:57Z</time>
      </trkpt>
      <trkpt lat="44.25586" lon="1.77592">
        <ele>265.46</ele>
        <time>2026-05-20T08:40:11Z</time>
      </trkpt>
      <trkpt lat="44.25567" lon="1.77593">
        <ele>265.94</ele>
        <time>2026-05-20T08:40:27Z</time>
      </trkpt>
      <trkpt lat="44.25561" lon="1.77593">
        <ele>265.94</ele>
        <time>2026-05-20T08:40:32Z</time>
      </trkpt>
      <trkpt lat="44.25538" lon="1.77587">
        <ele>266.42</ele>
        <time>2026-05-20T08:40:51Z</time>
      </trkpt>
      <trkpt lat="44.25536" lon="1.77585">
        <ele>264.98</ele>
        <time>2026-05-20T08:40:53Z</time>
      </trkpt>
      <trkpt lat="44.25524" lon="1.77576">
        <ele>264.02</ele>
        <time>2026-05-20T08:41:04Z</time>
      </trkpt>
      <trkpt lat="44.25504" lon="1.77555">
        <ele>263.06</ele>
        <time>2026-05-20T08:41:23Z</time>
      </trkpt>
      <trkpt lat="44.25483" lon="1.77545">
        <ele>263.06</ele>
        <time>2026-05-20T08:41:39Z</time>
      </trkpt>
      <trkpt lat="44.25479" lon="1.77544">
        <ele>264.5</ele>
        <time>2026-05-20T08:41:43Z</time>
      </trkpt>
      <trkpt lat="44.25457" lon="1.77539">
        <ele>265.94</ele>
        <time>2026-05-20T08:42:02Z</time>
      </trkpt>
      <trkpt lat="44.25436" lon="1.77539">
        <ele>266.42</ele>
        <time>2026-05-20T08:42:17Z</time>
      </trkpt>
      <trkpt lat="44.25427" lon="1.7754">
        <ele>266.42</ele>
        <time>2026-05-20T08:42:25Z</time>
      </trkpt>
      <trkpt lat="44.25409" lon="1.77543">
        <ele>266.42</ele>
        <time>2026-05-20T08:42:39Z</time>
      </trkpt>
      <trkpt lat="44.25388" lon="1.77541">
        <ele>266.9</ele>
        <time>2026-05-20T08:42:58Z</time>
      </trkpt>
      <trkpt lat="44.25365" lon="1.7754">
        <ele>267.38</ele>
        <time>2026-05-20T08:43:13Z</time>
      </trkpt>
      <trkpt lat="44.25343" lon="1.77539">
        <ele>267.38</ele>
        <time>2026-05-20T08:43:30Z</time>
      </trkpt>
      <trkpt lat="44.25338" lon="1.77537">
        <ele>265.94</ele>
        <time>2026-05-20T08:43:43Z</time>
      </trkpt>
      <trkpt lat="44.25338" lon="1.77536">
        <ele>265.94</ele>
        <time>2026-05-20T08:43:44Z</time>
      </trkpt>
      <trkpt lat="44.25333" lon="1.77538">
        <ele>264.98</ele>
        <time>2026-05-20T08:43:57Z</time>
      </trkpt>
      <trkpt lat="44.25335" lon="1.77539">
        <ele>264.98</ele>
        <time>2026-05-20T08:44:09Z</time>
      </trkpt>
      <trkpt lat="44.25342" lon="1.77543">
        <ele>266.42</ele>
        <time>2026-05-20T08:44:23Z</time>
      </trkpt>
      <trkpt lat="44.2534" lon="1.77544">
        <ele>266.42</ele>
        <time>2026-05-20T08:44:40Z</time>
      </trkpt>
      <trkpt lat="44.25344" lon="1.77547">
        <ele>265.94</ele>
        <time>2026-05-20T08:45:02Z</time>
      </trkpt>
      <trkpt lat="44.25345" lon="1.77555">
        <ele>265.94</ele>
        <time>2026-05-20T08:45:15Z</time>
      </trkpt>
      <trkpt lat="44.25344" lon="1.77557">
        <ele>265.94</ele>
        <time>2026-05-20T08:45:21Z</time>
      </trkpt>
      <trkpt lat="44.25347" lon="1.77559">
        <ele>265.94</ele>
        <time>2026-05-20T08:45:29Z</time>
      </trkpt>
      <trkpt lat="44.25349" lon="1.77563">
        <ele>265.94</ele>
        <time>2026-05-20T08:45:32Z</time>
      </trkpt>
      <trkpt lat="44.25358" lon="1.77585">
        <ele>265.94</ele>
        <time>2026-05-20T08:45:45Z</time>
      </trkpt>
      <trkpt lat="44.2536" lon="1.77589">
        <ele>265.94</ele>
        <time>2026-05-20T08:45:50Z</time>
      </trkpt>
      <trkpt lat="44.25369" lon="1.77611">
        <ele>265.94</ele>
        <time>2026-05-20T08:46:03Z</time>
      </trkpt>
      <trkpt lat="44.25379" lon="1.77627">
        <ele>265.94</ele>
        <time>2026-05-20T08:46:15Z</time>
      </trkpt>
      <trkpt lat="44.25381" lon="1.77632">
        <ele>265.94</ele>
        <time>2026-05-20T08:46:36Z</time>
      </trkpt>
      <trkpt lat="44.25381" lon="1.77633">
        <ele>265.94</ele>
        <time>2026-05-20T08:46:37Z</time>
      </trkpt>
      <trkpt lat="44.25386" lon="1.77646">
        <ele>265.94</ele>
        <time>2026-05-20T08:46:49Z</time>
      </trkpt>
      <trkpt lat="44.25386" lon="1.77644">
        <ele>265.94</ele>
        <time>2026-05-20T08:46:59Z</time>
      </trkpt>
      <trkpt lat="44.25385" lon="1.77641">
        <ele>265.94</ele>
        <time>2026-05-20T08:47:02Z</time>
      </trkpt>
      <trkpt lat="44.25382" lon="1.77631">
        <ele>265.46</ele>
        <time>2026-05-20T08:47:10Z</time>
      </trkpt>
      <trkpt lat="44.2538" lon="1.77628">
        <ele>265.46</ele>
        <time>2026-05-20T08:47:13Z</time>
      </trkpt>
      <trkpt lat="44.25377" lon="1.77629">
        <ele>265.46</ele>
        <time>2026-05-20T08:47:33Z</time>
      </trkpt>
      <trkpt lat="44.25374" lon="1.77624">
        <ele>265.46</ele>
        <time>2026-05-20T08:47:51Z</time>
      </trkpt>
      <trkpt lat="44.25371" lon="1.77614">
        <ele>265.46</ele>
        <time>2026-05-20T08:47:57Z</time>
      </trkpt>
      <trkpt lat="44.25363" lon="1.77591">
        <ele>265.46</ele>
        <time>2026-05-20T08:48:11Z</time>
      </trkpt>
      <trkpt lat="44.25356" lon="1.7757">
        <ele>265.46</ele>
        <time>2026-05-20T08:48:24Z</time>
      </trkpt>
      <trkpt lat="44.25354" lon="1.77567">
        <ele>265.46</ele>
        <time>2026-05-20T08:48:27Z</time>
      </trkpt>
      <trkpt lat="44.25349" lon="1.77557">
        <ele>265.46</ele>
        <time>2026-05-20T08:48:42Z</time>
      </trkpt>
      <trkpt lat="44.25347" lon="1.77559">
        <ele>265.46</ele>
        <time>2026-05-20T08:49:09Z</time>
      </trkpt>
      <trkpt lat="44.25346" lon="1.77555">
        <ele>264.98</ele>
        <time>2026-05-20T08:49:25Z</time>
      </trkpt>
      <trkpt lat="44.25346" lon="1.77553">
        <ele>264.98</ele>
        <time>2026-05-20T08:49:45Z</time>
      </trkpt>
      <trkpt lat="44.25344" lon="1.77549">
        <ele>264.98</ele>
        <time>2026-05-20T08:49:59Z</time>
      </trkpt>
      <trkpt lat="44.25344" lon="1.77547">
        <ele>264.98</ele>
        <time>2026-05-20T08:50:22Z</time>
      </trkpt>
      <trkpt lat="44.25341" lon="1.77542">
        <ele>264.98</ele>
        <time>2026-05-20T08:50:43Z</time>
      </trkpt>
      <trkpt lat="44.2534" lon="1.77541">
        <ele>264.98</ele>
        <time>2026-05-20T08:50:44Z</time>
      </trkpt>
      <trkpt lat="44.25331" lon="1.77535">
        <ele>263.54</ele>
        <time>2026-05-20T08:50:52Z</time>
      </trkpt>
      <trkpt lat="44.25322" lon="1.77531">
        <ele>262.1</ele>
        <time>2026-05-20T08:50:59Z</time>
      </trkpt>
      <trkpt lat="44.25315" lon="1.77527">
        <ele>261.62</ele>
        <time>2026-05-20T08:51:04Z</time>
      </trkpt>
      <trkpt lat="44.25298" lon="1.77519">
        <ele>259.69</ele>
        <time>2026-05-20T08:51:20Z</time>
      </trkpt>
      <trkpt lat="44.25278" lon="1.77509">
        <ele>256.33</ele>
        <time>2026-05-20T08:51:36Z</time>
      </trkpt>
      <trkpt lat="44.25258" lon="1.77504">
        <ele>254.89</ele>
        <time>2026-05-20T08:51:51Z</time>
      </trkpt>
      <trkpt lat="44.25256" lon="1.77504">
        <ele>254.89</ele>
        <time>2026-05-20T08:51:53Z</time>
      </trkpt>
      <trkpt lat="44.25252" lon="1.77507">
        <ele>253.93</ele>
        <time>2026-05-20T08:51:56Z</time>
      </trkpt>
      <trkpt lat="44.25236" lon="1.77517">
        <ele>252</ele>
        <time>2026-05-20T08:52:09Z</time>
      </trkpt>
      <trkpt lat="44.25223" lon="1.77525">
        <ele>250.56</ele>
        <time>2026-05-20T08:52:21Z</time>
      </trkpt>
      <trkpt lat="44.25207" lon="1.77533">
        <ele>249.12</ele>
        <time>2026-05-20T08:52:34Z</time>
      </trkpt>
      <trkpt lat="44.25189" lon="1.77535">
        <ele>248.16</ele>
        <time>2026-05-20T08:52:47Z</time>
      </trkpt>
      <trkpt lat="44.25173" lon="1.77533">
        <ele>247.68</ele>
        <time>2026-05-20T08:53:02Z</time>
      </trkpt>
      <trkpt lat="44.25168" lon="1.77529">
        <ele>247.68</ele>
        <time>2026-05-20T08:53:11Z</time>
      </trkpt>
      <trkpt lat="44.25152" lon="1.7752">
        <ele>247.2</ele>
        <time>2026-05-20T08:53:25Z</time>
      </trkpt>
      <trkpt lat="44.25141" lon="1.77514">
        <ele>247.2</ele>
        <time>2026-05-20T08:53:36Z</time>
      </trkpt>
      <trkpt lat="44.25136" lon="1.77519">
        <ele>247.2</ele>
        <time>2026-05-20T08:53:41Z</time>
      </trkpt>
      <trkpt lat="44.25139" lon="1.77527">
        <ele>247.2</ele>
        <time>2026-05-20T08:53:46Z</time>
      </trkpt>
      <trkpt lat="44.2514" lon="1.77541">
        <ele>246.72</ele>
        <time>2026-05-20T08:53:55Z</time>
      </trkpt>
      <trkpt lat="44.25141" lon="1.77551">
        <ele>246.72</ele>
        <time>2026-05-20T08:54:09Z</time>
      </trkpt>
      <trkpt lat="44.2514" lon="1.77552">
        <ele>246.72</ele>
        <time>2026-05-20T08:54:18Z</time>
      </trkpt>
      <trkpt lat="44.25138" lon="1.77566">
        <ele>246.72</ele>
        <time>2026-05-20T08:54:27Z</time>
      </trkpt>
      <trkpt lat="44.25135" lon="1.77578">
        <ele>243.83</ele>
        <time>2026-05-20T08:54:35Z</time>
      </trkpt>
      <trkpt lat="44.25132" lon="1.77583">
        <ele>242.87</ele>
        <time>2026-05-20T08:54:40Z</time>
      </trkpt>
      <trkpt lat="44.25127" lon="1.77586">
        <ele>242.87</ele>
        <time>2026-05-20T08:54:44Z</time>
      </trkpt>
      <trkpt lat="44.25123" lon="1.77587">
        <ele>242.39</ele>
        <time>2026-05-20T08:54:49Z</time>
      </trkpt>
      <trkpt lat="44.25112" lon="1.77585">
        <ele>242.39</ele>
        <time>2026-05-20T08:55:00Z</time>
      </trkpt>
      <trkpt lat="44.25111" lon="1.77582">
        <ele>241.43</ele>
        <time>2026-05-20T08:55:03Z</time>
      </trkpt>
      <trkpt lat="44.25102" lon="1.77568">
        <ele>238.54</ele>
        <time>2026-05-20T08:55:16Z</time>
      </trkpt>
      <trkpt lat="44.251" lon="1.77567">
        <ele>238.54</ele>
        <time>2026-05-20T08:55:17Z</time>
      </trkpt>
      <trkpt lat="44.25097" lon="1.77564">
        <ele>238.54</ele>
        <time>2026-05-20T08:55:21Z</time>
      </trkpt>
      <trkpt lat="44.25094" lon="1.7756">
        <ele>238.06</ele>
        <time>2026-05-20T08:55:25Z</time>
      </trkpt>
      <trkpt lat="44.25093" lon="1.77564">
        <ele>237.1</ele>
        <time>2026-05-20T08:55:37Z</time>
      </trkpt>
      <trkpt lat="44.25089" lon="1.7756">
        <ele>237.1</ele>
        <time>2026-05-20T08:56:01Z</time>
      </trkpt>
      <trkpt lat="44.2508" lon="1.77552">
        <ele>235.18</ele>
        <time>2026-05-20T08:56:21Z</time>
      </trkpt>
      <trkpt lat="44.25081" lon="1.77547">
        <ele>235.66</ele>
        <time>2026-05-20T08:56:31Z</time>
      </trkpt>
      <trkpt lat="44.25076" lon="1.77547">
        <ele>235.18</ele>
        <time>2026-05-20T08:56:37Z</time>
      </trkpt>
      <trkpt lat="44.25068" lon="1.77549">
        <ele>234.7</ele>
        <time>2026-05-20T08:56:56Z</time>
      </trkpt>
      <trkpt lat="44.25077" lon="1.77547">
        <ele>234.7</ele>
        <time>2026-05-20T08:57:14Z</time>
      </trkpt>
      <trkpt lat="44.2508" lon="1.77548">
        <ele>234.7</ele>
        <time>2026-05-20T08:57:23Z</time>
      </trkpt>
      <trkpt lat="44.25078" lon="1.77548">
        <ele>236.14</ele>
        <time>2026-05-20T08:57:25Z</time>
      </trkpt>
      <trkpt lat="44.25075" lon="1.77544">
        <ele>236.14</ele>
        <time>2026-05-20T08:57:37Z</time>
      </trkpt>
      <trkpt lat="44.25079" lon="1.77547">
        <ele>235.18</ele>
        <time>2026-05-20T08:57:56Z</time>
      </trkpt>
      <trkpt lat="44.25083" lon="1.7755">
        <ele>236.14</ele>
        <time>2026-05-20T08:58:05Z</time>
      </trkpt>
      <trkpt lat="44.25085" lon="1.77559">
        <ele>238.06</ele>
        <time>2026-05-20T08:58:17Z</time>
      </trkpt>
      <trkpt lat="44.25086" lon="1.77562">
        <ele>238.54</ele>
        <time>2026-05-20T08:58:32Z</time>
      </trkpt>
      <trkpt lat="44.25092" lon="1.77571">
        <ele>238.54</ele>
        <time>2026-05-20T08:58:40Z</time>
      </trkpt>
      <trkpt lat="44.25096" lon="1.77577">
        <ele>239.02</ele>
        <time>2026-05-20T08:58:46Z</time>
      </trkpt>
      <trkpt lat="44.25101" lon="1.77583">
        <ele>239.99</ele>
        <time>2026-05-20T08:58:55Z</time>
      </trkpt>
      <trkpt lat="44.25103" lon="1.77585">
        <ele>240.47</ele>
        <time>2026-05-20T08:58:58Z</time>
      </trkpt>
      <trkpt lat="44.25109" lon="1.77592">
        <ele>242.39</ele>
        <time>2026-05-20T08:59:10Z</time>
      </trkpt>
      <trkpt lat="44.2511" lon="1.77593">
        <ele>242.39</ele>
        <time>2026-05-20T08:59:12Z</time>
      </trkpt>
      <trkpt lat="44.25113" lon="1.77595">
        <ele>242.87</ele>
        <time>2026-05-20T08:59:15Z</time>
      </trkpt>
      <trkpt lat="44.25116" lon="1.77595">
        <ele>242.87</ele>
        <time>2026-05-20T08:59:17Z</time>
      </trkpt>
      <trkpt lat="44.25127" lon="1.7759">
        <ele>242.39</ele>
        <time>2026-05-20T08:59:28Z</time>
      </trkpt>
      <trkpt lat="44.25128" lon="1.77588">
        <ele>242.39</ele>
        <time>2026-05-20T08:59:30Z</time>
      </trkpt>
      <trkpt lat="44.25131" lon="1.77582">
        <ele>243.35</ele>
        <time>2026-05-20T08:59:35Z</time>
      </trkpt>
      <trkpt lat="44.25136" lon="1.77565">
        <ele>245.27</ele>
        <time>2026-05-20T08:59:47Z</time>
      </trkpt>
      <trkpt lat="44.2514" lon="1.77554">
        <ele>245.75</ele>
        <time>2026-05-20T08:59:58Z</time>
      </trkpt>
      <trkpt lat="44.25138" lon="1.77554">
        <ele>245.75</ele>
        <time>2026-05-20T09:00:21Z</time>
      </trkpt>
      <trkpt lat="44.25138" lon="1.77554">
        <ele>245.75</ele>
        <time>2026-05-20T09:00:46Z</time>
      </trkpt>
      <trkpt lat="44.25141" lon="1.77551">
        <ele>245.75</ele>
        <time>2026-05-20T09:01:02Z</time>
      </trkpt>
      <trkpt lat="44.25143" lon="1.77549">
        <ele>245.75</ele>
        <time>2026-05-20T09:01:27Z</time>
      </trkpt>
      <trkpt lat="44.25143" lon="1.77547">
        <ele>245.75</ele>
        <time>2026-05-20T09:01:29Z</time>
      </trkpt>
      <trkpt lat="44.25143" lon="1.77542">
        <ele>245.75</ele>
        <time>2026-05-20T09:01:33Z</time>
      </trkpt>
      <trkpt lat="44.25143" lon="1.7754">
        <ele>245.75</ele>
        <time>2026-05-20T09:01:35Z</time>
      </trkpt>
      <trkpt lat="44.25143" lon="1.77528">
        <ele>245.75</ele>
        <time>2026-05-20T09:01:42Z</time>
      </trkpt>
      <trkpt lat="44.25131" lon="1.77514">
        <ele>246.23</ele>
        <time>2026-05-20T09:01:55Z</time>
      </trkpt>
      <trkpt lat="44.25113" lon="1.7751">
        <ele>246.72</ele>
        <time>2026-05-20T09:02:07Z</time>
      </trkpt>
      <trkpt lat="44.25107" lon="1.77509">
        <ele>246.72</ele>
        <time>2026-05-20T09:02:15Z</time>
      </trkpt>
      <trkpt lat="44.25105" lon="1.77487">
        <ele>246.23</ele>
        <time>2026-05-20T09:02:29Z</time>
      </trkpt>
      <trkpt lat="44.25107" lon="1.77478">
        <ele>246.23</ele>
        <time>2026-05-20T09:02:34Z</time>
      </trkpt>
      <trkpt lat="44.25108" lon="1.77456">
        <ele>246.72</ele>
        <time>2026-05-20T09:02:47Z</time>
      </trkpt>
      <trkpt lat="44.2511" lon="1.77448">
        <ele>247.2</ele>
        <time>2026-05-20T09:02:53Z</time>
      </trkpt>
      <trkpt lat="44.25111" lon="1.77438">
        <ele>247.2</ele>
        <time>2026-05-20T09:02:58Z</time>
      </trkpt>
      <trkpt lat="44.25111" lon="1.77413">
        <ele>247.2</ele>
        <time>2026-05-20T09:03:12Z</time>
      </trkpt>
      <trkpt lat="44.25113" lon="1.77391">
        <ele>247.68</ele>
        <time>2026-05-20T09:03:25Z</time>
      </trkpt>
      <trkpt lat="44.2511" lon="1.77377">
        <ele>247.68</ele>
        <time>2026-05-20T09:03:33Z</time>
      </trkpt>
      <trkpt lat="44.25113" lon="1.77356">
        <ele>248.16</ele>
        <time>2026-05-20T09:03:45Z</time>
      </trkpt>
      <trkpt lat="44.25114" lon="1.77353">
        <ele>248.16</ele>
        <time>2026-05-20T09:03:47Z</time>
      </trkpt>
      <trkpt lat="44.25118" lon="1.77344">
        <ele>248.16</ele>
        <time>2026-05-20T09:03:53Z</time>
      </trkpt>
      <trkpt lat="44.25124" lon="1.77316">
        <ele>249.12</ele>
        <time>2026-05-20T09:04:09Z</time>
      </trkpt>
      <trkpt lat="44.25124" lon="1.77303">
        <ele>250.56</ele>
        <time>2026-05-20T09:04:18Z</time>
      </trkpt>
      <trkpt lat="44.25123" lon="1.7729">
        <ele>251.52</ele>
        <time>2026-05-20T09:04:27Z</time>
      </trkpt>
      <trkpt lat="44.25122" lon="1.77266">
        <ele>251.52</ele>
        <time>2026-05-20T09:04:43Z</time>
      </trkpt>
      <trkpt lat="44.25121" lon="1.7726">
        <ele>251.04</ele>
        <time>2026-05-20T09:04:47Z</time>
      </trkpt>
      <trkpt lat="44.25114" lon="1.77235">
        <ele>251.04</ele>
        <time>2026-05-20T09:05:02Z</time>
      </trkpt>
      <trkpt lat="44.25105" lon="1.77219">
        <ele>251.04</ele>
        <time>2026-05-20T09:05:17Z</time>
      </trkpt>
      <trkpt lat="44.25101" lon="1.77204">
        <ele>252.48</ele>
        <time>2026-05-20T09:05:28Z</time>
      </trkpt>
      <trkpt lat="44.25097" lon="1.77198">
        <ele>252.96</ele>
        <time>2026-05-20T09:05:37Z</time>
      </trkpt>
      <trkpt lat="44.25091" lon="1.77199">
        <ele>252.96</ele>
        <time>2026-05-20T09:05:41Z</time>
      </trkpt>
      <trkpt lat="44.2508" lon="1.77204">
        <ele>252</ele>
        <time>2026-05-20T09:05:50Z</time>
      </trkpt>
      <trkpt lat="44.25078" lon="1.77205">
        <ele>252</ele>
        <time>2026-05-20T09:05:52Z</time>
      </trkpt>
      <trkpt lat="44.25068" lon="1.77206">
        <ele>252.48</ele>
        <time>2026-05-20T09:05:59Z</time>
      </trkpt>
      <trkpt lat="44.25066" lon="1.77206">
        <ele>252.48</ele>
        <time>2026-05-20T09:06:00Z</time>
      </trkpt>
      <trkpt lat="44.25064" lon="1.77206">
        <ele>252.48</ele>
        <time>2026-05-20T09:06:01Z</time>
      </trkpt>
      <trkpt lat="44.25064" lon="1.77208">
        <ele>251.04</ele>
        <time>2026-05-20T09:06:06Z</time>
      </trkpt>
      <trkpt lat="44.25066" lon="1.77205">
        <ele>251.04</ele>
        <time>2026-05-20T09:06:27Z</time>
      </trkpt>
      <trkpt lat="44.25058" lon="1.77207">
        <ele>251.04</ele>
        <time>2026-05-20T09:06:33Z</time>
      </trkpt>
      <trkpt lat="44.25056" lon="1.77208">
        <ele>251.04</ele>
        <time>2026-05-20T09:06:34Z</time>
      </trkpt>
      <trkpt lat="44.25053" lon="1.77212">
        <ele>251.04</ele>
        <time>2026-05-20T09:06:37Z</time>
      </trkpt>
      <trkpt lat="44.25051" lon="1.77213">
        <ele>251.04</ele>
        <time>2026-05-20T09:06:38Z</time>
      </trkpt>
      <trkpt lat="44.25034" lon="1.77217">
        <ele>250.56</ele>
        <time>2026-05-20T09:06:50Z</time>
      </trkpt>
      <trkpt lat="44.25022" lon="1.77218">
        <ele>250.56</ele>
        <time>2026-05-20T09:06:58Z</time>
      </trkpt>
      <trkpt lat="44.2502" lon="1.77219">
        <ele>250.56</ele>
        <time>2026-05-20T09:06:59Z</time>
      </trkpt>
      <trkpt lat="44.25019" lon="1.77219">
        <ele>250.56</ele>
        <time>2026-05-20T09:07:00Z</time>
      </trkpt>
      <trkpt lat="44.25006" lon="1.77228">
        <ele>250.56</ele>
        <time>2026-05-20T09:07:13Z</time>
      </trkpt>
      <trkpt lat="44.24989" lon="1.77235">
        <ele>250.56</ele>
        <time>2026-05-20T09:07:27Z</time>
      </trkpt>
      <trkpt lat="44.2497" lon="1.77241">
        <ele>250.56</ele>
        <time>2026-05-20T09:07:41Z</time>
      </trkpt>
      <trkpt lat="44.24959" lon="1.77243">
        <ele>250.56</ele>
        <time>2026-05-20T09:07:52Z</time>
      </trkpt>
      <trkpt lat="44.24959" lon="1.77242">
        <ele>250.56</ele>
        <time>2026-05-20T09:07:53Z</time>
      </trkpt>
      <trkpt lat="44.24958" lon="1.7724">
        <ele>250.56</ele>
        <time>2026-05-20T09:07:54Z</time>
      </trkpt>
      <trkpt lat="44.2496" lon="1.77232">
        <ele>250.56</ele>
        <time>2026-05-20T09:08:00Z</time>
      </trkpt>
      <trkpt lat="44.24968" lon="1.77213">
        <ele>250.56</ele>
        <time>2026-05-20T09:08:12Z</time>
      </trkpt>
      <trkpt lat="44.24972" lon="1.77189">
        <ele>250.56</ele>
        <time>2026-05-20T09:08:26Z</time>
      </trkpt>
      <trkpt lat="44.24977" lon="1.77164">
        <ele>250.56</ele>
        <time>2026-05-20T09:08:40Z</time>
      </trkpt>
      <trkpt lat="44.24977" lon="1.7715">
        <ele>250.56</ele>
        <time>2026-05-20T09:08:49Z</time>
      </trkpt>
      <trkpt lat="44.24977" lon="1.77148">
        <ele>250.56</ele>
        <time>2026-05-20T09:08:50Z</time>
      </trkpt>
      <trkpt lat="44.24971" lon="1.77119">
        <ele>250.56</ele>
        <time>2026-05-20T09:09:07Z</time>
      </trkpt>
      <trkpt lat="44.24965" lon="1.771">
        <ele>250.56</ele>
        <time>2026-05-20T09:09:22Z</time>
      </trkpt>
      <trkpt lat="44.2496" lon="1.77074">
        <ele>250.56</ele>
        <time>2026-05-20T09:09:37Z</time>
      </trkpt>
      <trkpt lat="44.24958" lon="1.77051">
        <ele>250.56</ele>
        <time>2026-05-20T09:09:53Z</time>
      </trkpt>
      <trkpt lat="44.24959" lon="1.7703">
        <ele>251.52</ele>
        <time>2026-05-20T09:10:05Z</time>
      </trkpt>
      <trkpt lat="44.24959" lon="1.77028">
        <ele>251.52</ele>
        <time>2026-05-20T09:10:06Z</time>
      </trkpt>
      <trkpt lat="44.24962" lon="1.76999">
        <ele>251.52</ele>
        <time>2026-05-20T09:10:21Z</time>
      </trkpt>
      <trkpt lat="44.24965" lon="1.76967">
        <ele>251.52</ele>
        <time>2026-05-20T09:10:40Z</time>
      </trkpt>
      <trkpt lat="44.24966" lon="1.76965">
        <ele>250.08</ele>
        <time>2026-05-20T09:10:41Z</time>
      </trkpt>
      <trkpt lat="44.24975" lon="1.76933">
        <ele>250.08</ele>
        <time>2026-05-20T09:10:58Z</time>
      </trkpt>
      <trkpt lat="44.2498" lon="1.76912">
        <ele>250.08</ele>
        <time>2026-05-20T09:11:13Z</time>
      </trkpt>
      <trkpt lat="44.24984" lon="1.76896">
        <ele>250.08</ele>
        <time>2026-05-20T09:11:20Z</time>
      </trkpt>
      <trkpt lat="44.24986" lon="1.7689">
        <ele>250.08</ele>
        <time>2026-05-20T09:11:22Z</time>
      </trkpt>
      <trkpt lat="44.24988" lon="1.76881">
        <ele>251.52</ele>
        <time>2026-05-20T09:11:27Z</time>
      </trkpt>
      <trkpt lat="44.24988" lon="1.76879">
        <ele>251.52</ele>
        <time>2026-05-20T09:11:28Z</time>
      </trkpt>
      <trkpt lat="44.2499" lon="1.76852">
        <ele>251.04</ele>
        <time>2026-05-20T09:11:44Z</time>
      </trkpt>
      <trkpt lat="44.24993" lon="1.76833">
        <ele>251.04</ele>
        <time>2026-05-20T09:11:53Z</time>
      </trkpt>
      <trkpt lat="44.25001" lon="1.76817">
        <ele>251.04</ele>
        <time>2026-05-20T09:12:04Z</time>
      </trkpt>
      <trkpt lat="44.25001" lon="1.76815">
        <ele>251.04</ele>
        <time>2026-05-20T09:12:05Z</time>
      </trkpt>
      <trkpt lat="44.25007" lon="1.76796">
        <ele>251.04</ele>
        <time>2026-05-20T09:12:18Z</time>
      </trkpt>
      <trkpt lat="44.25015" lon="1.76773">
        <ele>251.04</ele>
        <time>2026-05-20T09:12:35Z</time>
      </trkpt>
      <trkpt lat="44.25027" lon="1.76738">
        <ele>251.04</ele>
        <time>2026-05-20T09:12:54Z</time>
      </trkpt>
      <trkpt lat="44.2504" lon="1.76717">
        <ele>251.52</ele>
        <time>2026-05-20T09:13:11Z</time>
      </trkpt>
      <trkpt lat="44.25041" lon="1.76716">
        <ele>251.52</ele>
        <time>2026-05-20T09:13:12Z</time>
      </trkpt>
      <trkpt lat="44.25045" lon="1.76717">
        <ele>251.52</ele>
        <time>2026-05-20T09:13:16Z</time>
      </trkpt>
      <trkpt lat="44.25061" lon="1.76726">
        <ele>252.48</ele>
        <time>2026-05-20T09:13:32Z</time>
      </trkpt>
      <trkpt lat="44.25072" lon="1.76716">
        <ele>253.44</ele>
        <time>2026-05-20T09:13:45Z</time>
      </trkpt>
      <trkpt lat="44.25072" lon="1.76714">
        <ele>253.93</ele>
        <time>2026-05-20T09:13:46Z</time>
      </trkpt>
      <trkpt lat="44.25076" lon="1.767">
        <ele>253.44</ele>
        <time>2026-05-20T09:13:54Z</time>
      </trkpt>
      <trkpt lat="44.25077" lon="1.76698">
        <ele>253.44</ele>
        <time>2026-05-20T09:13:55Z</time>
      </trkpt>
      <trkpt lat="44.25087" lon="1.76672">
        <ele>253.44</ele>
        <time>2026-05-20T09:14:09Z</time>
      </trkpt>
      <trkpt lat="44.25101" lon="1.76651">
        <ele>253.93</ele>
        <time>2026-05-20T09:14:23Z</time>
      </trkpt>
      <trkpt lat="44.25109" lon="1.76633">
        <ele>254.41</ele>
        <time>2026-05-20T09:14:35Z</time>
      </trkpt>
      <trkpt lat="44.2511" lon="1.7663">
        <ele>254.41</ele>
        <time>2026-05-20T09:14:38Z</time>
      </trkpt>
      <trkpt lat="44.2511" lon="1.76628">
        <ele>254.41</ele>
        <time>2026-05-20T09:14:39Z</time>
      </trkpt>
      <trkpt lat="44.25111" lon="1.76627">
        <ele>254.41</ele>
        <time>2026-05-20T09:14:40Z</time>
      </trkpt>
      <trkpt lat="44.25112" lon="1.76625">
        <ele>254.41</ele>
        <time>2026-05-20T09:14:41Z</time>
      </trkpt>
      <trkpt lat="44.25113" lon="1.76623">
        <ele>254.41</ele>
        <time>2026-05-20T09:14:42Z</time>
      </trkpt>
      <trkpt lat="44.25114" lon="1.76621">
        <ele>254.41</ele>
        <time>2026-05-20T09:14:43Z</time>
      </trkpt>
      <trkpt lat="44.25115" lon="1.76619">
        <ele>254.41</ele>
        <time>2026-05-20T09:14:44Z</time>
      </trkpt>
      <trkpt lat="44.25121" lon="1.76599">
        <ele>254.41</ele>
        <time>2026-05-20T09:14:56Z</time>
      </trkpt>
      <trkpt lat="44.25123" lon="1.76583">
        <ele>254.89</ele>
        <time>2026-05-20T09:15:08Z</time>
      </trkpt>
      <trkpt lat="44.25122" lon="1.76581">
        <ele>254.89</ele>
        <time>2026-05-20T09:15:09Z</time>
      </trkpt>
      <trkpt lat="44.2512" lon="1.7658">
        <ele>255.37</ele>
        <time>2026-05-20T09:15:10Z</time>
      </trkpt>
      <trkpt lat="44.25119" lon="1.76579">
        <ele>255.37</ele>
        <time>2026-05-20T09:15:11Z</time>
      </trkpt>
      <trkpt lat="44.25118" lon="1.76577">
        <ele>255.37</ele>
        <time>2026-05-20T09:15:12Z</time>
      </trkpt>
      <trkpt lat="44.25117" lon="1.76576">
        <ele>255.37</ele>
        <time>2026-05-20T09:15:13Z</time>
      </trkpt>
      <trkpt lat="44.25111" lon="1.76573">
        <ele>255.85</ele>
        <time>2026-05-20T09:15:19Z</time>
      </trkpt>
      <trkpt lat="44.251" lon="1.76572">
        <ele>255.85</ele>
        <time>2026-05-20T09:15:27Z</time>
      </trkpt>
      <trkpt lat="44.25096" lon="1.76572">
        <ele>255.85</ele>
        <time>2026-05-20T09:15:30Z</time>
      </trkpt>
      <trkpt lat="44.25093" lon="1.76572">
        <ele>256.33</ele>
        <time>2026-05-20T09:15:32Z</time>
      </trkpt>
      <trkpt lat="44.25084" lon="1.76571">
        <ele>257.29</ele>
        <time>2026-05-20T09:15:46Z</time>
      </trkpt>
      <trkpt lat="44.25071" lon="1.76575">
        <ele>259.21</ele>
        <time>2026-05-20T09:16:02Z</time>
      </trkpt>
      <trkpt lat="44.25065" lon="1.76582">
        <ele>258.73</ele>
        <time>2026-05-20T09:16:26Z</time>
      </trkpt>
      <trkpt lat="44.25055" lon="1.766">
        <ele>258.73</ele>
        <time>2026-05-20T09:16:50Z</time>
      </trkpt>
      <trkpt lat="44.25045" lon="1.76606">
        <ele>259.21</ele>
        <time>2026-05-20T09:17:05Z</time>
      </trkpt>
      <trkpt lat="44.25036" lon="1.76616">
        <ele>262.1</ele>
        <time>2026-05-20T09:17:19Z</time>
      </trkpt>
      <trkpt lat="44.2502" lon="1.76626">
        <ele>264.02</ele>
        <time>2026-05-20T09:17:37Z</time>
      </trkpt>
      <trkpt lat="44.25009" lon="1.76632">
        <ele>266.42</ele>
        <time>2026-05-20T09:17:51Z</time>
      </trkpt>
      <trkpt lat="44.25005" lon="1.76637">
        <ele>266.42</ele>
        <time>2026-05-20T09:18:24Z</time>
      </trkpt>
      <trkpt lat="44.24997" lon="1.76643">
        <ele>269.79</ele>
        <time>2026-05-20T09:18:38Z</time>
      </trkpt>
      <trkpt lat="44.24987" lon="1.76646">
        <ele>273.15</ele>
        <time>2026-05-20T09:18:55Z</time>
      </trkpt>
      <trkpt lat="44.24978" lon="1.76656">
        <ele>275.56</ele>
        <time>2026-05-20T09:19:12Z</time>
      </trkpt>
      <trkpt lat="44.24972" lon="1.76663">
        <ele>277.48</ele>
        <time>2026-05-20T09:19:30Z</time>
      </trkpt>
      <trkpt lat="44.24964" lon="1.76665">
        <ele>278.92</ele>
        <time>2026-05-20T09:20:01Z</time>
      </trkpt>
      <trkpt lat="44.24954" lon="1.7667">
        <ele>280.84</ele>
        <time>2026-05-20T09:20:15Z</time>
      </trkpt>
      <trkpt lat="44.24948" lon="1.76671">
        <ele>283.73</ele>
        <time>2026-05-20T09:20:25Z</time>
      </trkpt>
      <trkpt lat="44.2494" lon="1.76679">
        <ele>286.13</ele>
        <time>2026-05-20T09:20:43Z</time>
      </trkpt>
      <trkpt lat="44.24933" lon="1.76689">
        <ele>288.53</ele>
        <time>2026-05-20T09:20:59Z</time>
      </trkpt>
      <trkpt lat="44.24933" lon="1.76694">
        <ele>289.49</ele>
        <time>2026-05-20T09:21:04Z</time>
      </trkpt>
      <trkpt lat="44.24925" lon="1.76707">
        <ele>291.42</ele>
        <time>2026-05-20T09:21:21Z</time>
      </trkpt>
      <trkpt lat="44.24917" lon="1.76719">
        <ele>293.34</ele>
        <time>2026-05-20T09:21:37Z</time>
      </trkpt>
      <trkpt lat="44.24911" lon="1.76729">
        <ele>295.74</ele>
        <time>2026-05-20T09:21:51Z</time>
      </trkpt>
      <trkpt lat="44.24904" lon="1.76742">
        <ele>298.63</ele>
        <time>2026-05-20T09:22:05Z</time>
      </trkpt>
      <trkpt lat="44.249" lon="1.76755">
        <ele>300.07</ele>
        <time>2026-05-20T09:22:17Z</time>
      </trkpt>
      <trkpt lat="44.24894" lon="1.76769">
        <ele>301.03</ele>
        <time>2026-05-20T09:22:31Z</time>
      </trkpt>
      <trkpt lat="44.24892" lon="1.76773">
        <ele>302.47</ele>
        <time>2026-05-20T09:22:35Z</time>
      </trkpt>
      <trkpt lat="44.24888" lon="1.76782">
        <ele>303.91</ele>
        <time>2026-05-20T09:22:45Z</time>
      </trkpt>
      <trkpt lat="44.24887" lon="1.76784">
        <ele>303.43</ele>
        <time>2026-05-20T09:22:46Z</time>
      </trkpt>
      <trkpt lat="44.24883" lon="1.76792">
        <ele>304.39</ele>
        <time>2026-05-20T09:22:59Z</time>
      </trkpt>
      <trkpt lat="44.24885" lon="1.76792">
        <ele>304.39</ele>
        <time>2026-05-20T09:23:22Z</time>
      </trkpt>
      <trkpt lat="44.24885" lon="1.76799">
        <ele>304.39</ele>
        <time>2026-05-20T09:23:34Z</time>
      </trkpt>
      <trkpt lat="44.24885" lon="1.76801">
        <ele>304.39</ele>
        <time>2026-05-20T09:23:35Z</time>
      </trkpt>
      <trkpt lat="44.24882" lon="1.7682">
        <ele>304.39</ele>
        <time>2026-05-20T09:23:48Z</time>
      </trkpt>
      <trkpt lat="44.2488" lon="1.76825">
        <ele>303.91</ele>
        <time>2026-05-20T09:23:51Z</time>
      </trkpt>
      <trkpt lat="44.2488" lon="1.76827">
        <ele>304.39</ele>
        <time>2026-05-20T09:23:52Z</time>
      </trkpt>
      <trkpt lat="44.24875" lon="1.76852">
        <ele>304.39</ele>
        <time>2026-05-20T09:24:06Z</time>
      </trkpt>
      <trkpt lat="44.24876" lon="1.76857">
        <ele>304.39</ele>
        <time>2026-05-20T09:24:24Z</time>
      </trkpt>
      <trkpt lat="44.24876" lon="1.76859">
        <ele>304.39</ele>
        <time>2026-05-20T09:24:26Z</time>
      </trkpt>
      <trkpt lat="44.24875" lon="1.76861">
        <ele>304.39</ele>
        <time>2026-05-20T09:24:27Z</time>
      </trkpt>
      <trkpt lat="44.24874" lon="1.76863">
        <ele>303.91</ele>
        <time>2026-05-20T09:24:28Z</time>
      </trkpt>
      <trkpt lat="44.24864" lon="1.76879">
        <ele>304.39</ele>
        <time>2026-05-20T09:24:40Z</time>
      </trkpt>
      <trkpt lat="44.24853" lon="1.76889">
        <ele>304.39</ele>
        <time>2026-05-20T09:24:51Z</time>
      </trkpt>
      <trkpt lat="44.24841" lon="1.76902">
        <ele>304.88</ele>
        <time>2026-05-20T09:25:04Z</time>
      </trkpt>
      <trkpt lat="44.24827" lon="1.76913">
        <ele>305.36</ele>
        <time>2026-05-20T09:25:17Z</time>
      </trkpt>
      <trkpt lat="44.24811" lon="1.76923">
        <ele>306.32</ele>
        <time>2026-05-20T09:25:31Z</time>
      </trkpt>
      <trkpt lat="44.24797" lon="1.76928">
        <ele>306.8</ele>
        <time>2026-05-20T09:25:45Z</time>
      </trkpt>
      <trkpt lat="44.24788" lon="1.76932">
        <ele>307.28</ele>
        <time>2026-05-20T09:25:53Z</time>
      </trkpt>
      <trkpt lat="44.24786" lon="1.76932">
        <ele>307.28</ele>
        <time>2026-05-20T09:25:54Z</time>
      </trkpt>
      <trkpt lat="44.24776" lon="1.76935">
        <ele>307.76</ele>
        <time>2026-05-20T09:26:02Z</time>
      </trkpt>
      <trkpt lat="44.24775" lon="1.76936">
        <ele>307.76</ele>
        <time>2026-05-20T09:26:03Z</time>
      </trkpt>
      <trkpt lat="44.24758" lon="1.76942">
        <ele>309.2</ele>
        <time>2026-05-20T09:26:17Z</time>
      </trkpt>
      <trkpt lat="44.24757" lon="1.76944">
        <ele>309.2</ele>
        <time>2026-05-20T09:26:19Z</time>
      </trkpt>
      <trkpt lat="44.24755" lon="1.76945">
        <ele>310.64</ele>
        <time>2026-05-20T09:26:20Z</time>
      </trkpt>
      <trkpt lat="44.24754" lon="1.76945">
        <ele>310.64</ele>
        <time>2026-05-20T09:26:21Z</time>
      </trkpt>
      <trkpt lat="44.24753" lon="1.76946">
        <ele>310.64</ele>
        <time>2026-05-20T09:26:22Z</time>
      </trkpt>
      <trkpt lat="44.24751" lon="1.76948">
        <ele>310.64</ele>
        <time>2026-05-20T09:26:23Z</time>
      </trkpt>
      <trkpt lat="44.2475" lon="1.76948">
        <ele>310.64</ele>
        <time>2026-05-20T09:26:24Z</time>
      </trkpt>
      <trkpt lat="44.24733" lon="1.76955">
        <ele>311.12</ele>
        <time>2026-05-20T09:26:38Z</time>
      </trkpt>
      <trkpt lat="44.24719" lon="1.76962">
        <ele>312.09</ele>
        <time>2026-05-20T09:26:51Z</time>
      </trkpt>
      <trkpt lat="44.24706" lon="1.76968">
        <ele>313.05</ele>
        <time>2026-05-20T09:27:04Z</time>
      </trkpt>
      <trkpt lat="44.24704" lon="1.7697">
        <ele>313.05</ele>
        <time>2026-05-20T09:27:06Z</time>
      </trkpt>
      <trkpt lat="44.24703" lon="1.76971">
        <ele>313.05</ele>
        <time>2026-05-20T09:27:07Z</time>
      </trkpt>
      <trkpt lat="44.2469" lon="1.76982">
        <ele>313.53</ele>
        <time>2026-05-20T09:27:21Z</time>
      </trkpt>
      <trkpt lat="44.24671" lon="1.76991">
        <ele>313.53</ele>
        <time>2026-05-20T09:27:37Z</time>
      </trkpt>
      <trkpt lat="44.24661" lon="1.76996">
        <ele>312.09</ele>
        <time>2026-05-20T09:27:46Z</time>
      </trkpt>
      <trkpt lat="44.2464" lon="1.77005">
        <ele>312.09</ele>
        <time>2026-05-20T09:28:01Z</time>
      </trkpt>
      <trkpt lat="44.24622" lon="1.7702">
        <ele>312.09</ele>
        <time>2026-05-20T09:28:18Z</time>
      </trkpt>
      <trkpt lat="44.24601" lon="1.77032">
        <ele>311.6</ele>
        <time>2026-05-20T09:28:33Z</time>
      </trkpt>
      <trkpt lat="44.24585" lon="1.77036">
        <ele>310.16</ele>
        <time>2026-05-20T09:28:45Z</time>
      </trkpt>
      <trkpt lat="44.24567" lon="1.77041">
        <ele>310.16</ele>
        <time>2026-05-20T09:29:00Z</time>
      </trkpt>
      <trkpt lat="44.24547" lon="1.77046">
        <ele>309.68</ele>
        <time>2026-05-20T09:29:15Z</time>
      </trkpt>
      <trkpt lat="44.24535" lon="1.77047">
        <ele>309.2</ele>
        <time>2026-05-20T09:29:28Z</time>
      </trkpt>
      <trkpt lat="44.24529" lon="1.77049">
        <ele>308.72</ele>
        <time>2026-05-20T09:29:38Z</time>
      </trkpt>
      <trkpt lat="44.24509" lon="1.77054">
        <ele>307.76</ele>
        <time>2026-05-20T09:29:55Z</time>
      </trkpt>
      <trkpt lat="44.24487" lon="1.77057">
        <ele>308.24</ele>
        <time>2026-05-20T09:30:11Z</time>
      </trkpt>
      <trkpt lat="44.2447" lon="1.77062">
        <ele>308.24</ele>
        <time>2026-05-20T09:30:24Z</time>
      </trkpt>
      <trkpt lat="44.24452" lon="1.77068">
        <ele>308.72</ele>
        <time>2026-05-20T09:30:38Z</time>
      </trkpt>
      <trkpt lat="44.24445" lon="1.77071">
        <ele>309.68</ele>
        <time>2026-05-20T09:30:44Z</time>
      </trkpt>
      <trkpt lat="44.24444" lon="1.77072">
        <ele>310.16</ele>
        <time>2026-05-20T09:30:45Z</time>
      </trkpt>
      <trkpt lat="44.24437" lon="1.77074">
        <ele>310.64</ele>
        <time>2026-05-20T09:30:52Z</time>
      </trkpt>
      <trkpt lat="44.24436" lon="1.77074">
        <ele>310.64</ele>
        <time>2026-05-20T09:30:53Z</time>
      </trkpt>
      <trkpt lat="44.24419" lon="1.77081">
        <ele>311.6</ele>
        <time>2026-05-20T09:31:07Z</time>
      </trkpt>
      <trkpt lat="44.24404" lon="1.77084">
        <ele>312.09</ele>
        <time>2026-05-20T09:31:20Z</time>
      </trkpt>
      <trkpt lat="44.24387" lon="1.77083">
        <ele>312.09</ele>
        <time>2026-05-20T09:31:35Z</time>
      </trkpt>
      <trkpt lat="44.24382" lon="1.77084">
        <ele>310.64</ele>
        <time>2026-05-20T09:31:40Z</time>
      </trkpt>
      <trkpt lat="44.24361" lon="1.77082">
        <ele>310.16</ele>
        <time>2026-05-20T09:31:58Z</time>
      </trkpt>
      <trkpt lat="44.2434" lon="1.77081">
        <ele>310.16</ele>
        <time>2026-05-20T09:32:15Z</time>
      </trkpt>
      <trkpt lat="44.24337" lon="1.77081">
        <ele>310.16</ele>
        <time>2026-05-20T09:32:17Z</time>
      </trkpt>
      <trkpt lat="44.24335" lon="1.77082">
        <ele>310.16</ele>
        <time>2026-05-20T09:32:18Z</time>
      </trkpt>
      <trkpt lat="44.24332" lon="1.77082">
        <ele>310.16</ele>
        <time>2026-05-20T09:32:19Z</time>
      </trkpt>
      <trkpt lat="44.24314" lon="1.77084">
        <ele>311.6</ele>
        <time>2026-05-20T09:32:33Z</time>
      </trkpt>
      <trkpt lat="44.24295" lon="1.77088">
        <ele>312.57</ele>
        <time>2026-05-20T09:32:47Z</time>
      </trkpt>
      <trkpt lat="44.24273" lon="1.77093">
        <ele>314.49</ele>
        <time>2026-05-20T09:33:05Z</time>
      </trkpt>
      <trkpt lat="44.24265" lon="1.77098">
        <ele>315.45</ele>
        <time>2026-05-20T09:33:13Z</time>
      </trkpt>
      <trkpt lat="44.24252" lon="1.77101">
        <ele>315.93</ele>
        <time>2026-05-20T09:33:23Z</time>
      </trkpt>
      <trkpt lat="44.24251" lon="1.77101">
        <ele>315.93</ele>
        <time>2026-05-20T09:33:24Z</time>
      </trkpt>
      <trkpt lat="44.24249" lon="1.77102">
        <ele>315.45</ele>
        <time>2026-05-20T09:33:25Z</time>
      </trkpt>
      <trkpt lat="44.24247" lon="1.77103">
        <ele>315.93</ele>
        <time>2026-05-20T09:33:26Z</time>
      </trkpt>
      <trkpt lat="44.24234" lon="1.77106">
        <ele>315.93</ele>
        <time>2026-05-20T09:33:37Z</time>
      </trkpt>
      <trkpt lat="44.24232" lon="1.77106">
        <ele>315.93</ele>
        <time>2026-05-20T09:33:38Z</time>
      </trkpt>
      <trkpt lat="44.24231" lon="1.77106">
        <ele>315.93</ele>
        <time>2026-05-20T09:33:39Z</time>
      </trkpt>
      <trkpt lat="44.24212" lon="1.77107">
        <ele>315.93</ele>
        <time>2026-05-20T09:33:53Z</time>
      </trkpt>
      <trkpt lat="44.24201" lon="1.77108">
        <ele>314.97</ele>
        <time>2026-05-20T09:34:03Z</time>
      </trkpt>
      <trkpt lat="44.24182" lon="1.77108">
        <ele>314.49</ele>
        <time>2026-05-20T09:34:19Z</time>
      </trkpt>
      <trkpt lat="44.2418" lon="1.77109">
        <ele>314.49</ele>
        <time>2026-05-20T09:34:20Z</time>
      </trkpt>
      <trkpt lat="44.24179" lon="1.77108">
        <ele>314.49</ele>
        <time>2026-05-20T09:34:21Z</time>
      </trkpt>
      <trkpt lat="44.24177" lon="1.77108">
        <ele>314.49</ele>
        <time>2026-05-20T09:34:22Z</time>
      </trkpt>
      <trkpt lat="44.24175" lon="1.77108">
        <ele>314.49</ele>
        <time>2026-05-20T09:34:23Z</time>
      </trkpt>
      <trkpt lat="44.2416" lon="1.77108">
        <ele>314.49</ele>
        <time>2026-05-20T09:34:37Z</time>
      </trkpt>
      <trkpt lat="44.24153" lon="1.77111">
        <ele>314.49</ele>
        <time>2026-05-20T09:34:47Z</time>
      </trkpt>
      <trkpt lat="44.24151" lon="1.77112">
        <ele>314.49</ele>
        <time>2026-05-20T09:34:48Z</time>
      </trkpt>
      <trkpt lat="44.24135" lon="1.77118">
        <ele>314.49</ele>
        <time>2026-05-20T09:35:00Z</time>
      </trkpt>
      <trkpt lat="44.24118" lon="1.77132">
        <ele>314.01</ele>
        <time>2026-05-20T09:35:13Z</time>
      </trkpt>
      <trkpt lat="44.24109" lon="1.77141">
        <ele>314.01</ele>
        <time>2026-05-20T09:35:28Z</time>
      </trkpt>
      <trkpt lat="44.24099" lon="1.77147">
        <ele>314.01</ele>
        <time>2026-05-20T09:35:53Z</time>
      </trkpt>
      <trkpt lat="44.24096" lon="1.77148">
        <ele>314.01</ele>
        <time>2026-05-20T09:35:56Z</time>
      </trkpt>
      <trkpt lat="44.24094" lon="1.77148">
        <ele>314.01</ele>
        <time>2026-05-20T09:35:57Z</time>
      </trkpt>
      <trkpt lat="44.24076" lon="1.77153">
        <ele>313.53</ele>
        <time>2026-05-20T09:36:11Z</time>
      </trkpt>
      <trkpt lat="44.24072" lon="1.77152">
        <ele>313.53</ele>
        <time>2026-05-20T09:36:13Z</time>
      </trkpt>
      <trkpt lat="44.2407" lon="1.77152">
        <ele>313.53</ele>
        <time>2026-05-20T09:36:14Z</time>
      </trkpt>
      <trkpt lat="44.24069" lon="1.77152">
        <ele>313.53</ele>
        <time>2026-05-20T09:36:15Z</time>
      </trkpt>
      <trkpt lat="44.24068" lon="1.77152">
        <ele>313.05</ele>
        <time>2026-05-20T09:36:16Z</time>
      </trkpt>
      <trkpt lat="44.24058" lon="1.77153">
        <ele>312.57</ele>
        <time>2026-05-20T09:36:23Z</time>
      </trkpt>
      <trkpt lat="44.24057" lon="1.77153">
        <ele>312.57</ele>
        <time>2026-05-20T09:36:24Z</time>
      </trkpt>
      <trkpt lat="44.24055" lon="1.77153">
        <ele>312.57</ele>
        <time>2026-05-20T09:36:25Z</time>
      </trkpt>
      <trkpt lat="44.24038" lon="1.77156">
        <ele>311.6</ele>
        <time>2026-05-20T09:36:38Z</time>
      </trkpt>
      <trkpt lat="44.24037" lon="1.77156">
        <ele>311.6</ele>
        <time>2026-05-20T09:36:39Z</time>
      </trkpt>
      <trkpt lat="44.24036" lon="1.77156">
        <ele>311.12</ele>
        <time>2026-05-20T09:36:40Z</time>
      </trkpt>
      <trkpt lat="44.24035" lon="1.77157">
        <ele>311.12</ele>
        <time>2026-05-20T09:36:41Z</time>
      </trkpt>
      <trkpt lat="44.24033" lon="1.77157">
        <ele>311.12</ele>
        <time>2026-05-20T09:36:42Z</time>
      </trkpt>
      <trkpt lat="44.24032" lon="1.77157">
        <ele>311.12</ele>
        <time>2026-05-20T09:36:43Z</time>
      </trkpt>
      <trkpt lat="44.24027" lon="1.77156">
        <ele>310.64</ele>
        <time>2026-05-20T09:36:48Z</time>
      </trkpt>
      <trkpt lat="44.24025" lon="1.77155">
        <ele>310.64</ele>
        <time>2026-05-20T09:36:49Z</time>
      </trkpt>
      <trkpt lat="44.24024" lon="1.77155">
        <ele>310.16</ele>
        <time>2026-05-20T09:36:50Z</time>
      </trkpt>
      <trkpt lat="44.24023" lon="1.77155">
        <ele>310.16</ele>
        <time>2026-05-20T09:36:51Z</time>
      </trkpt>
      <trkpt lat="44.24022" lon="1.77155">
        <ele>310.16</ele>
        <time>2026-05-20T09:36:52Z</time>
      </trkpt>
      <trkpt lat="44.24016" lon="1.77154">
        <ele>310.16</ele>
        <time>2026-05-20T09:36:56Z</time>
      </trkpt>
      <trkpt lat="44.24015" lon="1.77154">
        <ele>309.68</ele>
        <time>2026-05-20T09:36:57Z</time>
      </trkpt>
      <trkpt lat="44.24013" lon="1.77153">
        <ele>309.68</ele>
        <time>2026-05-20T09:36:58Z</time>
      </trkpt>
      <trkpt lat="44.23994" lon="1.77152">
        <ele>309.2</ele>
        <time>2026-05-20T09:37:13Z</time>
      </trkpt>
      <trkpt lat="44.23976" lon="1.77152">
        <ele>308.72</ele>
        <time>2026-05-20T09:37:28Z</time>
      </trkpt>
      <trkpt lat="44.23962" lon="1.77149">
        <ele>308.24</ele>
        <time>2026-05-20T09:37:39Z</time>
      </trkpt>
      <trkpt lat="44.2396" lon="1.77149">
        <ele>308.24</ele>
        <time>2026-05-20T09:37:41Z</time>
      </trkpt>
      <trkpt lat="44.2394" lon="1.77144">
        <ele>308.24</ele>
        <time>2026-05-20T09:37:56Z</time>
      </trkpt>
      <trkpt lat="44.23918" lon="1.77136">
        <ele>309.68</ele>
        <time>2026-05-20T09:38:11Z</time>
      </trkpt>
      <trkpt lat="44.23905" lon="1.77131">
        <ele>310.16</ele>
        <time>2026-05-20T09:38:23Z</time>
      </trkpt>
      <trkpt lat="44.23892" lon="1.7713">
        <ele>310.16</ele>
        <time>2026-05-20T09:38:32Z</time>
      </trkpt>
      <trkpt lat="44.23877" lon="1.77129">
        <ele>310.16</ele>
        <time>2026-05-20T09:38:44Z</time>
      </trkpt>
      <trkpt lat="44.23876" lon="1.7713">
        <ele>310.16</ele>
        <time>2026-05-20T09:38:45Z</time>
      </trkpt>
      <trkpt lat="44.23874" lon="1.7713">
        <ele>310.16</ele>
        <time>2026-05-20T09:38:46Z</time>
      </trkpt>
      <trkpt lat="44.23872" lon="1.77131">
        <ele>310.16</ele>
        <time>2026-05-20T09:38:47Z</time>
      </trkpt>
      <trkpt lat="44.2387" lon="1.77131">
        <ele>310.16</ele>
        <time>2026-05-20T09:38:48Z</time>
      </trkpt>
      <trkpt lat="44.23868" lon="1.77132">
        <ele>310.16</ele>
        <time>2026-05-20T09:38:49Z</time>
      </trkpt>
      <trkpt lat="44.23866" lon="1.77133">
        <ele>310.16</ele>
        <time>2026-05-20T09:38:50Z</time>
      </trkpt>
      <trkpt lat="44.23848" lon="1.7714">
        <ele>309.2</ele>
        <time>2026-05-20T09:39:03Z</time>
      </trkpt>
      <trkpt lat="44.23829" lon="1.77145">
        <ele>308.24</ele>
        <time>2026-05-20T09:39:17Z</time>
      </trkpt>
      <trkpt lat="44.23818" lon="1.77136">
        <ele>306.32</ele>
        <time>2026-05-20T09:39:28Z</time>
      </trkpt>
      <trkpt lat="44.23817" lon="1.77135">
        <ele>306.32</ele>
        <time>2026-05-20T09:39:29Z</time>
      </trkpt>
      <trkpt lat="44.23808" lon="1.77114">
        <ele>303.91</ele>
        <time>2026-05-20T09:39:44Z</time>
      </trkpt>
      <trkpt lat="44.238" lon="1.77095">
        <ele>301.51</ele>
        <time>2026-05-20T09:39:56Z</time>
      </trkpt>
      <trkpt lat="44.23798" lon="1.77088">
        <ele>300.55</ele>
        <time>2026-05-20T09:40:01Z</time>
      </trkpt>
      <trkpt lat="44.23796" lon="1.77085">
        <ele>299.59</ele>
        <time>2026-05-20T09:40:04Z</time>
      </trkpt>
      <trkpt lat="44.23793" lon="1.77081">
        <ele>299.11</ele>
        <time>2026-05-20T09:40:07Z</time>
      </trkpt>
      <trkpt lat="44.23784" lon="1.77064">
        <ele>295.74</ele>
        <time>2026-05-20T09:40:19Z</time>
      </trkpt>
      <trkpt lat="44.23782" lon="1.77058">
        <ele>294.3</ele>
        <time>2026-05-20T09:40:24Z</time>
      </trkpt>
      <trkpt lat="44.23781" lon="1.77057">
        <ele>294.3</ele>
        <time>2026-05-20T09:40:25Z</time>
      </trkpt>
      <trkpt lat="44.23777" lon="1.7705">
        <ele>292.86</ele>
        <time>2026-05-20T09:40:31Z</time>
      </trkpt>
      <trkpt lat="44.23775" lon="1.77047">
        <ele>292.38</ele>
        <time>2026-05-20T09:40:33Z</time>
      </trkpt>
      <trkpt lat="44.23768" lon="1.77037">
        <ele>290.46</ele>
        <time>2026-05-20T09:40:46Z</time>
      </trkpt>
      <trkpt lat="44.23766" lon="1.77038">
        <ele>289.97</ele>
        <time>2026-05-20T09:40:59Z</time>
      </trkpt>
      <trkpt lat="44.23765" lon="1.77028">
        <ele>288.53</ele>
        <time>2026-05-20T09:41:22Z</time>
      </trkpt>
      <trkpt lat="44.23759" lon="1.7701">
        <ele>285.17</ele>
        <time>2026-05-20T09:41:36Z</time>
      </trkpt>
      <trkpt lat="44.23757" lon="1.77003">
        <ele>284.21</ele>
        <time>2026-05-20T09:41:41Z</time>
      </trkpt>
      <trkpt lat="44.23753" lon="1.76989">
        <ele>280.84</ele>
        <time>2026-05-20T09:41:51Z</time>
      </trkpt>
      <trkpt lat="44.23752" lon="1.76987">
        <ele>280.36</ele>
        <time>2026-05-20T09:41:53Z</time>
      </trkpt>
      <trkpt lat="44.23751" lon="1.76985">
        <ele>279.88</ele>
        <time>2026-05-20T09:41:54Z</time>
      </trkpt>
      <trkpt lat="44.2375" lon="1.76983">
        <ele>279.4</ele>
        <time>2026-05-20T09:41:55Z</time>
      </trkpt>
      <trkpt lat="44.23748" lon="1.76965">
        <ele>277</ele>
        <time>2026-05-20T09:42:06Z</time>
      </trkpt>
      <trkpt lat="44.23747" lon="1.76962">
        <ele>277</ele>
        <time>2026-05-20T09:42:09Z</time>
      </trkpt>
      <trkpt lat="44.23746" lon="1.76959">
        <ele>276.04</ele>
        <time>2026-05-20T09:42:11Z</time>
      </trkpt>
      <trkpt lat="44.23745" lon="1.76958">
        <ele>276.04</ele>
        <time>2026-05-20T09:42:12Z</time>
      </trkpt>
      <trkpt lat="44.2374" lon="1.76954">
        <ele>272.67</ele>
        <time>2026-05-20T09:42:19Z</time>
      </trkpt>
      <trkpt lat="44.23736" lon="1.76954">
        <ele>271.71</ele>
        <time>2026-05-20T09:42:23Z</time>
      </trkpt>
      <trkpt lat="44.23734" lon="1.76954">
        <ele>271.23</ele>
        <time>2026-05-20T09:42:39Z</time>
      </trkpt>
      <trkpt lat="44.23735" lon="1.76949">
        <ele>270.75</ele>
        <time>2026-05-20T09:42:42Z</time>
      </trkpt>
      <trkpt lat="44.23741" lon="1.76929">
        <ele>267.86</ele>
        <time>2026-05-20T09:42:55Z</time>
      </trkpt>
      <trkpt lat="44.23746" lon="1.76913">
        <ele>265.46</ele>
        <time>2026-05-20T09:43:06Z</time>
      </trkpt>
      <trkpt lat="44.23746" lon="1.76911">
        <ele>265.94</ele>
        <time>2026-05-20T09:43:07Z</time>
      </trkpt>
      <trkpt lat="44.23746" lon="1.76909">
        <ele>265.94</ele>
        <time>2026-05-20T09:43:08Z</time>
      </trkpt>
      <trkpt lat="44.23745" lon="1.76908">
        <ele>264.98</ele>
        <time>2026-05-20T09:43:09Z</time>
      </trkpt>
      <trkpt lat="44.23743" lon="1.76906">
        <ele>264.5</ele>
        <time>2026-05-20T09:43:11Z</time>
      </trkpt>
      <trkpt lat="44.23737" lon="1.76909">
        <ele>263.06</ele>
        <time>2026-05-20T09:43:25Z</time>
      </trkpt>
      <trkpt lat="44.2373" lon="1.76902">
        <ele>263.06</ele>
        <time>2026-05-20T09:44:01Z</time>
      </trkpt>
      <trkpt lat="44.23729" lon="1.76903">
        <ele>263.06</ele>
        <time>2026-05-20T09:44:02Z</time>
      </trkpt>
      <trkpt lat="44.23724" lon="1.7692">
        <ele>260.65</ele>
        <time>2026-05-20T09:44:15Z</time>
      </trkpt>
      <trkpt lat="44.23723" lon="1.76923">
        <ele>260.17</ele>
        <time>2026-05-20T09:44:29Z</time>
      </trkpt>
      <trkpt lat="44.23711" lon="1.76937">
        <ele>258.25</ele>
        <time>2026-05-20T09:44:41Z</time>
      </trkpt>
      <trkpt lat="44.23702" lon="1.76947">
        <ele>257.77</ele>
        <time>2026-05-20T09:44:49Z</time>
      </trkpt>
      <trkpt lat="44.23701" lon="1.76947">
        <ele>257.29</ele>
        <time>2026-05-20T09:44:50Z</time>
      </trkpt>
      <trkpt lat="44.23699" lon="1.76948">
        <ele>257.29</ele>
        <time>2026-05-20T09:44:51Z</time>
      </trkpt>
      <trkpt lat="44.23694" lon="1.76954">
        <ele>257.29</ele>
        <time>2026-05-20T09:44:57Z</time>
      </trkpt>
      <trkpt lat="44.23689" lon="1.76972">
        <ele>255.85</ele>
        <time>2026-05-20T09:45:08Z</time>
      </trkpt>
      <trkpt lat="44.23687" lon="1.76975">
        <ele>255.37</ele>
        <time>2026-05-20T09:45:10Z</time>
      </trkpt>
      <trkpt lat="44.23686" lon="1.76976">
        <ele>255.37</ele>
        <time>2026-05-20T09:45:11Z</time>
      </trkpt>
      <trkpt lat="44.23685" lon="1.76976">
        <ele>255.37</ele>
        <time>2026-05-20T09:45:12Z</time>
      </trkpt>
      <trkpt lat="44.23686" lon="1.76977">
        <ele>254.89</ele>
        <time>2026-05-20T09:45:25Z</time>
      </trkpt>
      <trkpt lat="44.23685" lon="1.76976">
        <ele>254.89</ele>
        <time>2026-05-20T09:45:28Z</time>
      </trkpt>
      <trkpt lat="44.23685" lon="1.76974">
        <ele>254.89</ele>
        <time>2026-05-20T09:45:29Z</time>
      </trkpt>
      <trkpt lat="44.23685" lon="1.76972">
        <ele>254.89</ele>
        <time>2026-05-20T09:45:30Z</time>
      </trkpt>
      <trkpt lat="44.23684" lon="1.76969">
        <ele>253.93</ele>
        <time>2026-05-20T09:45:32Z</time>
      </trkpt>
      <trkpt lat="44.23683" lon="1.76946">
        <ele>250.08</ele>
        <time>2026-05-20T09:45:48Z</time>
      </trkpt>
      <trkpt lat="44.23679" lon="1.76912">
        <ele>247.2</ele>
        <time>2026-05-20T09:46:05Z</time>
      </trkpt>
      <trkpt lat="44.23676" lon="1.76907">
        <ele>246.23</ele>
        <time>2026-05-20T09:46:10Z</time>
      </trkpt>
      <trkpt lat="44.23675" lon="1.76906">
        <ele>246.23</ele>
        <time>2026-05-20T09:46:11Z</time>
      </trkpt>
      <trkpt lat="44.23674" lon="1.76907">
        <ele>245.27</ele>
        <time>2026-05-20T09:46:24Z</time>
      </trkpt>
      <trkpt lat="44.23672" lon="1.76908">
        <ele>245.27</ele>
        <time>2026-05-20T09:46:30Z</time>
      </trkpt>
      <trkpt lat="44.2367" lon="1.76909">
        <ele>245.27</ele>
        <time>2026-05-20T09:46:31Z</time>
      </trkpt>
      <trkpt lat="44.23662" lon="1.76921">
        <ele>245.27</ele>
        <time>2026-05-20T09:46:41Z</time>
      </trkpt>
      <trkpt lat="44.23661" lon="1.76928">
        <ele>243.35</ele>
        <time>2026-05-20T09:46:48Z</time>
      </trkpt>
      <trkpt lat="44.23659" lon="1.7693">
        <ele>243.35</ele>
        <time>2026-05-20T09:46:53Z</time>
      </trkpt>
      <trkpt lat="44.23659" lon="1.76931">
        <ele>243.35</ele>
        <time>2026-05-20T09:46:54Z</time>
      </trkpt>
      <trkpt lat="44.23658" lon="1.76933">
        <ele>243.35</ele>
        <time>2026-05-20T09:46:55Z</time>
      </trkpt>
      <trkpt lat="44.23658" lon="1.76936">
        <ele>243.35</ele>
        <time>2026-05-20T09:46:56Z</time>
      </trkpt>
      <trkpt lat="44.23657" lon="1.76937">
        <ele>243.35</ele>
        <time>2026-05-20T09:46:57Z</time>
      </trkpt>
      <trkpt lat="44.23656" lon="1.76944">
        <ele>243.35</ele>
        <time>2026-05-20T09:47:02Z</time>
      </trkpt>
      <trkpt lat="44.23656" lon="1.76946">
        <ele>243.35</ele>
        <time>2026-05-20T09:47:03Z</time>
      </trkpt>
      <trkpt lat="44.23656" lon="1.76948">
        <ele>243.35</ele>
        <time>2026-05-20T09:47:04Z</time>
      </trkpt>
      <trkpt lat="44.23655" lon="1.7697">
        <ele>241.91</ele>
        <time>2026-05-20T09:47:17Z</time>
      </trkpt>
      <trkpt lat="44.23651" lon="1.76984">
        <ele>240.95</ele>
        <time>2026-05-20T09:47:24Z</time>
      </trkpt>
      <trkpt lat="44.23644" lon="1.76989">
        <ele>239.51</ele>
        <time>2026-05-20T09:47:34Z</time>
      </trkpt>
      <trkpt lat="44.23643" lon="1.76989">
        <ele>239.51</ele>
        <time>2026-05-20T09:47:35Z</time>
      </trkpt>
      <trkpt lat="44.2364" lon="1.76991">
        <ele>239.02</ele>
        <time>2026-05-20T09:47:52Z</time>
      </trkpt>
      <trkpt lat="44.2364" lon="1.7699">
        <ele>239.02</ele>
        <time>2026-05-20T09:47:53Z</time>
      </trkpt>
      <trkpt lat="44.23638" lon="1.7699">
        <ele>239.02</ele>
        <time>2026-05-20T09:47:54Z</time>
      </trkpt>
      <trkpt lat="44.23634" lon="1.76987">
        <ele>238.06</ele>
        <time>2026-05-20T09:47:59Z</time>
      </trkpt>
      <trkpt lat="44.23633" lon="1.76988">
        <ele>238.06</ele>
        <time>2026-05-20T09:48:00Z</time>
      </trkpt>
      <trkpt lat="44.23631" lon="1.76988">
        <ele>238.06</ele>
        <time>2026-05-20T09:48:01Z</time>
      </trkpt>
      <trkpt lat="44.23612" lon="1.76984">
        <ele>236.14</ele>
        <time>2026-05-20T09:48:16Z</time>
      </trkpt>
      <trkpt lat="44.23614" lon="1.76978">
        <ele>235.66</ele>
        <time>2026-05-20T09:48:27Z</time>
      </trkpt>
      <trkpt lat="44.23616" lon="1.76977">
        <ele>235.66</ele>
        <time>2026-05-20T09:48:44Z</time>
      </trkpt>
      <trkpt lat="44.23609" lon="1.76984">
        <ele>235.66</ele>
        <time>2026-05-20T09:49:06Z</time>
      </trkpt>
      <trkpt lat="44.23604" lon="1.76987">
        <ele>235.66</ele>
        <time>2026-05-20T09:49:33Z</time>
      </trkpt>
      <trkpt lat="44.23602" lon="1.76984">
        <ele>235.66</ele>
        <time>2026-05-20T09:49:57Z</time>
      </trkpt>
      <trkpt lat="44.236" lon="1.76983">
        <ele>236.14</ele>
        <time>2026-05-20T09:50:23Z</time>
      </trkpt>
      <trkpt lat="44.23601" lon="1.76987">
        <ele>236.62</ele>
        <time>2026-05-20T09:50:54Z</time>
      </trkpt>
      <trkpt lat="44.23604" lon="1.76983">
        <ele>236.62</ele>
        <time>2026-05-20T09:51:08Z</time>
      </trkpt>
      <trkpt lat="44.23605" lon="1.76978">
        <ele>236.62</ele>
        <time>2026-05-20T09:51:37Z</time>
      </trkpt>
      <trkpt lat="44.23605" lon="1.76973">
        <ele>237.1</ele>
        <time>2026-05-20T09:51:53Z</time>
      </trkpt>
      <trkpt lat="44.23608" lon="1.7697">
        <ele>237.58</ele>
        <time>2026-05-20T09:52:22Z</time>
      </trkpt>
      <trkpt lat="44.23605" lon="1.76966">
        <ele>238.06</ele>
        <time>2026-05-20T09:52:58Z</time>
      </trkpt>
      <trkpt lat="44.23604" lon="1.76964">
        <ele>238.54</ele>
        <time>2026-05-20T09:53:36Z</time>
      </trkpt>
      <trkpt lat="44.23603" lon="1.76955">
        <ele>239.99</ele>
        <time>2026-05-20T09:54:18Z</time>
      </trkpt>
      <trkpt lat="44.23601" lon="1.76962">
        <ele>240.47</ele>
        <time>2026-05-20T09:54:56Z</time>
      </trkpt>
      <trkpt lat="44.23601" lon="1.76958">
        <ele>241.43</ele>
        <time>2026-05-20T09:55:23Z</time>
      </trkpt>
      <trkpt lat="44.23597" lon="1.76962">
        <ele>242.39</ele>
        <time>2026-05-20T09:56:01Z</time>
      </trkpt>
      <trkpt lat="44.23602" lon="1.76962">
        <ele>243.83</ele>
        <time>2026-05-20T09:56:14Z</time>
      </trkpt>
      <trkpt lat="44.23604" lon="1.76962">
        <ele>242.39</ele>
        <time>2026-05-20T09:56:20Z</time>
      </trkpt>
      <trkpt lat="44.23604" lon="1.76962">
        <ele>243.83</ele>
        <time>2026-05-20T09:56:24Z</time>
      </trkpt>
      <trkpt lat="44.23609" lon="1.76956">
        <ele>244.31</ele>
        <time>2026-05-20T09:57:00Z</time>
      </trkpt>
      <trkpt lat="44.23608" lon="1.76956">
        <ele>244.79</ele>
        <time>2026-05-20T09:57:32Z</time>
      </trkpt>
      <trkpt lat="44.23608" lon="1.76958">
        <ele>245.75</ele>
        <time>2026-05-20T09:58:15Z</time>
      </trkpt>
      <trkpt lat="44.23603" lon="1.76957">
        <ele>246.23</ele>
        <time>2026-05-20T09:58:49Z</time>
      </trkpt>
      <trkpt lat="44.23593" lon="1.76954">
        <ele>247.2</ele>
        <time>2026-05-20T09:59:26Z</time>
      </trkpt>
      <trkpt lat="44.23599" lon="1.76957">
        <ele>247.68</ele>
        <time>2026-05-20T09:59:58Z</time>
      </trkpt>
      <trkpt lat="44.23598" lon="1.7696">
        <ele>248.64</ele>
        <time>2026-05-20T10:00:31Z</time>
      </trkpt>
      <trkpt lat="44.23602" lon="1.76957">
        <ele>249.6</ele>
        <time>2026-05-20T10:01:06Z</time>
      </trkpt>
      <trkpt lat="44.23607" lon="1.7696">
        <ele>250.08</ele>
        <time>2026-05-20T10:01:36Z</time>
      </trkpt>
      <trkpt lat="44.23603" lon="1.76956">
        <ele>249.6</ele>
        <time>2026-05-20T10:02:11Z</time>
      </trkpt>
      <trkpt lat="44.23605" lon="1.76962">
        <ele>250.08</ele>
        <time>2026-05-20T10:02:46Z</time>
      </trkpt>
      <trkpt lat="44.23604" lon="1.76955">
        <ele>250.56</ele>
        <time>2026-05-20T10:03:25Z</time>
      </trkpt>
      <trkpt lat="44.23613" lon="1.76963">
        <ele>251.04</ele>
        <time>2026-05-20T10:03:56Z</time>
      </trkpt>
      <trkpt lat="44.23609" lon="1.76958">
        <ele>251.52</ele>
        <time>2026-05-20T10:04:30Z</time>
      </trkpt>
      <trkpt lat="44.23612" lon="1.76963">
        <ele>252</ele>
        <time>2026-05-20T10:05:03Z</time>
      </trkpt>
      <trkpt lat="44.23613" lon="1.76963">
        <ele>252</ele>
        <time>2026-05-20T10:05:33Z</time>
      </trkpt>
      <trkpt lat="44.23614" lon="1.76965">
        <ele>252.48</ele>
        <time>2026-05-20T10:06:00Z</time>
      </trkpt>
      <trkpt lat="44.23614" lon="1.76967">
        <ele>252.48</ele>
        <time>2026-05-20T10:06:39Z</time>
      </trkpt>
      <trkpt lat="44.2361" lon="1.76965">
        <ele>252.48</ele>
        <time>2026-05-20T10:07:15Z</time>
      </trkpt>
      <trkpt lat="44.23602" lon="1.76959">
        <ele>252.48</ele>
        <time>2026-05-20T10:07:48Z</time>
      </trkpt>
      <trkpt lat="44.23596" lon="1.7696">
        <ele>252.48</ele>
        <time>2026-05-20T10:08:33Z</time>
      </trkpt>
      <trkpt lat="44.23601" lon="1.76965">
        <ele>252.48</ele>
        <time>2026-05-20T10:09:07Z</time>
      </trkpt>
      <trkpt lat="44.23598" lon="1.76962">
        <ele>252.48</ele>
        <time>2026-05-20T10:09:31Z</time>
      </trkpt>
      <trkpt lat="44.2361" lon="1.76968">
        <ele>252.48</ele>
        <time>2026-05-20T10:10:04Z</time>
      </trkpt>
      <trkpt lat="44.23613" lon="1.76971">
        <ele>252.48</ele>
        <time>2026-05-20T10:10:40Z</time>
      </trkpt>
      <trkpt lat="44.23616" lon="1.76972">
        <ele>252.48</ele>
        <time>2026-05-20T10:11:21Z</time>
      </trkpt>
      <trkpt lat="44.23612" lon="1.76967">
        <ele>252.48</ele>
        <time>2026-05-20T10:11:49Z</time>
      </trkpt>
      <trkpt lat="44.23611" lon="1.76968">
        <ele>252.48</ele>
        <time>2026-05-20T10:12:22Z</time>
      </trkpt>
      <trkpt lat="44.23609" lon="1.76967">
        <ele>252.48</ele>
        <time>2026-05-20T10:12:54Z</time>
      </trkpt>
      <trkpt lat="44.23616" lon="1.76971">
        <ele>252.48</ele>
        <time>2026-05-20T10:13:35Z</time>
      </trkpt>
      <trkpt lat="44.23607" lon="1.76962">
        <ele>252.48</ele>
        <time>2026-05-20T10:14:19Z</time>
      </trkpt>
      <trkpt lat="44.23607" lon="1.76968">
        <ele>252.48</ele>
        <time>2026-05-20T10:14:54Z</time>
      </trkpt>
      <trkpt lat="44.23602" lon="1.76966">
        <ele>252.96</ele>
        <time>2026-05-20T10:15:17Z</time>
      </trkpt>
      <trkpt lat="44.23607" lon="1.76971">
        <ele>252.48</ele>
        <time>2026-05-20T10:15:53Z</time>
      </trkpt>
      <trkpt lat="44.23607" lon="1.76964">
        <ele>252.48</ele>
        <time>2026-05-20T10:16:20Z</time>
      </trkpt>
      <trkpt lat="44.23607" lon="1.7697">
        <ele>252.48</ele>
        <time>2026-05-20T10:16:53Z</time>
      </trkpt>
      <trkpt lat="44.23608" lon="1.76971">
        <ele>252.48</ele>
        <time>2026-05-20T10:17:34Z</time>
      </trkpt>
      <trkpt lat="44.23615" lon="1.7697">
        <ele>252.48</ele>
        <time>2026-05-20T10:18:12Z</time>
      </trkpt>
      <trkpt lat="44.23614" lon="1.76968">
        <ele>252.48</ele>
        <time>2026-05-20T10:18:50Z</time>
      </trkpt>
      <trkpt lat="44.23613" lon="1.76971">
        <ele>253.44</ele>
        <time>2026-05-20T10:19:26Z</time>
      </trkpt>
      <trkpt lat="44.23612" lon="1.76971">
        <ele>253.44</ele>
        <time>2026-05-20T10:19:58Z</time>
      </trkpt>
      <trkpt lat="44.23612" lon="1.76969">
        <ele>252.96</ele>
        <time>2026-05-20T10:20:34Z</time>
      </trkpt>
      <trkpt lat="44.23618" lon="1.7697">
        <ele>252.96</ele>
        <time>2026-05-20T10:21:09Z</time>
      </trkpt>
      <trkpt lat="44.2362" lon="1.76967">
        <ele>252.96</ele>
        <time>2026-05-20T10:21:44Z</time>
      </trkpt>
      <trkpt lat="44.23619" lon="1.76968">
        <ele>252.48</ele>
        <time>2026-05-20T10:22:09Z</time>
      </trkpt>
      <trkpt lat="44.2362" lon="1.76973">
        <ele>252.48</ele>
        <time>2026-05-20T10:22:54Z</time>
      </trkpt>
      <trkpt lat="44.23615" lon="1.76972">
        <ele>252</ele>
        <time>2026-05-20T10:23:37Z</time>
      </trkpt>
      <trkpt lat="44.23614" lon="1.76972">
        <ele>252</ele>
        <time>2026-05-20T10:24:10Z</time>
      </trkpt>
      <trkpt lat="44.23612" lon="1.76971">
        <ele>251.52</ele>
        <time>2026-05-20T10:24:45Z</time>
      </trkpt>
      <trkpt lat="44.2361" lon="1.76965">
        <ele>251.52</ele>
        <time>2026-05-20T10:25:19Z</time>
      </trkpt>
      <trkpt lat="44.23608" lon="1.76962">
        <ele>251.04</ele>
        <time>2026-05-20T10:25:56Z</time>
      </trkpt>
      <trkpt lat="44.23606" lon="1.76961">
        <ele>251.52</ele>
        <time>2026-05-20T10:26:23Z</time>
      </trkpt>
      <trkpt lat="44.23607" lon="1.76964">
        <ele>251.52</ele>
        <time>2026-05-20T10:27:05Z</time>
      </trkpt>
      <trkpt lat="44.23608" lon="1.76969">
        <ele>251.52</ele>
        <time>2026-05-20T10:27:41Z</time>
      </trkpt>
      <trkpt lat="44.23607" lon="1.76968">
        <ele>250.08</ele>
        <time>2026-05-20T10:28:21Z</time>
      </trkpt>
      <trkpt lat="44.23612" lon="1.76974">
        <ele>250.08</ele>
        <time>2026-05-20T10:29:00Z</time>
      </trkpt>
      <trkpt lat="44.23605" lon="1.76963">
        <ele>250.08</ele>
        <time>2026-05-20T10:29:33Z</time>
      </trkpt>
      <trkpt lat="44.23603" lon="1.76964">
        <ele>250.08</ele>
        <time>2026-05-20T10:30:09Z</time>
      </trkpt>
      <trkpt lat="44.23601" lon="1.76964">
        <ele>250.56</ele>
        <time>2026-05-20T10:30:50Z</time>
      </trkpt>
      <trkpt lat="44.23601" lon="1.76963">
        <ele>251.52</ele>
        <time>2026-05-20T10:30:53Z</time>
      </trkpt>
      <trkpt lat="44.23602" lon="1.7696">
        <ele>251.52</ele>
        <time>2026-05-20T10:31:22Z</time>
      </trkpt>
      <trkpt lat="44.23603" lon="1.76959">
        <ele>252</ele>
        <time>2026-05-20T10:31:57Z</time>
      </trkpt>
      <trkpt lat="44.23604" lon="1.7696">
        <ele>252</ele>
        <time>2026-05-20T10:32:25Z</time>
      </trkpt>
      <trkpt lat="44.23605" lon="1.76962">
        <ele>252.48</ele>
        <time>2026-05-20T10:32:56Z</time>
      </trkpt>
      <trkpt lat="44.23608" lon="1.76964">
        <ele>252.48</ele>
        <time>2026-05-20T10:33:33Z</time>
      </trkpt>
      <trkpt lat="44.23599" lon="1.76959">
        <ele>252.48</ele>
        <time>2026-05-20T10:34:06Z</time>
      </trkpt>
      <trkpt lat="44.23597" lon="1.7696">
        <ele>252.48</ele>
        <time>2026-05-20T10:34:39Z</time>
      </trkpt>
      <trkpt lat="44.23605" lon="1.7696">
        <ele>252.96</ele>
        <time>2026-05-20T10:35:17Z</time>
      </trkpt>
      <trkpt lat="44.23608" lon="1.76964">
        <ele>252.96</ele>
        <time>2026-05-20T10:35:55Z</time>
      </trkpt>
      <trkpt lat="44.23611" lon="1.76972">
        <ele>252.48</ele>
        <time>2026-05-20T10:36:27Z</time>
      </trkpt>
      <trkpt lat="44.23606" lon="1.7697">
        <ele>252.48</ele>
        <time>2026-05-20T10:37:02Z</time>
      </trkpt>
      <trkpt lat="44.23613" lon="1.76971">
        <ele>252.48</ele>
        <time>2026-05-20T10:37:38Z</time>
      </trkpt>
      <trkpt lat="44.23615" lon="1.76973">
        <ele>252</ele>
        <time>2026-05-20T10:38:14Z</time>
      </trkpt>
      <trkpt lat="44.23617" lon="1.76974">
        <ele>252</ele>
        <time>2026-05-20T10:38:49Z</time>
      </trkpt>
      <trkpt lat="44.23611" lon="1.76972">
        <ele>251.52</ele>
        <time>2026-05-20T10:39:15Z</time>
      </trkpt>
      <trkpt lat="44.23611" lon="1.76975">
        <ele>251.04</ele>
        <time>2026-05-20T10:39:43Z</time>
      </trkpt>
      <trkpt lat="44.23611" lon="1.76975">
        <ele>251.52</ele>
        <time>2026-05-20T10:40:15Z</time>
      </trkpt>
      <trkpt lat="44.23619" lon="1.76966">
        <ele>251.04</ele>
        <time>2026-05-20T10:40:40Z</time>
      </trkpt>
      <trkpt lat="44.23616" lon="1.76969">
        <ele>251.04</ele>
        <time>2026-05-20T10:41:04Z</time>
      </trkpt>
      <trkpt lat="44.23614" lon="1.76972">
        <ele>251.04</ele>
        <time>2026-05-20T10:41:29Z</time>
      </trkpt>
      <trkpt lat="44.23621" lon="1.76973">
        <ele>251.04</ele>
        <time>2026-05-20T10:42:01Z</time>
      </trkpt>
      <trkpt lat="44.23611" lon="1.76967">
        <ele>250.56</ele>
        <time>2026-05-20T10:42:40Z</time>
      </trkpt>
      <trkpt lat="44.23607" lon="1.76958">
        <ele>250.56</ele>
        <time>2026-05-20T10:43:19Z</time>
      </trkpt>
      <trkpt lat="44.23616" lon="1.76973">
        <ele>251.04</ele>
        <time>2026-05-20T10:43:47Z</time>
      </trkpt>
      <trkpt lat="44.23616" lon="1.76979">
        <ele>250.08</ele>
        <time>2026-05-20T10:44:03Z</time>
      </trkpt>
      <trkpt lat="44.23616" lon="1.76974">
        <ele>250.08</ele>
        <time>2026-05-20T10:44:50Z</time>
      </trkpt>
      <trkpt lat="44.23618" lon="1.76973">
        <ele>250.08</ele>
        <time>2026-05-20T10:45:07Z</time>
      </trkpt>
      <trkpt lat="44.23626" lon="1.7698">
        <ele>249.6</ele>
        <time>2026-05-20T10:45:43Z</time>
      </trkpt>
      <trkpt lat="44.23618" lon="1.76972">
        <ele>249.12</ele>
        <time>2026-05-20T10:46:15Z</time>
      </trkpt>
      <trkpt lat="44.23618" lon="1.76975">
        <ele>249.12</ele>
        <time>2026-05-20T10:46:52Z</time>
      </trkpt>
      <trkpt lat="44.23616" lon="1.76975">
        <ele>248.64</ele>
        <time>2026-05-20T10:47:19Z</time>
      </trkpt>
      <trkpt lat="44.23605" lon="1.76966">
        <ele>248.64</ele>
        <time>2026-05-20T10:47:54Z</time>
      </trkpt>
      <trkpt lat="44.23599" lon="1.7696">
        <ele>248.64</ele>
        <time>2026-05-20T10:48:20Z</time>
      </trkpt>
      <trkpt lat="44.23601" lon="1.76961">
        <ele>249.12</ele>
        <time>2026-05-20T10:48:50Z</time>
      </trkpt>
      <trkpt lat="44.23604" lon="1.76961">
        <ele>249.12</ele>
        <time>2026-05-20T10:49:15Z</time>
      </trkpt>
      <trkpt lat="44.23602" lon="1.76958">
        <ele>249.12</ele>
        <time>2026-05-20T10:49:31Z</time>
      </trkpt>
      <trkpt lat="44.2361" lon="1.76962">
        <ele>250.56</ele>
        <time>2026-05-20T10:56:43Z</time>
      </trkpt>
      <trkpt lat="44.2361" lon="1.76971">
        <ele>250.56</ele>
        <time>2026-05-20T10:56:57Z</time>
      </trkpt>
      <trkpt lat="44.23614" lon="1.76975">
        <ele>250.56</ele>
        <time>2026-05-20T10:57:10Z</time>
      </trkpt>
      <trkpt lat="44.2361" lon="1.76976">
        <ele>250.56</ele>
        <time>2026-05-20T10:57:23Z</time>
      </trkpt>
      <trkpt lat="44.23608" lon="1.76979">
        <ele>250.56</ele>
        <time>2026-05-20T10:57:45Z</time>
      </trkpt>
      <trkpt lat="44.23597" lon="1.76983">
        <ele>250.56</ele>
        <time>2026-05-20T10:57:58Z</time>
      </trkpt>
      <trkpt lat="44.23593" lon="1.76993">
        <ele>250.56</ele>
        <time>2026-05-20T10:58:11Z</time>
      </trkpt>
      <trkpt lat="44.23581" lon="1.76994">
        <ele>251.04</ele>
        <time>2026-05-20T10:58:32Z</time>
      </trkpt>
      <trkpt lat="44.23587" lon="1.77003">
        <ele>251.04</ele>
        <time>2026-05-20T10:59:04Z</time>
      </trkpt>
      <trkpt lat="44.2359" lon="1.77006">
        <ele>251.04</ele>
        <time>2026-05-20T10:59:20Z</time>
      </trkpt>
      <trkpt lat="44.2359" lon="1.77006">
        <ele>251.52</ele>
        <time>2026-05-20T10:59:40Z</time>
      </trkpt>
      <trkpt lat="44.2359" lon="1.77005">
        <ele>252.96</ele>
        <time>2026-05-20T10:59:55Z</time>
      </trkpt>
      <trkpt lat="44.23589" lon="1.77005">
        <ele>252.96</ele>
        <time>2026-05-20T10:59:56Z</time>
      </trkpt>
      <trkpt lat="44.2357" lon="1.77011">
        <ele>256.81</ele>
        <time>2026-05-20T11:00:13Z</time>
      </trkpt>
      <trkpt lat="44.23554" lon="1.77014">
        <ele>259.69</ele>
        <time>2026-05-20T11:00:31Z</time>
      </trkpt>
      <trkpt lat="44.23553" lon="1.77013">
        <ele>259.69</ele>
        <time>2026-05-20T11:00:32Z</time>
      </trkpt>
      <trkpt lat="44.23552" lon="1.7701">
        <ele>259.69</ele>
        <time>2026-05-20T11:00:34Z</time>
      </trkpt>
      <trkpt lat="44.23551" lon="1.77003">
        <ele>259.69</ele>
        <time>2026-05-20T11:00:38Z</time>
      </trkpt>
      <trkpt lat="44.23549" lon="1.76988">
        <ele>258.25</ele>
        <time>2026-05-20T11:00:49Z</time>
      </trkpt>
      <trkpt lat="44.23544" lon="1.76972">
        <ele>257.29</ele>
        <time>2026-05-20T11:01:04Z</time>
      </trkpt>
      <trkpt lat="44.23531" lon="1.7698">
        <ele>257.29</ele>
        <time>2026-05-20T11:01:14Z</time>
      </trkpt>
      <trkpt lat="44.23527" lon="1.76981">
        <ele>257.29</ele>
        <time>2026-05-20T11:01:18Z</time>
      </trkpt>
      <trkpt lat="44.23526" lon="1.76995">
        <ele>257.29</ele>
        <time>2026-05-20T11:01:26Z</time>
      </trkpt>
      <trkpt lat="44.23512" lon="1.7702">
        <ele>256.33</ele>
        <time>2026-05-20T11:01:43Z</time>
      </trkpt>
      <trkpt lat="44.23487" lon="1.77026">
        <ele>254.41</ele>
        <time>2026-05-20T11:01:58Z</time>
      </trkpt>
      <trkpt lat="44.23479" lon="1.77025">
        <ele>253.44</ele>
        <time>2026-05-20T11:02:02Z</time>
      </trkpt>
      <trkpt lat="44.23475" lon="1.77032">
        <ele>251.52</ele>
        <time>2026-05-20T11:02:16Z</time>
      </trkpt>
      <trkpt lat="44.23482" lon="1.77027">
        <ele>252.96</ele>
        <time>2026-05-20T11:02:24Z</time>
      </trkpt>
      <trkpt lat="44.23485" lon="1.77013">
        <ele>253.44</ele>
        <time>2026-05-20T11:02:37Z</time>
      </trkpt>
      <trkpt lat="44.23495" lon="1.76994">
        <ele>251.04</ele>
        <time>2026-05-20T11:02:56Z</time>
      </trkpt>
      <trkpt lat="44.23492" lon="1.76995">
        <ele>247.68</ele>
        <time>2026-05-20T11:03:06Z</time>
      </trkpt>
      <trkpt lat="44.2349" lon="1.76996">
        <ele>249.6</ele>
        <time>2026-05-20T11:03:08Z</time>
      </trkpt>
      <trkpt lat="44.23473" lon="1.77014">
        <ele>248.16</ele>
        <time>2026-05-20T11:03:24Z</time>
      </trkpt>
      <trkpt lat="44.23467" lon="1.77017">
        <ele>245.27</ele>
        <time>2026-05-20T11:03:32Z</time>
      </trkpt>
      <trkpt lat="44.23466" lon="1.77015">
        <ele>241.91</ele>
        <time>2026-05-20T11:03:44Z</time>
      </trkpt>
      <trkpt lat="44.23462" lon="1.77012">
        <ele>239.99</ele>
        <time>2026-05-20T11:04:04Z</time>
      </trkpt>
      <trkpt lat="44.23459" lon="1.77004">
        <ele>236.14</ele>
        <time>2026-05-20T11:04:17Z</time>
      </trkpt>
      <trkpt lat="44.23454" lon="1.77002">
        <ele>233.74</ele>
        <time>2026-05-20T11:04:25Z</time>
      </trkpt>
      <trkpt lat="44.23449" lon="1.77007">
        <ele>233.26</ele>
        <time>2026-05-20T11:04:32Z</time>
      </trkpt>
      <trkpt lat="44.23438" lon="1.77024">
        <ele>230.37</ele>
        <time>2026-05-20T11:04:49Z</time>
      </trkpt>
      <trkpt lat="44.23428" lon="1.77045">
        <ele>229.41</ele>
        <time>2026-05-20T11:05:02Z</time>
      </trkpt>
      <trkpt lat="44.23423" lon="1.77054">
        <ele>228.45</ele>
        <time>2026-05-20T11:05:07Z</time>
      </trkpt>
      <trkpt lat="44.23417" lon="1.77073">
        <ele>226.53</ele>
        <time>2026-05-20T11:05:21Z</time>
      </trkpt>
      <trkpt lat="44.23416" lon="1.77076">
        <ele>226.05</ele>
        <time>2026-05-20T11:05:23Z</time>
      </trkpt>
      <trkpt lat="44.23411" lon="1.77088">
        <ele>223.16</ele>
        <time>2026-05-20T11:05:37Z</time>
      </trkpt>
      <trkpt lat="44.23414" lon="1.77102">
        <ele>222.2</ele>
        <time>2026-05-20T11:06:00Z</time>
      </trkpt>
      <trkpt lat="44.23403" lon="1.77104">
        <ele>221.72</ele>
        <time>2026-05-20T11:06:07Z</time>
      </trkpt>
      <trkpt lat="44.23397" lon="1.77117">
        <ele>221.72</ele>
        <time>2026-05-20T11:06:20Z</time>
      </trkpt>
      <trkpt lat="44.23384" lon="1.77119">
        <ele>221.72</ele>
        <time>2026-05-20T11:06:33Z</time>
      </trkpt>
      <trkpt lat="44.23378" lon="1.77121">
        <ele>221.72</ele>
        <time>2026-05-20T11:06:37Z</time>
      </trkpt>
      <trkpt lat="44.23366" lon="1.77133">
        <ele>221.24</ele>
        <time>2026-05-20T11:06:50Z</time>
      </trkpt>
      <trkpt lat="44.23347" lon="1.77158">
        <ele>220.28</ele>
        <time>2026-05-20T11:07:05Z</time>
      </trkpt>
      <trkpt lat="44.23352" lon="1.77197">
        <ele>219.32</ele>
        <time>2026-05-20T11:07:24Z</time>
      </trkpt>
      <trkpt lat="44.23351" lon="1.772">
        <ele>219.32</ele>
        <time>2026-05-20T11:07:26Z</time>
      </trkpt>
      <trkpt lat="44.23351" lon="1.77206">
        <ele>218.84</ele>
        <time>2026-05-20T11:07:30Z</time>
      </trkpt>
      <trkpt lat="44.23351" lon="1.77216">
        <ele>218.84</ele>
        <time>2026-05-20T11:07:35Z</time>
      </trkpt>
      <trkpt lat="44.23352" lon="1.77223">
        <ele>218.84</ele>
        <time>2026-05-20T11:07:40Z</time>
      </trkpt>
      <trkpt lat="44.23351" lon="1.7725">
        <ele>218.84</ele>
        <time>2026-05-20T11:07:54Z</time>
      </trkpt>
      <trkpt lat="44.23353" lon="1.77277">
        <ele>218.36</ele>
        <time>2026-05-20T11:08:09Z</time>
      </trkpt>
      <trkpt lat="44.2335" lon="1.773">
        <ele>217.88</ele>
        <time>2026-05-20T11:08:22Z</time>
      </trkpt>
      <trkpt lat="44.23348" lon="1.77318">
        <ele>217.88</ele>
        <time>2026-05-20T11:08:33Z</time>
      </trkpt>
      <trkpt lat="44.23342" lon="1.77327">
        <ele>217.88</ele>
        <time>2026-05-20T11:08:38Z</time>
      </trkpt>
      <trkpt lat="44.23329" lon="1.77343">
        <ele>217.88</ele>
        <time>2026-05-20T11:08:48Z</time>
      </trkpt>
      <trkpt lat="44.23326" lon="1.7737">
        <ele>217.4</ele>
        <time>2026-05-20T11:09:03Z</time>
      </trkpt>
      <trkpt lat="44.23318" lon="1.77392">
        <ele>216.43</ele>
        <time>2026-05-20T11:09:16Z</time>
      </trkpt>
      <trkpt lat="44.23307" lon="1.77417">
        <ele>215.95</ele>
        <time>2026-05-20T11:09:31Z</time>
      </trkpt>
      <trkpt lat="44.23309" lon="1.77444">
        <ele>215.47</ele>
        <time>2026-05-20T11:09:47Z</time>
      </trkpt>
      <trkpt lat="44.23307" lon="1.77458">
        <ele>215.47</ele>
        <time>2026-05-20T11:09:55Z</time>
      </trkpt>
      <trkpt lat="44.23304" lon="1.77487">
        <ele>214.99</ele>
        <time>2026-05-20T11:10:10Z</time>
      </trkpt>
      <trkpt lat="44.23301" lon="1.77503">
        <ele>214.51</ele>
        <time>2026-05-20T11:10:18Z</time>
      </trkpt>
      <trkpt lat="44.23289" lon="1.77526">
        <ele>214.51</ele>
        <time>2026-05-20T11:10:33Z</time>
      </trkpt>
      <trkpt lat="44.23282" lon="1.77534">
        <ele>215.47</ele>
        <time>2026-05-20T11:10:43Z</time>
      </trkpt>
      <trkpt lat="44.23272" lon="1.77546">
        <ele>218.36</ele>
        <time>2026-05-20T11:10:58Z</time>
      </trkpt>
      <trkpt lat="44.23267" lon="1.77561">
        <ele>220.76</ele>
        <time>2026-05-20T11:11:15Z</time>
      </trkpt>
      <trkpt lat="44.23257" lon="1.77575">
        <ele>222.68</ele>
        <time>2026-05-20T11:11:31Z</time>
      </trkpt>
      <trkpt lat="44.23253" lon="1.77589">
        <ele>225.09</ele>
        <time>2026-05-20T11:11:47Z</time>
      </trkpt>
      <trkpt lat="44.23236" lon="1.77606">
        <ele>227.97</ele>
        <time>2026-05-20T11:12:04Z</time>
      </trkpt>
      <trkpt lat="44.23222" lon="1.77617">
        <ele>229.89</ele>
        <time>2026-05-20T11:12:21Z</time>
      </trkpt>
      <trkpt lat="44.23206" lon="1.77623">
        <ele>231.81</ele>
        <time>2026-05-20T11:12:40Z</time>
      </trkpt>
      <trkpt lat="44.23191" lon="1.77635">
        <ele>233.74</ele>
        <time>2026-05-20T11:12:57Z</time>
      </trkpt>
      <trkpt lat="44.23178" lon="1.77653">
        <ele>235.18</ele>
        <time>2026-05-20T11:13:14Z</time>
      </trkpt>
      <trkpt lat="44.23167" lon="1.77674">
        <ele>235.66</ele>
        <time>2026-05-20T11:13:31Z</time>
      </trkpt>
      <trkpt lat="44.23161" lon="1.77685">
        <ele>236.62</ele>
        <time>2026-05-20T11:13:43Z</time>
      </trkpt>
      <trkpt lat="44.23155" lon="1.77693">
        <ele>236.14</ele>
        <time>2026-05-20T11:13:50Z</time>
      </trkpt>
      <trkpt lat="44.2314" lon="1.77709">
        <ele>236.62</ele>
        <time>2026-05-20T11:14:01Z</time>
      </trkpt>
      <trkpt lat="44.23137" lon="1.77717">
        <ele>237.1</ele>
        <time>2026-05-20T11:14:05Z</time>
      </trkpt>
      <trkpt lat="44.23132" lon="1.77723">
        <ele>237.1</ele>
        <time>2026-05-20T11:14:10Z</time>
      </trkpt>
      <trkpt lat="44.23128" lon="1.7773">
        <ele>237.1</ele>
        <time>2026-05-20T11:14:16Z</time>
      </trkpt>
      <trkpt lat="44.23119" lon="1.77741">
        <ele>237.1</ele>
        <time>2026-05-20T11:14:30Z</time>
      </trkpt>
      <trkpt lat="44.23117" lon="1.77745">
        <ele>237.1</ele>
        <time>2026-05-20T11:14:37Z</time>
      </trkpt>
      <trkpt lat="44.23104" lon="1.77766">
        <ele>235.18</ele>
        <time>2026-05-20T11:14:54Z</time>
      </trkpt>
      <trkpt lat="44.23102" lon="1.77767">
        <ele>235.18</ele>
        <time>2026-05-20T11:14:55Z</time>
      </trkpt>
      <trkpt lat="44.23091" lon="1.7778">
        <ele>234.22</ele>
        <time>2026-05-20T11:15:08Z</time>
      </trkpt>
      <trkpt lat="44.23088" lon="1.77782">
        <ele>234.22</ele>
        <time>2026-05-20T11:15:14Z</time>
      </trkpt>
      <trkpt lat="44.23082" lon="1.77784">
        <ele>235.66</ele>
        <time>2026-05-20T11:15:24Z</time>
      </trkpt>
      <trkpt lat="44.23066" lon="1.77787">
        <ele>238.06</ele>
        <time>2026-05-20T11:15:41Z</time>
      </trkpt>
      <trkpt lat="44.23049" lon="1.77787">
        <ele>238.06</ele>
        <time>2026-05-20T11:15:59Z</time>
      </trkpt>
      <trkpt lat="44.23024" lon="1.77788">
        <ele>238.06</ele>
        <time>2026-05-20T11:16:17Z</time>
      </trkpt>
      <trkpt lat="44.23" lon="1.77786">
        <ele>236.62</ele>
        <time>2026-05-20T11:16:33Z</time>
      </trkpt>
      <trkpt lat="44.22979" lon="1.77787">
        <ele>234.7</ele>
        <time>2026-05-20T11:16:49Z</time>
      </trkpt>
      <trkpt lat="44.2296" lon="1.77783">
        <ele>233.74</ele>
        <time>2026-05-20T11:17:04Z</time>
      </trkpt>
      <trkpt lat="44.2294" lon="1.77779">
        <ele>233.74</ele>
        <time>2026-05-20T11:17:19Z</time>
      </trkpt>
      <trkpt lat="44.22918" lon="1.7777">
        <ele>233.26</ele>
        <time>2026-05-20T11:17:38Z</time>
      </trkpt>
      <trkpt lat="44.22918" lon="1.7777">
        <ele>233.26</ele>
        <time>2026-05-20T11:17:39Z</time>
      </trkpt>
      <trkpt lat="44.22906" lon="1.77763">
        <ele>235.18</ele>
        <time>2026-05-20T11:17:50Z</time>
      </trkpt>
      <trkpt lat="44.2289" lon="1.77752">
        <ele>235.18</ele>
        <time>2026-05-20T11:18:03Z</time>
      </trkpt>
      <trkpt lat="44.22879" lon="1.77751">
        <ele>233.74</ele>
        <time>2026-05-20T11:18:11Z</time>
      </trkpt>
      <trkpt lat="44.22854" lon="1.77755">
        <ele>230.85</ele>
        <time>2026-05-20T11:18:26Z</time>
      </trkpt>
      <trkpt lat="44.22834" lon="1.77758">
        <ele>229.89</ele>
        <time>2026-05-20T11:18:44Z</time>
      </trkpt>
      <trkpt lat="44.22832" lon="1.77755">
        <ele>229.89</ele>
        <time>2026-05-20T11:18:47Z</time>
      </trkpt>
      <trkpt lat="44.22827" lon="1.77744">
        <ele>231.81</ele>
        <time>2026-05-20T11:18:59Z</time>
      </trkpt>
      <trkpt lat="44.22823" lon="1.77733">
        <ele>232.3</ele>
        <time>2026-05-20T11:19:07Z</time>
      </trkpt>
      <trkpt lat="44.22816" lon="1.77718">
        <ele>234.7</ele>
        <time>2026-05-20T11:19:21Z</time>
      </trkpt>
      <trkpt lat="44.22807" lon="1.77704">
        <ele>237.1</ele>
        <time>2026-05-20T11:19:37Z</time>
      </trkpt>
      <trkpt lat="44.22801" lon="1.77694">
        <ele>238.54</ele>
        <time>2026-05-20T11:19:49Z</time>
      </trkpt>
      <trkpt lat="44.22785" lon="1.77688">
        <ele>239.51</ele>
        <time>2026-05-20T11:20:06Z</time>
      </trkpt>
      <trkpt lat="44.22778" lon="1.77687">
        <ele>238.54</ele>
        <time>2026-05-20T11:20:12Z</time>
      </trkpt>
      <trkpt lat="44.22772" lon="1.77685">
        <ele>238.06</ele>
        <time>2026-05-20T11:20:18Z</time>
      </trkpt>
      <trkpt lat="44.2275" lon="1.77671">
        <ele>236.62</ele>
        <time>2026-05-20T11:20:35Z</time>
      </trkpt>
      <trkpt lat="44.22737" lon="1.77657">
        <ele>236.62</ele>
        <time>2026-05-20T11:20:47Z</time>
      </trkpt>
      <trkpt lat="44.22732" lon="1.77652">
        <ele>236.62</ele>
        <time>2026-05-20T11:20:51Z</time>
      </trkpt>
      <trkpt lat="44.22718" lon="1.77633">
        <ele>236.62</ele>
        <time>2026-05-20T11:21:06Z</time>
      </trkpt>
      <trkpt lat="44.22715" lon="1.7763">
        <ele>236.62</ele>
        <time>2026-05-20T11:21:10Z</time>
      </trkpt>
      <trkpt lat="44.22713" lon="1.77627">
        <ele>236.62</ele>
        <time>2026-05-20T11:21:12Z</time>
      </trkpt>
      <trkpt lat="44.22699" lon="1.77613">
        <ele>237.58</ele>
        <time>2026-05-20T11:21:28Z</time>
      </trkpt>
      <trkpt lat="44.22687" lon="1.77599">
        <ele>239.51</ele>
        <time>2026-05-20T11:21:42Z</time>
      </trkpt>
      <trkpt lat="44.22685" lon="1.77594">
        <ele>239.51</ele>
        <time>2026-05-20T11:21:46Z</time>
      </trkpt>
      <trkpt lat="44.22676" lon="1.77584">
        <ele>240.47</ele>
        <time>2026-05-20T11:22:00Z</time>
      </trkpt>
      <trkpt lat="44.22672" lon="1.77576">
        <ele>241.91</ele>
        <time>2026-05-20T11:22:09Z</time>
      </trkpt>
      <trkpt lat="44.22664" lon="1.77567">
        <ele>243.83</ele>
        <time>2026-05-20T11:22:22Z</time>
      </trkpt>
      <trkpt lat="44.22657" lon="1.7755">
        <ele>246.72</ele>
        <time>2026-05-20T11:22:36Z</time>
      </trkpt>
      <trkpt lat="44.22649" lon="1.77533">
        <ele>249.12</ele>
        <time>2026-05-20T11:22:54Z</time>
      </trkpt>
      <trkpt lat="44.22644" lon="1.77516">
        <ele>250.56</ele>
        <time>2026-05-20T11:23:09Z</time>
      </trkpt>
      <trkpt lat="44.22642" lon="1.77498">
        <ele>252.48</ele>
        <time>2026-05-20T11:23:22Z</time>
      </trkpt>
      <trkpt lat="44.22638" lon="1.77486">
        <ele>253.44</ele>
        <time>2026-05-20T11:23:30Z</time>
      </trkpt>
      <trkpt lat="44.22635" lon="1.77478">
        <ele>253.93</ele>
        <time>2026-05-20T11:23:37Z</time>
      </trkpt>
      <trkpt lat="44.22623" lon="1.7746">
        <ele>254.89</ele>
        <time>2026-05-20T11:23:54Z</time>
      </trkpt>
      <trkpt lat="44.22619" lon="1.77447">
        <ele>256.81</ele>
        <time>2026-05-20T11:24:09Z</time>
      </trkpt>
      <trkpt lat="44.22617" lon="1.77437">
        <ele>258.73</ele>
        <time>2026-05-20T11:24:21Z</time>
      </trkpt>
      <trkpt lat="44.22615" lon="1.77424">
        <ele>261.14</ele>
        <time>2026-05-20T11:24:34Z</time>
      </trkpt>
      <trkpt lat="44.22613" lon="1.77409">
        <ele>264.02</ele>
        <time>2026-05-20T11:24:50Z</time>
      </trkpt>
      <trkpt lat="44.22608" lon="1.77395">
        <ele>266.42</ele>
        <time>2026-05-20T11:25:05Z</time>
      </trkpt>
      <trkpt lat="44.22605" lon="1.77372">
        <ele>268.35</ele>
        <time>2026-05-20T11:25:19Z</time>
      </trkpt>
      <trkpt lat="44.22603" lon="1.77357">
        <ele>271.23</ele>
        <time>2026-05-20T11:25:33Z</time>
      </trkpt>
      <trkpt lat="44.22601" lon="1.77343">
        <ele>272.67</ele>
        <time>2026-05-20T11:25:45Z</time>
      </trkpt>
      <trkpt lat="44.22601" lon="1.77331">
        <ele>274.59</ele>
        <time>2026-05-20T11:25:57Z</time>
      </trkpt>
      <trkpt lat="44.22599" lon="1.77326">
        <ele>274.59</ele>
        <time>2026-05-20T11:26:16Z</time>
      </trkpt>
      <trkpt lat="44.22594" lon="1.77308">
        <ele>274.59</ele>
        <time>2026-05-20T11:26:32Z</time>
      </trkpt>
      <trkpt lat="44.22587" lon="1.77288">
        <ele>274.59</ele>
        <time>2026-05-20T11:26:45Z</time>
      </trkpt>
      <trkpt lat="44.22584" lon="1.77281">
        <ele>273.15</ele>
        <time>2026-05-20T11:26:50Z</time>
      </trkpt>
      <trkpt lat="44.2258" lon="1.77257">
        <ele>272.67</ele>
        <time>2026-05-20T11:27:05Z</time>
      </trkpt>
      <trkpt lat="44.22577" lon="1.77237">
        <ele>272.67</ele>
        <time>2026-05-20T11:27:16Z</time>
      </trkpt>
      <trkpt lat="44.22576" lon="1.77203">
        <ele>272.19</ele>
        <time>2026-05-20T11:27:32Z</time>
      </trkpt>
      <trkpt lat="44.22575" lon="1.77201">
        <ele>272.19</ele>
        <time>2026-05-20T11:27:34Z</time>
      </trkpt>
      <trkpt lat="44.22575" lon="1.77186">
        <ele>273.15</ele>
        <time>2026-05-20T11:27:43Z</time>
      </trkpt>
      <trkpt lat="44.2257" lon="1.77164">
        <ele>273.15</ele>
        <time>2026-05-20T11:27:58Z</time>
      </trkpt>
      <trkpt lat="44.22568" lon="1.77149">
        <ele>273.63</ele>
        <time>2026-05-20T11:28:10Z</time>
      </trkpt>
      <trkpt lat="44.22567" lon="1.77137">
        <ele>273.63</ele>
        <time>2026-05-20T11:28:18Z</time>
      </trkpt>
      <trkpt lat="44.22562" lon="1.77106">
        <ele>273.15</ele>
        <time>2026-05-20T11:28:36Z</time>
      </trkpt>
      <trkpt lat="44.22562" lon="1.77084">
        <ele>274.59</ele>
        <time>2026-05-20T11:28:50Z</time>
      </trkpt>
      <trkpt lat="44.22563" lon="1.77067">
        <ele>276.04</ele>
        <time>2026-05-20T11:29:01Z</time>
      </trkpt>
      <trkpt lat="44.22562" lon="1.7706">
        <ele>276.04</ele>
        <time>2026-05-20T11:29:06Z</time>
      </trkpt>
      <trkpt lat="44.22565" lon="1.77038">
        <ele>277.48</ele>
        <time>2026-05-20T11:29:21Z</time>
      </trkpt>
      <trkpt lat="44.22565" lon="1.77035">
        <ele>277</ele>
        <time>2026-05-20T11:29:24Z</time>
      </trkpt>
      <trkpt lat="44.22565" lon="1.77015">
        <ele>279.88</ele>
        <time>2026-05-20T11:29:38Z</time>
      </trkpt>
      <trkpt lat="44.22565" lon="1.77002">
        <ele>280.84</ele>
        <time>2026-05-20T11:29:50Z</time>
      </trkpt>
      <trkpt lat="44.22567" lon="1.7699">
        <ele>280.84</ele>
        <time>2026-05-20T11:29:58Z</time>
      </trkpt>
      <trkpt lat="44.22567" lon="1.76985">
        <ele>280.84</ele>
        <time>2026-05-20T11:30:01Z</time>
      </trkpt>
      <trkpt lat="44.22567" lon="1.76974">
        <ele>281.32</ele>
        <time>2026-05-20T11:30:08Z</time>
      </trkpt>
      <trkpt lat="44.2257" lon="1.76952">
        <ele>283.25</ele>
        <time>2026-05-20T11:30:23Z</time>
      </trkpt>
      <trkpt lat="44.22575" lon="1.76943">
        <ele>283.25</ele>
        <time>2026-05-20T11:30:42Z</time>
      </trkpt>
      <trkpt lat="44.22575" lon="1.7693">
        <ele>282.77</ele>
        <time>2026-05-20T11:31:01Z</time>
      </trkpt>
      <trkpt lat="44.22573" lon="1.7692">
        <ele>281.32</ele>
        <time>2026-05-20T11:31:09Z</time>
      </trkpt>
      <trkpt lat="44.22569" lon="1.76915">
        <ele>280.36</ele>
        <time>2026-05-20T11:31:26Z</time>
      </trkpt>
      <trkpt lat="44.22571" lon="1.76906">
        <ele>279.88</ele>
        <time>2026-05-20T11:31:40Z</time>
      </trkpt>
      <trkpt lat="44.22569" lon="1.76877">
        <ele>279.4</ele>
        <time>2026-05-20T11:31:55Z</time>
      </trkpt>
      <trkpt lat="44.22575" lon="1.76855">
        <ele>281.32</ele>
        <time>2026-05-20T11:32:12Z</time>
      </trkpt>
      <trkpt lat="44.22582" lon="1.76832">
        <ele>282.77</ele>
        <time>2026-05-20T11:32:29Z</time>
      </trkpt>
      <trkpt lat="44.22584" lon="1.7681">
        <ele>284.69</ele>
        <time>2026-05-20T11:32:46Z</time>
      </trkpt>
      <trkpt lat="44.22578" lon="1.76812">
        <ele>284.69</ele>
        <time>2026-05-20T11:32:59Z</time>
      </trkpt>
      <trkpt lat="44.22569" lon="1.7682">
        <ele>283.73</ele>
        <time>2026-05-20T11:33:07Z</time>
      </trkpt>
      <trkpt lat="44.22563" lon="1.76829">
        <ele>282.77</ele>
        <time>2026-05-20T11:33:17Z</time>
      </trkpt>
      <trkpt lat="44.22551" lon="1.76842">
        <ele>282.77</ele>
        <time>2026-05-20T11:33:31Z</time>
      </trkpt>
      <trkpt lat="44.22533" lon="1.76855">
        <ele>284.69</ele>
        <time>2026-05-20T11:33:47Z</time>
      </trkpt>
      <trkpt lat="44.22523" lon="1.76867">
        <ele>286.61</ele>
        <time>2026-05-20T11:34:01Z</time>
      </trkpt>
      <trkpt lat="44.22514" lon="1.76876">
        <ele>288.53</ele>
        <time>2026-05-20T11:34:16Z</time>
      </trkpt>
      <trkpt lat="44.22512" lon="1.7688">
        <ele>289.01</ele>
        <time>2026-05-20T11:34:21Z</time>
      </trkpt>
      <trkpt lat="44.22504" lon="1.76885">
        <ele>290.46</ele>
        <time>2026-05-20T11:34:29Z</time>
      </trkpt>
      <trkpt lat="44.22497" lon="1.76891">
        <ele>290.46</ele>
        <time>2026-05-20T11:34:34Z</time>
      </trkpt>
      <trkpt lat="44.22482" lon="1.76902">
        <ele>290.94</ele>
        <time>2026-05-20T11:34:48Z</time>
      </trkpt>
      <trkpt lat="44.22475" lon="1.76908">
        <ele>291.42</ele>
        <time>2026-05-20T11:34:56Z</time>
      </trkpt>
      <trkpt lat="44.22464" lon="1.76931">
        <ele>293.34</ele>
        <time>2026-05-20T11:35:12Z</time>
      </trkpt>
      <trkpt lat="44.22453" lon="1.76941">
        <ele>295.26</ele>
        <time>2026-05-20T11:35:27Z</time>
      </trkpt>
      <trkpt lat="44.22441" lon="1.76951">
        <ele>297.18</ele>
        <time>2026-05-20T11:35:40Z</time>
      </trkpt>
      <trkpt lat="44.22438" lon="1.76953">
        <ele>297.67</ele>
        <time>2026-05-20T11:35:43Z</time>
      </trkpt>
      <trkpt lat="44.22436" lon="1.76954">
        <ele>297.67</ele>
        <time>2026-05-20T11:35:45Z</time>
      </trkpt>
      <trkpt lat="44.22431" lon="1.76959">
        <ele>298.15</ele>
        <time>2026-05-20T11:35:51Z</time>
      </trkpt>
      <trkpt lat="44.22419" lon="1.76969">
        <ele>300.55</ele>
        <time>2026-05-20T11:36:07Z</time>
      </trkpt>
      <trkpt lat="44.2241" lon="1.76978">
        <ele>302.47</ele>
        <time>2026-05-20T11:36:22Z</time>
      </trkpt>
      <trkpt lat="44.22398" lon="1.76989">
        <ele>303.91</ele>
        <time>2026-05-20T11:36:35Z</time>
      </trkpt>
      <trkpt lat="44.22379" lon="1.77">
        <ele>305.36</ele>
        <time>2026-05-20T11:36:52Z</time>
      </trkpt>
      <trkpt lat="44.22364" lon="1.77007">
        <ele>307.28</ele>
        <time>2026-05-20T11:37:08Z</time>
      </trkpt>
      <trkpt lat="44.22354" lon="1.77011">
        <ele>308.24</ele>
        <time>2026-05-20T11:37:21Z</time>
      </trkpt>
      <trkpt lat="44.22339" lon="1.77017">
        <ele>310.16</ele>
        <time>2026-05-20T11:37:36Z</time>
      </trkpt>
      <trkpt lat="44.22336" lon="1.77018">
        <ele>310.16</ele>
        <time>2026-05-20T11:37:39Z</time>
      </trkpt>
      <trkpt lat="44.22333" lon="1.7702">
        <ele>310.64</ele>
        <time>2026-05-20T11:37:42Z</time>
      </trkpt>
      <trkpt lat="44.22328" lon="1.77023">
        <ele>310.64</ele>
        <time>2026-05-20T11:37:47Z</time>
      </trkpt>
      <trkpt lat="44.22325" lon="1.77026">
        <ele>311.12</ele>
        <time>2026-05-20T11:37:50Z</time>
      </trkpt>
      <trkpt lat="44.22306" lon="1.77037">
        <ele>312.57</ele>
        <time>2026-05-20T11:38:06Z</time>
      </trkpt>
      <trkpt lat="44.22296" lon="1.77047">
        <ele>313.05</ele>
        <time>2026-05-20T11:38:15Z</time>
      </trkpt>
      <trkpt lat="44.22277" lon="1.77064">
        <ele>313.53</ele>
        <time>2026-05-20T11:38:32Z</time>
      </trkpt>
      <trkpt lat="44.22263" lon="1.77077">
        <ele>314.49</ele>
        <time>2026-05-20T11:38:46Z</time>
      </trkpt>
      <trkpt lat="44.22259" lon="1.77083">
        <ele>314.97</ele>
        <time>2026-05-20T11:38:50Z</time>
      </trkpt>
      <trkpt lat="44.22249" lon="1.77095">
        <ele>314.97</ele>
        <time>2026-05-20T11:39:03Z</time>
      </trkpt>
      <trkpt lat="44.2224" lon="1.77101">
        <ele>315.93</ele>
        <time>2026-05-20T11:39:18Z</time>
      </trkpt>
      <trkpt lat="44.22239" lon="1.77109">
        <ele>315.93</ele>
        <time>2026-05-20T11:39:40Z</time>
      </trkpt>
      <trkpt lat="44.22235" lon="1.77115">
        <ele>315.93</ele>
        <time>2026-05-20T11:39:45Z</time>
      </trkpt>
      <trkpt lat="44.22219" lon="1.77132">
        <ele>316.41</ele>
        <time>2026-05-20T11:39:59Z</time>
      </trkpt>
      <trkpt lat="44.22213" lon="1.77137">
        <ele>316.41</ele>
        <time>2026-05-20T11:40:05Z</time>
      </trkpt>
      <trkpt lat="44.22197" lon="1.77158">
        <ele>316.41</ele>
        <time>2026-05-20T11:40:21Z</time>
      </trkpt>
      <trkpt lat="44.2219" lon="1.77169">
        <ele>314.49</ele>
        <time>2026-05-20T11:40:34Z</time>
      </trkpt>
      <trkpt lat="44.22186" lon="1.77177">
        <ele>314.01</ele>
        <time>2026-05-20T11:40:43Z</time>
      </trkpt>
      <trkpt lat="44.22176" lon="1.7719">
        <ele>313.53</ele>
        <time>2026-05-20T11:40:53Z</time>
      </trkpt>
      <trkpt lat="44.22169" lon="1.77197">
        <ele>312.57</ele>
        <time>2026-05-20T11:40:59Z</time>
      </trkpt>
      <trkpt lat="44.22158" lon="1.77216">
        <ele>310.64</ele>
        <time>2026-05-20T11:41:14Z</time>
      </trkpt>
      <trkpt lat="44.22146" lon="1.77233">
        <ele>308.24</ele>
        <time>2026-05-20T11:41:28Z</time>
      </trkpt>
      <trkpt lat="44.2213" lon="1.77239">
        <ele>305.84</ele>
        <time>2026-05-20T11:41:43Z</time>
      </trkpt>
      <trkpt lat="44.22113" lon="1.77245">
        <ele>304.88</ele>
        <time>2026-05-20T11:42:00Z</time>
      </trkpt>
      <trkpt lat="44.22095" lon="1.77251">
        <ele>304.88</ele>
        <time>2026-05-20T11:42:16Z</time>
      </trkpt>
      <trkpt lat="44.22089" lon="1.77254">
        <ele>304.88</ele>
        <time>2026-05-20T11:42:23Z</time>
      </trkpt>
      <trkpt lat="44.22084" lon="1.77256">
        <ele>305.84</ele>
        <time>2026-05-20T11:42:29Z</time>
      </trkpt>
      <trkpt lat="44.22079" lon="1.77261">
        <ele>307.28</ele>
        <time>2026-05-20T11:42:37Z</time>
      </trkpt>
      <trkpt lat="44.22075" lon="1.77267">
        <ele>307.76</ele>
        <time>2026-05-20T11:42:41Z</time>
      </trkpt>
      <trkpt lat="44.2208" lon="1.77277">
        <ele>307.76</ele>
        <time>2026-05-20T11:42:46Z</time>
      </trkpt>
      <trkpt lat="44.22087" lon="1.77283">
        <ele>307.76</ele>
        <time>2026-05-20T11:42:58Z</time>
      </trkpt>
      <trkpt lat="44.22084" lon="1.77283">
        <ele>307.28</ele>
        <time>2026-05-20T11:43:16Z</time>
      </trkpt>
      <trkpt lat="44.22088" lon="1.77283">
        <ele>308.24</ele>
        <time>2026-05-20T11:43:29Z</time>
      </trkpt>
      <trkpt lat="44.22087" lon="1.77282">
        <ele>307.76</ele>
        <time>2026-05-20T11:43:42Z</time>
      </trkpt>
      <trkpt lat="44.22072" lon="1.77271">
        <ele>307.76</ele>
        <time>2026-05-20T11:43:57Z</time>
      </trkpt>
      <trkpt lat="44.22067" lon="1.77266">
        <ele>307.76</ele>
        <time>2026-05-20T11:44:02Z</time>
      </trkpt>
      <trkpt lat="44.22064" lon="1.77262">
        <ele>307.76</ele>
        <time>2026-05-20T11:44:06Z</time>
      </trkpt>
      <trkpt lat="44.22055" lon="1.77255">
        <ele>307.76</ele>
        <time>2026-05-20T11:44:17Z</time>
      </trkpt>
      <trkpt lat="44.22036" lon="1.77251">
        <ele>308.24</ele>
        <time>2026-05-20T11:44:35Z</time>
      </trkpt>
      <trkpt lat="44.22035" lon="1.77251">
        <ele>308.24</ele>
        <time>2026-05-20T11:44:36Z</time>
      </trkpt>
      <trkpt lat="44.22021" lon="1.77252">
        <ele>308.24</ele>
        <time>2026-05-20T11:44:47Z</time>
      </trkpt>
      <trkpt lat="44.22009" lon="1.77249">
        <ele>308.24</ele>
        <time>2026-05-20T11:44:59Z</time>
      </trkpt>
      <trkpt lat="44.22009" lon="1.77241">
        <ele>308.72</ele>
        <time>2026-05-20T11:45:04Z</time>
      </trkpt>
      <trkpt lat="44.22011" lon="1.77232">
        <ele>309.68</ele>
        <time>2026-05-20T11:45:13Z</time>
      </trkpt>
      <trkpt lat="44.22014" lon="1.77227">
        <ele>309.68</ele>
        <time>2026-05-20T11:45:17Z</time>
      </trkpt>
      <trkpt lat="44.22018" lon="1.77221">
        <ele>309.68</ele>
        <time>2026-05-20T11:45:24Z</time>
      </trkpt>
      <trkpt lat="44.22025" lon="1.77201">
        <ele>310.64</ele>
        <time>2026-05-20T11:45:39Z</time>
      </trkpt>
      <trkpt lat="44.22027" lon="1.77194">
        <ele>310.64</ele>
        <time>2026-05-20T11:45:43Z</time>
      </trkpt>
      <trkpt lat="44.22027" lon="1.77184">
        <ele>311.12</ele>
        <time>2026-05-20T11:45:51Z</time>
      </trkpt>
      <trkpt lat="44.22021" lon="1.77168">
        <ele>311.6</ele>
        <time>2026-05-20T11:46:02Z</time>
      </trkpt>
      <trkpt lat="44.22004" lon="1.77146">
        <ele>310.16</ele>
        <time>2026-05-20T11:46:19Z</time>
      </trkpt>
      <trkpt lat="44.21999" lon="1.77143">
        <ele>309.68</ele>
        <time>2026-05-20T11:46:24Z</time>
      </trkpt>
      <trkpt lat="44.21975" lon="1.77135">
        <ele>309.2</ele>
        <time>2026-05-20T11:46:41Z</time>
      </trkpt>
      <trkpt lat="44.21974" lon="1.77135">
        <ele>308.72</ele>
        <time>2026-05-20T11:46:52Z</time>
      </trkpt>
      <trkpt lat="44.21973" lon="1.77133">
        <ele>310.64</ele>
        <time>2026-05-20T11:47:16Z</time>
      </trkpt>
      <trkpt lat="44.21972" lon="1.77132">
        <ele>309.2</ele>
        <time>2026-05-20T11:47:18Z</time>
      </trkpt>
      <trkpt lat="44.21972" lon="1.77131">
        <ele>309.2</ele>
        <time>2026-05-20T11:47:20Z</time>
      </trkpt>
      <trkpt lat="44.21956" lon="1.77117">
        <ele>308.72</ele>
        <time>2026-05-20T11:47:37Z</time>
      </trkpt>
      <trkpt lat="44.21944" lon="1.77096">
        <ele>308.72</ele>
        <time>2026-05-20T11:47:52Z</time>
      </trkpt>
      <trkpt lat="44.21929" lon="1.77071">
        <ele>310.16</ele>
        <time>2026-05-20T11:48:09Z</time>
      </trkpt>
      <trkpt lat="44.21918" lon="1.77051">
        <ele>311.12</ele>
        <time>2026-05-20T11:48:26Z</time>
      </trkpt>
      <trkpt lat="44.21914" lon="1.77043">
        <ele>311.6</ele>
        <time>2026-05-20T11:48:32Z</time>
      </trkpt>
      <trkpt lat="44.21901" lon="1.77022">
        <ele>313.53</ele>
        <time>2026-05-20T11:48:48Z</time>
      </trkpt>
      <trkpt lat="44.2189" lon="1.77005">
        <ele>314.01</ele>
        <time>2026-05-20T11:49:02Z</time>
      </trkpt>
      <trkpt lat="44.2188" lon="1.76985">
        <ele>314.97</ele>
        <time>2026-05-20T11:49:18Z</time>
      </trkpt>
      <trkpt lat="44.21872" lon="1.76967">
        <ele>315.93</ele>
        <time>2026-05-20T11:49:32Z</time>
      </trkpt>
      <trkpt lat="44.21865" lon="1.7695">
        <ele>316.89</ele>
        <time>2026-05-20T11:49:45Z</time>
      </trkpt>
      <trkpt lat="44.21857" lon="1.76926">
        <ele>318.81</ele>
        <time>2026-05-20T11:50:01Z</time>
      </trkpt>
      <trkpt lat="44.2185" lon="1.76913">
        <ele>319.78</ele>
        <time>2026-05-20T11:50:13Z</time>
      </trkpt>
      <trkpt lat="44.21845" lon="1.76909">
        <ele>319.78</ele>
        <time>2026-05-20T11:50:23Z</time>
      </trkpt>
      <trkpt lat="44.21844" lon="1.76907">
        <ele>319.78</ele>
        <time>2026-05-20T11:50:27Z</time>
      </trkpt>
      <trkpt lat="44.21846" lon="1.76892">
        <ele>320.26</ele>
        <time>2026-05-20T11:50:38Z</time>
      </trkpt>
      <trkpt lat="44.21844" lon="1.76892">
        <ele>320.26</ele>
        <time>2026-05-20T11:50:44Z</time>
      </trkpt>
      <trkpt lat="44.21843" lon="1.76901">
        <ele>320.26</ele>
        <time>2026-05-20T11:50:49Z</time>
      </trkpt>
      <trkpt lat="44.21842" lon="1.7691">
        <ele>318.81</ele>
        <time>2026-05-20T11:50:56Z</time>
      </trkpt>
      <trkpt lat="44.21839" lon="1.76902">
        <ele>318.81</ele>
        <time>2026-05-20T11:51:04Z</time>
      </trkpt>
      <trkpt lat="44.21836" lon="1.769">
        <ele>320.26</ele>
        <time>2026-05-20T11:51:07Z</time>
      </trkpt>
      <trkpt lat="44.21827" lon="1.76895">
        <ele>320.74</ele>
        <time>2026-05-20T11:51:19Z</time>
      </trkpt>
      <trkpt lat="44.21808" lon="1.76888">
        <ele>322.18</ele>
        <time>2026-05-20T11:51:34Z</time>
      </trkpt>
      <trkpt lat="44.21797" lon="1.76881">
        <ele>323.14</ele>
        <time>2026-05-20T11:51:47Z</time>
      </trkpt>
      <trkpt lat="44.21777" lon="1.76878">
        <ele>324.58</ele>
        <time>2026-05-20T11:52:03Z</time>
      </trkpt>
      <trkpt lat="44.21758" lon="1.76877">
        <ele>325.54</ele>
        <time>2026-05-20T11:52:18Z</time>
      </trkpt>
      <trkpt lat="44.21745" lon="1.76876">
        <ele>325.54</ele>
        <time>2026-05-20T11:52:29Z</time>
      </trkpt>
      <trkpt lat="44.21724" lon="1.76872">
        <ele>326.02</ele>
        <time>2026-05-20T11:52:44Z</time>
      </trkpt>
      <trkpt lat="44.2171" lon="1.76867">
        <ele>326.02</ele>
        <time>2026-05-20T11:52:56Z</time>
      </trkpt>
      <trkpt lat="44.21705" lon="1.76864">
        <ele>326.02</ele>
        <time>2026-05-20T11:53:00Z</time>
      </trkpt>
      <trkpt lat="44.2169" lon="1.76852">
        <ele>325.54</ele>
        <time>2026-05-20T11:53:15Z</time>
      </trkpt>
      <trkpt lat="44.21678" lon="1.76841">
        <ele>325.54</ele>
        <time>2026-05-20T11:53:28Z</time>
      </trkpt>
      <trkpt lat="44.21661" lon="1.7683">
        <ele>324.1</ele>
        <time>2026-05-20T11:53:42Z</time>
      </trkpt>
      <trkpt lat="44.21647" lon="1.76812">
        <ele>323.62</ele>
        <time>2026-05-20T11:53:56Z</time>
      </trkpt>
      <trkpt lat="44.21631" lon="1.76796">
        <ele>323.14</ele>
        <time>2026-05-20T11:54:10Z</time>
      </trkpt>
      <trkpt lat="44.21618" lon="1.76785">
        <ele>322.66</ele>
        <time>2026-05-20T11:54:23Z</time>
      </trkpt>
      <trkpt lat="44.21606" lon="1.76771">
        <ele>321.7</ele>
        <time>2026-05-20T11:54:32Z</time>
      </trkpt>
      <trkpt lat="44.21603" lon="1.76768">
        <ele>321.7</ele>
        <time>2026-05-20T11:54:35Z</time>
      </trkpt>
      <trkpt lat="44.21588" lon="1.76747">
        <ele>320.74</ele>
        <time>2026-05-20T11:54:52Z</time>
      </trkpt>
      <trkpt lat="44.21587" lon="1.76746">
        <ele>320.26</ele>
        <time>2026-05-20T11:55:21Z</time>
      </trkpt>
      <trkpt lat="44.21583" lon="1.76739">
        <ele>319.78</ele>
        <time>2026-05-20T11:55:26Z</time>
      </trkpt>
      <trkpt lat="44.21572" lon="1.76721">
        <ele>319.3</ele>
        <time>2026-05-20T11:55:40Z</time>
      </trkpt>
      <trkpt lat="44.21566" lon="1.76707">
        <ele>318.33</ele>
        <time>2026-05-20T11:55:54Z</time>
      </trkpt>
      <trkpt lat="44.21567" lon="1.76706">
        <ele>315.93</ele>
        <time>2026-05-20T11:55:59Z</time>
      </trkpt>
      <trkpt lat="44.21567" lon="1.76706">
        <ele>317.85</ele>
        <time>2026-05-20T11:56:01Z</time>
      </trkpt>
      <trkpt lat="44.21567" lon="1.76705">
        <ele>320.26</ele>
        <time>2026-05-20T11:56:03Z</time>
      </trkpt>
      <trkpt lat="44.21567" lon="1.76705">
        <ele>318.33</ele>
        <time>2026-05-20T11:56:05Z</time>
      </trkpt>
      <trkpt lat="44.21556" lon="1.76689">
        <ele>317.85</ele>
        <time>2026-05-20T11:56:18Z</time>
      </trkpt>
      <trkpt lat="44.21544" lon="1.76668">
        <ele>316.89</ele>
        <time>2026-05-20T11:56:32Z</time>
      </trkpt>
      <trkpt lat="44.21532" lon="1.76648">
        <ele>315.93</ele>
        <time>2026-05-20T11:56:46Z</time>
      </trkpt>
      <trkpt lat="44.2152" lon="1.76624">
        <ele>314.97</ele>
        <time>2026-05-20T11:57:00Z</time>
      </trkpt>
      <trkpt lat="44.21511" lon="1.76602">
        <ele>314.01</ele>
        <time>2026-05-20T11:57:13Z</time>
      </trkpt>
      <trkpt lat="44.21504" lon="1.76582">
        <ele>313.05</ele>
        <time>2026-05-20T11:57:26Z</time>
      </trkpt>
      <trkpt lat="44.21495" lon="1.7656">
        <ele>312.09</ele>
        <time>2026-05-20T11:57:39Z</time>
      </trkpt>
      <trkpt lat="44.2149" lon="1.76537">
        <ele>310.64</ele>
        <time>2026-05-20T11:57:52Z</time>
      </trkpt>
      <trkpt lat="44.21488" lon="1.76523">
        <ele>310.16</ele>
        <time>2026-05-20T11:58:00Z</time>
      </trkpt>
      <trkpt lat="44.21481" lon="1.76494">
        <ele>309.2</ele>
        <time>2026-05-20T11:58:17Z</time>
      </trkpt>
      <trkpt lat="44.21479" lon="1.7647">
        <ele>309.2</ele>
        <time>2026-05-20T11:58:31Z</time>
      </trkpt>
      <trkpt lat="44.21478" lon="1.76466">
        <ele>309.2</ele>
        <time>2026-05-20T11:58:34Z</time>
      </trkpt>
      <trkpt lat="44.21478" lon="1.76455">
        <ele>310.64</ele>
        <time>2026-05-20T11:58:39Z</time>
      </trkpt>
      <trkpt lat="44.21473" lon="1.76432">
        <ele>311.6</ele>
        <time>2026-05-20T11:58:53Z</time>
      </trkpt>
      <trkpt lat="44.21469" lon="1.76407">
        <ele>312.57</ele>
        <time>2026-05-20T11:59:08Z</time>
      </trkpt>
      <trkpt lat="44.21465" lon="1.76386">
        <ele>313.05</ele>
        <time>2026-05-20T11:59:21Z</time>
      </trkpt>
      <trkpt lat="44.21465" lon="1.76378">
        <ele>313.05</ele>
        <time>2026-05-20T11:59:25Z</time>
      </trkpt>
      <trkpt lat="44.21458" lon="1.76354">
        <ele>313.53</ele>
        <time>2026-05-20T11:59:39Z</time>
      </trkpt>
      <trkpt lat="44.21452" lon="1.7633">
        <ele>313.53</ele>
        <time>2026-05-20T11:59:53Z</time>
      </trkpt>
      <trkpt lat="44.21444" lon="1.76302">
        <ele>313.53</ele>
        <time>2026-05-20T12:00:09Z</time>
      </trkpt>
      <trkpt lat="44.21437" lon="1.76275">
        <ele>312.57</ele>
        <time>2026-05-20T12:00:24Z</time>
      </trkpt>
      <trkpt lat="44.21437" lon="1.76273">
        <ele>312.57</ele>
        <time>2026-05-20T12:00:25Z</time>
      </trkpt>
      <trkpt lat="44.21433" lon="1.7624">
        <ele>312.09</ele>
        <time>2026-05-20T12:00:41Z</time>
      </trkpt>
      <trkpt lat="44.21428" lon="1.7621">
        <ele>311.6</ele>
        <time>2026-05-20T12:00:56Z</time>
      </trkpt>
      <trkpt lat="44.21426" lon="1.76186">
        <ele>311.6</ele>
        <time>2026-05-20T12:01:10Z</time>
      </trkpt>
      <trkpt lat="44.21424" lon="1.76162">
        <ele>310.64</ele>
        <time>2026-05-20T12:01:23Z</time>
      </trkpt>
      <trkpt lat="44.21422" lon="1.76137">
        <ele>309.68</ele>
        <time>2026-05-20T12:01:36Z</time>
      </trkpt>
      <trkpt lat="44.21423" lon="1.76103">
        <ele>309.2</ele>
        <time>2026-05-20T12:01:52Z</time>
      </trkpt>
      <trkpt lat="44.21426" lon="1.76073">
        <ele>308.24</ele>
        <time>2026-05-20T12:02:08Z</time>
      </trkpt>
      <trkpt lat="44.21426" lon="1.76048">
        <ele>307.76</ele>
        <time>2026-05-20T12:02:22Z</time>
      </trkpt>
      <trkpt lat="44.21424" lon="1.76025">
        <ele>306.8</ele>
        <time>2026-05-20T12:02:36Z</time>
      </trkpt>
      <trkpt lat="44.21417" lon="1.76">
        <ele>305.36</ele>
        <time>2026-05-20T12:02:51Z</time>
      </trkpt>
      <trkpt lat="44.21417" lon="1.75993">
        <ele>305.36</ele>
        <time>2026-05-20T12:02:55Z</time>
      </trkpt>
      <trkpt lat="44.21417" lon="1.75972">
        <ele>303.91</ele>
        <time>2026-05-20T12:03:08Z</time>
      </trkpt>
      <trkpt lat="44.21416" lon="1.75964">
        <ele>303.43</ele>
        <time>2026-05-20T12:03:12Z</time>
      </trkpt>
      <trkpt lat="44.21415" lon="1.75956">
        <ele>303.43</ele>
        <time>2026-05-20T12:03:16Z</time>
      </trkpt>
      <trkpt lat="44.21416" lon="1.75946">
        <ele>302.47</ele>
        <time>2026-05-20T12:03:28Z</time>
      </trkpt>
      <trkpt lat="44.21411" lon="1.75944">
        <ele>302.47</ele>
        <time>2026-05-20T12:03:43Z</time>
      </trkpt>
      <trkpt lat="44.21411" lon="1.75936">
        <ele>302.47</ele>
        <time>2026-05-20T12:03:47Z</time>
      </trkpt>
      <trkpt lat="44.21414" lon="1.75914">
        <ele>301.51</ele>
        <time>2026-05-20T12:04:00Z</time>
      </trkpt>
      <trkpt lat="44.21414" lon="1.759">
        <ele>301.51</ele>
        <time>2026-05-20T12:04:17Z</time>
      </trkpt>
      <trkpt lat="44.21414" lon="1.75897">
        <ele>299.59</ele>
        <time>2026-05-20T12:04:19Z</time>
      </trkpt>
      <trkpt lat="44.21418" lon="1.75882">
        <ele>301.03</ele>
        <time>2026-05-20T12:04:35Z</time>
      </trkpt>
      <trkpt lat="44.21408" lon="1.75879">
        <ele>301.03</ele>
        <time>2026-05-20T12:04:44Z</time>
      </trkpt>
      <trkpt lat="44.21403" lon="1.75878">
        <ele>299.59</ele>
        <time>2026-05-20T12:04:51Z</time>
      </trkpt>
      <trkpt lat="44.21391" lon="1.75871">
        <ele>299.59</ele>
        <time>2026-05-20T12:05:08Z</time>
      </trkpt>
      <trkpt lat="44.21371" lon="1.75863">
        <ele>299.59</ele>
        <time>2026-05-20T12:05:23Z</time>
      </trkpt>
      <trkpt lat="44.2135" lon="1.75858">
        <ele>300.55</ele>
        <time>2026-05-20T12:05:40Z</time>
      </trkpt>
      <trkpt lat="44.21333" lon="1.75856">
        <ele>301.51</ele>
        <time>2026-05-20T12:05:55Z</time>
      </trkpt>
      <trkpt lat="44.21316" lon="1.75854">
        <ele>301.99</ele>
        <time>2026-05-20T12:06:08Z</time>
      </trkpt>
      <trkpt lat="44.21291" lon="1.75854">
        <ele>302.47</ele>
        <time>2026-05-20T12:06:25Z</time>
      </trkpt>
      <trkpt lat="44.21273" lon="1.75856">
        <ele>303.43</ele>
        <time>2026-05-20T12:06:41Z</time>
      </trkpt>
      <trkpt lat="44.21256" lon="1.75858">
        <ele>303.43</ele>
        <time>2026-05-20T12:06:56Z</time>
      </trkpt>
      <trkpt lat="44.21236" lon="1.75863">
        <ele>303.91</ele>
        <time>2026-05-20T12:07:09Z</time>
      </trkpt>
      <trkpt lat="44.21218" lon="1.75869">
        <ele>304.39</ele>
        <time>2026-05-20T12:07:25Z</time>
      </trkpt>
      <trkpt lat="44.21218" lon="1.7587">
        <ele>304.88</ele>
        <time>2026-05-20T12:07:44Z</time>
      </trkpt>
      <trkpt lat="44.21218" lon="1.75869">
        <ele>304.39</ele>
        <time>2026-05-20T12:08:09Z</time>
      </trkpt>
      <trkpt lat="44.21202" lon="1.7587">
        <ele>304.88</ele>
        <time>2026-05-20T12:08:22Z</time>
      </trkpt>
      <trkpt lat="44.21193" lon="1.7587">
        <ele>304.88</ele>
        <time>2026-05-20T12:08:35Z</time>
      </trkpt>
      <trkpt lat="44.21182" lon="1.7587">
        <ele>305.36</ele>
        <time>2026-05-20T12:08:49Z</time>
      </trkpt>
      <trkpt lat="44.2116" lon="1.75868">
        <ele>305.36</ele>
        <time>2026-05-20T12:09:05Z</time>
      </trkpt>
      <trkpt lat="44.21142" lon="1.75861">
        <ele>305.84</ele>
        <time>2026-05-20T12:09:20Z</time>
      </trkpt>
      <trkpt lat="44.21123" lon="1.75852">
        <ele>305.84</ele>
        <time>2026-05-20T12:09:36Z</time>
      </trkpt>
      <trkpt lat="44.21105" lon="1.75841">
        <ele>306.32</ele>
        <time>2026-05-20T12:09:52Z</time>
      </trkpt>
      <trkpt lat="44.21085" lon="1.7583">
        <ele>307.28</ele>
        <time>2026-05-20T12:10:09Z</time>
      </trkpt>
      <trkpt lat="44.21067" lon="1.75809">
        <ele>307.76</ele>
        <time>2026-05-20T12:10:26Z</time>
      </trkpt>
      <trkpt lat="44.21052" lon="1.75788">
        <ele>307.76</ele>
        <time>2026-05-20T12:10:42Z</time>
      </trkpt>
      <trkpt lat="44.2104" lon="1.75767">
        <ele>305.84</ele>
        <time>2026-05-20T12:10:56Z</time>
      </trkpt>
      <trkpt lat="44.21039" lon="1.75766">
        <ele>305.84</ele>
        <time>2026-05-20T12:10:57Z</time>
      </trkpt>
      <trkpt lat="44.21023" lon="1.75749">
        <ele>305.36</ele>
        <time>2026-05-20T12:11:11Z</time>
      </trkpt>
      <trkpt lat="44.21008" lon="1.75737">
        <ele>304.88</ele>
        <time>2026-05-20T12:11:24Z</time>
      </trkpt>
      <trkpt lat="44.20993" lon="1.75724">
        <ele>303.91</ele>
        <time>2026-05-20T12:11:37Z</time>
      </trkpt>
      <trkpt lat="44.20978" lon="1.75713">
        <ele>303.43</ele>
        <time>2026-05-20T12:11:50Z</time>
      </trkpt>
      <trkpt lat="44.20964" lon="1.75701">
        <ele>302.95</ele>
        <time>2026-05-20T12:12:03Z</time>
      </trkpt>
      <trkpt lat="44.20947" lon="1.7569">
        <ele>302.95</ele>
        <time>2026-05-20T12:12:17Z</time>
      </trkpt>
      <trkpt lat="44.20932" lon="1.75679">
        <ele>302.95</ele>
        <time>2026-05-20T12:12:31Z</time>
      </trkpt>
      <trkpt lat="44.20916" lon="1.75668">
        <ele>302.95</ele>
        <time>2026-05-20T12:12:45Z</time>
      </trkpt>
      <trkpt lat="44.20898" lon="1.75655">
        <ele>302.47</ele>
        <time>2026-05-20T12:13:00Z</time>
      </trkpt>
      <trkpt lat="44.20878" lon="1.75641">
        <ele>302.47</ele>
        <time>2026-05-20T12:13:17Z</time>
      </trkpt>
      <trkpt lat="44.20858" lon="1.75629">
        <ele>301.99</ele>
        <time>2026-05-20T12:13:33Z</time>
      </trkpt>
      <trkpt lat="44.20838" lon="1.75626">
        <ele>301.99</ele>
        <time>2026-05-20T12:13:48Z</time>
      </trkpt>
      <trkpt lat="44.20818" lon="1.75623">
        <ele>301.51</ele>
        <time>2026-05-20T12:14:03Z</time>
      </trkpt>
      <trkpt lat="44.20792" lon="1.75627">
        <ele>301.51</ele>
        <time>2026-05-20T12:14:23Z</time>
      </trkpt>
      <trkpt lat="44.20788" lon="1.75628">
        <ele>302.95</ele>
        <time>2026-05-20T12:14:28Z</time>
      </trkpt>
      <trkpt lat="44.20766" lon="1.7563">
        <ele>303.91</ele>
        <time>2026-05-20T12:14:45Z</time>
      </trkpt>
      <trkpt lat="44.20746" lon="1.75624">
        <ele>304.88</ele>
        <time>2026-05-20T12:15:00Z</time>
      </trkpt>
      <trkpt lat="44.20728" lon="1.75627">
        <ele>305.84</ele>
        <time>2026-05-20T12:15:15Z</time>
      </trkpt>
      <trkpt lat="44.20718" lon="1.75626">
        <ele>306.32</ele>
        <time>2026-05-20T12:15:30Z</time>
      </trkpt>
      <trkpt lat="44.20709" lon="1.7562">
        <ele>306.8</ele>
        <time>2026-05-20T12:15:55Z</time>
      </trkpt>
      <trkpt lat="44.20693" lon="1.75613">
        <ele>308.24</ele>
        <time>2026-05-20T12:16:09Z</time>
      </trkpt>
      <trkpt lat="44.20672" lon="1.75604">
        <ele>309.2</ele>
        <time>2026-05-20T12:16:26Z</time>
      </trkpt>
      <trkpt lat="44.20656" lon="1.75597">
        <ele>309.68</ele>
        <time>2026-05-20T12:16:41Z</time>
      </trkpt>
      <trkpt lat="44.20637" lon="1.7559">
        <ele>310.64</ele>
        <time>2026-05-20T12:16:57Z</time>
      </trkpt>
      <trkpt lat="44.20618" lon="1.75583">
        <ele>311.6</ele>
        <time>2026-05-20T12:17:13Z</time>
      </trkpt>
      <trkpt lat="44.206" lon="1.75575">
        <ele>312.09</ele>
        <time>2026-05-20T12:17:27Z</time>
      </trkpt>
      <trkpt lat="44.20577" lon="1.75568">
        <ele>312.09</ele>
        <time>2026-05-20T12:17:45Z</time>
      </trkpt>
      <trkpt lat="44.20559" lon="1.75562">
        <ele>312.09</ele>
        <time>2026-05-20T12:18:00Z</time>
      </trkpt>
      <trkpt lat="44.2054" lon="1.75554">
        <ele>312.09</ele>
        <time>2026-05-20T12:18:14Z</time>
      </trkpt>
      <trkpt lat="44.20519" lon="1.75539">
        <ele>310.64</ele>
        <time>2026-05-20T12:18:30Z</time>
      </trkpt>
      <trkpt lat="44.20504" lon="1.75527">
        <ele>309.68</ele>
        <time>2026-05-20T12:18:43Z</time>
      </trkpt>
      <trkpt lat="44.20486" lon="1.75514">
        <ele>309.2</ele>
        <time>2026-05-20T12:18:58Z</time>
      </trkpt>
      <trkpt lat="44.20469" lon="1.75501">
        <ele>308.72</ele>
        <time>2026-05-20T12:19:14Z</time>
      </trkpt>
      <trkpt lat="44.20452" lon="1.75489">
        <ele>307.76</ele>
        <time>2026-05-20T12:19:28Z</time>
      </trkpt>
      <trkpt lat="44.20433" lon="1.75473">
        <ele>307.28</ele>
        <time>2026-05-20T12:19:44Z</time>
      </trkpt>
      <trkpt lat="44.20417" lon="1.75459">
        <ele>306.8</ele>
        <time>2026-05-20T12:19:58Z</time>
      </trkpt>
      <trkpt lat="44.204" lon="1.75451">
        <ele>306.8</ele>
        <time>2026-05-20T12:20:12Z</time>
      </trkpt>
      <trkpt lat="44.2038" lon="1.75442">
        <ele>306.8</ele>
        <time>2026-05-20T12:20:28Z</time>
      </trkpt>
      <trkpt lat="44.20363" lon="1.75431">
        <ele>306.8</ele>
        <time>2026-05-20T12:20:43Z</time>
      </trkpt>
      <trkpt lat="44.20362" lon="1.75431">
        <ele>306.32</ele>
        <time>2026-05-20T12:20:44Z</time>
      </trkpt>
      <trkpt lat="44.2036" lon="1.7543">
        <ele>306.32</ele>
        <time>2026-05-20T12:20:45Z</time>
      </trkpt>
      <trkpt lat="44.20344" lon="1.7542">
        <ele>306.32</ele>
        <time>2026-05-20T12:21:00Z</time>
      </trkpt>
      <trkpt lat="44.20322" lon="1.7541">
        <ele>306.32</ele>
        <time>2026-05-20T12:21:16Z</time>
      </trkpt>
      <trkpt lat="44.20306" lon="1.75405">
        <ele>306.32</ele>
        <time>2026-05-20T12:21:30Z</time>
      </trkpt>
      <trkpt lat="44.20288" lon="1.75394">
        <ele>306.32</ele>
        <time>2026-05-20T12:21:43Z</time>
      </trkpt>
      <trkpt lat="44.2027" lon="1.75384">
        <ele>306.32</ele>
        <time>2026-05-20T12:21:58Z</time>
      </trkpt>
      <trkpt lat="44.20254" lon="1.75374">
        <ele>306.32</ele>
        <time>2026-05-20T12:22:10Z</time>
      </trkpt>
      <trkpt lat="44.20234" lon="1.75364">
        <ele>306.32</ele>
        <time>2026-05-20T12:22:26Z</time>
      </trkpt>
      <trkpt lat="44.20214" lon="1.75351">
        <ele>306.32</ele>
        <time>2026-05-20T12:22:43Z</time>
      </trkpt>
      <trkpt lat="44.20193" lon="1.75344">
        <ele>306.32</ele>
        <time>2026-05-20T12:23:00Z</time>
      </trkpt>
      <trkpt lat="44.20175" lon="1.75338">
        <ele>306.32</ele>
        <time>2026-05-20T12:23:16Z</time>
      </trkpt>
      <trkpt lat="44.20155" lon="1.75328">
        <ele>306.32</ele>
        <time>2026-05-20T12:23:30Z</time>
      </trkpt>
      <trkpt lat="44.20139" lon="1.75323">
        <ele>306.32</ele>
        <time>2026-05-20T12:23:43Z</time>
      </trkpt>
      <trkpt lat="44.20118" lon="1.75315">
        <ele>306.32</ele>
        <time>2026-05-20T12:23:59Z</time>
      </trkpt>
      <trkpt lat="44.20103" lon="1.75308">
        <ele>306.32</ele>
        <time>2026-05-20T12:24:12Z</time>
      </trkpt>
      <trkpt lat="44.20084" lon="1.753">
        <ele>305.84</ele>
        <time>2026-05-20T12:24:28Z</time>
      </trkpt>
      <trkpt lat="44.20068" lon="1.7529">
        <ele>306.32</ele>
        <time>2026-05-20T12:24:42Z</time>
      </trkpt>
      <trkpt lat="44.20047" lon="1.7528">
        <ele>305.84</ele>
        <time>2026-05-20T12:24:58Z</time>
      </trkpt>
      <trkpt lat="44.20028" lon="1.75271">
        <ele>304.88</ele>
        <time>2026-05-20T12:25:11Z</time>
      </trkpt>
      <trkpt lat="44.2001" lon="1.75267">
        <ele>303.91</ele>
        <time>2026-05-20T12:25:26Z</time>
      </trkpt>
      <trkpt lat="44.19988" lon="1.75261">
        <ele>302.47</ele>
        <time>2026-05-20T12:25:42Z</time>
      </trkpt>
      <trkpt lat="44.19969" lon="1.75256">
        <ele>301.03</ele>
        <time>2026-05-20T12:25:56Z</time>
      </trkpt>
      <trkpt lat="44.19949" lon="1.75247">
        <ele>299.11</ele>
        <time>2026-05-20T12:26:10Z</time>
      </trkpt>
      <trkpt lat="44.19931" lon="1.75243">
        <ele>297.67</ele>
        <time>2026-05-20T12:26:23Z</time>
      </trkpt>
      <trkpt lat="44.19924" lon="1.75244">
        <ele>297.18</ele>
        <time>2026-05-20T12:26:29Z</time>
      </trkpt>
      <trkpt lat="44.19923" lon="1.75245">
        <ele>296.7</ele>
        <time>2026-05-20T12:26:30Z</time>
      </trkpt>
      <trkpt lat="44.19902" lon="1.75249">
        <ele>296.22</ele>
        <time>2026-05-20T12:26:46Z</time>
      </trkpt>
      <trkpt lat="44.19881" lon="1.75251">
        <ele>296.22</ele>
        <time>2026-05-20T12:27:01Z</time>
      </trkpt>
      <trkpt lat="44.19865" lon="1.75254">
        <ele>296.22</ele>
        <time>2026-05-20T12:27:16Z</time>
      </trkpt>
      <trkpt lat="44.19852" lon="1.75256">
        <ele>297.67</ele>
        <time>2026-05-20T12:27:27Z</time>
      </trkpt>
      <trkpt lat="44.19836" lon="1.75255">
        <ele>298.15</ele>
        <time>2026-05-20T12:27:38Z</time>
      </trkpt>
      <trkpt lat="44.19835" lon="1.75255">
        <ele>298.15</ele>
        <time>2026-05-20T12:27:39Z</time>
      </trkpt>
      <trkpt lat="44.19818" lon="1.75256">
        <ele>299.11</ele>
        <time>2026-05-20T12:27:54Z</time>
      </trkpt>
      <trkpt lat="44.19802" lon="1.75258">
        <ele>300.55</ele>
        <time>2026-05-20T12:28:08Z</time>
      </trkpt>
      <trkpt lat="44.19792" lon="1.75258">
        <ele>301.51</ele>
        <time>2026-05-20T12:28:23Z</time>
      </trkpt>
      <trkpt lat="44.1979" lon="1.75257">
        <ele>301.99</ele>
        <time>2026-05-20T12:28:39Z</time>
      </trkpt>
      <trkpt lat="44.1979" lon="1.75259">
        <ele>301.99</ele>
        <time>2026-05-20T12:28:58Z</time>
      </trkpt>
      <trkpt lat="44.19785" lon="1.75258">
        <ele>301.99</ele>
        <time>2026-05-20T12:29:03Z</time>
      </trkpt>
      <trkpt lat="44.19772" lon="1.75257">
        <ele>301.99</ele>
        <time>2026-05-20T12:29:16Z</time>
      </trkpt>
      <trkpt lat="44.19754" lon="1.75257">
        <ele>302.47</ele>
        <time>2026-05-20T12:29:31Z</time>
      </trkpt>
      <trkpt lat="44.19733" lon="1.75256">
        <ele>303.91</ele>
        <time>2026-05-20T12:29:47Z</time>
      </trkpt>
      <trkpt lat="44.19717" lon="1.75257">
        <ele>304.39</ele>
        <time>2026-05-20T12:30:01Z</time>
      </trkpt>
      <trkpt lat="44.197" lon="1.75257">
        <ele>304.88</ele>
        <time>2026-05-20T12:30:15Z</time>
      </trkpt>
      <trkpt lat="44.19688" lon="1.75257">
        <ele>305.84</ele>
        <time>2026-05-20T12:30:26Z</time>
      </trkpt>
      <trkpt lat="44.19686" lon="1.75257">
        <ele>306.32</ele>
        <time>2026-05-20T12:30:27Z</time>
      </trkpt>
      <trkpt lat="44.19685" lon="1.75257">
        <ele>306.32</ele>
        <time>2026-05-20T12:30:28Z</time>
      </trkpt>
      <trkpt lat="44.19683" lon="1.75258">
        <ele>306.32</ele>
        <time>2026-05-20T12:30:29Z</time>
      </trkpt>
      <trkpt lat="44.19682" lon="1.75258">
        <ele>306.32</ele>
        <time>2026-05-20T12:30:30Z</time>
      </trkpt>
      <trkpt lat="44.19663" lon="1.7526">
        <ele>306.8</ele>
        <time>2026-05-20T12:30:44Z</time>
      </trkpt>
      <trkpt lat="44.19646" lon="1.7526">
        <ele>306.8</ele>
        <time>2026-05-20T12:30:57Z</time>
      </trkpt>
      <trkpt lat="44.19627" lon="1.7526">
        <ele>307.28</ele>
        <time>2026-05-20T12:31:13Z</time>
      </trkpt>
      <trkpt lat="44.19619" lon="1.7526">
        <ele>306.8</ele>
        <time>2026-05-20T12:31:19Z</time>
      </trkpt>
      <trkpt lat="44.19618" lon="1.7526">
        <ele>306.8</ele>
        <time>2026-05-20T12:31:20Z</time>
      </trkpt>
      <trkpt lat="44.19617" lon="1.75259">
        <ele>306.8</ele>
        <time>2026-05-20T12:31:21Z</time>
      </trkpt>
      <trkpt lat="44.19614" lon="1.75255">
        <ele>306.8</ele>
        <time>2026-05-20T12:31:30Z</time>
      </trkpt>
      <trkpt lat="44.19612" lon="1.75235">
        <ele>306.8</ele>
        <time>2026-05-20T12:31:44Z</time>
      </trkpt>
      <trkpt lat="44.19609" lon="1.75223">
        <ele>306.8</ele>
        <time>2026-05-20T12:31:52Z</time>
      </trkpt>
      <trkpt lat="44.19601" lon="1.75211">
        <ele>306.8</ele>
        <time>2026-05-20T12:32:01Z</time>
      </trkpt>
      <trkpt lat="44.19599" lon="1.75209">
        <ele>306.8</ele>
        <time>2026-05-20T12:32:03Z</time>
      </trkpt>
      <trkpt lat="44.19586" lon="1.75198">
        <ele>305.84</ele>
        <time>2026-05-20T12:32:14Z</time>
      </trkpt>
      <trkpt lat="44.19585" lon="1.75197">
        <ele>305.84</ele>
        <time>2026-05-20T12:32:15Z</time>
      </trkpt>
      <trkpt lat="44.19584" lon="1.75196">
        <ele>305.84</ele>
        <time>2026-05-20T12:32:16Z</time>
      </trkpt>
      <trkpt lat="44.19583" lon="1.75195">
        <ele>305.36</ele>
        <time>2026-05-20T12:32:17Z</time>
      </trkpt>
      <trkpt lat="44.19582" lon="1.75194">
        <ele>305.36</ele>
        <time>2026-05-20T12:32:18Z</time>
      </trkpt>
      <trkpt lat="44.19568" lon="1.7518">
        <ele>304.88</ele>
        <time>2026-05-20T12:32:33Z</time>
      </trkpt>
      <trkpt lat="44.19565" lon="1.75161">
        <ele>303.91</ele>
        <time>2026-05-20T12:32:48Z</time>
      </trkpt>
      <trkpt lat="44.19562" lon="1.75134">
        <ele>301.99</ele>
        <time>2026-05-20T12:33:04Z</time>
      </trkpt>
      <trkpt lat="44.1955" lon="1.75113">
        <ele>300.07</ele>
        <time>2026-05-20T12:33:17Z</time>
      </trkpt>
      <trkpt lat="44.19543" lon="1.7509">
        <ele>298.15</ele>
        <time>2026-05-20T12:33:31Z</time>
      </trkpt>
      <trkpt lat="44.19539" lon="1.75066">
        <ele>297.18</ele>
        <time>2026-05-20T12:33:46Z</time>
      </trkpt>
      <trkpt lat="44.19536" lon="1.7504">
        <ele>294.78</ele>
        <time>2026-05-20T12:34:00Z</time>
      </trkpt>
      <trkpt lat="44.19529" lon="1.75018">
        <ele>292.38</ele>
        <time>2026-05-20T12:34:13Z</time>
      </trkpt>
      <trkpt lat="44.19525" lon="1.74993">
        <ele>290.46</ele>
        <time>2026-05-20T12:34:28Z</time>
      </trkpt>
      <trkpt lat="44.19517" lon="1.74973">
        <ele>286.61</ele>
        <time>2026-05-20T12:34:41Z</time>
      </trkpt>
      <trkpt lat="44.19508" lon="1.74955">
        <ele>284.21</ele>
        <time>2026-05-20T12:34:53Z</time>
      </trkpt>
      <trkpt lat="44.19503" lon="1.74939">
        <ele>281.8</ele>
        <time>2026-05-20T12:35:04Z</time>
      </trkpt>
      <trkpt lat="44.19496" lon="1.74918">
        <ele>278.44</ele>
        <time>2026-05-20T12:35:17Z</time>
      </trkpt>
      <trkpt lat="44.19496" lon="1.74896">
        <ele>275.56</ele>
        <time>2026-05-20T12:35:32Z</time>
      </trkpt>
      <trkpt lat="44.19494" lon="1.74891">
        <ele>275.56</ele>
        <time>2026-05-20T12:35:35Z</time>
      </trkpt>
      <trkpt lat="44.19491" lon="1.74868">
        <ele>272.19</ele>
        <time>2026-05-20T12:35:49Z</time>
      </trkpt>
      <trkpt lat="44.1949" lon="1.74862">
        <ele>271.71</ele>
        <time>2026-05-20T12:35:53Z</time>
      </trkpt>
      <trkpt lat="44.1949" lon="1.7486">
        <ele>271.23</ele>
        <time>2026-05-20T12:35:54Z</time>
      </trkpt>
      <trkpt lat="44.19489" lon="1.7485">
        <ele>270.27</ele>
        <time>2026-05-20T12:36:00Z</time>
      </trkpt>
      <trkpt lat="44.19489" lon="1.74847">
        <ele>269.31</ele>
        <time>2026-05-20T12:36:02Z</time>
      </trkpt>
      <trkpt lat="44.19487" lon="1.7483">
        <ele>266.42</ele>
        <time>2026-05-20T12:36:14Z</time>
      </trkpt>
      <trkpt lat="44.19484" lon="1.74821">
        <ele>264.5</ele>
        <time>2026-05-20T12:36:21Z</time>
      </trkpt>
      <trkpt lat="44.19483" lon="1.7482">
        <ele>264.5</ele>
        <time>2026-05-20T12:36:22Z</time>
      </trkpt>
      <trkpt lat="44.19483" lon="1.74818">
        <ele>264.5</ele>
        <time>2026-05-20T12:36:23Z</time>
      </trkpt>
      <trkpt lat="44.19479" lon="1.74801">
        <ele>261.14</ele>
        <time>2026-05-20T12:36:35Z</time>
      </trkpt>
      <trkpt lat="44.19479" lon="1.74779">
        <ele>257.77</ele>
        <time>2026-05-20T12:36:49Z</time>
      </trkpt>
      <trkpt lat="44.19478" lon="1.74753">
        <ele>254.89</ele>
        <time>2026-05-20T12:37:05Z</time>
      </trkpt>
      <trkpt lat="44.19477" lon="1.74726">
        <ele>251.52</ele>
        <time>2026-05-20T12:37:21Z</time>
      </trkpt>
      <trkpt lat="44.19479" lon="1.74715">
        <ele>250.56</ele>
        <time>2026-05-20T12:37:29Z</time>
      </trkpt>
      <trkpt lat="44.1948" lon="1.74688">
        <ele>247.68</ele>
        <time>2026-05-20T12:37:45Z</time>
      </trkpt>
      <trkpt lat="44.19486" lon="1.74668">
        <ele>245.75</ele>
        <time>2026-05-20T12:37:57Z</time>
      </trkpt>
      <trkpt lat="44.19491" lon="1.74642">
        <ele>243.35</ele>
        <time>2026-05-20T12:38:12Z</time>
      </trkpt>
      <trkpt lat="44.19499" lon="1.74619">
        <ele>240.47</ele>
        <time>2026-05-20T12:38:28Z</time>
      </trkpt>
      <trkpt lat="44.19508" lon="1.74593">
        <ele>237.58</ele>
        <time>2026-05-20T12:38:44Z</time>
      </trkpt>
      <trkpt lat="44.19513" lon="1.74585">
        <ele>236.62</ele>
        <time>2026-05-20T12:38:51Z</time>
      </trkpt>
      <trkpt lat="44.19514" lon="1.74584">
        <ele>236.62</ele>
        <time>2026-05-20T12:38:52Z</time>
      </trkpt>
      <trkpt lat="44.19525" lon="1.7456">
        <ele>234.7</ele>
        <time>2026-05-20T12:39:08Z</time>
      </trkpt>
      <trkpt lat="44.19531" lon="1.7455">
        <ele>233.26</ele>
        <time>2026-05-20T12:39:14Z</time>
      </trkpt>
      <trkpt lat="44.19541" lon="1.74523">
        <ele>230.85</ele>
        <time>2026-05-20T12:39:30Z</time>
      </trkpt>
      <trkpt lat="44.19549" lon="1.745">
        <ele>227.49</ele>
        <time>2026-05-20T12:39:45Z</time>
      </trkpt>
      <trkpt lat="44.19557" lon="1.74479">
        <ele>225.57</ele>
        <time>2026-05-20T12:40:00Z</time>
      </trkpt>
      <trkpt lat="44.19567" lon="1.74461">
        <ele>222.2</ele>
        <time>2026-05-20T12:40:14Z</time>
      </trkpt>
      <trkpt lat="44.19568" lon="1.74459">
        <ele>222.68</ele>
        <time>2026-05-20T12:40:16Z</time>
      </trkpt>
      <trkpt lat="44.19576" lon="1.74441">
        <ele>220.76</ele>
        <time>2026-05-20T12:40:28Z</time>
      </trkpt>
      <trkpt lat="44.19585" lon="1.74413">
        <ele>216.91</ele>
        <time>2026-05-20T12:40:44Z</time>
      </trkpt>
      <trkpt lat="44.1959" lon="1.74395">
        <ele>215.47</ele>
        <time>2026-05-20T12:40:59Z</time>
      </trkpt>
      <trkpt lat="44.19592" lon="1.7439">
        <ele>215.47</ele>
        <time>2026-05-20T12:41:34Z</time>
      </trkpt>
      <trkpt lat="44.19587" lon="1.74394">
        <ele>215.47</ele>
        <time>2026-05-20T12:42:06Z</time>
      </trkpt>
      <trkpt lat="44.19583" lon="1.7438">
        <ele>217.4</ele>
        <time>2026-05-20T12:42:27Z</time>
      </trkpt>
      <trkpt lat="44.19583" lon="1.74379">
        <ele>214.99</ele>
        <time>2026-05-20T12:42:29Z</time>
      </trkpt>
      <trkpt lat="44.19584" lon="1.74379">
        <ele>214.99</ele>
        <time>2026-05-20T12:42:35Z</time>
      </trkpt>
      <trkpt lat="44.19585" lon="1.7438">
        <ele>216.91</ele>
        <time>2026-05-20T12:42:42Z</time>
      </trkpt>
      <trkpt lat="44.19587" lon="1.74384">
        <ele>215.95</ele>
        <time>2026-05-20T12:42:46Z</time>
      </trkpt>
      <trkpt lat="44.19593" lon="1.74376">
        <ele>215.47</ele>
        <time>2026-05-20T12:43:04Z</time>
      </trkpt>
      <trkpt lat="44.19593" lon="1.74365">
        <ele>214.51</ele>
        <time>2026-05-20T12:43:12Z</time>
      </trkpt>
      <trkpt lat="44.19589" lon="1.74335">
        <ele>211.15</ele>
        <time>2026-05-20T12:43:29Z</time>
      </trkpt>
      <trkpt lat="44.19587" lon="1.74322">
        <ele>210.19</ele>
        <time>2026-05-20T12:43:37Z</time>
      </trkpt>
      <trkpt lat="44.19582" lon="1.74299">
        <ele>207.3</ele>
        <time>2026-05-20T12:43:52Z</time>
      </trkpt>
      <trkpt lat="44.1958" lon="1.74274">
        <ele>204.42</ele>
        <time>2026-05-20T12:44:07Z</time>
      </trkpt>
      <trkpt lat="44.19574" lon="1.7425">
        <ele>202.01</ele>
        <time>2026-05-20T12:44:21Z</time>
      </trkpt>
      <trkpt lat="44.19569" lon="1.74221">
        <ele>200.09</ele>
        <time>2026-05-20T12:44:36Z</time>
      </trkpt>
      <trkpt lat="44.19566" lon="1.742">
        <ele>197.69</ele>
        <time>2026-05-20T12:44:50Z</time>
      </trkpt>
      <trkpt lat="44.19567" lon="1.74174">
        <ele>195.77</ele>
        <time>2026-05-20T12:45:06Z</time>
      </trkpt>
      <trkpt lat="44.19566" lon="1.74144">
        <ele>194.32</ele>
        <time>2026-05-20T12:45:21Z</time>
      </trkpt>
      <trkpt lat="44.19555" lon="1.74124">
        <ele>193.36</ele>
        <time>2026-05-20T12:45:38Z</time>
      </trkpt>
      <trkpt lat="44.19533" lon="1.74114">
        <ele>191.92</ele>
        <time>2026-05-20T12:45:57Z</time>
      </trkpt>
      <trkpt lat="44.19524" lon="1.74113">
        <ele>190.96</ele>
        <time>2026-05-20T12:46:04Z</time>
      </trkpt>
      <trkpt lat="44.19503" lon="1.7412">
        <ele>190</ele>
        <time>2026-05-20T12:46:21Z</time>
      </trkpt>
      <trkpt lat="44.19489" lon="1.74125">
        <ele>189.04</ele>
        <time>2026-05-20T12:46:36Z</time>
      </trkpt>
      <trkpt lat="44.19466" lon="1.74141">
        <ele>188.56</ele>
        <time>2026-05-20T12:46:55Z</time>
      </trkpt>
      <trkpt lat="44.19448" lon="1.74149">
        <ele>188.08</ele>
        <time>2026-05-20T12:47:10Z</time>
      </trkpt>
      <trkpt lat="44.19424" lon="1.74157">
        <ele>187.59</ele>
        <time>2026-05-20T12:47:28Z</time>
      </trkpt>
      <trkpt lat="44.19409" lon="1.74164">
        <ele>187.11</ele>
        <time>2026-05-20T12:47:43Z</time>
      </trkpt>
      <trkpt lat="44.1939" lon="1.74175">
        <ele>186.15</ele>
        <time>2026-05-20T12:47:59Z</time>
      </trkpt>
      <trkpt lat="44.19373" lon="1.74188">
        <ele>185.67</ele>
        <time>2026-05-20T12:48:16Z</time>
      </trkpt>
      <trkpt lat="44.19354" lon="1.74206">
        <ele>185.67</ele>
        <time>2026-05-20T12:48:34Z</time>
      </trkpt>
      <trkpt lat="44.19337" lon="1.7422">
        <ele>185.19</ele>
        <time>2026-05-20T12:48:51Z</time>
      </trkpt>
      <trkpt lat="44.19323" lon="1.74222">
        <ele>184.71</ele>
        <time>2026-05-20T12:49:07Z</time>
      </trkpt>
      <trkpt lat="44.19307" lon="1.74224">
        <ele>184.71</ele>
        <time>2026-05-20T12:49:22Z</time>
      </trkpt>
      <trkpt lat="44.19294" lon="1.74214">
        <ele>183.75</ele>
        <time>2026-05-20T12:49:38Z</time>
      </trkpt>
      <trkpt lat="44.19292" lon="1.74191">
        <ele>183.27</ele>
        <time>2026-05-20T12:49:54Z</time>
      </trkpt>
      <trkpt lat="44.19291" lon="1.74165">
        <ele>183.27</ele>
        <time>2026-05-20T12:50:10Z</time>
      </trkpt>
      <trkpt lat="44.19288" lon="1.74133">
        <ele>182.79</ele>
        <time>2026-05-20T12:50:29Z</time>
      </trkpt>
      <trkpt lat="44.19283" lon="1.74113">
        <ele>182.79</ele>
        <time>2026-05-20T12:50:43Z</time>
      </trkpt>
      <trkpt lat="44.1928" lon="1.74098">
        <ele>182.31</ele>
        <time>2026-05-20T12:50:53Z</time>
      </trkpt>
      <trkpt lat="44.19278" lon="1.74077">
        <ele>182.31</ele>
        <time>2026-05-20T12:51:03Z</time>
      </trkpt>
      <trkpt lat="44.19278" lon="1.74047">
        <ele>181.83</ele>
        <time>2026-05-20T12:51:18Z</time>
      </trkpt>
      <trkpt lat="44.19276" lon="1.74024">
        <ele>181.35</ele>
        <time>2026-05-20T12:51:34Z</time>
      </trkpt>
      <trkpt lat="44.19272" lon="1.74003">
        <ele>181.35</ele>
        <time>2026-05-20T12:51:47Z</time>
      </trkpt>
      <trkpt lat="44.1926" lon="1.73983">
        <ele>181.35</ele>
        <time>2026-05-20T12:52:03Z</time>
      </trkpt>
      <trkpt lat="44.19256" lon="1.73978">
        <ele>181.35</ele>
        <time>2026-05-20T12:52:07Z</time>
      </trkpt>
      <trkpt lat="44.19248" lon="1.73966">
        <ele>180.87</ele>
        <time>2026-05-20T12:52:16Z</time>
      </trkpt>
      <trkpt lat="44.19235" lon="1.73948">
        <ele>180.38</ele>
        <time>2026-05-20T12:52:31Z</time>
      </trkpt>
      <trkpt lat="44.19214" lon="1.73926">
        <ele>179.9</ele>
        <time>2026-05-20T12:52:48Z</time>
      </trkpt>
      <trkpt lat="44.19209" lon="1.7392">
        <ele>179.9</ele>
        <time>2026-05-20T12:52:55Z</time>
      </trkpt>
      <trkpt lat="44.19193" lon="1.73905">
        <ele>179.42</ele>
        <time>2026-05-20T12:53:10Z</time>
      </trkpt>
      <trkpt lat="44.1918" lon="1.73905">
        <ele>179.42</ele>
        <time>2026-05-20T12:53:17Z</time>
      </trkpt>
      <trkpt lat="44.19168" lon="1.73907">
        <ele>179.42</ele>
        <time>2026-05-20T12:53:24Z</time>
      </trkpt>
      <trkpt lat="44.19152" lon="1.73908">
        <ele>178.46</ele>
        <time>2026-05-20T12:53:40Z</time>
      </trkpt>
      <trkpt lat="44.19135" lon="1.73911">
        <ele>178.46</ele>
        <time>2026-05-20T12:53:54Z</time>
      </trkpt>
      <trkpt lat="44.19118" lon="1.73911">
        <ele>177.98</ele>
        <time>2026-05-20T12:54:12Z</time>
      </trkpt>
      <trkpt lat="44.19102" lon="1.73919">
        <ele>177.02</ele>
        <time>2026-05-20T12:54:29Z</time>
      </trkpt>
      <trkpt lat="44.19086" lon="1.7392">
        <ele>176.06</ele>
        <time>2026-05-20T12:54:45Z</time>
      </trkpt>
      <trkpt lat="44.19064" lon="1.73923">
        <ele>175.58</ele>
        <time>2026-05-20T12:55:03Z</time>
      </trkpt>
      <trkpt lat="44.19047" lon="1.73921">
        <ele>175.1</ele>
        <time>2026-05-20T12:55:18Z</time>
      </trkpt>
      <trkpt lat="44.19028" lon="1.73921">
        <ele>175.1</ele>
        <time>2026-05-20T12:55:34Z</time>
      </trkpt>
      <trkpt lat="44.19007" lon="1.73913">
        <ele>174.14</ele>
        <time>2026-05-20T12:55:52Z</time>
      </trkpt>
      <trkpt lat="44.19001" lon="1.73911">
        <ele>174.14</ele>
        <time>2026-05-20T12:56:00Z</time>
      </trkpt>
      <trkpt lat="44.18983" lon="1.73909">
        <ele>174.14</ele>
        <time>2026-05-20T12:56:16Z</time>
      </trkpt>
      <trkpt lat="44.1897" lon="1.73908">
        <ele>173.66</ele>
        <time>2026-05-20T12:56:26Z</time>
      </trkpt>
      <trkpt lat="44.18945" lon="1.73907">
        <ele>173.66</ele>
        <time>2026-05-20T12:56:40Z</time>
      </trkpt>
      <trkpt lat="44.18935" lon="1.73907">
        <ele>173.66</ele>
        <time>2026-05-20T12:56:45Z</time>
      </trkpt>
      <trkpt lat="44.1891" lon="1.73911">
        <ele>173.66</ele>
        <time>2026-05-20T12:57:00Z</time>
      </trkpt>
      <trkpt lat="44.18909" lon="1.73911">
        <ele>173.66</ele>
        <time>2026-05-20T12:57:01Z</time>
      </trkpt>
      <trkpt lat="44.18903" lon="1.73912">
        <ele>173.66</ele>
        <time>2026-05-20T12:57:06Z</time>
      </trkpt>
      <trkpt lat="44.18883" lon="1.73908">
        <ele>173.66</ele>
        <time>2026-05-20T12:57:24Z</time>
      </trkpt>
      <trkpt lat="44.18863" lon="1.73901">
        <ele>170.77</ele>
        <time>2026-05-20T12:57:42Z</time>
      </trkpt>
      <trkpt lat="44.18845" lon="1.73895">
        <ele>170.77</ele>
        <time>2026-05-20T12:57:58Z</time>
      </trkpt>
      <trkpt lat="44.18824" lon="1.73916">
        <ele>170.29</ele>
        <time>2026-05-20T12:58:17Z</time>
      </trkpt>
      <trkpt lat="44.18808" lon="1.73935">
        <ele>170.29</ele>
        <time>2026-05-20T12:58:34Z</time>
      </trkpt>
      <trkpt lat="44.18789" lon="1.73955">
        <ele>169.81</ele>
        <time>2026-05-20T12:58:50Z</time>
      </trkpt>
      <trkpt lat="44.18778" lon="1.73972">
        <ele>169.81</ele>
        <time>2026-05-20T12:59:06Z</time>
      </trkpt>
      <trkpt lat="44.18765" lon="1.73986">
        <ele>169.33</ele>
        <time>2026-05-20T12:59:26Z</time>
      </trkpt>
      <trkpt lat="44.18764" lon="1.73986">
        <ele>169.33</ele>
        <time>2026-05-20T12:59:28Z</time>
      </trkpt>
      <trkpt lat="44.1875" lon="1.73986">
        <ele>169.33</ele>
        <time>2026-05-20T12:59:38Z</time>
      </trkpt>
      <trkpt lat="44.18731" lon="1.73983">
        <ele>168.85</ele>
        <time>2026-05-20T12:59:57Z</time>
      </trkpt>
      <trkpt lat="44.18715" lon="1.73979">
        <ele>168.85</ele>
        <time>2026-05-20T13:00:12Z</time>
      </trkpt>
      <trkpt lat="44.18689" lon="1.73989">
        <ele>168.37</ele>
        <time>2026-05-20T13:00:27Z</time>
      </trkpt>
      <trkpt lat="44.18676" lon="1.74001">
        <ele>168.37</ele>
        <time>2026-05-20T13:00:48Z</time>
      </trkpt>
      <trkpt lat="44.18666" lon="1.74021">
        <ele>168.85</ele>
        <time>2026-05-20T13:01:22Z</time>
      </trkpt>
      <trkpt lat="44.18661" lon="1.74023">
        <ele>168.85</ele>
        <time>2026-05-20T13:01:27Z</time>
      </trkpt>
      <trkpt lat="44.18651" lon="1.74033">
        <ele>168.85</ele>
        <time>2026-05-20T13:01:39Z</time>
      </trkpt>
      <trkpt lat="44.18639" lon="1.74038">
        <ele>169.81</ele>
        <time>2026-05-20T13:01:54Z</time>
      </trkpt>
      <trkpt lat="44.1862" lon="1.7404">
        <ele>170.77</ele>
        <time>2026-05-20T13:02:10Z</time>
      </trkpt>
      <trkpt lat="44.18602" lon="1.74041">
        <ele>171.73</ele>
        <time>2026-05-20T13:02:24Z</time>
      </trkpt>
      <trkpt lat="44.18585" lon="1.74038">
        <ele>172.21</ele>
        <time>2026-05-20T13:02:40Z</time>
      </trkpt>
      <trkpt lat="44.18577" lon="1.74038">
        <ele>173.17</ele>
        <time>2026-05-20T13:02:45Z</time>
      </trkpt>
      <trkpt lat="44.18559" lon="1.74038">
        <ele>171.25</ele>
        <time>2026-05-20T13:03:00Z</time>
      </trkpt>
      <trkpt lat="44.18557" lon="1.74038">
        <ele>171.25</ele>
        <time>2026-05-20T13:03:01Z</time>
      </trkpt>
      <trkpt lat="44.18535" lon="1.74034">
        <ele>171.25</ele>
        <time>2026-05-20T13:03:17Z</time>
      </trkpt>
      <trkpt lat="44.18518" lon="1.74029">
        <ele>171.25</ele>
        <time>2026-05-20T13:03:31Z</time>
      </trkpt>
      <trkpt lat="44.18502" lon="1.74025">
        <ele>170.77</ele>
        <time>2026-05-20T13:03:44Z</time>
      </trkpt>
      <trkpt lat="44.18481" lon="1.74022">
        <ele>169.33</ele>
        <time>2026-05-20T13:03:58Z</time>
      </trkpt>
      <trkpt lat="44.18459" lon="1.7402">
        <ele>169.33</ele>
        <time>2026-05-20T13:04:14Z</time>
      </trkpt>
      <trkpt lat="44.18455" lon="1.7402">
        <ele>169.33</ele>
        <time>2026-05-20T13:04:17Z</time>
      </trkpt>
      <trkpt lat="44.18449" lon="1.74021">
        <ele>169.33</ele>
        <time>2026-05-20T13:04:21Z</time>
      </trkpt>
      <trkpt lat="44.18435" lon="1.74021">
        <ele>169.33</ele>
        <time>2026-05-20T13:04:32Z</time>
      </trkpt>
      <trkpt lat="44.18411" lon="1.74028">
        <ele>168.37</ele>
        <time>2026-05-20T13:04:49Z</time>
      </trkpt>
      <trkpt lat="44.1839" lon="1.74039">
        <ele>168.37</ele>
        <time>2026-05-20T13:05:06Z</time>
      </trkpt>
      <trkpt lat="44.18375" lon="1.74046">
        <ele>167.41</ele>
        <time>2026-05-20T13:05:20Z</time>
      </trkpt>
      <trkpt lat="44.18357" lon="1.74056">
        <ele>167.41</ele>
        <time>2026-05-20T13:05:35Z</time>
      </trkpt>
      <trkpt lat="44.18339" lon="1.74064">
        <ele>167.41</ele>
        <time>2026-05-20T13:05:50Z</time>
      </trkpt>
      <trkpt lat="44.18329" lon="1.74066">
        <ele>167.41</ele>
        <time>2026-05-20T13:05:58Z</time>
      </trkpt>
      <trkpt lat="44.18326" lon="1.74068">
        <ele>167.41</ele>
        <time>2026-05-20T13:06:01Z</time>
      </trkpt>
      <trkpt lat="44.18303" lon="1.74075">
        <ele>167.41</ele>
        <time>2026-05-20T13:06:18Z</time>
      </trkpt>
      <trkpt lat="44.18297" lon="1.74075">
        <ele>167.41</ele>
        <time>2026-05-20T13:06:23Z</time>
      </trkpt>
      <trkpt lat="44.18289" lon="1.74074">
        <ele>168.37</ele>
        <time>2026-05-20T13:06:35Z</time>
      </trkpt>
      <trkpt lat="44.18286" lon="1.74063">
        <ele>169.33</ele>
        <time>2026-05-20T13:06:45Z</time>
      </trkpt>
      <trkpt lat="44.18285" lon="1.7406">
        <ele>168.85</ele>
        <time>2026-05-20T13:07:02Z</time>
      </trkpt>
      <trkpt lat="44.18283" lon="1.74054">
        <ele>169.33</ele>
        <time>2026-05-20T13:07:16Z</time>
      </trkpt>
      <trkpt lat="44.18284" lon="1.74044">
        <ele>169.81</ele>
        <time>2026-05-20T13:07:23Z</time>
      </trkpt>
      <trkpt lat="44.18283" lon="1.74035">
        <ele>170.77</ele>
        <time>2026-05-20T13:07:30Z</time>
      </trkpt>
      <trkpt lat="44.18282" lon="1.74023">
        <ele>171.25</ele>
        <time>2026-05-20T13:07:37Z</time>
      </trkpt>
      <trkpt lat="44.18278" lon="1.74015">
        <ele>172.21</ele>
        <time>2026-05-20T13:07:44Z</time>
      </trkpt>
      <trkpt lat="44.18274" lon="1.74">
        <ele>173.17</ele>
        <time>2026-05-20T13:07:57Z</time>
      </trkpt>
      <trkpt lat="44.18271" lon="1.73979">
        <ele>175.1</ele>
        <time>2026-05-20T13:08:12Z</time>
      </trkpt>
      <trkpt lat="44.18271" lon="1.73968">
        <ele>175.58</ele>
        <time>2026-05-20T13:08:19Z</time>
      </trkpt>
      <trkpt lat="44.1827" lon="1.73945">
        <ele>177.5</ele>
        <time>2026-05-20T13:08:33Z</time>
      </trkpt>
      <trkpt lat="44.18267" lon="1.73925">
        <ele>179.42</ele>
        <time>2026-05-20T13:08:48Z</time>
      </trkpt>
      <trkpt lat="44.18268" lon="1.73916">
        <ele>179.9</ele>
        <time>2026-05-20T13:08:54Z</time>
      </trkpt>
      <trkpt lat="44.18267" lon="1.73898">
        <ele>181.35</ele>
        <time>2026-05-20T13:09:08Z</time>
      </trkpt>
      <trkpt lat="44.18265" lon="1.73877">
        <ele>182.79</ele>
        <time>2026-05-20T13:09:22Z</time>
      </trkpt>
      <trkpt lat="44.18263" lon="1.73859">
        <ele>184.71</ele>
        <time>2026-05-20T13:09:37Z</time>
      </trkpt>
      <trkpt lat="44.18258" lon="1.73858">
        <ele>184.71</ele>
        <time>2026-05-20T13:10:09Z</time>
      </trkpt>
      <trkpt lat="44.1826" lon="1.73851">
        <ele>185.19</ele>
        <time>2026-05-20T13:10:15Z</time>
      </trkpt>
      <trkpt lat="44.1826" lon="1.73829">
        <ele>187.59</ele>
        <time>2026-05-20T13:10:33Z</time>
      </trkpt>
      <trkpt lat="44.18258" lon="1.73809">
        <ele>189.04</ele>
        <time>2026-05-20T13:10:46Z</time>
      </trkpt>
      <trkpt lat="44.18257" lon="1.738">
        <ele>190.48</ele>
        <time>2026-05-20T13:10:52Z</time>
      </trkpt>
      <trkpt lat="44.18258" lon="1.73792">
        <ele>190.96</ele>
        <time>2026-05-20T13:10:58Z</time>
      </trkpt>
      <trkpt lat="44.18257" lon="1.73786">
        <ele>191.44</ele>
        <time>2026-05-20T13:11:03Z</time>
      </trkpt>
      <trkpt lat="44.18257" lon="1.73774">
        <ele>192.88</ele>
        <time>2026-05-20T13:11:19Z</time>
      </trkpt>
      <trkpt lat="44.18258" lon="1.73759">
        <ele>194.8</ele>
        <time>2026-05-20T13:11:38Z</time>
      </trkpt>
      <trkpt lat="44.18259" lon="1.73738">
        <ele>196.73</ele>
        <time>2026-05-20T13:11:54Z</time>
      </trkpt>
      <trkpt lat="44.1826" lon="1.73732">
        <ele>197.69</ele>
        <time>2026-05-20T13:12:00Z</time>
      </trkpt>
      <trkpt lat="44.18261" lon="1.73716">
        <ele>199.61</ele>
        <time>2026-05-20T13:12:14Z</time>
      </trkpt>
      <trkpt lat="44.18259" lon="1.73702">
        <ele>201.05</ele>
        <time>2026-05-20T13:12:27Z</time>
      </trkpt>
      <trkpt lat="44.18259" lon="1.73692">
        <ele>202.01</ele>
        <time>2026-05-20T13:12:33Z</time>
      </trkpt>
      <trkpt lat="44.18257" lon="1.73676">
        <ele>202.98</ele>
        <time>2026-05-20T13:12:45Z</time>
      </trkpt>
      <trkpt lat="44.18255" lon="1.73656">
        <ele>204.9</ele>
        <time>2026-05-20T13:13:01Z</time>
      </trkpt>
      <trkpt lat="44.18252" lon="1.73643">
        <ele>206.34</ele>
        <time>2026-05-20T13:13:09Z</time>
      </trkpt>
      <trkpt lat="44.18248" lon="1.73626">
        <ele>208.26</ele>
        <time>2026-05-20T13:13:22Z</time>
      </trkpt>
      <trkpt lat="44.18245" lon="1.73619">
        <ele>208.74</ele>
        <time>2026-05-20T13:13:35Z</time>
      </trkpt>
      <trkpt lat="44.18242" lon="1.73601">
        <ele>210.19</ele>
        <time>2026-05-20T13:13:48Z</time>
      </trkpt>
      <trkpt lat="44.18237" lon="1.73587">
        <ele>211.63</ele>
        <time>2026-05-20T13:14:01Z</time>
      </trkpt>
      <trkpt lat="44.18236" lon="1.73574">
        <ele>213.07</ele>
        <time>2026-05-20T13:14:14Z</time>
      </trkpt>
      <trkpt lat="44.18235" lon="1.73554">
        <ele>215.47</ele>
        <time>2026-05-20T13:14:29Z</time>
      </trkpt>
      <trkpt lat="44.18233" lon="1.73529">
        <ele>216.91</ele>
        <time>2026-05-20T13:14:46Z</time>
      </trkpt>
      <trkpt lat="44.18231" lon="1.73502">
        <ele>219.32</ele>
        <time>2026-05-20T13:15:02Z</time>
      </trkpt>
      <trkpt lat="44.18226" lon="1.7348">
        <ele>221.24</ele>
        <time>2026-05-20T13:15:18Z</time>
      </trkpt>
      <trkpt lat="44.18224" lon="1.73459">
        <ele>222.68</ele>
        <time>2026-05-20T13:15:35Z</time>
      </trkpt>
      <trkpt lat="44.18222" lon="1.73436">
        <ele>225.09</ele>
        <time>2026-05-20T13:15:51Z</time>
      </trkpt>
      <trkpt lat="44.18218" lon="1.73421">
        <ele>226.05</ele>
        <time>2026-05-20T13:16:11Z</time>
      </trkpt>
      <trkpt lat="44.1821" lon="1.73406">
        <ele>227.49</ele>
        <time>2026-05-20T13:16:24Z</time>
      </trkpt>
      <trkpt lat="44.18209" lon="1.73405">
        <ele>227.49</ele>
        <time>2026-05-20T13:16:25Z</time>
      </trkpt>
      <trkpt lat="44.18203" lon="1.73396">
        <ele>228.93</ele>
        <time>2026-05-20T13:16:37Z</time>
      </trkpt>
      <trkpt lat="44.18203" lon="1.73395">
        <ele>228.93</ele>
        <time>2026-05-20T13:16:39Z</time>
      </trkpt>
      <trkpt lat="44.18196" lon="1.73387">
        <ele>230.85</ele>
        <time>2026-05-20T13:16:49Z</time>
      </trkpt>
      <trkpt lat="44.18187" lon="1.73376">
        <ele>232.78</ele>
        <time>2026-05-20T13:17:03Z</time>
      </trkpt>
      <trkpt lat="44.18175" lon="1.73365">
        <ele>235.66</ele>
        <time>2026-05-20T13:17:18Z</time>
      </trkpt>
      <trkpt lat="44.18165" lon="1.73353">
        <ele>237.58</ele>
        <time>2026-05-20T13:17:33Z</time>
      </trkpt>
      <trkpt lat="44.18154" lon="1.73347">
        <ele>239.02</ele>
        <time>2026-05-20T13:17:45Z</time>
      </trkpt>
      <trkpt lat="44.18139" lon="1.73341">
        <ele>240.95</ele>
        <time>2026-05-20T13:18:00Z</time>
      </trkpt>
      <trkpt lat="44.18123" lon="1.7334">
        <ele>242.39</ele>
        <time>2026-05-20T13:18:14Z</time>
      </trkpt>
      <trkpt lat="44.18109" lon="1.73338">
        <ele>244.31</ele>
        <time>2026-05-20T13:18:30Z</time>
      </trkpt>
      <trkpt lat="44.18097" lon="1.7333">
        <ele>246.23</ele>
        <time>2026-05-20T13:18:45Z</time>
      </trkpt>
      <trkpt lat="44.18087" lon="1.73326">
        <ele>248.16</ele>
        <time>2026-05-20T13:18:59Z</time>
      </trkpt>
      <trkpt lat="44.18077" lon="1.73321">
        <ele>249.6</ele>
        <time>2026-05-20T13:19:13Z</time>
      </trkpt>
      <trkpt lat="44.18068" lon="1.73312">
        <ele>251.04</ele>
        <time>2026-05-20T13:19:38Z</time>
      </trkpt>
      <trkpt lat="44.18052" lon="1.73308">
        <ele>252.96</ele>
        <time>2026-05-20T13:19:53Z</time>
      </trkpt>
      <trkpt lat="44.18042" lon="1.73303">
        <ele>254.41</ele>
        <time>2026-05-20T13:20:07Z</time>
      </trkpt>
      <trkpt lat="44.1803" lon="1.73295">
        <ele>256.33</ele>
        <time>2026-05-20T13:20:21Z</time>
      </trkpt>
      <trkpt lat="44.1802" lon="1.73284">
        <ele>258.73</ele>
        <time>2026-05-20T13:20:37Z</time>
      </trkpt>
      <trkpt lat="44.18006" lon="1.73281">
        <ele>260.65</ele>
        <time>2026-05-20T13:20:52Z</time>
      </trkpt>
      <trkpt lat="44.17992" lon="1.73277">
        <ele>262.58</ele>
        <time>2026-05-20T13:21:07Z</time>
      </trkpt>
      <trkpt lat="44.1799" lon="1.73275">
        <ele>262.58</ele>
        <time>2026-05-20T13:21:11Z</time>
      </trkpt>
      <trkpt lat="44.17976" lon="1.73267">
        <ele>264.5</ele>
        <time>2026-05-20T13:21:28Z</time>
      </trkpt>
      <trkpt lat="44.17964" lon="1.73261">
        <ele>266.9</ele>
        <time>2026-05-20T13:21:43Z</time>
      </trkpt>
      <trkpt lat="44.17954" lon="1.73253">
        <ele>268.83</ele>
        <time>2026-05-20T13:21:58Z</time>
      </trkpt>
      <trkpt lat="44.17948" lon="1.73244">
        <ele>270.27</ele>
        <time>2026-05-20T13:22:11Z</time>
      </trkpt>
      <trkpt lat="44.17945" lon="1.73241">
        <ele>271.23</ele>
        <time>2026-05-20T13:22:16Z</time>
      </trkpt>
      <trkpt lat="44.17939" lon="1.73233">
        <ele>272.67</ele>
        <time>2026-05-20T13:22:26Z</time>
      </trkpt>
      <trkpt lat="44.17932" lon="1.73225">
        <ele>274.59</ele>
        <time>2026-05-20T13:22:38Z</time>
      </trkpt>
      <trkpt lat="44.17924" lon="1.73219">
        <ele>275.56</ele>
        <time>2026-05-20T13:23:11Z</time>
      </trkpt>
      <trkpt lat="44.17918" lon="1.73209">
        <ele>277.96</ele>
        <time>2026-05-20T13:23:25Z</time>
      </trkpt>
      <trkpt lat="44.17913" lon="1.73203">
        <ele>279.4</ele>
        <time>2026-05-20T13:23:33Z</time>
      </trkpt>
      <trkpt lat="44.17909" lon="1.73194">
        <ele>281.32</ele>
        <time>2026-05-20T13:23:44Z</time>
      </trkpt>
      <trkpt lat="44.17896" lon="1.73192">
        <ele>283.73</ele>
        <time>2026-05-20T13:24:00Z</time>
      </trkpt>
      <trkpt lat="44.17893" lon="1.732">
        <ele>284.21</ele>
        <time>2026-05-20T13:24:09Z</time>
      </trkpt>
      <trkpt lat="44.17884" lon="1.73215">
        <ele>285.65</ele>
        <time>2026-05-20T13:24:22Z</time>
      </trkpt>
      <trkpt lat="44.17883" lon="1.73218">
        <ele>286.13</ele>
        <time>2026-05-20T13:24:25Z</time>
      </trkpt>
      <trkpt lat="44.17878" lon="1.7323">
        <ele>287.57</ele>
        <time>2026-05-20T13:24:37Z</time>
      </trkpt>
      <trkpt lat="44.17872" lon="1.73245">
        <ele>290.46</ele>
        <time>2026-05-20T13:24:50Z</time>
      </trkpt>
      <trkpt lat="44.17869" lon="1.7325">
        <ele>290.94</ele>
        <time>2026-05-20T13:24:55Z</time>
      </trkpt>
      <trkpt lat="44.17866" lon="1.73253">
        <ele>291.42</ele>
        <time>2026-05-20T13:25:00Z</time>
      </trkpt>
      <trkpt lat="44.17864" lon="1.73255">
        <ele>291.9</ele>
        <time>2026-05-20T13:25:04Z</time>
      </trkpt>
      <trkpt lat="44.17862" lon="1.73251">
        <ele>292.38</ele>
        <time>2026-05-20T13:25:09Z</time>
      </trkpt>
      <trkpt lat="44.17861" lon="1.73242">
        <ele>293.34</ele>
        <time>2026-05-20T13:25:18Z</time>
      </trkpt>
      <trkpt lat="44.17858" lon="1.73229">
        <ele>293.82</ele>
        <time>2026-05-20T13:25:31Z</time>
      </trkpt>
      <trkpt lat="44.17848" lon="1.73227">
        <ele>295.26</ele>
        <time>2026-05-20T13:25:39Z</time>
      </trkpt>
      <trkpt lat="44.17833" lon="1.73227">
        <ele>296.7</ele>
        <time>2026-05-20T13:25:53Z</time>
      </trkpt>
      <trkpt lat="44.17817" lon="1.73225">
        <ele>297.67</ele>
        <time>2026-05-20T13:26:07Z</time>
      </trkpt>
      <trkpt lat="44.17802" lon="1.73227">
        <ele>298.63</ele>
        <time>2026-05-20T13:26:21Z</time>
      </trkpt>
      <trkpt lat="44.17787" lon="1.73229">
        <ele>299.59</ele>
        <time>2026-05-20T13:26:33Z</time>
      </trkpt>
      <trkpt lat="44.1778" lon="1.7323">
        <ele>299.59</ele>
        <time>2026-05-20T13:26:38Z</time>
      </trkpt>
      <trkpt lat="44.1777" lon="1.73231">
        <ele>300.07</ele>
        <time>2026-05-20T13:26:45Z</time>
      </trkpt>
      <trkpt lat="44.1776" lon="1.7323">
        <ele>300.07</ele>
        <time>2026-05-20T13:26:53Z</time>
      </trkpt>
      <trkpt lat="44.17756" lon="1.73221">
        <ele>301.51</ele>
        <time>2026-05-20T13:27:04Z</time>
      </trkpt>
      <trkpt lat="44.17752" lon="1.73206">
        <ele>299.59</ele>
        <time>2026-05-20T13:27:14Z</time>
      </trkpt>
      <trkpt lat="44.17748" lon="1.73199">
        <ele>299.59</ele>
        <time>2026-05-20T13:27:21Z</time>
      </trkpt>
      <trkpt lat="44.17745" lon="1.7319">
        <ele>299.59</ele>
        <time>2026-05-20T13:27:28Z</time>
      </trkpt>
      <trkpt lat="44.17743" lon="1.73181">
        <ele>299.59</ele>
        <time>2026-05-20T13:27:33Z</time>
      </trkpt>
      <trkpt lat="44.17736" lon="1.73154">
        <ele>299.59</ele>
        <time>2026-05-20T13:27:47Z</time>
      </trkpt>
      <trkpt lat="44.17728" lon="1.73132">
        <ele>299.59</ele>
        <time>2026-05-20T13:28:01Z</time>
      </trkpt>
      <trkpt lat="44.17722" lon="1.73112">
        <ele>299.59</ele>
        <time>2026-05-20T13:28:14Z</time>
      </trkpt>
      <trkpt lat="44.17713" lon="1.73097">
        <ele>299.59</ele>
        <time>2026-05-20T13:28:24Z</time>
      </trkpt>
      <trkpt lat="44.17697" lon="1.73109">
        <ele>301.03</ele>
        <time>2026-05-20T13:28:38Z</time>
      </trkpt>
      <trkpt lat="44.17685" lon="1.73126">
        <ele>301.03</ele>
        <time>2026-05-20T13:28:53Z</time>
      </trkpt>
      <trkpt lat="44.17681" lon="1.73132">
        <ele>301.03</ele>
        <time>2026-05-20T13:28:57Z</time>
      </trkpt>
      <trkpt lat="44.17668" lon="1.73153">
        <ele>301.03</ele>
        <time>2026-05-20T13:29:12Z</time>
      </trkpt>
      <trkpt lat="44.17662" lon="1.73162">
        <ele>301.03</ele>
        <time>2026-05-20T13:29:20Z</time>
      </trkpt>
      <trkpt lat="44.17653" lon="1.73173">
        <ele>301.51</ele>
        <time>2026-05-20T13:29:27Z</time>
      </trkpt>
      <trkpt lat="44.17641" lon="1.73187">
        <ele>301.51</ele>
        <time>2026-05-20T13:29:41Z</time>
      </trkpt>
      <trkpt lat="44.17627" lon="1.73199">
        <ele>301.51</ele>
        <time>2026-05-20T13:29:55Z</time>
      </trkpt>
      <trkpt lat="44.17615" lon="1.73203">
        <ele>301.51</ele>
        <time>2026-05-20T13:30:06Z</time>
      </trkpt>
      <trkpt lat="44.17606" lon="1.73202">
        <ele>301.51</ele>
        <time>2026-05-20T13:30:18Z</time>
      </trkpt>
      <trkpt lat="44.176" lon="1.73205">
        <ele>301.51</ele>
        <time>2026-05-20T13:30:56Z</time>
      </trkpt>
      <trkpt lat="44.1759" lon="1.73203">
        <ele>301.51</ele>
        <time>2026-05-20T13:31:05Z</time>
      </trkpt>
      <trkpt lat="44.1758" lon="1.73226">
        <ele>301.51</ele>
        <time>2026-05-20T13:31:20Z</time>
      </trkpt>
      <trkpt lat="44.17572" lon="1.73244">
        <ele>301.51</ele>
        <time>2026-05-20T13:31:32Z</time>
      </trkpt>
      <trkpt lat="44.17571" lon="1.7325">
        <ele>301.51</ele>
        <time>2026-05-20T13:31:51Z</time>
      </trkpt>
      <trkpt lat="44.17562" lon="1.73266">
        <ele>302.47</ele>
        <time>2026-05-20T13:32:08Z</time>
      </trkpt>
      <trkpt lat="44.17551" lon="1.73286">
        <ele>302.95</ele>
        <time>2026-05-20T13:32:23Z</time>
      </trkpt>
      <trkpt lat="44.17539" lon="1.73304">
        <ele>302.95</ele>
        <time>2026-05-20T13:32:37Z</time>
      </trkpt>
      <trkpt lat="44.17528" lon="1.73321">
        <ele>302.95</ele>
        <time>2026-05-20T13:32:50Z</time>
      </trkpt>
      <trkpt lat="44.17516" lon="1.73344">
        <ele>302.95</ele>
        <time>2026-05-20T13:33:04Z</time>
      </trkpt>
      <trkpt lat="44.17504" lon="1.73366">
        <ele>302.95</ele>
        <time>2026-05-20T13:33:19Z</time>
      </trkpt>
      <trkpt lat="44.17492" lon="1.73389">
        <ele>302.95</ele>
        <time>2026-05-20T13:33:34Z</time>
      </trkpt>
      <trkpt lat="44.17482" lon="1.73411">
        <ele>302.95</ele>
        <time>2026-05-20T13:33:48Z</time>
      </trkpt>
      <trkpt lat="44.17477" lon="1.73417">
        <ele>301.51</ele>
        <time>2026-05-20T13:33:52Z</time>
      </trkpt>
      <trkpt lat="44.17463" lon="1.7344">
        <ele>301.99</ele>
        <time>2026-05-20T13:34:08Z</time>
      </trkpt>
      <trkpt lat="44.17452" lon="1.73463">
        <ele>301.99</ele>
        <time>2026-05-20T13:34:22Z</time>
      </trkpt>
      <trkpt lat="44.1744" lon="1.73487">
        <ele>301.51</ele>
        <time>2026-05-20T13:34:38Z</time>
      </trkpt>
      <trkpt lat="44.17427" lon="1.73509">
        <ele>301.03</ele>
        <time>2026-05-20T13:34:54Z</time>
      </trkpt>
      <trkpt lat="44.17416" lon="1.73528">
        <ele>301.03</ele>
        <time>2026-05-20T13:35:08Z</time>
      </trkpt>
      <trkpt lat="44.17403" lon="1.73549">
        <ele>300.55</ele>
        <time>2026-05-20T13:35:23Z</time>
      </trkpt>
      <trkpt lat="44.17388" lon="1.73567">
        <ele>300.55</ele>
        <time>2026-05-20T13:35:39Z</time>
      </trkpt>
      <trkpt lat="44.17369" lon="1.73584">
        <ele>300.07</ele>
        <time>2026-05-20T13:35:55Z</time>
      </trkpt>
      <trkpt lat="44.17347" lon="1.73602">
        <ele>300.07</ele>
        <time>2026-05-20T13:36:12Z</time>
      </trkpt>
      <trkpt lat="44.17326" lon="1.73612">
        <ele>300.07</ele>
        <time>2026-05-20T13:36:27Z</time>
      </trkpt>
      <trkpt lat="44.17305" lon="1.73621">
        <ele>300.07</ele>
        <time>2026-05-20T13:36:43Z</time>
      </trkpt>
      <trkpt lat="44.17287" lon="1.73627">
        <ele>300.07</ele>
        <time>2026-05-20T13:36:58Z</time>
      </trkpt>
      <trkpt lat="44.17267" lon="1.73636">
        <ele>300.07</ele>
        <time>2026-05-20T13:37:14Z</time>
      </trkpt>
      <trkpt lat="44.17256" lon="1.73646">
        <ele>301.51</ele>
        <time>2026-05-20T13:37:27Z</time>
      </trkpt>
      <trkpt lat="44.17246" lon="1.73656">
        <ele>301.99</ele>
        <time>2026-05-20T13:37:39Z</time>
      </trkpt>
      <trkpt lat="44.17244" lon="1.73658">
        <ele>301.99</ele>
        <time>2026-05-20T13:37:41Z</time>
      </trkpt>
      <trkpt lat="44.17231" lon="1.73674">
        <ele>301.99</ele>
        <time>2026-05-20T13:37:56Z</time>
      </trkpt>
      <trkpt lat="44.17219" lon="1.73691">
        <ele>302.47</ele>
        <time>2026-05-20T13:38:10Z</time>
      </trkpt>
      <trkpt lat="44.17205" lon="1.73713">
        <ele>303.43</ele>
        <time>2026-05-20T13:38:25Z</time>
      </trkpt>
      <trkpt lat="44.1719" lon="1.73738">
        <ele>303.43</ele>
        <time>2026-05-20T13:38:41Z</time>
      </trkpt>
      <trkpt lat="44.17178" lon="1.73754">
        <ele>301.99</ele>
        <time>2026-05-20T13:38:54Z</time>
      </trkpt>
      <trkpt lat="44.17162" lon="1.73774">
        <ele>301.03</ele>
        <time>2026-05-20T13:39:09Z</time>
      </trkpt>
      <trkpt lat="44.17148" lon="1.73792">
        <ele>300.07</ele>
        <time>2026-05-20T13:39:23Z</time>
      </trkpt>
      <trkpt lat="44.17147" lon="1.73792">
        <ele>300.07</ele>
        <time>2026-05-20T13:39:24Z</time>
      </trkpt>
      <trkpt lat="44.17132" lon="1.73799">
        <ele>299.59</ele>
        <time>2026-05-20T13:39:39Z</time>
      </trkpt>
      <trkpt lat="44.1712" lon="1.73806">
        <ele>299.59</ele>
        <time>2026-05-20T13:40:03Z</time>
      </trkpt>
      <trkpt lat="44.17102" lon="1.7381">
        <ele>300.07</ele>
        <time>2026-05-20T13:40:17Z</time>
      </trkpt>
      <trkpt lat="44.17094" lon="1.73813">
        <ele>300.07</ele>
        <time>2026-05-20T13:40:24Z</time>
      </trkpt>
      <trkpt lat="44.17092" lon="1.73815">
        <ele>300.07</ele>
        <time>2026-05-20T13:40:26Z</time>
      </trkpt>
      <trkpt lat="44.1707" lon="1.73811">
        <ele>298.15</ele>
        <time>2026-05-20T13:40:42Z</time>
      </trkpt>
      <trkpt lat="44.17052" lon="1.73804">
        <ele>298.15</ele>
        <time>2026-05-20T13:40:57Z</time>
      </trkpt>
      <trkpt lat="44.17036" lon="1.73795">
        <ele>298.15</ele>
        <time>2026-05-20T13:41:11Z</time>
      </trkpt>
      <trkpt lat="44.17013" lon="1.7379">
        <ele>298.15</ele>
        <time>2026-05-20T13:41:25Z</time>
      </trkpt>
      <trkpt lat="44.16991" lon="1.73783">
        <ele>297.67</ele>
        <time>2026-05-20T13:41:41Z</time>
      </trkpt>
      <trkpt lat="44.16983" lon="1.7378">
        <ele>297.18</ele>
        <time>2026-05-20T13:41:48Z</time>
      </trkpt>
      <trkpt lat="44.16967" lon="1.73768">
        <ele>297.18</ele>
        <time>2026-05-20T13:42:02Z</time>
      </trkpt>
      <trkpt lat="44.1695" lon="1.73758">
        <ele>296.7</ele>
        <time>2026-05-20T13:42:17Z</time>
      </trkpt>
      <trkpt lat="44.16933" lon="1.7375">
        <ele>296.22</ele>
        <time>2026-05-20T13:42:32Z</time>
      </trkpt>
      <trkpt lat="44.16914" lon="1.73739">
        <ele>296.22</ele>
        <time>2026-05-20T13:42:48Z</time>
      </trkpt>
      <trkpt lat="44.16898" lon="1.73731">
        <ele>295.74</ele>
        <time>2026-05-20T13:43:02Z</time>
      </trkpt>
      <trkpt lat="44.16896" lon="1.73729">
        <ele>295.74</ele>
        <time>2026-05-20T13:43:04Z</time>
      </trkpt>
      <trkpt lat="44.16883" lon="1.73718">
        <ele>295.74</ele>
        <time>2026-05-20T13:43:18Z</time>
      </trkpt>
      <trkpt lat="44.1687" lon="1.73708">
        <ele>297.18</ele>
        <time>2026-05-20T13:43:31Z</time>
      </trkpt>
      <trkpt lat="44.16864" lon="1.73706">
        <ele>297.67</ele>
        <time>2026-05-20T13:43:38Z</time>
      </trkpt>
      <trkpt lat="44.16854" lon="1.73707">
        <ele>298.15</ele>
        <time>2026-05-20T13:43:44Z</time>
      </trkpt>
      <trkpt lat="44.1683" lon="1.73713">
        <ele>298.15</ele>
        <time>2026-05-20T13:44:01Z</time>
      </trkpt>
      <trkpt lat="44.16828" lon="1.73715">
        <ele>298.15</ele>
        <time>2026-05-20T13:44:03Z</time>
      </trkpt>
      <trkpt lat="44.16816" lon="1.73723">
        <ele>298.15</ele>
        <time>2026-05-20T13:44:16Z</time>
      </trkpt>
      <trkpt lat="44.16815" lon="1.73723">
        <ele>298.15</ele>
        <time>2026-05-20T13:44:17Z</time>
      </trkpt>
      <trkpt lat="44.16789" lon="1.73736">
        <ele>296.7</ele>
        <time>2026-05-20T13:44:34Z</time>
      </trkpt>
      <trkpt lat="44.16781" lon="1.73739">
        <ele>297.18</ele>
        <time>2026-05-20T13:44:39Z</time>
      </trkpt>
      <trkpt lat="44.16752" lon="1.73748">
        <ele>297.18</ele>
        <time>2026-05-20T13:44:58Z</time>
      </trkpt>
      <trkpt lat="44.16732" lon="1.73758">
        <ele>296.22</ele>
        <time>2026-05-20T13:45:14Z</time>
      </trkpt>
      <trkpt lat="44.16717" lon="1.73764">
        <ele>296.22</ele>
        <time>2026-05-20T13:45:27Z</time>
      </trkpt>
      <trkpt lat="44.16693" lon="1.73773">
        <ele>295.74</ele>
        <time>2026-05-20T13:45:45Z</time>
      </trkpt>
      <trkpt lat="44.16673" lon="1.7378">
        <ele>295.26</ele>
        <time>2026-05-20T13:46:00Z</time>
      </trkpt>
      <trkpt lat="44.16651" lon="1.73783">
        <ele>294.78</ele>
        <time>2026-05-20T13:46:15Z</time>
      </trkpt>
      <trkpt lat="44.16645" lon="1.73784">
        <ele>294.78</ele>
        <time>2026-05-20T13:46:21Z</time>
      </trkpt>
      <trkpt lat="44.16644" lon="1.73784">
        <ele>294.78</ele>
        <time>2026-05-20T13:46:22Z</time>
      </trkpt>
      <trkpt lat="44.1662" lon="1.7379">
        <ele>294.78</ele>
        <time>2026-05-20T13:46:41Z</time>
      </trkpt>
      <trkpt lat="44.166" lon="1.73794">
        <ele>294.3</ele>
        <time>2026-05-20T13:46:57Z</time>
      </trkpt>
      <trkpt lat="44.1658" lon="1.73798">
        <ele>294.3</ele>
        <time>2026-05-20T13:47:12Z</time>
      </trkpt>
      <trkpt lat="44.1656" lon="1.73802">
        <ele>294.3</ele>
        <time>2026-05-20T13:47:27Z</time>
      </trkpt>
      <trkpt lat="44.16547" lon="1.73806">
        <ele>295.74</ele>
        <time>2026-05-20T13:47:36Z</time>
      </trkpt>
      <trkpt lat="44.1653" lon="1.7381">
        <ele>295.74</ele>
        <time>2026-05-20T13:47:51Z</time>
      </trkpt>
      <trkpt lat="44.1651" lon="1.73812">
        <ele>297.18</ele>
        <time>2026-05-20T13:48:07Z</time>
      </trkpt>
      <trkpt lat="44.16495" lon="1.73815">
        <ele>297.67</ele>
        <time>2026-05-20T13:48:19Z</time>
      </trkpt>
      <trkpt lat="44.16494" lon="1.73815">
        <ele>297.67</ele>
        <time>2026-05-20T13:48:33Z</time>
      </trkpt>
      <trkpt lat="44.16492" lon="1.73815">
        <ele>298.15</ele>
        <time>2026-05-20T13:48:44Z</time>
      </trkpt>
      <trkpt lat="44.1649" lon="1.73815">
        <ele>298.15</ele>
        <time>2026-05-20T13:48:45Z</time>
      </trkpt>
      <trkpt lat="44.16477" lon="1.73819">
        <ele>299.11</ele>
        <time>2026-05-20T13:48:58Z</time>
      </trkpt>
      <trkpt lat="44.16476" lon="1.73819">
        <ele>299.11</ele>
        <time>2026-05-20T13:48:59Z</time>
      </trkpt>
      <trkpt lat="44.16475" lon="1.73819">
        <ele>299.11</ele>
        <time>2026-05-20T13:49:00Z</time>
      </trkpt>
      <trkpt lat="44.16459" lon="1.73816">
        <ele>300.55</ele>
        <time>2026-05-20T13:49:15Z</time>
      </trkpt>
      <trkpt lat="44.16454" lon="1.73813">
        <ele>301.03</ele>
        <time>2026-05-20T13:49:22Z</time>
      </trkpt>
      <trkpt lat="44.16453" lon="1.73812">
        <ele>301.51</ele>
        <time>2026-05-20T13:49:23Z</time>
      </trkpt>
      <trkpt lat="44.16451" lon="1.73811">
        <ele>301.51</ele>
        <time>2026-05-20T13:49:24Z</time>
      </trkpt>
      <trkpt lat="44.16449" lon="1.7381">
        <ele>301.51</ele>
        <time>2026-05-20T13:49:25Z</time>
      </trkpt>
      <trkpt lat="44.16448" lon="1.7381">
        <ele>301.51</ele>
        <time>2026-05-20T13:49:26Z</time>
      </trkpt>
      <trkpt lat="44.16442" lon="1.73808">
        <ele>301.99</ele>
        <time>2026-05-20T13:49:32Z</time>
      </trkpt>
      <trkpt lat="44.16441" lon="1.73807">
        <ele>301.99</ele>
        <time>2026-05-20T13:49:33Z</time>
      </trkpt>
      <trkpt lat="44.16429" lon="1.73806">
        <ele>303.91</ele>
        <time>2026-05-20T13:49:42Z</time>
      </trkpt>
      <trkpt lat="44.16428" lon="1.73806">
        <ele>303.91</ele>
        <time>2026-05-20T13:49:43Z</time>
      </trkpt>
      <trkpt lat="44.16413" lon="1.7381">
        <ele>304.88</ele>
        <time>2026-05-20T13:49:57Z</time>
      </trkpt>
      <trkpt lat="44.16397" lon="1.7381">
        <ele>306.32</ele>
        <time>2026-05-20T13:50:12Z</time>
      </trkpt>
      <trkpt lat="44.1637" lon="1.73814">
        <ele>308.24</ele>
        <time>2026-05-20T13:50:33Z</time>
      </trkpt>
      <trkpt lat="44.16351" lon="1.73817">
        <ele>309.68</ele>
        <time>2026-05-20T13:50:48Z</time>
      </trkpt>
      <trkpt lat="44.16337" lon="1.7382">
        <ele>309.68</ele>
        <time>2026-05-20T13:51:01Z</time>
      </trkpt>
      <trkpt lat="44.16319" lon="1.73823">
        <ele>310.64</ele>
        <time>2026-05-20T13:51:15Z</time>
      </trkpt>
      <trkpt lat="44.16301" lon="1.73827">
        <ele>311.12</ele>
        <time>2026-05-20T13:51:30Z</time>
      </trkpt>
      <trkpt lat="44.16284" lon="1.73828">
        <ele>312.09</ele>
        <time>2026-05-20T13:51:45Z</time>
      </trkpt>
      <trkpt lat="44.1627" lon="1.73844">
        <ele>312.57</ele>
        <time>2026-05-20T13:51:59Z</time>
      </trkpt>
      <trkpt lat="44.16261" lon="1.73862">
        <ele>312.57</ele>
        <time>2026-05-20T13:52:11Z</time>
      </trkpt>
      <trkpt lat="44.16247" lon="1.73879">
        <ele>312.57</ele>
        <time>2026-05-20T13:52:25Z</time>
      </trkpt>
      <trkpt lat="44.16237" lon="1.73896">
        <ele>312.57</ele>
        <time>2026-05-20T13:52:37Z</time>
      </trkpt>
      <trkpt lat="44.16222" lon="1.73913">
        <ele>311.12</ele>
        <time>2026-05-20T13:52:51Z</time>
      </trkpt>
      <trkpt lat="44.16209" lon="1.73931">
        <ele>310.16</ele>
        <time>2026-05-20T13:53:05Z</time>
      </trkpt>
      <trkpt lat="44.16199" lon="1.73948">
        <ele>309.2</ele>
        <time>2026-05-20T13:53:18Z</time>
      </trkpt>
      <trkpt lat="44.16186" lon="1.73966">
        <ele>309.2</ele>
        <time>2026-05-20T13:53:32Z</time>
      </trkpt>
      <trkpt lat="44.16176" lon="1.73986">
        <ele>307.76</ele>
        <time>2026-05-20T13:53:45Z</time>
      </trkpt>
      <trkpt lat="44.16164" lon="1.74005">
        <ele>306.8</ele>
        <time>2026-05-20T13:53:57Z</time>
      </trkpt>
      <trkpt lat="44.16158" lon="1.74026">
        <ele>306.32</ele>
        <time>2026-05-20T13:54:10Z</time>
      </trkpt>
      <trkpt lat="44.16146" lon="1.74046">
        <ele>305.84</ele>
        <time>2026-05-20T13:54:25Z</time>
      </trkpt>
      <trkpt lat="44.16135" lon="1.74064">
        <ele>305.36</ele>
        <time>2026-05-20T13:54:40Z</time>
      </trkpt>
      <trkpt lat="44.16134" lon="1.74066">
        <ele>305.36</ele>
        <time>2026-05-20T13:54:41Z</time>
      </trkpt>
      <trkpt lat="44.16123" lon="1.74083">
        <ele>305.36</ele>
        <time>2026-05-20T13:54:55Z</time>
      </trkpt>
      <trkpt lat="44.16115" lon="1.74106">
        <ele>306.8</ele>
        <time>2026-05-20T13:55:09Z</time>
      </trkpt>
      <trkpt lat="44.16114" lon="1.74107">
        <ele>306.8</ele>
        <time>2026-05-20T13:55:10Z</time>
      </trkpt>
      <trkpt lat="44.16108" lon="1.74125">
        <ele>307.28</ele>
        <time>2026-05-20T13:55:21Z</time>
      </trkpt>
      <trkpt lat="44.16107" lon="1.74127">
        <ele>307.28</ele>
        <time>2026-05-20T13:55:22Z</time>
      </trkpt>
      <trkpt lat="44.16096" lon="1.74152">
        <ele>308.72</ele>
        <time>2026-05-20T13:55:39Z</time>
      </trkpt>
      <trkpt lat="44.1609" lon="1.74172">
        <ele>309.2</ele>
        <time>2026-05-20T13:55:53Z</time>
      </trkpt>
      <trkpt lat="44.16087" lon="1.74179">
        <ele>309.68</ele>
        <time>2026-05-20T13:55:58Z</time>
      </trkpt>
      <trkpt lat="44.16087" lon="1.74181">
        <ele>309.68</ele>
        <time>2026-05-20T13:55:59Z</time>
      </trkpt>
      <trkpt lat="44.16071" lon="1.74205">
        <ele>310.64</ele>
        <time>2026-05-20T13:56:16Z</time>
      </trkpt>
      <trkpt lat="44.16066" lon="1.74218">
        <ele>310.64</ele>
        <time>2026-05-20T13:56:25Z</time>
      </trkpt>
      <trkpt lat="44.16057" lon="1.74241">
        <ele>311.6</ele>
        <time>2026-05-20T13:56:41Z</time>
      </trkpt>
      <trkpt lat="44.16046" lon="1.74264">
        <ele>311.6</ele>
        <time>2026-05-20T13:56:55Z</time>
      </trkpt>
      <trkpt lat="44.16045" lon="1.74265">
        <ele>311.6</ele>
        <time>2026-05-20T13:56:56Z</time>
      </trkpt>
      <trkpt lat="44.16028" lon="1.74283">
        <ele>312.57</ele>
        <time>2026-05-20T13:57:13Z</time>
      </trkpt>
      <trkpt lat="44.16021" lon="1.74294">
        <ele>312.57</ele>
        <time>2026-05-20T13:57:20Z</time>
      </trkpt>
      <trkpt lat="44.16009" lon="1.74308">
        <ele>313.53</ele>
        <time>2026-05-20T13:57:32Z</time>
      </trkpt>
      <trkpt lat="44.16004" lon="1.74318">
        <ele>313.53</ele>
        <time>2026-05-20T13:57:40Z</time>
      </trkpt>
      <trkpt lat="44.16004" lon="1.7432">
        <ele>313.53</ele>
        <time>2026-05-20T13:57:41Z</time>
      </trkpt>
      <trkpt lat="44.16003" lon="1.74323">
        <ele>313.53</ele>
        <time>2026-05-20T13:57:42Z</time>
      </trkpt>
      <trkpt lat="44.16002" lon="1.74325">
        <ele>313.53</ele>
        <time>2026-05-20T13:57:43Z</time>
      </trkpt>
      <trkpt lat="44.16001" lon="1.74327">
        <ele>313.53</ele>
        <time>2026-05-20T13:57:44Z</time>
      </trkpt>
      <trkpt lat="44.16" lon="1.74328">
        <ele>313.53</ele>
        <time>2026-05-20T13:57:45Z</time>
      </trkpt>
      <trkpt lat="44.15991" lon="1.74351">
        <ele>313.53</ele>
        <time>2026-05-20T13:58:00Z</time>
      </trkpt>
      <trkpt lat="44.15989" lon="1.74358">
        <ele>313.53</ele>
        <time>2026-05-20T13:58:04Z</time>
      </trkpt>
      <trkpt lat="44.15989" lon="1.7436">
        <ele>313.53</ele>
        <time>2026-05-20T13:58:05Z</time>
      </trkpt>
      <trkpt lat="44.15988" lon="1.74362">
        <ele>313.53</ele>
        <time>2026-05-20T13:58:06Z</time>
      </trkpt>
      <trkpt lat="44.15983" lon="1.7437">
        <ele>313.53</ele>
        <time>2026-05-20T13:58:13Z</time>
      </trkpt>
      <trkpt lat="44.15966" lon="1.74391">
        <ele>313.53</ele>
        <time>2026-05-20T13:58:29Z</time>
      </trkpt>
      <trkpt lat="44.15952" lon="1.74405">
        <ele>314.49</ele>
        <time>2026-05-20T13:58:43Z</time>
      </trkpt>
      <trkpt lat="44.15934" lon="1.74418">
        <ele>314.49</ele>
        <time>2026-05-20T13:58:58Z</time>
      </trkpt>
      <trkpt lat="44.15915" lon="1.74428">
        <ele>315.45</ele>
        <time>2026-05-20T13:59:14Z</time>
      </trkpt>
      <trkpt lat="44.15893" lon="1.74438">
        <ele>315.45</ele>
        <time>2026-05-20T13:59:31Z</time>
      </trkpt>
      <trkpt lat="44.15877" lon="1.74452">
        <ele>315.93</ele>
        <time>2026-05-20T13:59:45Z</time>
      </trkpt>
      <trkpt lat="44.15864" lon="1.74462">
        <ele>314.49</ele>
        <time>2026-05-20T13:59:58Z</time>
      </trkpt>
      <trkpt lat="44.15862" lon="1.74466">
        <ele>314.49</ele>
        <time>2026-05-20T14:00:01Z</time>
      </trkpt>
      <trkpt lat="44.15861" lon="1.74471">
        <ele>314.49</ele>
        <time>2026-05-20T14:00:04Z</time>
      </trkpt>
      <trkpt lat="44.15861" lon="1.74473">
        <ele>314.49</ele>
        <time>2026-05-20T14:00:05Z</time>
      </trkpt>
      <trkpt lat="44.15861" lon="1.74475">
        <ele>314.49</ele>
        <time>2026-05-20T14:00:06Z</time>
      </trkpt>
      <trkpt lat="44.15861" lon="1.74477">
        <ele>314.49</ele>
        <time>2026-05-20T14:00:07Z</time>
      </trkpt>
      <trkpt lat="44.15861" lon="1.74479">
        <ele>314.49</ele>
        <time>2026-05-20T14:00:08Z</time>
      </trkpt>
      <trkpt lat="44.15861" lon="1.74482">
        <ele>314.49</ele>
        <time>2026-05-20T14:00:10Z</time>
      </trkpt>
      <trkpt lat="44.15862" lon="1.74513">
        <ele>314.49</ele>
        <time>2026-05-20T14:00:28Z</time>
      </trkpt>
      <trkpt lat="44.15863" lon="1.74534">
        <ele>314.49</ele>
        <time>2026-05-20T14:00:40Z</time>
      </trkpt>
      <trkpt lat="44.15865" lon="1.74556">
        <ele>314.49</ele>
        <time>2026-05-20T14:00:53Z</time>
      </trkpt>
      <trkpt lat="44.1587" lon="1.74588">
        <ele>314.49</ele>
        <time>2026-05-20T14:01:11Z</time>
      </trkpt>
      <trkpt lat="44.15873" lon="1.74614">
        <ele>314.49</ele>
        <time>2026-05-20T14:01:26Z</time>
      </trkpt>
      <trkpt lat="44.15875" lon="1.74639">
        <ele>314.49</ele>
        <time>2026-05-20T14:01:39Z</time>
      </trkpt>
      <trkpt lat="44.15876" lon="1.74663">
        <ele>314.49</ele>
        <time>2026-05-20T14:01:53Z</time>
      </trkpt>
      <trkpt lat="44.15878" lon="1.74682">
        <ele>315.93</ele>
        <time>2026-05-20T14:02:02Z</time>
      </trkpt>
      <trkpt lat="44.15881" lon="1.74711">
        <ele>315.93</ele>
        <time>2026-05-20T14:02:20Z</time>
      </trkpt>
      <trkpt lat="44.15883" lon="1.74739">
        <ele>316.41</ele>
        <time>2026-05-20T14:02:36Z</time>
      </trkpt>
      <trkpt lat="44.15884" lon="1.74765">
        <ele>316.89</ele>
        <time>2026-05-20T14:02:50Z</time>
      </trkpt>
      <trkpt lat="44.15888" lon="1.74787">
        <ele>316.89</ele>
        <time>2026-05-20T14:03:05Z</time>
      </trkpt>
      <trkpt lat="44.15891" lon="1.74787">
        <ele>316.89</ele>
        <time>2026-05-20T14:03:08Z</time>
      </trkpt>
      <trkpt lat="44.15892" lon="1.74787">
        <ele>316.89</ele>
        <time>2026-05-20T14:03:09Z</time>
      </trkpt>
      <trkpt lat="44.15914" lon="1.74787">
        <ele>315.93</ele>
        <time>2026-05-20T14:03:27Z</time>
      </trkpt>
      <trkpt lat="44.15932" lon="1.74789">
        <ele>315.45</ele>
        <time>2026-05-20T14:03:41Z</time>
      </trkpt>
      <trkpt lat="44.15937" lon="1.74786">
        <ele>314.97</ele>
        <time>2026-05-20T14:03:58Z</time>
      </trkpt>
      <trkpt lat="44.15938" lon="1.74793">
        <ele>314.49</ele>
        <time>2026-05-20T14:04:12Z</time>
      </trkpt>
      <trkpt lat="44.15938" lon="1.74794">
        <ele>314.49</ele>
        <time>2026-05-20T14:04:13Z</time>
      </trkpt>
      <trkpt lat="44.15936" lon="1.74819">
        <ele>314.49</ele>
        <time>2026-05-20T14:04:30Z</time>
      </trkpt>
      <trkpt lat="44.15938" lon="1.74846">
        <ele>314.49</ele>
        <time>2026-05-20T14:04:46Z</time>
      </trkpt>
      <trkpt lat="44.15938" lon="1.74874">
        <ele>314.49</ele>
        <time>2026-05-20T14:05:03Z</time>
      </trkpt>
      <trkpt lat="44.15943" lon="1.74873">
        <ele>314.49</ele>
        <time>2026-05-20T14:05:29Z</time>
      </trkpt>
      <trkpt lat="44.15942" lon="1.74896">
        <ele>314.97</ele>
        <time>2026-05-20T14:05:48Z</time>
      </trkpt>
      <trkpt lat="44.15942" lon="1.74898">
        <ele>314.97</ele>
        <time>2026-05-20T14:05:49Z</time>
      </trkpt>
      <trkpt lat="44.15942" lon="1.749">
        <ele>314.97</ele>
        <time>2026-05-20T14:05:50Z</time>
      </trkpt>
      <trkpt lat="44.1594" lon="1.74923">
        <ele>314.97</ele>
        <time>2026-05-20T14:06:04Z</time>
      </trkpt>
      <trkpt lat="44.15939" lon="1.74923">
        <ele>314.97</ele>
        <time>2026-05-20T14:06:05Z</time>
      </trkpt>
      <trkpt lat="44.15938" lon="1.74924">
        <ele>314.97</ele>
        <time>2026-05-20T14:06:06Z</time>
      </trkpt>
      <trkpt lat="44.15919" lon="1.74923">
        <ele>314.97</ele>
        <time>2026-05-20T14:06:21Z</time>
      </trkpt>
      <trkpt lat="44.15901" lon="1.74931">
        <ele>316.41</ele>
        <time>2026-05-20T14:06:40Z</time>
      </trkpt>
      <trkpt lat="44.15897" lon="1.74941">
        <ele>316.41</ele>
        <time>2026-05-20T14:06:48Z</time>
      </trkpt>
      <trkpt lat="44.15895" lon="1.74944">
        <ele>314.97</ele>
        <time>2026-05-20T14:06:50Z</time>
      </trkpt>
      <trkpt lat="44.15888" lon="1.74969">
        <ele>314.01</ele>
        <time>2026-05-20T14:07:05Z</time>
      </trkpt>
      <trkpt lat="44.15886" lon="1.7498">
        <ele>313.05</ele>
        <time>2026-05-20T14:07:11Z</time>
      </trkpt>
      <trkpt lat="44.15882" lon="1.75012">
        <ele>311.6</ele>
        <time>2026-05-20T14:07:28Z</time>
      </trkpt>
      <trkpt lat="44.15876" lon="1.75048">
        <ele>310.16</ele>
        <time>2026-05-20T14:07:47Z</time>
      </trkpt>
      <trkpt lat="44.15874" lon="1.75056">
        <ele>309.2</ele>
        <time>2026-05-20T14:07:51Z</time>
      </trkpt>
      <trkpt lat="44.15865" lon="1.75082">
        <ele>308.24</ele>
        <time>2026-05-20T14:08:07Z</time>
      </trkpt>
      <trkpt lat="44.15853" lon="1.75099">
        <ele>306.32</ele>
        <time>2026-05-20T14:08:22Z</time>
      </trkpt>
      <trkpt lat="44.15852" lon="1.75103">
        <ele>305.36</ele>
        <time>2026-05-20T14:08:25Z</time>
      </trkpt>
      <trkpt lat="44.15835" lon="1.75124">
        <ele>302.47</ele>
        <time>2026-05-20T14:08:42Z</time>
      </trkpt>
      <trkpt lat="44.15828" lon="1.75142">
        <ele>300.07</ele>
        <time>2026-05-20T14:09:00Z</time>
      </trkpt>
      <trkpt lat="44.15834" lon="1.75145">
        <ele>300.07</ele>
        <time>2026-05-20T14:09:20Z</time>
      </trkpt>
      <trkpt lat="44.15825" lon="1.75148">
        <ele>299.59</ele>
        <time>2026-05-20T14:09:38Z</time>
      </trkpt>
      <trkpt lat="44.15811" lon="1.75146">
        <ele>298.15</ele>
        <time>2026-05-20T14:09:53Z</time>
      </trkpt>
      <trkpt lat="44.15812" lon="1.75146">
        <ele>296.7</ele>
        <time>2026-05-20T14:09:56Z</time>
      </trkpt>
      <trkpt lat="44.15812" lon="1.75146">
        <ele>298.63</ele>
        <time>2026-05-20T14:09:58Z</time>
      </trkpt>
      <trkpt lat="44.15808" lon="1.75145">
        <ele>296.7</ele>
        <time>2026-05-20T14:10:15Z</time>
      </trkpt>
      <trkpt lat="44.15802" lon="1.75147">
        <ele>294.3</ele>
        <time>2026-05-20T14:10:22Z</time>
      </trkpt>
      <trkpt lat="44.15795" lon="1.7516">
        <ele>291.9</ele>
        <time>2026-05-20T14:10:36Z</time>
      </trkpt>
      <trkpt lat="44.15796" lon="1.75161">
        <ele>291.42</ele>
        <time>2026-05-20T14:10:49Z</time>
      </trkpt>
      <trkpt lat="44.15796" lon="1.75159">
        <ele>291.42</ele>
        <time>2026-05-20T14:11:14Z</time>
      </trkpt>
      <trkpt lat="44.15793" lon="1.75159">
        <ele>290.94</ele>
        <time>2026-05-20T14:11:21Z</time>
      </trkpt>
      <trkpt lat="44.15785" lon="1.75152">
        <ele>288.05</ele>
        <time>2026-05-20T14:11:32Z</time>
      </trkpt>
      <trkpt lat="44.15774" lon="1.75154">
        <ele>285.17</ele>
        <time>2026-05-20T14:11:45Z</time>
      </trkpt>
      <trkpt lat="44.15767" lon="1.75155">
        <ele>283.73</ele>
        <time>2026-05-20T14:11:52Z</time>
      </trkpt>
      <trkpt lat="44.15757" lon="1.75154">
        <ele>280.36</ele>
        <time>2026-05-20T14:12:03Z</time>
      </trkpt>
      <trkpt lat="44.15755" lon="1.75152">
        <ele>279.88</ele>
        <time>2026-05-20T14:12:06Z</time>
      </trkpt>
      <trkpt lat="44.15751" lon="1.7515">
        <ele>278.92</ele>
        <time>2026-05-20T14:12:10Z</time>
      </trkpt>
      <trkpt lat="44.15747" lon="1.75148">
        <ele>277.96</ele>
        <time>2026-05-20T14:12:14Z</time>
      </trkpt>
      <trkpt lat="44.15743" lon="1.7514">
        <ele>276.52</ele>
        <time>2026-05-20T14:12:21Z</time>
      </trkpt>
      <trkpt lat="44.15739" lon="1.75133">
        <ele>275.07</ele>
        <time>2026-05-20T14:12:39Z</time>
      </trkpt>
      <trkpt lat="44.15737" lon="1.75131">
        <ele>274.59</ele>
        <time>2026-05-20T14:13:16Z</time>
      </trkpt>
      <trkpt lat="44.15726" lon="1.75125">
        <ele>271.23</ele>
        <time>2026-05-20T14:13:30Z</time>
      </trkpt>
      <trkpt lat="44.15717" lon="1.75116">
        <ele>267.86</ele>
        <time>2026-05-20T14:13:43Z</time>
      </trkpt>
      <trkpt lat="44.15716" lon="1.75115">
        <ele>267.86</ele>
        <time>2026-05-20T14:13:44Z</time>
      </trkpt>
      <trkpt lat="44.15705" lon="1.75107">
        <ele>264.5</ele>
        <time>2026-05-20T14:13:57Z</time>
      </trkpt>
      <trkpt lat="44.15696" lon="1.75091">
        <ele>261.62</ele>
        <time>2026-05-20T14:14:10Z</time>
      </trkpt>
      <trkpt lat="44.15685" lon="1.75089">
        <ele>258.73</ele>
        <time>2026-05-20T14:14:21Z</time>
      </trkpt>
      <trkpt lat="44.15677" lon="1.75086">
        <ele>255.37</ele>
        <time>2026-05-20T14:14:37Z</time>
      </trkpt>
      <trkpt lat="44.15672" lon="1.75079">
        <ele>253.44</ele>
        <time>2026-05-20T14:15:01Z</time>
      </trkpt>
      <trkpt lat="44.15661" lon="1.75069">
        <ele>250.08</ele>
        <time>2026-05-20T14:15:16Z</time>
      </trkpt>
      <trkpt lat="44.15656" lon="1.75067">
        <ele>248.64</ele>
        <time>2026-05-20T14:15:33Z</time>
      </trkpt>
      <trkpt lat="44.15652" lon="1.75067">
        <ele>247.68</ele>
        <time>2026-05-20T14:15:58Z</time>
      </trkpt>
      <trkpt lat="44.15648" lon="1.75066">
        <ele>246.72</ele>
        <time>2026-05-20T14:16:03Z</time>
      </trkpt>
      <trkpt lat="44.15644" lon="1.75065">
        <ele>245.27</ele>
        <time>2026-05-20T14:16:08Z</time>
      </trkpt>
      <trkpt lat="44.15642" lon="1.75065">
        <ele>244.79</ele>
        <time>2026-05-20T14:16:10Z</time>
      </trkpt>
      <trkpt lat="44.15632" lon="1.75065">
        <ele>242.39</ele>
        <time>2026-05-20T14:16:20Z</time>
      </trkpt>
      <trkpt lat="44.15625" lon="1.75067">
        <ele>239.99</ele>
        <time>2026-05-20T14:16:28Z</time>
      </trkpt>
      <trkpt lat="44.15617" lon="1.75062">
        <ele>237.1</ele>
        <time>2026-05-20T14:16:39Z</time>
      </trkpt>
      <trkpt lat="44.1561" lon="1.75063">
        <ele>234.7</ele>
        <time>2026-05-20T14:16:50Z</time>
      </trkpt>
      <trkpt lat="44.15598" lon="1.75064">
        <ele>230.85</ele>
        <time>2026-05-20T14:17:05Z</time>
      </trkpt>
      <trkpt lat="44.15593" lon="1.75065">
        <ele>229.41</ele>
        <time>2026-05-20T14:17:12Z</time>
      </trkpt>
      <trkpt lat="44.15582" lon="1.75062">
        <ele>225.57</ele>
        <time>2026-05-20T14:17:25Z</time>
      </trkpt>
      <trkpt lat="44.15572" lon="1.75059">
        <ele>222.68</ele>
        <time>2026-05-20T14:17:38Z</time>
      </trkpt>
      <trkpt lat="44.15562" lon="1.75061">
        <ele>219.8</ele>
        <time>2026-05-20T14:17:49Z</time>
      </trkpt>
      <trkpt lat="44.15559" lon="1.7506">
        <ele>219.32</ele>
        <time>2026-05-20T14:17:52Z</time>
      </trkpt>
      <trkpt lat="44.15557" lon="1.75061">
        <ele>218.84</ele>
        <time>2026-05-20T14:17:55Z</time>
      </trkpt>
      <trkpt lat="44.15549" lon="1.75056">
        <ele>216.43</ele>
        <time>2026-05-20T14:18:04Z</time>
      </trkpt>
      <trkpt lat="44.15546" lon="1.75052">
        <ele>215.47</ele>
        <time>2026-05-20T14:18:09Z</time>
      </trkpt>
      <trkpt lat="44.15533" lon="1.75046">
        <ele>211.15</ele>
        <time>2026-05-20T14:18:24Z</time>
      </trkpt>
      <trkpt lat="44.15525" lon="1.75046">
        <ele>209.22</ele>
        <time>2026-05-20T14:18:34Z</time>
      </trkpt>
      <trkpt lat="44.15513" lon="1.75049">
        <ele>205.86</ele>
        <time>2026-05-20T14:18:46Z</time>
      </trkpt>
      <trkpt lat="44.1551" lon="1.75047">
        <ele>204.9</ele>
        <time>2026-05-20T14:18:50Z</time>
      </trkpt>
      <trkpt lat="44.15498" lon="1.75037">
        <ele>202.49</ele>
        <time>2026-05-20T14:19:03Z</time>
      </trkpt>
      <trkpt lat="44.15494" lon="1.75032">
        <ele>201.05</ele>
        <time>2026-05-20T14:19:10Z</time>
      </trkpt>
      <trkpt lat="44.1549" lon="1.75028">
        <ele>199.61</ele>
        <time>2026-05-20T14:19:16Z</time>
      </trkpt>
      <trkpt lat="44.15478" lon="1.75019">
        <ele>196.25</ele>
        <time>2026-05-20T14:19:30Z</time>
      </trkpt>
      <trkpt lat="44.15468" lon="1.75012">
        <ele>193.36</ele>
        <time>2026-05-20T14:19:43Z</time>
      </trkpt>
      <trkpt lat="44.15455" lon="1.75004">
        <ele>190</ele>
        <time>2026-05-20T14:19:55Z</time>
      </trkpt>
      <trkpt lat="44.15451" lon="1.75001">
        <ele>189.52</ele>
        <time>2026-05-20T14:20:00Z</time>
      </trkpt>
      <trkpt lat="44.15447" lon="1.74998">
        <ele>187.59</ele>
        <time>2026-05-20T14:20:16Z</time>
      </trkpt>
      <trkpt lat="44.1544" lon="1.74997">
        <ele>186.15</ele>
        <time>2026-05-20T14:20:32Z</time>
      </trkpt>
      <trkpt lat="44.15429" lon="1.7499">
        <ele>183.27</ele>
        <time>2026-05-20T14:20:44Z</time>
      </trkpt>
      <trkpt lat="44.15417" lon="1.74982">
        <ele>180.38</ele>
        <time>2026-05-20T14:20:58Z</time>
      </trkpt>
      <trkpt lat="44.15409" lon="1.74976">
        <ele>177.02</ele>
        <time>2026-05-20T14:21:07Z</time>
      </trkpt>
      <trkpt lat="44.15397" lon="1.74971">
        <ele>173.17</ele>
        <time>2026-05-20T14:21:19Z</time>
      </trkpt>
      <trkpt lat="44.15395" lon="1.74969">
        <ele>173.66</ele>
        <time>2026-05-20T14:21:21Z</time>
      </trkpt>
      <trkpt lat="44.1539" lon="1.74967">
        <ele>171.73</ele>
        <time>2026-05-20T14:21:27Z</time>
      </trkpt>
      <trkpt lat="44.15379" lon="1.7496">
        <ele>167.89</ele>
        <time>2026-05-20T14:21:40Z</time>
      </trkpt>
      <trkpt lat="44.1537" lon="1.74956">
        <ele>164.52</ele>
        <time>2026-05-20T14:21:51Z</time>
      </trkpt>
      <trkpt lat="44.1536" lon="1.7495">
        <ele>161.16</ele>
        <time>2026-05-20T14:22:05Z</time>
      </trkpt>
      <trkpt lat="44.15351" lon="1.74943">
        <ele>157.79</ele>
        <time>2026-05-20T14:22:19Z</time>
      </trkpt>
      <trkpt lat="44.15342" lon="1.74949">
        <ele>156.35</ele>
        <time>2026-05-20T14:22:34Z</time>
      </trkpt>
      <trkpt lat="44.15342" lon="1.7496">
        <ele>154.43</ele>
        <time>2026-05-20T14:22:45Z</time>
      </trkpt>
      <trkpt lat="44.15345" lon="1.74978">
        <ele>152.03</ele>
        <time>2026-05-20T14:22:57Z</time>
      </trkpt>
      <trkpt lat="44.15344" lon="1.7498">
        <ele>151.54</ele>
        <time>2026-05-20T14:22:59Z</time>
      </trkpt>
      <trkpt lat="44.15343" lon="1.74994">
        <ele>149.62</ele>
        <time>2026-05-20T14:23:08Z</time>
      </trkpt>
      <trkpt lat="44.15345" lon="1.75013">
        <ele>146.26</ele>
        <time>2026-05-20T14:23:21Z</time>
      </trkpt>
      <trkpt lat="44.15345" lon="1.75015">
        <ele>146.26</ele>
        <time>2026-05-20T14:23:23Z</time>
      </trkpt>
      <trkpt lat="44.15349" lon="1.75035">
        <ele>144.34</ele>
        <time>2026-05-20T14:23:35Z</time>
      </trkpt>
      <trkpt lat="44.15347" lon="1.75046">
        <ele>142.89</ele>
        <time>2026-05-20T14:23:46Z</time>
      </trkpt>
      <trkpt lat="44.15345" lon="1.7506">
        <ele>141.45</ele>
        <time>2026-05-20T14:23:55Z</time>
      </trkpt>
      <trkpt lat="44.15345" lon="1.75064">
        <ele>142.89</ele>
        <time>2026-05-20T14:23:57Z</time>
      </trkpt>
      <trkpt lat="44.15346" lon="1.75072">
        <ele>141.45</ele>
        <time>2026-05-20T14:24:02Z</time>
      </trkpt>
      <trkpt lat="44.15346" lon="1.75076">
        <ele>140.97</ele>
        <time>2026-05-20T14:24:16Z</time>
      </trkpt>
      <trkpt lat="44.15347" lon="1.75076">
        <ele>140.97</ele>
        <time>2026-05-20T14:24:17Z</time>
      </trkpt>
      <trkpt lat="44.15347" lon="1.7508">
        <ele>140.97</ele>
        <time>2026-05-20T14:24:20Z</time>
      </trkpt>
      <trkpt lat="44.1535" lon="1.75108">
        <ele>140.01</ele>
        <time>2026-05-20T14:24:37Z</time>
      </trkpt>
      <trkpt lat="44.15354" lon="1.75136">
        <ele>138.57</ele>
        <time>2026-05-20T14:24:52Z</time>
      </trkpt>
      <trkpt lat="44.15354" lon="1.75148">
        <ele>138.09</ele>
        <time>2026-05-20T14:25:01Z</time>
      </trkpt>
      <trkpt lat="44.15355" lon="1.75152">
        <ele>138.09</ele>
        <time>2026-05-20T14:25:04Z</time>
      </trkpt>
      <trkpt lat="44.15359" lon="1.75177">
        <ele>137.13</ele>
        <time>2026-05-20T14:25:18Z</time>
      </trkpt>
      <trkpt lat="44.15356" lon="1.75195">
        <ele>135.68</ele>
        <time>2026-05-20T14:25:29Z</time>
      </trkpt>
      <trkpt lat="44.1535" lon="1.7521">
        <ele>134.72</ele>
        <time>2026-05-20T14:25:40Z</time>
      </trkpt>
      <trkpt lat="44.15346" lon="1.75223">
        <ele>134.24</ele>
        <time>2026-05-20T14:25:48Z</time>
      </trkpt>
      <trkpt lat="44.15343" lon="1.75226">
        <ele>134.24</ele>
        <time>2026-05-20T14:25:53Z</time>
      </trkpt>
      <trkpt lat="44.15338" lon="1.75229">
        <ele>133.76</ele>
        <time>2026-05-20T14:26:11Z</time>
      </trkpt>
      <trkpt lat="44.15338" lon="1.7523">
        <ele>133.28</ele>
        <time>2026-05-20T14:26:53Z</time>
      </trkpt>
      <trkpt lat="44.15336" lon="1.7523">
        <ele>133.28</ele>
        <time>2026-05-20T14:27:36Z</time>
      </trkpt>
      <trkpt lat="44.15341" lon="1.75228">
        <ele>132.8</ele>
        <time>2026-05-20T14:28:19Z</time>
      </trkpt>
      <trkpt lat="44.15335" lon="1.75231">
        <ele>132.8</ele>
        <time>2026-05-20T14:28:44Z</time>
      </trkpt>
      <trkpt lat="44.15335" lon="1.75232">
        <ele>133.76</ele>
        <time>2026-05-20T14:28:57Z</time>
      </trkpt>
      <trkpt lat="44.15336" lon="1.75232">
        <ele>133.76</ele>
        <time>2026-05-20T14:29:00Z</time>
      </trkpt>
      <trkpt lat="44.15341" lon="1.75228">
        <ele>133.76</ele>
        <time>2026-05-20T14:29:05Z</time>
      </trkpt>
      <trkpt lat="44.15343" lon="1.7523">
        <ele>133.76</ele>
        <time>2026-05-20T14:29:08Z</time>
      </trkpt>
      <trkpt lat="44.15345" lon="1.75235">
        <ele>133.76</ele>
        <time>2026-05-20T14:29:11Z</time>
      </trkpt>
      <trkpt lat="44.15342" lon="1.75269">
        <ele>133.76</ele>
        <time>2026-05-20T14:29:31Z</time>
      </trkpt>
      <trkpt lat="44.15339" lon="1.7529">
        <ele>132.8</ele>
        <time>2026-05-20T14:29:45Z</time>
      </trkpt>
      <trkpt lat="44.15338" lon="1.75322">
        <ele>132.32</ele>
        <time>2026-05-20T14:30:01Z</time>
      </trkpt>
      <trkpt lat="44.15334" lon="1.75346">
        <ele>132.32</ele>
        <time>2026-05-20T14:30:15Z</time>
      </trkpt>
      <trkpt lat="44.15333" lon="1.7536">
        <ele>132.32</ele>
        <time>2026-05-20T14:30:27Z</time>
      </trkpt>
      <trkpt lat="44.15328" lon="1.75376">
        <ele>132.32</ele>
        <time>2026-05-20T14:30:38Z</time>
      </trkpt>
      <trkpt lat="44.15323" lon="1.75391">
        <ele>132.32</ele>
        <time>2026-05-20T14:30:50Z</time>
      </trkpt>
      <trkpt lat="44.15326" lon="1.7541">
        <ele>131.84</ele>
        <time>2026-05-20T14:31:03Z</time>
      </trkpt>
      <trkpt lat="44.15323" lon="1.75417">
        <ele>131.84</ele>
        <time>2026-05-20T14:31:09Z</time>
      </trkpt>
      <trkpt lat="44.15323" lon="1.75425">
        <ele>131.84</ele>
        <time>2026-05-20T14:31:22Z</time>
      </trkpt>
      <trkpt lat="44.15328" lon="1.7542">
        <ele>131.84</ele>
        <time>2026-05-20T14:31:27Z</time>
      </trkpt>
      <trkpt lat="44.1533" lon="1.75407">
        <ele>131.84</ele>
        <time>2026-05-20T14:31:33Z</time>
      </trkpt>
      <trkpt lat="44.15331" lon="1.75403">
        <ele>131.84</ele>
        <time>2026-05-20T14:31:36Z</time>
      </trkpt>
      <trkpt lat="44.15333" lon="1.75397">
        <ele>131.84</ele>
        <time>2026-05-20T14:31:40Z</time>
      </trkpt>
      <trkpt lat="44.1534" lon="1.75373">
        <ele>131.84</ele>
        <time>2026-05-20T14:31:55Z</time>
      </trkpt>
      <trkpt lat="44.15339" lon="1.75372">
        <ele>131.84</ele>
        <time>2026-05-20T14:31:56Z</time>
      </trkpt>
      <trkpt lat="44.1534" lon="1.75364">
        <ele>131.84</ele>
        <time>2026-05-20T14:32:01Z</time>
      </trkpt>
      <trkpt lat="44.15337" lon="1.75354">
        <ele>131.84</ele>
        <time>2026-05-20T14:32:08Z</time>
      </trkpt>
      <trkpt lat="44.15328" lon="1.75348">
        <ele>131.84</ele>
        <time>2026-05-20T14:32:13Z</time>
      </trkpt>
      <trkpt lat="44.15314" lon="1.75337">
        <ele>131.36</ele>
        <time>2026-05-20T14:32:27Z</time>
      </trkpt>
      <trkpt lat="44.15313" lon="1.75337">
        <ele>131.36</ele>
        <time>2026-05-20T14:32:28Z</time>
      </trkpt>
      <trkpt lat="44.15294" lon="1.75323">
        <ele>130.88</ele>
        <time>2026-05-20T14:32:43Z</time>
      </trkpt>
      <trkpt lat="44.15271" lon="1.75313">
        <ele>130.4</ele>
        <time>2026-05-20T14:32:59Z</time>
      </trkpt>
      <trkpt lat="44.15257" lon="1.75301">
        <ele>130.4</ele>
        <time>2026-05-20T14:33:12Z</time>
      </trkpt>
      <trkpt lat="44.15256" lon="1.753">
        <ele>130.4</ele>
        <time>2026-05-20T14:33:13Z</time>
      </trkpt>
      <trkpt lat="44.15255" lon="1.75314">
        <ele>131.84</ele>
        <time>2026-05-20T14:33:21Z</time>
      </trkpt>
      <trkpt lat="44.15252" lon="1.75327">
        <ele>131.84</ele>
        <time>2026-05-20T14:33:33Z</time>
      </trkpt>
      <trkpt lat="44.15249" lon="1.75327">
        <ele>131.84</ele>
        <time>2026-05-20T14:33:49Z</time>
      </trkpt>
      <trkpt lat="44.15251" lon="1.75325">
        <ele>131.84</ele>
        <time>2026-05-20T14:33:59Z</time>
      </trkpt>
      <trkpt lat="44.15253" lon="1.75297">
        <ele>131.84</ele>
        <time>2026-05-20T14:34:16Z</time>
      </trkpt>
      <trkpt lat="44.1525" lon="1.7529">
        <ele>130.88</ele>
        <time>2026-05-20T14:34:21Z</time>
      </trkpt>
      <trkpt lat="44.15252" lon="1.75291">
        <ele>130.88</ele>
        <time>2026-05-20T14:34:35Z</time>
      </trkpt>
      <trkpt lat="44.15252" lon="1.75288">
        <ele>130.88</ele>
        <time>2026-05-20T14:34:44Z</time>
      </trkpt>
      <trkpt lat="44.15242" lon="1.7528">
        <ele>130.88</ele>
        <time>2026-05-20T14:34:53Z</time>
      </trkpt>
      <trkpt lat="44.15236" lon="1.75258">
        <ele>130.88</ele>
        <time>2026-05-20T14:35:09Z</time>
      </trkpt>
      <trkpt lat="44.15232" lon="1.75232">
        <ele>130.88</ele>
        <time>2026-05-20T14:35:25Z</time>
      </trkpt>
      <trkpt lat="44.15237" lon="1.75215">
        <ele>130.88</ele>
        <time>2026-05-20T14:35:37Z</time>
      </trkpt>
      <trkpt lat="44.15237" lon="1.75209">
        <ele>130.88</ele>
        <time>2026-05-20T14:35:42Z</time>
      </trkpt>
      <trkpt lat="44.15211" lon="1.7519">
        <ele>130.88</ele>
        <time>2026-05-20T14:35:56Z</time>
      </trkpt>
      <trkpt lat="44.15196" lon="1.75173">
        <ele>130.88</ele>
        <time>2026-05-20T14:36:12Z</time>
      </trkpt>
      <trkpt lat="44.15193" lon="1.75167">
        <ele>130.88</ele>
        <time>2026-05-20T14:36:24Z</time>
      </trkpt>
      <trkpt lat="44.15185" lon="1.7515">
        <ele>131.84</ele>
        <time>2026-05-20T14:36:39Z</time>
      </trkpt>
      <trkpt lat="44.15185" lon="1.75149">
        <ele>130.4</ele>
        <time>2026-05-20T14:36:41Z</time>
      </trkpt>
      <trkpt lat="44.15184" lon="1.75146">
        <ele>131.84</ele>
        <time>2026-05-20T14:36:48Z</time>
      </trkpt>
    </trkseg>
  </trk>
</gpx>